<?xml version="1.0" encoding="UTF-8" standalone="no" ?>
<gpx xmlns="http://www.topografix.com/GPX/1/1" xmlns:xsi="http://www.w3.org/2001/XMLSchema-instance" xsi:schemaLocation="http://www.topografix.com/GPX/1/1 http://www.topografix.com/GPX/1/1/gpx.xsd" version="1.1" creator="VisuGPX - https://www.visugpx.com">
  <metadata>
    <name>Foncine le Haut,Chapelle des Bois,Le Creux Maldru</name>
  </metadata>
  <trk>
    <name><![CDATA[Foncine le Haut,Chapelle des Bois,Le Creux Maldru_1]]></name>
    <extensions>
      <line xmlns="http://www.topografix.com/GPX/gpx_style/0/2">
        <color>0000FF</color>
        <width>4</width>
      </line>
    </extensions>
    <trkseg>
      <trkpt lat="46.64597" lon="6.08097">
        <ele>877.8</ele>
        <time>2021-07-09T06:47:06Z</time>
      </trkpt>
      <trkpt lat="46.64594" lon="6.08091">
        <ele>998.9</ele>
        <time>2021-07-09T06:47:21Z</time>
      </trkpt>
      <trkpt lat="46.64591" lon="6.08095">
        <ele>1007.3</ele>
        <time>2021-07-09T06:47:30Z</time>
      </trkpt>
      <trkpt lat="46.64587" lon="6.08101">
        <ele>1009</ele>
        <time>2021-07-09T06:47:37Z</time>
      </trkpt>
      <trkpt lat="46.64585" lon="6.08108">
        <ele>1009.2</ele>
        <time>2021-07-09T06:47:42Z</time>
      </trkpt>
      <trkpt lat="46.64583" lon="6.08114">
        <ele>1009.6</ele>
        <time>2021-07-09T06:47:48Z</time>
      </trkpt>
      <trkpt lat="46.6458" lon="6.0812">
        <ele>1009.4</ele>
        <time>2021-07-09T06:47:53Z</time>
      </trkpt>
      <trkpt lat="46.64578" lon="6.08126">
        <ele>1009</ele>
        <time>2021-07-09T06:47:57Z</time>
      </trkpt>
      <trkpt lat="46.64575" lon="6.08132">
        <ele>1009.3</ele>
        <time>2021-07-09T06:48:03Z</time>
      </trkpt>
      <trkpt lat="46.64571" lon="6.08137">
        <ele>1010.3</ele>
        <time>2021-07-09T06:48:10Z</time>
      </trkpt>
      <trkpt lat="46.64568" lon="6.08142">
        <ele>1011.2</ele>
        <time>2021-07-09T06:48:16Z</time>
      </trkpt>
      <trkpt lat="46.64565" lon="6.08148">
        <ele>1012.3</ele>
        <time>2021-07-09T06:48:20Z</time>
      </trkpt>
      <trkpt lat="46.64562" lon="6.08154">
        <ele>1013.3</ele>
        <time>2021-07-09T06:48:26Z</time>
      </trkpt>
      <trkpt lat="46.64559" lon="6.0816">
        <ele>1014</ele>
        <time>2021-07-09T06:48:30Z</time>
      </trkpt>
      <trkpt lat="46.64556" lon="6.08165">
        <ele>1014.2</ele>
        <time>2021-07-09T06:48:35Z</time>
      </trkpt>
      <trkpt lat="46.64552" lon="6.0817">
        <ele>1013.7</ele>
        <time>2021-07-09T06:48:41Z</time>
      </trkpt>
      <trkpt lat="46.64548" lon="6.08173">
        <ele>1013</ele>
        <time>2021-07-09T06:48:47Z</time>
      </trkpt>
      <trkpt lat="46.64543" lon="6.08177">
        <ele>1011.8</ele>
        <time>2021-07-09T06:48:53Z</time>
      </trkpt>
      <trkpt lat="46.64541" lon="6.08183">
        <ele>1013.4</ele>
        <time>2021-07-09T06:49:04Z</time>
      </trkpt>
      <trkpt lat="46.64541" lon="6.08191">
        <ele>1018.5</ele>
        <time>2021-07-09T06:49:24Z</time>
      </trkpt>
      <trkpt lat="46.64544" lon="6.08197">
        <ele>1018.9</ele>
        <time>2021-07-09T06:49:30Z</time>
      </trkpt>
      <trkpt lat="46.64547" lon="6.08202">
        <ele>1020</ele>
        <time>2021-07-09T06:49:35Z</time>
      </trkpt>
      <trkpt lat="46.64549" lon="6.08208">
        <ele>1021.6</ele>
        <time>2021-07-09T06:49:41Z</time>
      </trkpt>
      <trkpt lat="46.64553" lon="6.08212">
        <ele>1023.2</ele>
        <time>2021-07-09T06:49:47Z</time>
      </trkpt>
      <trkpt lat="46.64557" lon="6.08218">
        <ele>1024.5</ele>
        <time>2021-07-09T06:49:53Z</time>
      </trkpt>
      <trkpt lat="46.6456" lon="6.08223">
        <ele>1025.2</ele>
        <time>2021-07-09T06:49:58Z</time>
      </trkpt>
      <trkpt lat="46.64564" lon="6.08227">
        <ele>1025.7</ele>
        <time>2021-07-09T06:50:03Z</time>
      </trkpt>
      <trkpt lat="46.64568" lon="6.08232">
        <ele>1026.2</ele>
        <time>2021-07-09T06:50:08Z</time>
      </trkpt>
      <trkpt lat="46.6457" lon="6.08238">
        <ele>1026</ele>
        <time>2021-07-09T06:50:14Z</time>
      </trkpt>
      <trkpt lat="46.64572" lon="6.08245">
        <ele>1026.3</ele>
        <time>2021-07-09T06:50:20Z</time>
      </trkpt>
      <trkpt lat="46.64575" lon="6.0825">
        <ele>1026.6</ele>
        <time>2021-07-09T06:50:25Z</time>
      </trkpt>
      <trkpt lat="46.6458" lon="6.08254">
        <ele>1026.1</ele>
        <time>2021-07-09T06:50:30Z</time>
      </trkpt>
      <trkpt lat="46.64584" lon="6.08259">
        <ele>1025.8</ele>
        <time>2021-07-09T06:50:35Z</time>
      </trkpt>
      <trkpt lat="46.64586" lon="6.08265">
        <ele>1026</ele>
        <time>2021-07-09T06:50:41Z</time>
      </trkpt>
      <trkpt lat="46.64589" lon="6.08271">
        <ele>1027.4</ele>
        <time>2021-07-09T06:50:47Z</time>
      </trkpt>
      <trkpt lat="46.64591" lon="6.08278">
        <ele>1028.9</ele>
        <time>2021-07-09T06:50:54Z</time>
      </trkpt>
      <trkpt lat="46.64594" lon="6.08284">
        <ele>1029</ele>
        <time>2021-07-09T06:50:59Z</time>
      </trkpt>
      <trkpt lat="46.64596" lon="6.08291">
        <ele>1028.1</ele>
        <time>2021-07-09T06:51:05Z</time>
      </trkpt>
      <trkpt lat="46.64595" lon="6.08297">
        <ele>1027.6</ele>
        <time>2021-07-09T06:51:12Z</time>
      </trkpt>
      <trkpt lat="46.6459" lon="6.08299">
        <ele>1028.3</ele>
        <time>2021-07-09T06:51:34Z</time>
      </trkpt>
      <trkpt lat="46.64586" lon="6.083">
        <ele>1029</ele>
        <time>2021-07-09T06:51:40Z</time>
      </trkpt>
      <trkpt lat="46.64581" lon="6.08298">
        <ele>1030</ele>
        <time>2021-07-09T06:51:45Z</time>
      </trkpt>
      <trkpt lat="46.64575" lon="6.08297">
        <ele>1030.9</ele>
        <time>2021-07-09T06:51:50Z</time>
      </trkpt>
      <trkpt lat="46.64571" lon="6.08297">
        <ele>1032</ele>
        <time>2021-07-09T06:51:55Z</time>
      </trkpt>
      <trkpt lat="46.64566" lon="6.08297">
        <ele>1033.2</ele>
        <time>2021-07-09T06:52:00Z</time>
      </trkpt>
      <trkpt lat="46.64563" lon="6.08291">
        <ele>1034.1</ele>
        <time>2021-07-09T06:52:05Z</time>
      </trkpt>
      <trkpt lat="46.64558" lon="6.08289">
        <ele>1037.2</ele>
        <time>2021-07-09T06:52:15Z</time>
      </trkpt>
      <trkpt lat="46.64557" lon="6.08283">
        <ele>1039.6</ele>
        <time>2021-07-09T06:52:25Z</time>
      </trkpt>
      <trkpt lat="46.64552" lon="6.08279">
        <ele>1040.1</ele>
        <time>2021-07-09T06:52:46Z</time>
      </trkpt>
      <trkpt lat="46.64548" lon="6.08276">
        <ele>1039.2</ele>
        <time>2021-07-09T06:52:52Z</time>
      </trkpt>
      <trkpt lat="46.64542" lon="6.08275">
        <ele>1038.5</ele>
        <time>2021-07-09T06:52:59Z</time>
      </trkpt>
      <trkpt lat="46.64538" lon="6.08275">
        <ele>1037.9</ele>
        <time>2021-07-09T06:53:04Z</time>
      </trkpt>
      <trkpt lat="46.64534" lon="6.08272">
        <ele>1038.3</ele>
        <time>2021-07-09T06:53:11Z</time>
      </trkpt>
      <trkpt lat="46.64529" lon="6.0827">
        <ele>1037.7</ele>
        <time>2021-07-09T06:53:19Z</time>
      </trkpt>
      <trkpt lat="46.64525" lon="6.08267">
        <ele>1037.5</ele>
        <time>2021-07-09T06:53:25Z</time>
      </trkpt>
      <trkpt lat="46.6452" lon="6.08266">
        <ele>1037.6</ele>
        <time>2021-07-09T06:53:30Z</time>
      </trkpt>
      <trkpt lat="46.64515" lon="6.08268">
        <ele>1037.5</ele>
        <time>2021-07-09T06:53:35Z</time>
      </trkpt>
      <trkpt lat="46.64511" lon="6.0827">
        <ele>1037.3</ele>
        <time>2021-07-09T06:53:42Z</time>
      </trkpt>
      <trkpt lat="46.64506" lon="6.08267">
        <ele>1037.3</ele>
        <time>2021-07-09T06:53:48Z</time>
      </trkpt>
      <trkpt lat="46.64502" lon="6.08265">
        <ele>1037.3</ele>
        <time>2021-07-09T06:53:56Z</time>
      </trkpt>
      <trkpt lat="46.64498" lon="6.08261">
        <ele>1038.2</ele>
        <time>2021-07-09T06:54:01Z</time>
      </trkpt>
      <trkpt lat="46.64495" lon="6.08255">
        <ele>1039.6</ele>
        <time>2021-07-09T06:54:07Z</time>
      </trkpt>
      <trkpt lat="46.64491" lon="6.08251">
        <ele>1042.5</ele>
        <time>2021-07-09T06:54:13Z</time>
      </trkpt>
      <trkpt lat="46.64488" lon="6.08247">
        <ele>1044.6</ele>
        <time>2021-07-09T06:54:17Z</time>
      </trkpt>
      <trkpt lat="46.64483" lon="6.08245">
        <ele>1048.6</ele>
        <time>2021-07-09T06:54:31Z</time>
      </trkpt>
      <trkpt lat="46.64479" lon="6.08243">
        <ele>1049.7</ele>
        <time>2021-07-09T06:54:37Z</time>
      </trkpt>
      <trkpt lat="46.64475" lon="6.08248">
        <ele>1051.3</ele>
        <time>2021-07-09T06:54:49Z</time>
      </trkpt>
      <trkpt lat="46.6447" lon="6.08248">
        <ele>1051.8</ele>
        <time>2021-07-09T06:54:54Z</time>
      </trkpt>
      <trkpt lat="46.64465" lon="6.08245">
        <ele>1053.4</ele>
        <time>2021-07-09T06:55:05Z</time>
      </trkpt>
      <trkpt lat="46.64462" lon="6.0824">
        <ele>1054.9</ele>
        <time>2021-07-09T06:55:11Z</time>
      </trkpt>
      <trkpt lat="46.64457" lon="6.08238">
        <ele>1056</ele>
        <time>2021-07-09T06:55:15Z</time>
      </trkpt>
      <trkpt lat="46.64452" lon="6.08236">
        <ele>1057.3</ele>
        <time>2021-07-09T06:55:21Z</time>
      </trkpt>
      <trkpt lat="46.64448" lon="6.08232">
        <ele>1058</ele>
        <time>2021-07-09T06:55:26Z</time>
      </trkpt>
      <trkpt lat="46.64444" lon="6.08228">
        <ele>1058.9</ele>
        <time>2021-07-09T06:55:33Z</time>
      </trkpt>
      <trkpt lat="46.6444" lon="6.08225">
        <ele>1059.9</ele>
        <time>2021-07-09T06:55:39Z</time>
      </trkpt>
      <trkpt lat="46.64435" lon="6.08228">
        <ele>1062.3</ele>
        <time>2021-07-09T06:55:51Z</time>
      </trkpt>
      <trkpt lat="46.6443" lon="6.08229">
        <ele>1063.2</ele>
        <time>2021-07-09T06:55:59Z</time>
      </trkpt>
      <trkpt lat="46.64425" lon="6.0823">
        <ele>1062.8</ele>
        <time>2021-07-09T06:56:04Z</time>
      </trkpt>
      <trkpt lat="46.6442" lon="6.08227">
        <ele>1062.4</ele>
        <time>2021-07-09T06:56:09Z</time>
      </trkpt>
      <trkpt lat="46.64414" lon="6.08227">
        <ele>1061.9</ele>
        <time>2021-07-09T06:56:15Z</time>
      </trkpt>
      <trkpt lat="46.6441" lon="6.0823">
        <ele>1060.9</ele>
        <time>2021-07-09T06:56:21Z</time>
      </trkpt>
      <trkpt lat="46.64406" lon="6.08231">
        <ele>1062.8</ele>
        <time>2021-07-09T06:56:37Z</time>
      </trkpt>
      <trkpt lat="46.64402" lon="6.08236">
        <ele>1065.6</ele>
        <time>2021-07-09T06:56:47Z</time>
      </trkpt>
      <trkpt lat="46.644" lon="6.08243">
        <ele>1067.2</ele>
        <time>2021-07-09T06:56:59Z</time>
      </trkpt>
      <trkpt lat="46.64396" lon="6.08238">
        <ele>1067.2</ele>
        <time>2021-07-09T06:57:10Z</time>
      </trkpt>
      <trkpt lat="46.64393" lon="6.08233">
        <ele>1067.6</ele>
        <time>2021-07-09T06:57:19Z</time>
      </trkpt>
      <trkpt lat="46.64389" lon="6.08229">
        <ele>1067.9</ele>
        <time>2021-07-09T06:57:24Z</time>
      </trkpt>
      <trkpt lat="46.64385" lon="6.08226">
        <ele>1068.2</ele>
        <time>2021-07-09T06:57:28Z</time>
      </trkpt>
      <trkpt lat="46.64379" lon="6.08224">
        <ele>1068.5</ele>
        <time>2021-07-09T06:57:32Z</time>
      </trkpt>
      <trkpt lat="46.64374" lon="6.08221">
        <ele>1068.9</ele>
        <time>2021-07-09T06:57:36Z</time>
      </trkpt>
      <trkpt lat="46.64369" lon="6.08217">
        <ele>1069.2</ele>
        <time>2021-07-09T06:57:41Z</time>
      </trkpt>
      <trkpt lat="46.64364" lon="6.08216">
        <ele>1069.3</ele>
        <time>2021-07-09T06:57:46Z</time>
      </trkpt>
      <trkpt lat="46.64359" lon="6.08214">
        <ele>1068.6</ele>
        <time>2021-07-09T06:57:53Z</time>
      </trkpt>
      <trkpt lat="46.64356" lon="6.08209">
        <ele>1067.7</ele>
        <time>2021-07-09T06:57:57Z</time>
      </trkpt>
      <trkpt lat="46.64352" lon="6.08204">
        <ele>1067.1</ele>
        <time>2021-07-09T06:58:02Z</time>
      </trkpt>
      <trkpt lat="46.64349" lon="6.08199">
        <ele>1066.7</ele>
        <time>2021-07-09T06:58:07Z</time>
      </trkpt>
      <trkpt lat="46.64347" lon="6.08192">
        <ele>1068</ele>
        <time>2021-07-09T06:58:14Z</time>
      </trkpt>
      <trkpt lat="46.64346" lon="6.08185">
        <ele>1069.6</ele>
        <time>2021-07-09T06:58:20Z</time>
      </trkpt>
      <trkpt lat="46.64344" lon="6.08179">
        <ele>1071.1</ele>
        <time>2021-07-09T06:58:26Z</time>
      </trkpt>
      <trkpt lat="46.6434" lon="6.08176">
        <ele>1073</ele>
        <time>2021-07-09T06:58:35Z</time>
      </trkpt>
      <trkpt lat="46.64336" lon="6.08172">
        <ele>1072.9</ele>
        <time>2021-07-09T06:58:41Z</time>
      </trkpt>
      <trkpt lat="46.64331" lon="6.08172">
        <ele>1070.8</ele>
        <time>2021-07-09T06:58:50Z</time>
      </trkpt>
      <trkpt lat="46.64327" lon="6.08168">
        <ele>1069</ele>
        <time>2021-07-09T06:58:58Z</time>
      </trkpt>
      <trkpt lat="46.64322" lon="6.08168">
        <ele>1067.9</ele>
        <time>2021-07-09T06:59:06Z</time>
      </trkpt>
      <trkpt lat="46.64317" lon="6.08163">
        <ele>1067.7</ele>
        <time>2021-07-09T06:59:10Z</time>
      </trkpt>
      <trkpt lat="46.64314" lon="6.08154">
        <ele>1067.7</ele>
        <time>2021-07-09T06:59:14Z</time>
      </trkpt>
      <trkpt lat="46.64313" lon="6.08145">
        <ele>1068.6</ele>
        <time>2021-07-09T06:59:18Z</time>
      </trkpt>
      <trkpt lat="46.64311" lon="6.08138">
        <ele>1071.2</ele>
        <time>2021-07-09T06:59:24Z</time>
      </trkpt>
      <trkpt lat="46.6431" lon="6.08132">
        <ele>1073</ele>
        <time>2021-07-09T06:59:30Z</time>
      </trkpt>
      <trkpt lat="46.64309" lon="6.08125">
        <ele>1073.6</ele>
        <time>2021-07-09T06:59:43Z</time>
      </trkpt>
      <trkpt lat="46.64305" lon="6.0812">
        <ele>1069.3</ele>
        <time>2021-07-09T06:59:58Z</time>
      </trkpt>
      <trkpt lat="46.64301" lon="6.08117">
        <ele>1067.5</ele>
        <time>2021-07-09T07:00:04Z</time>
      </trkpt>
      <trkpt lat="46.64297" lon="6.08113">
        <ele>1065.8</ele>
        <time>2021-07-09T07:00:10Z</time>
      </trkpt>
      <trkpt lat="46.64292" lon="6.08108">
        <ele>1063.9</ele>
        <time>2021-07-09T07:00:17Z</time>
      </trkpt>
      <trkpt lat="46.64289" lon="6.08102">
        <ele>1062.8</ele>
        <time>2021-07-09T07:00:22Z</time>
      </trkpt>
      <trkpt lat="46.64287" lon="6.08096">
        <ele>1061.7</ele>
        <time>2021-07-09T07:00:29Z</time>
      </trkpt>
      <trkpt lat="46.64286" lon="6.08089">
        <ele>1060.9</ele>
        <time>2021-07-09T07:00:35Z</time>
      </trkpt>
      <trkpt lat="46.64284" lon="6.08082">
        <ele>1060.2</ele>
        <time>2021-07-09T07:00:39Z</time>
      </trkpt>
      <trkpt lat="46.64281" lon="6.08076">
        <ele>1060.1</ele>
        <time>2021-07-09T07:00:45Z</time>
      </trkpt>
      <trkpt lat="46.64279" lon="6.08068">
        <ele>1060.3</ele>
        <time>2021-07-09T07:00:49Z</time>
      </trkpt>
      <trkpt lat="46.64275" lon="6.08063">
        <ele>1061.5</ele>
        <time>2021-07-09T07:00:56Z</time>
      </trkpt>
      <trkpt lat="46.64274" lon="6.08056">
        <ele>1062.4</ele>
        <time>2021-07-09T07:01:00Z</time>
      </trkpt>
      <trkpt lat="46.64274" lon="6.08048">
        <ele>1062.8</ele>
        <time>2021-07-09T07:01:04Z</time>
      </trkpt>
      <trkpt lat="46.64272" lon="6.08041">
        <ele>1062.4</ele>
        <time>2021-07-09T07:01:08Z</time>
      </trkpt>
      <trkpt lat="46.64271" lon="6.08034">
        <ele>1061.5</ele>
        <time>2021-07-09T07:01:14Z</time>
      </trkpt>
      <trkpt lat="46.64268" lon="6.0803">
        <ele>1061.8</ele>
        <time>2021-07-09T07:01:20Z</time>
      </trkpt>
      <trkpt lat="46.64263" lon="6.08029">
        <ele>1061.9</ele>
        <time>2021-07-09T07:01:25Z</time>
      </trkpt>
      <trkpt lat="46.64261" lon="6.08023">
        <ele>1059.9</ele>
        <time>2021-07-09T07:01:34Z</time>
      </trkpt>
      <trkpt lat="46.64257" lon="6.08018">
        <ele>1056.9</ele>
        <time>2021-07-09T07:01:45Z</time>
      </trkpt>
      <trkpt lat="46.64254" lon="6.08012">
        <ele>1055.9</ele>
        <time>2021-07-09T07:01:51Z</time>
      </trkpt>
      <trkpt lat="46.64252" lon="6.08005">
        <ele>1055.1</ele>
        <time>2021-07-09T07:01:56Z</time>
      </trkpt>
      <trkpt lat="46.64251" lon="6.07998">
        <ele>1054.5</ele>
        <time>2021-07-09T07:02:03Z</time>
      </trkpt>
      <trkpt lat="46.64249" lon="6.07991">
        <ele>1053.9</ele>
        <time>2021-07-09T07:02:11Z</time>
      </trkpt>
      <trkpt lat="46.64247" lon="6.07985">
        <ele>1053</ele>
        <time>2021-07-09T07:02:16Z</time>
      </trkpt>
      <trkpt lat="46.64244" lon="6.07978">
        <ele>1052.3</ele>
        <time>2021-07-09T07:02:21Z</time>
      </trkpt>
      <trkpt lat="46.64241" lon="6.07972">
        <ele>1051.7</ele>
        <time>2021-07-09T07:02:25Z</time>
      </trkpt>
      <trkpt lat="46.64238" lon="6.07966">
        <ele>1050.7</ele>
        <time>2021-07-09T07:02:32Z</time>
      </trkpt>
      <trkpt lat="46.64236" lon="6.07961">
        <ele>1050.4</ele>
        <time>2021-07-09T07:02:37Z</time>
      </trkpt>
      <trkpt lat="46.64233" lon="6.07954">
        <ele>1049.8</ele>
        <time>2021-07-09T07:02:43Z</time>
      </trkpt>
      <trkpt lat="46.64231" lon="6.07947">
        <ele>1049.8</ele>
        <time>2021-07-09T07:02:51Z</time>
      </trkpt>
      <trkpt lat="46.64227" lon="6.07941">
        <ele>1050.6</ele>
        <time>2021-07-09T07:02:56Z</time>
      </trkpt>
      <trkpt lat="46.64225" lon="6.07935">
        <ele>1051.1</ele>
        <time>2021-07-09T07:03:01Z</time>
      </trkpt>
      <trkpt lat="46.64222" lon="6.07929">
        <ele>1051.3</ele>
        <time>2021-07-09T07:03:06Z</time>
      </trkpt>
      <trkpt lat="46.64219" lon="6.07924">
        <ele>1051.4</ele>
        <time>2021-07-09T07:03:10Z</time>
      </trkpt>
      <trkpt lat="46.64216" lon="6.07917">
        <ele>1051.5</ele>
        <time>2021-07-09T07:03:16Z</time>
      </trkpt>
      <trkpt lat="46.64218" lon="6.07911">
        <ele>1052.3</ele>
        <time>2021-07-09T07:03:23Z</time>
      </trkpt>
      <trkpt lat="46.64217" lon="6.07903">
        <ele>1053.1</ele>
        <time>2021-07-09T07:03:30Z</time>
      </trkpt>
      <trkpt lat="46.64215" lon="6.07896">
        <ele>1053.7</ele>
        <time>2021-07-09T07:03:37Z</time>
      </trkpt>
      <trkpt lat="46.64217" lon="6.07889">
        <ele>1054.3</ele>
        <time>2021-07-09T07:03:44Z</time>
      </trkpt>
      <trkpt lat="46.64217" lon="6.07882">
        <ele>1053.6</ele>
        <time>2021-07-09T07:03:53Z</time>
      </trkpt>
      <trkpt lat="46.64217" lon="6.07874">
        <ele>1052.9</ele>
        <time>2021-07-09T07:03:57Z</time>
      </trkpt>
      <trkpt lat="46.64217" lon="6.07866">
        <ele>1052.6</ele>
        <time>2021-07-09T07:04:01Z</time>
      </trkpt>
      <trkpt lat="46.64215" lon="6.07859">
        <ele>1052.3</ele>
        <time>2021-07-09T07:04:06Z</time>
      </trkpt>
      <trkpt lat="46.64215" lon="6.07852">
        <ele>1051.7</ele>
        <time>2021-07-09T07:04:11Z</time>
      </trkpt>
      <trkpt lat="46.64217" lon="6.07846">
        <ele>1050.6</ele>
        <time>2021-07-09T07:04:16Z</time>
      </trkpt>
      <trkpt lat="46.64217" lon="6.07837">
        <ele>1050.6</ele>
        <time>2021-07-09T07:04:20Z</time>
      </trkpt>
      <trkpt lat="46.64217" lon="6.0783">
        <ele>1050.7</ele>
        <time>2021-07-09T07:04:24Z</time>
      </trkpt>
      <trkpt lat="46.64212" lon="6.07826">
        <ele>1049.9</ele>
        <time>2021-07-09T07:04:30Z</time>
      </trkpt>
      <trkpt lat="46.64207" lon="6.07823">
        <ele>1048.8</ele>
        <time>2021-07-09T07:04:35Z</time>
      </trkpt>
      <trkpt lat="46.64205" lon="6.07818">
        <ele>1047.1</ele>
        <time>2021-07-09T07:04:43Z</time>
      </trkpt>
      <trkpt lat="46.64201" lon="6.07812">
        <ele>1043.8</ele>
        <time>2021-07-09T07:04:59Z</time>
      </trkpt>
      <trkpt lat="46.64198" lon="6.07807">
        <ele>1043</ele>
        <time>2021-07-09T07:05:05Z</time>
      </trkpt>
      <trkpt lat="46.64195" lon="6.07801">
        <ele>1042.2</ele>
        <time>2021-07-09T07:05:13Z</time>
      </trkpt>
      <trkpt lat="46.64191" lon="6.07797">
        <ele>1041.8</ele>
        <time>2021-07-09T07:05:17Z</time>
      </trkpt>
      <trkpt lat="46.64187" lon="6.07791">
        <ele>1041.7</ele>
        <time>2021-07-09T07:05:21Z</time>
      </trkpt>
      <trkpt lat="46.64184" lon="6.07783">
        <ele>1041.3</ele>
        <time>2021-07-09T07:05:25Z</time>
      </trkpt>
      <trkpt lat="46.64179" lon="6.07777">
        <ele>1041.1</ele>
        <time>2021-07-09T07:05:29Z</time>
      </trkpt>
      <trkpt lat="46.64175" lon="6.07773">
        <ele>1040.8</ele>
        <time>2021-07-09T07:05:33Z</time>
      </trkpt>
      <trkpt lat="46.64171" lon="6.07768">
        <ele>1040.5</ele>
        <time>2021-07-09T07:05:38Z</time>
      </trkpt>
      <trkpt lat="46.64167" lon="6.07763">
        <ele>1040.2</ele>
        <time>2021-07-09T07:05:48Z</time>
      </trkpt>
      <trkpt lat="46.64164" lon="6.07757">
        <ele>1040.2</ele>
        <time>2021-07-09T07:05:54Z</time>
      </trkpt>
      <trkpt lat="46.64161" lon="6.07752">
        <ele>1040.1</ele>
        <time>2021-07-09T07:05:58Z</time>
      </trkpt>
      <trkpt lat="46.64156" lon="6.07749">
        <ele>1040</ele>
        <time>2021-07-09T07:06:02Z</time>
      </trkpt>
      <trkpt lat="46.64152" lon="6.07745">
        <ele>1039.7</ele>
        <time>2021-07-09T07:06:07Z</time>
      </trkpt>
      <trkpt lat="46.64148" lon="6.07742">
        <ele>1039</ele>
        <time>2021-07-09T07:06:15Z</time>
      </trkpt>
      <trkpt lat="46.64146" lon="6.07735">
        <ele>1038.8</ele>
        <time>2021-07-09T07:06:19Z</time>
      </trkpt>
      <trkpt lat="46.64143" lon="6.07729">
        <ele>1038.7</ele>
        <time>2021-07-09T07:06:24Z</time>
      </trkpt>
      <trkpt lat="46.64141" lon="6.07721">
        <ele>1038.3</ele>
        <time>2021-07-09T07:06:28Z</time>
      </trkpt>
      <trkpt lat="46.64141" lon="6.07713">
        <ele>1036.2</ele>
        <time>2021-07-09T07:06:40Z</time>
      </trkpt>
      <trkpt lat="46.64135" lon="6.07697">
        <ele>1035.6</ele>
        <time>2021-07-09T07:06:44Z</time>
      </trkpt>
      <trkpt lat="46.6413" lon="6.07685">
        <ele>1035.5</ele>
        <time>2021-07-09T07:06:48Z</time>
      </trkpt>
      <trkpt lat="46.64127" lon="6.07678">
        <ele>1036.1</ele>
        <time>2021-07-09T07:06:52Z</time>
      </trkpt>
      <trkpt lat="46.64124" lon="6.07672">
        <ele>1036.8</ele>
        <time>2021-07-09T07:06:56Z</time>
      </trkpt>
      <trkpt lat="46.6412" lon="6.07668">
        <ele>1037.8</ele>
        <time>2021-07-09T07:07:02Z</time>
      </trkpt>
      <trkpt lat="46.64115" lon="6.07666">
        <ele>1038</ele>
        <time>2021-07-09T07:07:07Z</time>
      </trkpt>
      <trkpt lat="46.64111" lon="6.07661">
        <ele>1038.2</ele>
        <time>2021-07-09T07:07:12Z</time>
      </trkpt>
      <trkpt lat="46.64107" lon="6.07656">
        <ele>1038.4</ele>
        <time>2021-07-09T07:07:18Z</time>
      </trkpt>
      <trkpt lat="46.64103" lon="6.07656">
        <ele>1038.9</ele>
        <time>2021-07-09T07:07:26Z</time>
      </trkpt>
      <trkpt lat="46.64098" lon="6.07655">
        <ele>1039.3</ele>
        <time>2021-07-09T07:07:31Z</time>
      </trkpt>
      <trkpt lat="46.64093" lon="6.07653">
        <ele>1039.5</ele>
        <time>2021-07-09T07:07:36Z</time>
      </trkpt>
      <trkpt lat="46.64088" lon="6.07656">
        <ele>1039.5</ele>
        <time>2021-07-09T07:07:43Z</time>
      </trkpt>
      <trkpt lat="46.64084" lon="6.07651">
        <ele>1039.7</ele>
        <time>2021-07-09T07:07:49Z</time>
      </trkpt>
      <trkpt lat="46.64079" lon="6.07647">
        <ele>1039.9</ele>
        <time>2021-07-09T07:07:54Z</time>
      </trkpt>
      <trkpt lat="46.64074" lon="6.07645">
        <ele>1040.3</ele>
        <time>2021-07-09T07:07:59Z</time>
      </trkpt>
      <trkpt lat="46.64069" lon="6.07644">
        <ele>1041.1</ele>
        <time>2021-07-09T07:08:05Z</time>
      </trkpt>
      <trkpt lat="46.64067" lon="6.07638">
        <ele>1040.1</ele>
        <time>2021-07-09T07:08:11Z</time>
      </trkpt>
      <trkpt lat="46.64063" lon="6.07632">
        <ele>1038.9</ele>
        <time>2021-07-09T07:08:16Z</time>
      </trkpt>
      <trkpt lat="46.6406" lon="6.07625">
        <ele>1037.6</ele>
        <time>2021-07-09T07:08:21Z</time>
      </trkpt>
      <trkpt lat="46.64057" lon="6.07619">
        <ele>1035.3</ele>
        <time>2021-07-09T07:08:27Z</time>
      </trkpt>
      <trkpt lat="46.64055" lon="6.07613">
        <ele>1033.5</ele>
        <time>2021-07-09T07:08:33Z</time>
      </trkpt>
      <trkpt lat="46.64052" lon="6.07607">
        <ele>1032.2</ele>
        <time>2021-07-09T07:08:39Z</time>
      </trkpt>
      <trkpt lat="46.64047" lon="6.07603">
        <ele>1032.1</ele>
        <time>2021-07-09T07:08:46Z</time>
      </trkpt>
      <trkpt lat="46.64043" lon="6.07601">
        <ele>1031.8</ele>
        <time>2021-07-09T07:08:52Z</time>
      </trkpt>
      <trkpt lat="46.64038" lon="6.07601">
        <ele>1031.7</ele>
        <time>2021-07-09T07:08:56Z</time>
      </trkpt>
      <trkpt lat="46.64035" lon="6.07595">
        <ele>1031.6</ele>
        <time>2021-07-09T07:09:00Z</time>
      </trkpt>
      <trkpt lat="46.6403" lon="6.07591">
        <ele>1031.8</ele>
        <time>2021-07-09T07:09:04Z</time>
      </trkpt>
      <trkpt lat="46.64026" lon="6.07587">
        <ele>1032.1</ele>
        <time>2021-07-09T07:09:08Z</time>
      </trkpt>
      <trkpt lat="46.64022" lon="6.07583">
        <ele>1033.2</ele>
        <time>2021-07-09T07:09:12Z</time>
      </trkpt>
      <trkpt lat="46.64018" lon="6.07581">
        <ele>1035.2</ele>
        <time>2021-07-09T07:09:18Z</time>
      </trkpt>
      <trkpt lat="46.64016" lon="6.07575">
        <ele>1036.8</ele>
        <time>2021-07-09T07:09:23Z</time>
      </trkpt>
      <trkpt lat="46.64012" lon="6.07571">
        <ele>1038.2</ele>
        <time>2021-07-09T07:09:29Z</time>
      </trkpt>
      <trkpt lat="46.64007" lon="6.07568">
        <ele>1039.4</ele>
        <time>2021-07-09T07:09:38Z</time>
      </trkpt>
      <trkpt lat="46.64002" lon="6.07569">
        <ele>1039.2</ele>
        <time>2021-07-09T07:09:43Z</time>
      </trkpt>
      <trkpt lat="46.63997" lon="6.07571">
        <ele>1038.8</ele>
        <time>2021-07-09T07:09:47Z</time>
      </trkpt>
      <trkpt lat="46.63992" lon="6.07573">
        <ele>1038.1</ele>
        <time>2021-07-09T07:09:52Z</time>
      </trkpt>
      <trkpt lat="46.63988" lon="6.0758">
        <ele>1037.9</ele>
        <time>2021-07-09T07:09:56Z</time>
      </trkpt>
      <trkpt lat="46.63985" lon="6.07585">
        <ele>1038.2</ele>
        <time>2021-07-09T07:10:01Z</time>
      </trkpt>
      <trkpt lat="46.63983" lon="6.07592">
        <ele>1039</ele>
        <time>2021-07-09T07:10:06Z</time>
      </trkpt>
      <trkpt lat="46.63981" lon="6.07598">
        <ele>1039.9</ele>
        <time>2021-07-09T07:10:11Z</time>
      </trkpt>
      <trkpt lat="46.6398" lon="6.07606">
        <ele>1041.8</ele>
        <time>2021-07-09T07:10:19Z</time>
      </trkpt>
      <trkpt lat="46.63981" lon="6.07613">
        <ele>1043.4</ele>
        <time>2021-07-09T07:10:26Z</time>
      </trkpt>
      <trkpt lat="46.6398" lon="6.07619">
        <ele>1044.9</ele>
        <time>2021-07-09T07:10:31Z</time>
      </trkpt>
      <trkpt lat="46.63978" lon="6.07625">
        <ele>1046.8</ele>
        <time>2021-07-09T07:10:36Z</time>
      </trkpt>
      <trkpt lat="46.63978" lon="6.07632">
        <ele>1049.4</ele>
        <time>2021-07-09T07:10:43Z</time>
      </trkpt>
      <trkpt lat="46.63981" lon="6.07638">
        <ele>1050.3</ele>
        <time>2021-07-09T07:10:47Z</time>
      </trkpt>
      <trkpt lat="46.63984" lon="6.07645">
        <ele>1051.2</ele>
        <time>2021-07-09T07:10:51Z</time>
      </trkpt>
      <trkpt lat="46.63987" lon="6.0765">
        <ele>1051.8</ele>
        <time>2021-07-09T07:10:55Z</time>
      </trkpt>
      <trkpt lat="46.63989" lon="6.07657">
        <ele>1052.2</ele>
        <time>2021-07-09T07:10:59Z</time>
      </trkpt>
      <trkpt lat="46.63989" lon="6.07664">
        <ele>1052.9</ele>
        <time>2021-07-09T07:11:05Z</time>
      </trkpt>
      <trkpt lat="46.63989" lon="6.07671">
        <ele>1053.3</ele>
        <time>2021-07-09T07:11:13Z</time>
      </trkpt>
      <trkpt lat="46.63988" lon="6.07677">
        <ele>1053.6</ele>
        <time>2021-07-09T07:11:17Z</time>
      </trkpt>
      <trkpt lat="46.63988" lon="6.07685">
        <ele>1053.8</ele>
        <time>2021-07-09T07:11:23Z</time>
      </trkpt>
      <trkpt lat="46.6399" lon="6.07692">
        <ele>1054</ele>
        <time>2021-07-09T07:11:27Z</time>
      </trkpt>
      <trkpt lat="46.63994" lon="6.07698">
        <ele>1054.7</ele>
        <time>2021-07-09T07:11:31Z</time>
      </trkpt>
      <trkpt lat="46.63994" lon="6.07705">
        <ele>1056.6</ele>
        <time>2021-07-09T07:11:38Z</time>
      </trkpt>
      <trkpt lat="46.63992" lon="6.07712">
        <ele>1057.5</ele>
        <time>2021-07-09T07:11:43Z</time>
      </trkpt>
      <trkpt lat="46.63991" lon="6.07719">
        <ele>1057.8</ele>
        <time>2021-07-09T07:11:48Z</time>
      </trkpt>
      <trkpt lat="46.63995" lon="6.07725">
        <ele>1057.8</ele>
        <time>2021-07-09T07:11:53Z</time>
      </trkpt>
      <trkpt lat="46.63998" lon="6.07731">
        <ele>1057.6</ele>
        <time>2021-07-09T07:11:57Z</time>
      </trkpt>
      <trkpt lat="46.64001" lon="6.07738">
        <ele>1057.4</ele>
        <time>2021-07-09T07:12:02Z</time>
      </trkpt>
      <trkpt lat="46.64002" lon="6.07746">
        <ele>1057.7</ele>
        <time>2021-07-09T07:12:08Z</time>
      </trkpt>
      <trkpt lat="46.64005" lon="6.07752">
        <ele>1059.4</ele>
        <time>2021-07-09T07:12:18Z</time>
      </trkpt>
      <trkpt lat="46.64004" lon="6.07759">
        <ele>1060</ele>
        <time>2021-07-09T07:12:26Z</time>
      </trkpt>
      <trkpt lat="46.64005" lon="6.07766">
        <ele>1059.4</ele>
        <time>2021-07-09T07:12:32Z</time>
      </trkpt>
      <trkpt lat="46.64008" lon="6.07771">
        <ele>1058.8</ele>
        <time>2021-07-09T07:12:37Z</time>
      </trkpt>
      <trkpt lat="46.64013" lon="6.07776">
        <ele>1058.3</ele>
        <time>2021-07-09T07:12:42Z</time>
      </trkpt>
      <trkpt lat="46.64017" lon="6.07779">
        <ele>1058.6</ele>
        <time>2021-07-09T07:12:46Z</time>
      </trkpt>
      <trkpt lat="46.6402" lon="6.07786">
        <ele>1059.5</ele>
        <time>2021-07-09T07:12:51Z</time>
      </trkpt>
      <trkpt lat="46.64021" lon="6.07792">
        <ele>1060.5</ele>
        <time>2021-07-09T07:12:55Z</time>
      </trkpt>
      <trkpt lat="46.6402" lon="6.07799">
        <ele>1061.5</ele>
        <time>2021-07-09T07:13:00Z</time>
      </trkpt>
      <trkpt lat="46.64019" lon="6.07806">
        <ele>1062.6</ele>
        <time>2021-07-09T07:13:07Z</time>
      </trkpt>
      <trkpt lat="46.64023" lon="6.07811">
        <ele>1063</ele>
        <time>2021-07-09T07:13:11Z</time>
      </trkpt>
      <trkpt lat="46.64026" lon="6.07817">
        <ele>1063.5</ele>
        <time>2021-07-09T07:13:17Z</time>
      </trkpt>
      <trkpt lat="46.64026" lon="6.07825">
        <ele>1064.2</ele>
        <time>2021-07-09T07:13:21Z</time>
      </trkpt>
      <trkpt lat="46.64026" lon="6.07833">
        <ele>1065</ele>
        <time>2021-07-09T07:13:26Z</time>
      </trkpt>
      <trkpt lat="46.64026" lon="6.07841">
        <ele>1065.3</ele>
        <time>2021-07-09T07:13:31Z</time>
      </trkpt>
      <trkpt lat="46.64025" lon="6.07848">
        <ele>1065.7</ele>
        <time>2021-07-09T07:13:35Z</time>
      </trkpt>
      <trkpt lat="46.64026" lon="6.07855">
        <ele>1066.3</ele>
        <time>2021-07-09T07:13:39Z</time>
      </trkpt>
      <trkpt lat="46.64026" lon="6.07862">
        <ele>1067.6</ele>
        <time>2021-07-09T07:13:47Z</time>
      </trkpt>
      <trkpt lat="46.64026" lon="6.0787">
        <ele>1068.6</ele>
        <time>2021-07-09T07:13:56Z</time>
      </trkpt>
      <trkpt lat="46.64028" lon="6.07877">
        <ele>1069</ele>
        <time>2021-07-09T07:14:00Z</time>
      </trkpt>
      <trkpt lat="46.6403" lon="6.07883">
        <ele>1069.5</ele>
        <time>2021-07-09T07:14:04Z</time>
      </trkpt>
      <trkpt lat="46.64034" lon="6.07888">
        <ele>1070.5</ele>
        <time>2021-07-09T07:14:10Z</time>
      </trkpt>
      <trkpt lat="46.64037" lon="6.07894">
        <ele>1071.1</ele>
        <time>2021-07-09T07:14:15Z</time>
      </trkpt>
      <trkpt lat="46.64038" lon="6.079">
        <ele>1071.6</ele>
        <time>2021-07-09T07:14:21Z</time>
      </trkpt>
      <trkpt lat="46.64042" lon="6.07906">
        <ele>1071.8</ele>
        <time>2021-07-09T07:14:25Z</time>
      </trkpt>
      <trkpt lat="46.64045" lon="6.07911">
        <ele>1071.6</ele>
        <time>2021-07-09T07:14:31Z</time>
      </trkpt>
      <trkpt lat="46.64051" lon="6.07911">
        <ele>1071</ele>
        <time>2021-07-09T07:14:35Z</time>
      </trkpt>
      <trkpt lat="46.6405" lon="6.07918">
        <ele>1070.6</ele>
        <time>2021-07-09T07:14:39Z</time>
      </trkpt>
      <trkpt lat="46.64048" lon="6.07924">
        <ele>1071</ele>
        <time>2021-07-09T07:14:43Z</time>
      </trkpt>
      <trkpt lat="46.64046" lon="6.07933">
        <ele>1071.9</ele>
        <time>2021-07-09T07:14:47Z</time>
      </trkpt>
      <trkpt lat="46.64043" lon="6.07937">
        <ele>1072.6</ele>
        <time>2021-07-09T07:14:51Z</time>
      </trkpt>
      <trkpt lat="46.64037" lon="6.07942">
        <ele>1073.1</ele>
        <time>2021-07-09T07:14:55Z</time>
      </trkpt>
      <trkpt lat="46.64036" lon="6.07933">
        <ele>1074.2</ele>
        <time>2021-07-09T07:14:59Z</time>
      </trkpt>
      <trkpt lat="46.64035" lon="6.07926">
        <ele>1069.9</ele>
        <time>2021-07-09T07:15:12Z</time>
      </trkpt>
      <trkpt lat="46.64031" lon="6.07921">
        <ele>1069</ele>
        <time>2021-07-09T07:15:17Z</time>
      </trkpt>
      <trkpt lat="46.64036" lon="6.07925">
        <ele>1075.5</ele>
        <time>2021-07-09T07:15:32Z</time>
      </trkpt>
      <trkpt lat="46.6404" lon="6.07928">
        <ele>1074.9</ele>
        <time>2021-07-09T07:15:36Z</time>
      </trkpt>
      <trkpt lat="46.64041" lon="6.07922">
        <ele>1072.4</ele>
        <time>2021-07-09T07:15:45Z</time>
      </trkpt>
      <trkpt lat="46.64039" lon="6.07916">
        <ele>1066</ele>
        <time>2021-07-09T07:16:04Z</time>
      </trkpt>
      <trkpt lat="46.64042" lon="6.07921">
        <ele>1064</ele>
        <time>2021-07-09T07:16:11Z</time>
      </trkpt>
      <trkpt lat="46.6404" lon="6.07928">
        <ele>1063.5</ele>
        <time>2021-07-09T07:16:23Z</time>
      </trkpt>
      <trkpt lat="46.64045" lon="6.0793">
        <ele>1063.7</ele>
        <time>2021-07-09T07:16:30Z</time>
      </trkpt>
      <trkpt lat="46.64046" lon="6.07938">
        <ele>1066.1</ele>
        <time>2021-07-09T07:17:06Z</time>
      </trkpt>
      <trkpt lat="46.64046" lon="6.07944">
        <ele>1065.5</ele>
        <time>2021-07-09T07:17:14Z</time>
      </trkpt>
      <trkpt lat="46.64051" lon="6.07946">
        <ele>1064.8</ele>
        <time>2021-07-09T07:17:20Z</time>
      </trkpt>
      <trkpt lat="46.64058" lon="6.07948">
        <ele>1064.9</ele>
        <time>2021-07-09T07:17:24Z</time>
      </trkpt>
      <trkpt lat="46.64064" lon="6.0795">
        <ele>1065.4</ele>
        <time>2021-07-09T07:17:28Z</time>
      </trkpt>
      <trkpt lat="46.64069" lon="6.07951">
        <ele>1066.1</ele>
        <time>2021-07-09T07:17:32Z</time>
      </trkpt>
      <trkpt lat="46.64075" lon="6.07953">
        <ele>1067.9</ele>
        <time>2021-07-09T07:17:38Z</time>
      </trkpt>
      <trkpt lat="46.64079" lon="6.07955">
        <ele>1068.8</ele>
        <time>2021-07-09T07:17:42Z</time>
      </trkpt>
      <trkpt lat="46.64085" lon="6.07958">
        <ele>1069.7</ele>
        <time>2021-07-09T07:17:46Z</time>
      </trkpt>
      <trkpt lat="46.64086" lon="6.07964">
        <ele>1070.6</ele>
        <time>2021-07-09T07:17:51Z</time>
      </trkpt>
      <trkpt lat="46.64087" lon="6.0797">
        <ele>1070.9</ele>
        <time>2021-07-09T07:18:02Z</time>
      </trkpt>
      <trkpt lat="46.64087" lon="6.07978">
        <ele>1071.2</ele>
        <time>2021-07-09T07:18:09Z</time>
      </trkpt>
      <trkpt lat="46.6409" lon="6.07983">
        <ele>1070.1</ele>
        <time>2021-07-09T07:18:14Z</time>
      </trkpt>
      <trkpt lat="46.64093" lon="6.07991">
        <ele>1068.7</ele>
        <time>2021-07-09T07:18:18Z</time>
      </trkpt>
      <trkpt lat="46.64093" lon="6.07998">
        <ele>1067.6</ele>
        <time>2021-07-09T07:18:22Z</time>
      </trkpt>
      <trkpt lat="46.64096" lon="6.08003">
        <ele>1066.8</ele>
        <time>2021-07-09T07:18:26Z</time>
      </trkpt>
      <trkpt lat="46.64102" lon="6.08009">
        <ele>1067.5</ele>
        <time>2021-07-09T07:18:30Z</time>
      </trkpt>
      <trkpt lat="46.64103" lon="6.08015">
        <ele>1075.4</ele>
        <time>2021-07-09T07:18:40Z</time>
      </trkpt>
      <trkpt lat="46.64101" lon="6.08021">
        <ele>1082.6</ele>
        <time>2021-07-09T07:18:50Z</time>
      </trkpt>
      <trkpt lat="46.64103" lon="6.08028">
        <ele>1088.7</ele>
        <time>2021-07-09T07:18:59Z</time>
      </trkpt>
      <trkpt lat="46.64104" lon="6.08035">
        <ele>1091.8</ele>
        <time>2021-07-09T07:19:04Z</time>
      </trkpt>
      <trkpt lat="46.64109" lon="6.0804">
        <ele>1094</ele>
        <time>2021-07-09T07:19:09Z</time>
      </trkpt>
      <trkpt lat="46.64114" lon="6.08043">
        <ele>1094.9</ele>
        <time>2021-07-09T07:19:13Z</time>
      </trkpt>
      <trkpt lat="46.64116" lon="6.08049">
        <ele>1095.7</ele>
        <time>2021-07-09T07:19:17Z</time>
      </trkpt>
      <trkpt lat="46.64119" lon="6.08056">
        <ele>1096</ele>
        <time>2021-07-09T07:19:21Z</time>
      </trkpt>
      <trkpt lat="46.64121" lon="6.08062">
        <ele>1095.4</ele>
        <time>2021-07-09T07:19:26Z</time>
      </trkpt>
      <trkpt lat="46.6412" lon="6.0807">
        <ele>1092.3</ele>
        <time>2021-07-09T07:19:37Z</time>
      </trkpt>
      <trkpt lat="46.64121" lon="6.08076">
        <ele>1090.9</ele>
        <time>2021-07-09T07:19:42Z</time>
      </trkpt>
      <trkpt lat="46.64125" lon="6.0808">
        <ele>1090.3</ele>
        <time>2021-07-09T07:19:46Z</time>
      </trkpt>
      <trkpt lat="46.64129" lon="6.08085">
        <ele>1090.2</ele>
        <time>2021-07-09T07:19:51Z</time>
      </trkpt>
      <trkpt lat="46.64132" lon="6.08091">
        <ele>1090.8</ele>
        <time>2021-07-09T07:19:56Z</time>
      </trkpt>
      <trkpt lat="46.64134" lon="6.08097">
        <ele>1091.6</ele>
        <time>2021-07-09T07:20:02Z</time>
      </trkpt>
      <trkpt lat="46.64136" lon="6.08104">
        <ele>1092.8</ele>
        <time>2021-07-09T07:20:07Z</time>
      </trkpt>
      <trkpt lat="46.64134" lon="6.0811">
        <ele>1093.5</ele>
        <time>2021-07-09T07:20:14Z</time>
      </trkpt>
      <trkpt lat="46.64133" lon="6.08117">
        <ele>1094</ele>
        <time>2021-07-09T07:20:21Z</time>
      </trkpt>
      <trkpt lat="46.64136" lon="6.08122">
        <ele>1093.1</ele>
        <time>2021-07-09T07:20:29Z</time>
      </trkpt>
      <trkpt lat="46.64136" lon="6.08129">
        <ele>1093.8</ele>
        <time>2021-07-09T07:20:42Z</time>
      </trkpt>
      <trkpt lat="46.64136" lon="6.08136">
        <ele>1094</ele>
        <time>2021-07-09T07:20:46Z</time>
      </trkpt>
      <trkpt lat="46.64139" lon="6.08142">
        <ele>1094.2</ele>
        <time>2021-07-09T07:20:53Z</time>
      </trkpt>
      <trkpt lat="46.64138" lon="6.08149">
        <ele>1095.2</ele>
        <time>2021-07-09T07:21:00Z</time>
      </trkpt>
      <trkpt lat="46.64141" lon="6.08155">
        <ele>1096.5</ele>
        <time>2021-07-09T07:21:07Z</time>
      </trkpt>
      <trkpt lat="46.64141" lon="6.08163">
        <ele>1098.7</ele>
        <time>2021-07-09T07:21:13Z</time>
      </trkpt>
      <trkpt lat="46.64142" lon="6.08171">
        <ele>1100.8</ele>
        <time>2021-07-09T07:21:18Z</time>
      </trkpt>
      <trkpt lat="46.64144" lon="6.08177">
        <ele>1102</ele>
        <time>2021-07-09T07:21:25Z</time>
      </trkpt>
      <trkpt lat="46.64146" lon="6.08184">
        <ele>1105.8</ele>
        <time>2021-07-09T07:21:34Z</time>
      </trkpt>
      <trkpt lat="46.64149" lon="6.0819">
        <ele>1109.1</ele>
        <time>2021-07-09T07:21:41Z</time>
      </trkpt>
      <trkpt lat="46.6415" lon="6.08196">
        <ele>1111.6</ele>
        <time>2021-07-09T07:21:46Z</time>
      </trkpt>
      <trkpt lat="46.64152" lon="6.08203">
        <ele>1113.9</ele>
        <time>2021-07-09T07:21:53Z</time>
      </trkpt>
      <trkpt lat="46.64156" lon="6.08207">
        <ele>1114.4</ele>
        <time>2021-07-09T07:21:59Z</time>
      </trkpt>
      <trkpt lat="46.6416" lon="6.08202">
        <ele>1108.9</ele>
        <time>2021-07-09T07:22:28Z</time>
      </trkpt>
      <trkpt lat="46.64164" lon="6.08196">
        <ele>1108.3</ele>
        <time>2021-07-09T07:22:32Z</time>
      </trkpt>
      <trkpt lat="46.64159" lon="6.08197">
        <ele>1108.5</ele>
        <time>2021-07-09T07:22:57Z</time>
      </trkpt>
      <trkpt lat="46.64159" lon="6.08204">
        <ele>1115.1</ele>
        <time>2021-07-09T07:23:28Z</time>
      </trkpt>
      <trkpt lat="46.64155" lon="6.08208">
        <ele>1114.6</ele>
        <time>2021-07-09T07:23:32Z</time>
      </trkpt>
      <trkpt lat="46.64151" lon="6.08204">
        <ele>1111.6</ele>
        <time>2021-07-09T07:23:44Z</time>
      </trkpt>
      <trkpt lat="46.64147" lon="6.08199">
        <ele>1112.2</ele>
        <time>2021-07-09T07:23:52Z</time>
      </trkpt>
      <trkpt lat="46.64144" lon="6.0819">
        <ele>1112.6</ele>
        <time>2021-07-09T07:23:56Z</time>
      </trkpt>
      <trkpt lat="46.64141" lon="6.08184">
        <ele>1113.2</ele>
        <time>2021-07-09T07:24:00Z</time>
      </trkpt>
      <trkpt lat="46.64137" lon="6.08179">
        <ele>1113.6</ele>
        <time>2021-07-09T07:24:04Z</time>
      </trkpt>
      <trkpt lat="46.64139" lon="6.08173">
        <ele>1111.1</ele>
        <time>2021-07-09T07:24:11Z</time>
      </trkpt>
      <trkpt lat="46.64136" lon="6.08168">
        <ele>1108.7</ele>
        <time>2021-07-09T07:24:23Z</time>
      </trkpt>
      <trkpt lat="46.64135" lon="6.08161">
        <ele>1108</ele>
        <time>2021-07-09T07:24:30Z</time>
      </trkpt>
      <trkpt lat="46.64136" lon="6.08154">
        <ele>1107.5</ele>
        <time>2021-07-09T07:24:34Z</time>
      </trkpt>
      <trkpt lat="46.64137" lon="6.08147">
        <ele>1107.4</ele>
        <time>2021-07-09T07:24:42Z</time>
      </trkpt>
      <trkpt lat="46.64136" lon="6.0814">
        <ele>1107.2</ele>
        <time>2021-07-09T07:24:50Z</time>
      </trkpt>
      <trkpt lat="46.64134" lon="6.08134">
        <ele>1106.6</ele>
        <time>2021-07-09T07:24:57Z</time>
      </trkpt>
      <trkpt lat="46.6413" lon="6.08124">
        <ele>1105.5</ele>
        <time>2021-07-09T07:25:01Z</time>
      </trkpt>
      <trkpt lat="46.64127" lon="6.08118">
        <ele>1104.8</ele>
        <time>2021-07-09T07:25:05Z</time>
      </trkpt>
      <trkpt lat="46.64124" lon="6.08109">
        <ele>1104.2</ele>
        <time>2021-07-09T07:25:09Z</time>
      </trkpt>
      <trkpt lat="46.64122" lon="6.08102">
        <ele>1103.2</ele>
        <time>2021-07-09T07:25:13Z</time>
      </trkpt>
      <trkpt lat="46.64121" lon="6.08095">
        <ele>1102.1</ele>
        <time>2021-07-09T07:25:17Z</time>
      </trkpt>
      <trkpt lat="46.6412" lon="6.08088">
        <ele>1100.8</ele>
        <time>2021-07-09T07:25:22Z</time>
      </trkpt>
      <trkpt lat="46.64118" lon="6.08082">
        <ele>1099.6</ele>
        <time>2021-07-09T07:25:27Z</time>
      </trkpt>
      <trkpt lat="46.64115" lon="6.08075">
        <ele>1098.6</ele>
        <time>2021-07-09T07:25:32Z</time>
      </trkpt>
      <trkpt lat="46.64113" lon="6.08067">
        <ele>1098</ele>
        <time>2021-07-09T07:25:36Z</time>
      </trkpt>
      <trkpt lat="46.6411" lon="6.08061">
        <ele>1096.7</ele>
        <time>2021-07-09T07:25:43Z</time>
      </trkpt>
      <trkpt lat="46.64108" lon="6.08055">
        <ele>1095.9</ele>
        <time>2021-07-09T07:25:48Z</time>
      </trkpt>
      <trkpt lat="46.64108" lon="6.08049">
        <ele>1095.2</ele>
        <time>2021-07-09T07:25:52Z</time>
      </trkpt>
      <trkpt lat="46.64106" lon="6.08041">
        <ele>1094.1</ele>
        <time>2021-07-09T07:25:56Z</time>
      </trkpt>
      <trkpt lat="46.64104" lon="6.08035">
        <ele>1092.8</ele>
        <time>2021-07-09T07:26:00Z</time>
      </trkpt>
      <trkpt lat="46.64101" lon="6.0803">
        <ele>1091.8</ele>
        <time>2021-07-09T07:26:04Z</time>
      </trkpt>
      <trkpt lat="46.64098" lon="6.08024">
        <ele>1090.9</ele>
        <time>2021-07-09T07:26:08Z</time>
      </trkpt>
      <trkpt lat="46.64097" lon="6.08017">
        <ele>1090.2</ele>
        <time>2021-07-09T07:26:13Z</time>
      </trkpt>
      <trkpt lat="46.64097" lon="6.0801">
        <ele>1089.8</ele>
        <time>2021-07-09T07:26:22Z</time>
      </trkpt>
      <trkpt lat="46.64097" lon="6.08003">
        <ele>1089.6</ele>
        <time>2021-07-09T07:26:28Z</time>
      </trkpt>
      <trkpt lat="46.64096" lon="6.07996">
        <ele>1089.1</ele>
        <time>2021-07-09T07:26:36Z</time>
      </trkpt>
      <trkpt lat="46.64093" lon="6.07991">
        <ele>1088.8</ele>
        <time>2021-07-09T07:26:40Z</time>
      </trkpt>
      <trkpt lat="46.6409" lon="6.07985">
        <ele>1088.4</ele>
        <time>2021-07-09T07:26:46Z</time>
      </trkpt>
      <trkpt lat="46.64087" lon="6.07979">
        <ele>1088.2</ele>
        <time>2021-07-09T07:26:50Z</time>
      </trkpt>
      <trkpt lat="46.64084" lon="6.07974">
        <ele>1088</ele>
        <time>2021-07-09T07:26:56Z</time>
      </trkpt>
      <trkpt lat="46.64079" lon="6.07971">
        <ele>1087.6</ele>
        <time>2021-07-09T07:27:01Z</time>
      </trkpt>
      <trkpt lat="46.64076" lon="6.07964">
        <ele>1086.9</ele>
        <time>2021-07-09T07:27:05Z</time>
      </trkpt>
      <trkpt lat="46.64072" lon="6.07959">
        <ele>1086.4</ele>
        <time>2021-07-09T07:27:09Z</time>
      </trkpt>
      <trkpt lat="46.64068" lon="6.07954">
        <ele>1085.8</ele>
        <time>2021-07-09T07:27:16Z</time>
      </trkpt>
      <trkpt lat="46.64062" lon="6.07949">
        <ele>1085.5</ele>
        <time>2021-07-09T07:27:20Z</time>
      </trkpt>
      <trkpt lat="46.64055" lon="6.07949">
        <ele>1084.7</ele>
        <time>2021-07-09T07:27:24Z</time>
      </trkpt>
      <trkpt lat="46.64051" lon="6.07944">
        <ele>1082.5</ele>
        <time>2021-07-09T07:27:30Z</time>
      </trkpt>
      <trkpt lat="46.64047" lon="6.07939">
        <ele>1080.3</ele>
        <time>2021-07-09T07:27:35Z</time>
      </trkpt>
      <trkpt lat="46.64042" lon="6.07936">
        <ele>1077.7</ele>
        <time>2021-07-09T07:27:40Z</time>
      </trkpt>
      <trkpt lat="46.64037" lon="6.07933">
        <ele>1075.2</ele>
        <time>2021-07-09T07:27:46Z</time>
      </trkpt>
      <trkpt lat="46.64033" lon="6.07929">
        <ele>1073.8</ele>
        <time>2021-07-09T07:27:52Z</time>
      </trkpt>
      <trkpt lat="46.64028" lon="6.0793">
        <ele>1071.4</ele>
        <time>2021-07-09T07:28:09Z</time>
      </trkpt>
      <trkpt lat="46.64025" lon="6.07935">
        <ele>1070.8</ele>
        <time>2021-07-09T07:28:14Z</time>
      </trkpt>
      <trkpt lat="46.6402" lon="6.07936">
        <ele>1070.7</ele>
        <time>2021-07-09T07:28:20Z</time>
      </trkpt>
      <trkpt lat="46.64015" lon="6.07936">
        <ele>1070.7</ele>
        <time>2021-07-09T07:28:25Z</time>
      </trkpt>
      <trkpt lat="46.64008" lon="6.07935">
        <ele>1071.2</ele>
        <time>2021-07-09T07:28:29Z</time>
      </trkpt>
      <trkpt lat="46.64005" lon="6.0794">
        <ele>1072</ele>
        <time>2021-07-09T07:28:34Z</time>
      </trkpt>
      <trkpt lat="46.64003" lon="6.07947">
        <ele>1072.9</ele>
        <time>2021-07-09T07:28:39Z</time>
      </trkpt>
      <trkpt lat="46.64" lon="6.07952">
        <ele>1074.2</ele>
        <time>2021-07-09T07:28:45Z</time>
      </trkpt>
      <trkpt lat="46.63996" lon="6.07956">
        <ele>1075.3</ele>
        <time>2021-07-09T07:28:50Z</time>
      </trkpt>
      <trkpt lat="46.63991" lon="6.07959">
        <ele>1076.1</ele>
        <time>2021-07-09T07:28:54Z</time>
      </trkpt>
      <trkpt lat="46.63987" lon="6.07963">
        <ele>1077.1</ele>
        <time>2021-07-09T07:28:59Z</time>
      </trkpt>
      <trkpt lat="46.63984" lon="6.07968">
        <ele>1078</ele>
        <time>2021-07-09T07:29:04Z</time>
      </trkpt>
      <trkpt lat="46.63981" lon="6.07974">
        <ele>1078.6</ele>
        <time>2021-07-09T07:29:09Z</time>
      </trkpt>
      <trkpt lat="46.63978" lon="6.07981">
        <ele>1078.8</ele>
        <time>2021-07-09T07:29:15Z</time>
      </trkpt>
      <trkpt lat="46.63979" lon="6.07989">
        <ele>1078.7</ele>
        <time>2021-07-09T07:29:20Z</time>
      </trkpt>
      <trkpt lat="46.63976" lon="6.07995">
        <ele>1078</ele>
        <time>2021-07-09T07:29:25Z</time>
      </trkpt>
      <trkpt lat="46.63974" lon="6.08001">
        <ele>1077.2</ele>
        <time>2021-07-09T07:29:30Z</time>
      </trkpt>
      <trkpt lat="46.63971" lon="6.08007">
        <ele>1076.6</ele>
        <time>2021-07-09T07:29:36Z</time>
      </trkpt>
      <trkpt lat="46.63967" lon="6.08012">
        <ele>1076.2</ele>
        <time>2021-07-09T07:29:41Z</time>
      </trkpt>
      <trkpt lat="46.63963" lon="6.08018">
        <ele>1075.3</ele>
        <time>2021-07-09T07:29:47Z</time>
      </trkpt>
      <trkpt lat="46.63958" lon="6.08019">
        <ele>1074.5</ele>
        <time>2021-07-09T07:29:52Z</time>
      </trkpt>
      <trkpt lat="46.63953" lon="6.08014">
        <ele>1073.9</ele>
        <time>2021-07-09T07:29:57Z</time>
      </trkpt>
      <trkpt lat="46.6395" lon="6.0801">
        <ele>1073.6</ele>
        <time>2021-07-09T07:30:01Z</time>
      </trkpt>
      <trkpt lat="46.63946" lon="6.08005">
        <ele>1074</ele>
        <time>2021-07-09T07:30:06Z</time>
      </trkpt>
      <trkpt lat="46.63944" lon="6.07998">
        <ele>1075.6</ele>
        <time>2021-07-09T07:30:15Z</time>
      </trkpt>
      <trkpt lat="46.63944" lon="6.07991">
        <ele>1075.6</ele>
        <time>2021-07-09T07:30:20Z</time>
      </trkpt>
      <trkpt lat="46.63944" lon="6.07984">
        <ele>1075.1</ele>
        <time>2021-07-09T07:30:24Z</time>
      </trkpt>
      <trkpt lat="46.63944" lon="6.07977">
        <ele>1074.5</ele>
        <time>2021-07-09T07:30:30Z</time>
      </trkpt>
      <trkpt lat="46.6394" lon="6.07971">
        <ele>1074.3</ele>
        <time>2021-07-09T07:30:35Z</time>
      </trkpt>
      <trkpt lat="46.63939" lon="6.07965">
        <ele>1074.3</ele>
        <time>2021-07-09T07:30:39Z</time>
      </trkpt>
      <trkpt lat="46.63935" lon="6.07956">
        <ele>1074.6</ele>
        <time>2021-07-09T07:30:43Z</time>
      </trkpt>
      <trkpt lat="46.63932" lon="6.07949">
        <ele>1075.3</ele>
        <time>2021-07-09T07:30:48Z</time>
      </trkpt>
      <trkpt lat="46.63928" lon="6.07946">
        <ele>1075.1</ele>
        <time>2021-07-09T07:30:53Z</time>
      </trkpt>
      <trkpt lat="46.63926" lon="6.0794">
        <ele>1074.5</ele>
        <time>2021-07-09T07:30:58Z</time>
      </trkpt>
      <trkpt lat="46.63924" lon="6.07932">
        <ele>1073.4</ele>
        <time>2021-07-09T07:31:03Z</time>
      </trkpt>
      <trkpt lat="46.63922" lon="6.07925">
        <ele>1072.8</ele>
        <time>2021-07-09T07:31:07Z</time>
      </trkpt>
      <trkpt lat="46.63921" lon="6.07918">
        <ele>1072.6</ele>
        <time>2021-07-09T07:31:11Z</time>
      </trkpt>
      <trkpt lat="46.63918" lon="6.07913">
        <ele>1072.3</ele>
        <time>2021-07-09T07:31:16Z</time>
      </trkpt>
      <trkpt lat="46.63916" lon="6.07907">
        <ele>1070.8</ele>
        <time>2021-07-09T07:31:26Z</time>
      </trkpt>
      <trkpt lat="46.63914" lon="6.07899">
        <ele>1067.5</ele>
        <time>2021-07-09T07:31:32Z</time>
      </trkpt>
      <trkpt lat="46.63918" lon="6.07893">
        <ele>1063.1</ele>
        <time>2021-07-09T07:31:40Z</time>
      </trkpt>
      <trkpt lat="46.63919" lon="6.07885">
        <ele>1061.1</ele>
        <time>2021-07-09T07:31:45Z</time>
      </trkpt>
      <trkpt lat="46.63919" lon="6.07877">
        <ele>1060.2</ele>
        <time>2021-07-09T07:31:49Z</time>
      </trkpt>
      <trkpt lat="46.63918" lon="6.07869">
        <ele>1059</ele>
        <time>2021-07-09T07:31:57Z</time>
      </trkpt>
      <trkpt lat="46.63917" lon="6.07862">
        <ele>1058.7</ele>
        <time>2021-07-09T07:32:02Z</time>
      </trkpt>
      <trkpt lat="46.63916" lon="6.07855">
        <ele>1058.2</ele>
        <time>2021-07-09T07:32:10Z</time>
      </trkpt>
      <trkpt lat="46.63915" lon="6.07847">
        <ele>1057.2</ele>
        <time>2021-07-09T07:32:15Z</time>
      </trkpt>
      <trkpt lat="46.63913" lon="6.07841">
        <ele>1056.6</ele>
        <time>2021-07-09T07:32:19Z</time>
      </trkpt>
      <trkpt lat="46.63909" lon="6.07835">
        <ele>1056.4</ele>
        <time>2021-07-09T07:32:24Z</time>
      </trkpt>
      <trkpt lat="46.63906" lon="6.07827">
        <ele>1056.8</ele>
        <time>2021-07-09T07:32:28Z</time>
      </trkpt>
      <trkpt lat="46.63905" lon="6.07821">
        <ele>1057.5</ele>
        <time>2021-07-09T07:32:33Z</time>
      </trkpt>
      <trkpt lat="46.63905" lon="6.07813">
        <ele>1058.1</ele>
        <time>2021-07-09T07:32:40Z</time>
      </trkpt>
      <trkpt lat="46.63906" lon="6.07806">
        <ele>1058.2</ele>
        <time>2021-07-09T07:32:46Z</time>
      </trkpt>
      <trkpt lat="46.63905" lon="6.07799">
        <ele>1057.6</ele>
        <time>2021-07-09T07:32:52Z</time>
      </trkpt>
      <trkpt lat="46.63903" lon="6.07793">
        <ele>1056.7</ele>
        <time>2021-07-09T07:32:59Z</time>
      </trkpt>
      <trkpt lat="46.63899" lon="6.07788">
        <ele>1055.5</ele>
        <time>2021-07-09T07:33:06Z</time>
      </trkpt>
      <trkpt lat="46.63896" lon="6.07782">
        <ele>1054.1</ele>
        <time>2021-07-09T07:33:23Z</time>
      </trkpt>
      <trkpt lat="46.63891" lon="6.07779">
        <ele>1053.7</ele>
        <time>2021-07-09T07:33:32Z</time>
      </trkpt>
      <trkpt lat="46.63896" lon="6.07778">
        <ele>1053.5</ele>
        <time>2021-07-09T07:33:40Z</time>
      </trkpt>
      <trkpt lat="46.63901" lon="6.07779">
        <ele>1052.3</ele>
        <time>2021-07-09T07:33:47Z</time>
      </trkpt>
      <trkpt lat="46.63905" lon="6.07775">
        <ele>1048.8</ele>
        <time>2021-07-09T07:33:58Z</time>
      </trkpt>
      <trkpt lat="46.63901" lon="6.07781">
        <ele>1047.5</ele>
        <time>2021-07-09T07:34:09Z</time>
      </trkpt>
      <trkpt lat="46.63897" lon="6.07784">
        <ele>1047.3</ele>
        <time>2021-07-09T07:34:14Z</time>
      </trkpt>
      <trkpt lat="46.63898" lon="6.07776">
        <ele>1047.1</ele>
        <time>2021-07-09T07:34:18Z</time>
      </trkpt>
      <trkpt lat="46.63904" lon="6.07769">
        <ele>1046.7</ele>
        <time>2021-07-09T07:34:22Z</time>
      </trkpt>
      <trkpt lat="46.639" lon="6.07775">
        <ele>1045.8</ele>
        <time>2021-07-09T07:34:29Z</time>
      </trkpt>
      <trkpt lat="46.63893" lon="6.07786">
        <ele>1045.5</ele>
        <time>2021-07-09T07:34:33Z</time>
      </trkpt>
      <trkpt lat="46.63892" lon="6.07792">
        <ele>1047.1</ele>
        <time>2021-07-09T07:34:40Z</time>
      </trkpt>
      <trkpt lat="46.63896" lon="6.07791">
        <ele>1049.9</ele>
        <time>2021-07-09T07:34:49Z</time>
      </trkpt>
      <trkpt lat="46.63891" lon="6.0779">
        <ele>1051.2</ele>
        <time>2021-07-09T07:34:59Z</time>
      </trkpt>
      <trkpt lat="46.63887" lon="6.07785">
        <ele>1049.8</ele>
        <time>2021-07-09T07:35:13Z</time>
      </trkpt>
      <trkpt lat="46.63887" lon="6.07792">
        <ele>1051.7</ele>
        <time>2021-07-09T07:35:29Z</time>
      </trkpt>
      <trkpt lat="46.63883" lon="6.07795">
        <ele>1050.7</ele>
        <time>2021-07-09T07:35:43Z</time>
      </trkpt>
      <trkpt lat="46.63886" lon="6.07789">
        <ele>1047.8</ele>
        <time>2021-07-09T07:35:58Z</time>
      </trkpt>
      <trkpt lat="46.63881" lon="6.07792">
        <ele>1050</ele>
        <time>2021-07-09T07:36:08Z</time>
      </trkpt>
      <trkpt lat="46.63886" lon="6.07793">
        <ele>1053.3</ele>
        <time>2021-07-09T07:36:25Z</time>
      </trkpt>
      <trkpt lat="46.63892" lon="6.0779">
        <ele>1054.6</ele>
        <time>2021-07-09T07:36:29Z</time>
      </trkpt>
      <trkpt lat="46.63888" lon="6.07786">
        <ele>1058.7</ele>
        <time>2021-07-09T07:36:53Z</time>
      </trkpt>
      <trkpt lat="46.63884" lon="6.07786">
        <ele>1059.1</ele>
        <time>2021-07-09T07:37:00Z</time>
      </trkpt>
      <trkpt lat="46.63887" lon="6.07781">
        <ele>1059.6</ele>
        <time>2021-07-09T07:37:05Z</time>
      </trkpt>
      <trkpt lat="46.63892" lon="6.07779">
        <ele>1064</ele>
        <time>2021-07-09T07:37:36Z</time>
      </trkpt>
      <trkpt lat="46.63896" lon="6.07778">
        <ele>1062.4</ele>
        <time>2021-07-09T07:37:47Z</time>
      </trkpt>
      <trkpt lat="46.63892" lon="6.07776">
        <ele>1058.8</ele>
        <time>2021-07-09T07:38:10Z</time>
      </trkpt>
      <trkpt lat="46.63889" lon="6.07771">
        <ele>1058.8</ele>
        <time>2021-07-09T07:38:16Z</time>
      </trkpt>
      <trkpt lat="46.63886" lon="6.07765">
        <ele>1060.2</ele>
        <time>2021-07-09T07:38:22Z</time>
      </trkpt>
      <trkpt lat="46.63884" lon="6.07759">
        <ele>1061.4</ele>
        <time>2021-07-09T07:38:27Z</time>
      </trkpt>
      <trkpt lat="46.6388" lon="6.07754">
        <ele>1063.1</ele>
        <time>2021-07-09T07:38:37Z</time>
      </trkpt>
      <trkpt lat="46.63879" lon="6.07748">
        <ele>1064</ele>
        <time>2021-07-09T07:38:45Z</time>
      </trkpt>
      <trkpt lat="46.63878" lon="6.07741">
        <ele>1064.3</ele>
        <time>2021-07-09T07:38:49Z</time>
      </trkpt>
      <trkpt lat="46.63874" lon="6.07735">
        <ele>1064.2</ele>
        <time>2021-07-09T07:38:54Z</time>
      </trkpt>
      <trkpt lat="46.63872" lon="6.07729">
        <ele>1064.2</ele>
        <time>2021-07-09T07:38:59Z</time>
      </trkpt>
      <trkpt lat="46.6387" lon="6.07722">
        <ele>1063.8</ele>
        <time>2021-07-09T07:39:05Z</time>
      </trkpt>
      <trkpt lat="46.63866" lon="6.07718">
        <ele>1063.1</ele>
        <time>2021-07-09T07:39:13Z</time>
      </trkpt>
      <trkpt lat="46.63865" lon="6.07712">
        <ele>1062.4</ele>
        <time>2021-07-09T07:39:19Z</time>
      </trkpt>
      <trkpt lat="46.63862" lon="6.07705">
        <ele>1061.4</ele>
        <time>2021-07-09T07:39:25Z</time>
      </trkpt>
      <trkpt lat="46.63862" lon="6.07698">
        <ele>1060.5</ele>
        <time>2021-07-09T07:39:31Z</time>
      </trkpt>
      <trkpt lat="46.63862" lon="6.07691">
        <ele>1059.9</ele>
        <time>2021-07-09T07:39:35Z</time>
      </trkpt>
      <trkpt lat="46.63859" lon="6.07686">
        <ele>1058.5</ele>
        <time>2021-07-09T07:39:39Z</time>
      </trkpt>
      <trkpt lat="46.63855" lon="6.07682">
        <ele>1055.8</ele>
        <time>2021-07-09T07:39:48Z</time>
      </trkpt>
      <trkpt lat="46.63854" lon="6.07675">
        <ele>1053.7</ele>
        <time>2021-07-09T07:39:54Z</time>
      </trkpt>
      <trkpt lat="46.6385" lon="6.07671">
        <ele>1051.5</ele>
        <time>2021-07-09T07:40:01Z</time>
      </trkpt>
      <trkpt lat="46.63846" lon="6.07665">
        <ele>1050</ele>
        <time>2021-07-09T07:40:05Z</time>
      </trkpt>
      <trkpt lat="46.63843" lon="6.07659">
        <ele>1048.8</ele>
        <time>2021-07-09T07:40:09Z</time>
      </trkpt>
      <trkpt lat="46.63841" lon="6.07653">
        <ele>1047.6</ele>
        <time>2021-07-09T07:40:15Z</time>
      </trkpt>
      <trkpt lat="46.63837" lon="6.07648">
        <ele>1046.8</ele>
        <time>2021-07-09T07:40:21Z</time>
      </trkpt>
      <trkpt lat="46.63834" lon="6.07642">
        <ele>1046.2</ele>
        <time>2021-07-09T07:40:26Z</time>
      </trkpt>
      <trkpt lat="46.63829" lon="6.07637">
        <ele>1045.7</ele>
        <time>2021-07-09T07:40:31Z</time>
      </trkpt>
      <trkpt lat="46.63825" lon="6.07632">
        <ele>1044.8</ele>
        <time>2021-07-09T07:40:38Z</time>
      </trkpt>
      <trkpt lat="46.63821" lon="6.07633">
        <ele>1044.3</ele>
        <time>2021-07-09T07:40:44Z</time>
      </trkpt>
      <trkpt lat="46.63818" lon="6.07639">
        <ele>1043.3</ele>
        <time>2021-07-09T07:40:55Z</time>
      </trkpt>
      <trkpt lat="46.63814" lon="6.07644">
        <ele>1043.2</ele>
        <time>2021-07-09T07:41:01Z</time>
      </trkpt>
      <trkpt lat="46.63809" lon="6.07642">
        <ele>1040.7</ele>
        <time>2021-07-09T07:41:11Z</time>
      </trkpt>
      <trkpt lat="46.63806" lon="6.07648">
        <ele>1039.3</ele>
        <time>2021-07-09T07:41:16Z</time>
      </trkpt>
      <trkpt lat="46.63803" lon="6.07654">
        <ele>1038.6</ele>
        <time>2021-07-09T07:41:20Z</time>
      </trkpt>
      <trkpt lat="46.63802" lon="6.07662">
        <ele>1037.4</ele>
        <time>2021-07-09T07:41:24Z</time>
      </trkpt>
      <trkpt lat="46.63797" lon="6.07664">
        <ele>1036.6</ele>
        <time>2021-07-09T07:41:29Z</time>
      </trkpt>
      <trkpt lat="46.63792" lon="6.07666">
        <ele>1036.6</ele>
        <time>2021-07-09T07:41:33Z</time>
      </trkpt>
      <trkpt lat="46.63788" lon="6.07672">
        <ele>1036.8</ele>
        <time>2021-07-09T07:41:38Z</time>
      </trkpt>
      <trkpt lat="46.63784" lon="6.07674">
        <ele>1037.3</ele>
        <time>2021-07-09T07:41:43Z</time>
      </trkpt>
      <trkpt lat="46.63778" lon="6.07671">
        <ele>1038.1</ele>
        <time>2021-07-09T07:41:47Z</time>
      </trkpt>
      <trkpt lat="46.63774" lon="6.07666">
        <ele>1039.4</ele>
        <time>2021-07-09T07:41:53Z</time>
      </trkpt>
      <trkpt lat="46.6377" lon="6.07662">
        <ele>1039.6</ele>
        <time>2021-07-09T07:41:59Z</time>
      </trkpt>
      <trkpt lat="46.63771" lon="6.07655">
        <ele>1032.1</ele>
        <time>2021-07-09T07:42:09Z</time>
      </trkpt>
      <trkpt lat="46.63766" lon="6.07646">
        <ele>1029.2</ele>
        <time>2021-07-09T07:42:13Z</time>
      </trkpt>
      <trkpt lat="46.63762" lon="6.07638">
        <ele>1026.8</ele>
        <time>2021-07-09T07:42:17Z</time>
      </trkpt>
      <trkpt lat="46.63759" lon="6.07633">
        <ele>1025.2</ele>
        <time>2021-07-09T07:42:21Z</time>
      </trkpt>
      <trkpt lat="46.63752" lon="6.07632">
        <ele>1023.6</ele>
        <time>2021-07-09T07:42:25Z</time>
      </trkpt>
      <trkpt lat="46.63748" lon="6.07627">
        <ele>1022.7</ele>
        <time>2021-07-09T07:42:29Z</time>
      </trkpt>
      <trkpt lat="46.63745" lon="6.07623">
        <ele>1022</ele>
        <time>2021-07-09T07:42:33Z</time>
      </trkpt>
      <trkpt lat="46.63741" lon="6.07619">
        <ele>1021.7</ele>
        <time>2021-07-09T07:42:37Z</time>
      </trkpt>
      <trkpt lat="46.63737" lon="6.07615">
        <ele>1021.2</ele>
        <time>2021-07-09T07:42:43Z</time>
      </trkpt>
      <trkpt lat="46.63733" lon="6.07611">
        <ele>1021</ele>
        <time>2021-07-09T07:42:51Z</time>
      </trkpt>
      <trkpt lat="46.63729" lon="6.07607">
        <ele>1021.7</ele>
        <time>2021-07-09T07:42:58Z</time>
      </trkpt>
      <trkpt lat="46.63727" lon="6.07601">
        <ele>1022.7</ele>
        <time>2021-07-09T07:43:04Z</time>
      </trkpt>
      <trkpt lat="46.63723" lon="6.07598">
        <ele>1023.8</ele>
        <time>2021-07-09T07:43:09Z</time>
      </trkpt>
      <trkpt lat="46.6372" lon="6.07592">
        <ele>1025.6</ele>
        <time>2021-07-09T07:43:16Z</time>
      </trkpt>
      <trkpt lat="46.63717" lon="6.07587">
        <ele>1026.5</ele>
        <time>2021-07-09T07:43:24Z</time>
      </trkpt>
      <trkpt lat="46.63715" lon="6.0758">
        <ele>1027.3</ele>
        <time>2021-07-09T07:43:29Z</time>
      </trkpt>
      <trkpt lat="46.6371" lon="6.07578">
        <ele>1028.5</ele>
        <time>2021-07-09T07:43:36Z</time>
      </trkpt>
      <trkpt lat="46.63706" lon="6.07579">
        <ele>1028.2</ele>
        <time>2021-07-09T07:43:41Z</time>
      </trkpt>
      <trkpt lat="46.63702" lon="6.07574">
        <ele>1030.2</ele>
        <time>2021-07-09T07:43:56Z</time>
      </trkpt>
      <trkpt lat="46.63699" lon="6.07568">
        <ele>1033.8</ele>
        <time>2021-07-09T07:44:05Z</time>
      </trkpt>
      <trkpt lat="46.63695" lon="6.07565">
        <ele>1035.6</ele>
        <time>2021-07-09T07:44:10Z</time>
      </trkpt>
      <trkpt lat="46.6369" lon="6.07564">
        <ele>1036.8</ele>
        <time>2021-07-09T07:44:14Z</time>
      </trkpt>
      <trkpt lat="46.63686" lon="6.07565">
        <ele>1037.6</ele>
        <time>2021-07-09T07:44:20Z</time>
      </trkpt>
      <trkpt lat="46.63684" lon="6.07557">
        <ele>1037</ele>
        <time>2021-07-09T07:44:28Z</time>
      </trkpt>
      <trkpt lat="46.63681" lon="6.07552">
        <ele>1037.9</ele>
        <time>2021-07-09T07:44:34Z</time>
      </trkpt>
      <trkpt lat="46.63676" lon="6.07552">
        <ele>1039.1</ele>
        <time>2021-07-09T07:44:39Z</time>
      </trkpt>
      <trkpt lat="46.63671" lon="6.07549">
        <ele>1040.5</ele>
        <time>2021-07-09T07:44:47Z</time>
      </trkpt>
      <trkpt lat="46.63667" lon="6.07543">
        <ele>1043.4</ele>
        <time>2021-07-09T07:45:10Z</time>
      </trkpt>
      <trkpt lat="46.63665" lon="6.07534">
        <ele>1044</ele>
        <time>2021-07-09T07:45:14Z</time>
      </trkpt>
      <trkpt lat="46.63663" lon="6.07527">
        <ele>1044.7</ele>
        <time>2021-07-09T07:45:22Z</time>
      </trkpt>
      <trkpt lat="46.63662" lon="6.07519">
        <ele>1045</ele>
        <time>2021-07-09T07:45:26Z</time>
      </trkpt>
      <trkpt lat="46.63662" lon="6.07512">
        <ele>1045.2</ele>
        <time>2021-07-09T07:45:36Z</time>
      </trkpt>
      <trkpt lat="46.63661" lon="6.07506">
        <ele>1046.3</ele>
        <time>2021-07-09T07:45:43Z</time>
      </trkpt>
      <trkpt lat="46.63656" lon="6.07507">
        <ele>1047</ele>
        <time>2021-07-09T07:45:48Z</time>
      </trkpt>
      <trkpt lat="46.63658" lon="6.07513">
        <ele>1049</ele>
        <time>2021-07-09T07:45:58Z</time>
      </trkpt>
      <trkpt lat="46.6366" lon="6.07506">
        <ele>1048.4</ele>
        <time>2021-07-09T07:46:06Z</time>
      </trkpt>
      <trkpt lat="46.63659" lon="6.07499">
        <ele>1048.2</ele>
        <time>2021-07-09T07:46:10Z</time>
      </trkpt>
      <trkpt lat="46.63655" lon="6.07494">
        <ele>1048.8</ele>
        <time>2021-07-09T07:46:15Z</time>
      </trkpt>
      <trkpt lat="46.6365" lon="6.07489">
        <ele>1049.8</ele>
        <time>2021-07-09T07:46:19Z</time>
      </trkpt>
      <trkpt lat="46.63647" lon="6.07483">
        <ele>1051</ele>
        <time>2021-07-09T07:46:24Z</time>
      </trkpt>
      <trkpt lat="46.63643" lon="6.07477">
        <ele>1052.8</ele>
        <time>2021-07-09T07:46:36Z</time>
      </trkpt>
      <trkpt lat="46.63639" lon="6.07471">
        <ele>1055.4</ele>
        <time>2021-07-09T07:46:47Z</time>
      </trkpt>
      <trkpt lat="46.63636" lon="6.07467">
        <ele>1058.2</ele>
        <time>2021-07-09T07:46:55Z</time>
      </trkpt>
      <trkpt lat="46.63635" lon="6.0746">
        <ele>1059.8</ele>
        <time>2021-07-09T07:47:01Z</time>
      </trkpt>
      <trkpt lat="46.63634" lon="6.07453">
        <ele>1060.5</ele>
        <time>2021-07-09T07:47:09Z</time>
      </trkpt>
      <trkpt lat="46.63631" lon="6.07447">
        <ele>1060.7</ele>
        <time>2021-07-09T07:47:14Z</time>
      </trkpt>
      <trkpt lat="46.6363" lon="6.0744">
        <ele>1060.6</ele>
        <time>2021-07-09T07:47:18Z</time>
      </trkpt>
      <trkpt lat="46.6363" lon="6.07432">
        <ele>1060.8</ele>
        <time>2021-07-09T07:47:23Z</time>
      </trkpt>
      <trkpt lat="46.6363" lon="6.07425">
        <ele>1062.2</ele>
        <time>2021-07-09T07:47:31Z</time>
      </trkpt>
      <trkpt lat="46.63629" lon="6.07419">
        <ele>1062.5</ele>
        <time>2021-07-09T07:47:36Z</time>
      </trkpt>
      <trkpt lat="46.63633" lon="6.07413">
        <ele>1063</ele>
        <time>2021-07-09T07:47:40Z</time>
      </trkpt>
      <trkpt lat="46.63634" lon="6.07404">
        <ele>1063.4</ele>
        <time>2021-07-09T07:47:44Z</time>
      </trkpt>
      <trkpt lat="46.63637" lon="6.07398">
        <ele>1065.8</ele>
        <time>2021-07-09T07:47:53Z</time>
      </trkpt>
      <trkpt lat="46.63639" lon="6.0739">
        <ele>1067.2</ele>
        <time>2021-07-09T07:48:00Z</time>
      </trkpt>
      <trkpt lat="46.63642" lon="6.07382">
        <ele>1067.5</ele>
        <time>2021-07-09T07:48:04Z</time>
      </trkpt>
      <trkpt lat="46.63646" lon="6.0738">
        <ele>1067.7</ele>
        <time>2021-07-09T07:48:10Z</time>
      </trkpt>
      <trkpt lat="46.6365" lon="6.07376">
        <ele>1066.9</ele>
        <time>2021-07-09T07:48:18Z</time>
      </trkpt>
      <trkpt lat="46.63653" lon="6.07371">
        <ele>1066.6</ele>
        <time>2021-07-09T07:48:25Z</time>
      </trkpt>
      <trkpt lat="46.63652" lon="6.07364">
        <ele>1066.1</ele>
        <time>2021-07-09T07:48:31Z</time>
      </trkpt>
      <trkpt lat="46.63654" lon="6.07358">
        <ele>1065.6</ele>
        <time>2021-07-09T07:48:38Z</time>
      </trkpt>
      <trkpt lat="46.63659" lon="6.07355">
        <ele>1064.5</ele>
        <time>2021-07-09T07:48:44Z</time>
      </trkpt>
      <trkpt lat="46.63662" lon="6.07351">
        <ele>1062.9</ele>
        <time>2021-07-09T07:48:48Z</time>
      </trkpt>
      <trkpt lat="46.63666" lon="6.07345">
        <ele>1060.7</ele>
        <time>2021-07-09T07:48:52Z</time>
      </trkpt>
      <trkpt lat="46.63669" lon="6.07339">
        <ele>1058.4</ele>
        <time>2021-07-09T07:48:57Z</time>
      </trkpt>
      <trkpt lat="46.63671" lon="6.07334">
        <ele>1056.1</ele>
        <time>2021-07-09T07:49:05Z</time>
      </trkpt>
      <trkpt lat="46.63671" lon="6.07327">
        <ele>1053.8</ele>
        <time>2021-07-09T07:49:14Z</time>
      </trkpt>
      <trkpt lat="46.63669" lon="6.07321">
        <ele>1053.1</ele>
        <time>2021-07-09T07:49:22Z</time>
      </trkpt>
      <trkpt lat="46.63669" lon="6.07314">
        <ele>1052.5</ele>
        <time>2021-07-09T07:49:27Z</time>
      </trkpt>
      <trkpt lat="46.63671" lon="6.07307">
        <ele>1052.2</ele>
        <time>2021-07-09T07:49:33Z</time>
      </trkpt>
      <trkpt lat="46.63673" lon="6.07301">
        <ele>1052</ele>
        <time>2021-07-09T07:49:37Z</time>
      </trkpt>
      <trkpt lat="46.63673" lon="6.07293">
        <ele>1050.9</ele>
        <time>2021-07-09T07:49:44Z</time>
      </trkpt>
      <trkpt lat="46.63677" lon="6.07289">
        <ele>1050</ele>
        <time>2021-07-09T07:49:51Z</time>
      </trkpt>
      <trkpt lat="46.63681" lon="6.07285">
        <ele>1049.6</ele>
        <time>2021-07-09T07:49:57Z</time>
      </trkpt>
      <trkpt lat="46.63684" lon="6.07281">
        <ele>1048.9</ele>
        <time>2021-07-09T07:50:03Z</time>
      </trkpt>
      <trkpt lat="46.63687" lon="6.07275">
        <ele>1048.8</ele>
        <time>2021-07-09T07:50:08Z</time>
      </trkpt>
      <trkpt lat="46.63688" lon="6.07268">
        <ele>1048.9</ele>
        <time>2021-07-09T07:50:14Z</time>
      </trkpt>
      <trkpt lat="46.63691" lon="6.07261">
        <ele>1048.9</ele>
        <time>2021-07-09T07:50:19Z</time>
      </trkpt>
      <trkpt lat="46.63695" lon="6.07257">
        <ele>1048.6</ele>
        <time>2021-07-09T07:50:24Z</time>
      </trkpt>
      <trkpt lat="46.63696" lon="6.0725">
        <ele>1048.2</ele>
        <time>2021-07-09T07:50:30Z</time>
      </trkpt>
      <trkpt lat="46.63695" lon="6.07243">
        <ele>1048.2</ele>
        <time>2021-07-09T07:50:34Z</time>
      </trkpt>
      <trkpt lat="46.63693" lon="6.07236">
        <ele>1048.1</ele>
        <time>2021-07-09T07:50:38Z</time>
      </trkpt>
      <trkpt lat="46.63691" lon="6.07228">
        <ele>1048.2</ele>
        <time>2021-07-09T07:50:43Z</time>
      </trkpt>
      <trkpt lat="46.63694" lon="6.07221">
        <ele>1048.5</ele>
        <time>2021-07-09T07:50:50Z</time>
      </trkpt>
      <trkpt lat="46.63697" lon="6.07214">
        <ele>1049.2</ele>
        <time>2021-07-09T07:50:55Z</time>
      </trkpt>
      <trkpt lat="46.63699" lon="6.07207">
        <ele>1049.6</ele>
        <time>2021-07-09T07:50:59Z</time>
      </trkpt>
      <trkpt lat="46.63701" lon="6.072">
        <ele>1050</ele>
        <time>2021-07-09T07:51:22Z</time>
      </trkpt>
      <trkpt lat="46.63704" lon="6.07194">
        <ele>1049.4</ele>
        <time>2021-07-09T07:51:26Z</time>
      </trkpt>
      <trkpt lat="46.63708" lon="6.07189">
        <ele>1048.7</ele>
        <time>2021-07-09T07:51:31Z</time>
      </trkpt>
      <trkpt lat="46.6371" lon="6.07182">
        <ele>1047.6</ele>
        <time>2021-07-09T07:51:39Z</time>
      </trkpt>
      <trkpt lat="46.63711" lon="6.07174">
        <ele>1047.1</ele>
        <time>2021-07-09T07:51:44Z</time>
      </trkpt>
      <trkpt lat="46.63711" lon="6.07168">
        <ele>1046.4</ele>
        <time>2021-07-09T07:51:50Z</time>
      </trkpt>
      <trkpt lat="46.6371" lon="6.07161">
        <ele>1046.2</ele>
        <time>2021-07-09T07:51:54Z</time>
      </trkpt>
      <trkpt lat="46.63706" lon="6.07156">
        <ele>1046.2</ele>
        <time>2021-07-09T07:51:58Z</time>
      </trkpt>
      <trkpt lat="46.63703" lon="6.07151">
        <ele>1046.1</ele>
        <time>2021-07-09T07:52:02Z</time>
      </trkpt>
      <trkpt lat="46.63698" lon="6.07149">
        <ele>1046.2</ele>
        <time>2021-07-09T07:52:06Z</time>
      </trkpt>
      <trkpt lat="46.63695" lon="6.07144">
        <ele>1047.1</ele>
        <time>2021-07-09T07:52:19Z</time>
      </trkpt>
      <trkpt lat="46.6369" lon="6.07145">
        <ele>1047.3</ele>
        <time>2021-07-09T07:52:24Z</time>
      </trkpt>
      <trkpt lat="46.63685" lon="6.07147">
        <ele>1047.6</ele>
        <time>2021-07-09T07:52:28Z</time>
      </trkpt>
      <trkpt lat="46.63681" lon="6.07146">
        <ele>1047.8</ele>
        <time>2021-07-09T07:52:33Z</time>
      </trkpt>
      <trkpt lat="46.63676" lon="6.07148">
        <ele>1047.2</ele>
        <time>2021-07-09T07:52:41Z</time>
      </trkpt>
      <trkpt lat="46.63673" lon="6.07154">
        <ele>1047.1</ele>
        <time>2021-07-09T07:52:45Z</time>
      </trkpt>
      <trkpt lat="46.63669" lon="6.0716">
        <ele>1047</ele>
        <time>2021-07-09T07:52:49Z</time>
      </trkpt>
      <trkpt lat="46.63665" lon="6.07163">
        <ele>1046.4</ele>
        <time>2021-07-09T07:52:56Z</time>
      </trkpt>
      <trkpt lat="46.63662" lon="6.07169">
        <ele>1045.6</ele>
        <time>2021-07-09T07:53:01Z</time>
      </trkpt>
      <trkpt lat="46.63659" lon="6.07164">
        <ele>1044.7</ele>
        <time>2021-07-09T07:53:08Z</time>
      </trkpt>
      <trkpt lat="46.63654" lon="6.07161">
        <ele>1044.6</ele>
        <time>2021-07-09T07:53:14Z</time>
      </trkpt>
      <trkpt lat="46.63649" lon="6.07159">
        <ele>1044.7</ele>
        <time>2021-07-09T07:53:19Z</time>
      </trkpt>
      <trkpt lat="46.63645" lon="6.07162">
        <ele>1044.7</ele>
        <time>2021-07-09T07:53:28Z</time>
      </trkpt>
      <trkpt lat="46.63644" lon="6.07155">
        <ele>1045.3</ele>
        <time>2021-07-09T07:53:35Z</time>
      </trkpt>
      <trkpt lat="46.63644" lon="6.07147">
        <ele>1046</ele>
        <time>2021-07-09T07:53:45Z</time>
      </trkpt>
      <trkpt lat="46.63642" lon="6.07138">
        <ele>1047.8</ele>
        <time>2021-07-09T07:53:56Z</time>
      </trkpt>
      <trkpt lat="46.63641" lon="6.07129">
        <ele>1049.1</ele>
        <time>2021-07-09T07:54:00Z</time>
      </trkpt>
      <trkpt lat="46.63642" lon="6.07122">
        <ele>1050.6</ele>
        <time>2021-07-09T07:54:05Z</time>
      </trkpt>
      <trkpt lat="46.63638" lon="6.07125">
        <ele>1053.4</ele>
        <time>2021-07-09T07:54:19Z</time>
      </trkpt>
      <trkpt lat="46.63632" lon="6.07124">
        <ele>1054.9</ele>
        <time>2021-07-09T07:54:23Z</time>
      </trkpt>
      <trkpt lat="46.63634" lon="6.07131">
        <ele>1059.5</ele>
        <time>2021-07-09T07:54:37Z</time>
      </trkpt>
      <trkpt lat="46.63632" lon="6.07137">
        <ele>1060.8</ele>
        <time>2021-07-09T07:54:41Z</time>
      </trkpt>
      <trkpt lat="46.63628" lon="6.07143">
        <ele>1062.5</ele>
        <time>2021-07-09T07:54:46Z</time>
      </trkpt>
      <trkpt lat="46.63627" lon="6.0715">
        <ele>1064</ele>
        <time>2021-07-09T07:54:51Z</time>
      </trkpt>
      <trkpt lat="46.63624" lon="6.07156">
        <ele>1065.5</ele>
        <time>2021-07-09T07:54:57Z</time>
      </trkpt>
      <trkpt lat="46.63623" lon="6.07162">
        <ele>1066.6</ele>
        <time>2021-07-09T07:55:03Z</time>
      </trkpt>
      <trkpt lat="46.63619" lon="6.07168">
        <ele>1067.2</ele>
        <time>2021-07-09T07:55:08Z</time>
      </trkpt>
      <trkpt lat="46.63615" lon="6.0717">
        <ele>1068.1</ele>
        <time>2021-07-09T07:55:14Z</time>
      </trkpt>
      <trkpt lat="46.6361" lon="6.07172">
        <ele>1068.5</ele>
        <time>2021-07-09T07:55:20Z</time>
      </trkpt>
      <trkpt lat="46.63606" lon="6.07176">
        <ele>1068.4</ele>
        <time>2021-07-09T07:55:27Z</time>
      </trkpt>
      <trkpt lat="46.63604" lon="6.07182">
        <ele>1068</ele>
        <time>2021-07-09T07:55:31Z</time>
      </trkpt>
      <trkpt lat="46.636" lon="6.07186">
        <ele>1067.9</ele>
        <time>2021-07-09T07:55:35Z</time>
      </trkpt>
      <trkpt lat="46.63596" lon="6.07188">
        <ele>1067.8</ele>
        <time>2021-07-09T07:55:41Z</time>
      </trkpt>
      <trkpt lat="46.63591" lon="6.07189">
        <ele>1069.6</ele>
        <time>2021-07-09T07:55:49Z</time>
      </trkpt>
      <trkpt lat="46.63586" lon="6.07192">
        <ele>1070.4</ele>
        <time>2021-07-09T07:55:54Z</time>
      </trkpt>
      <trkpt lat="46.63582" lon="6.07195">
        <ele>1070.7</ele>
        <time>2021-07-09T07:56:00Z</time>
      </trkpt>
      <trkpt lat="46.63577" lon="6.07196">
        <ele>1071.1</ele>
        <time>2021-07-09T07:56:05Z</time>
      </trkpt>
      <trkpt lat="46.63571" lon="6.07196">
        <ele>1071.1</ele>
        <time>2021-07-09T07:56:09Z</time>
      </trkpt>
      <trkpt lat="46.63566" lon="6.07196">
        <ele>1071.5</ele>
        <time>2021-07-09T07:56:13Z</time>
      </trkpt>
      <trkpt lat="46.63561" lon="6.07195">
        <ele>1071.9</ele>
        <time>2021-07-09T07:56:18Z</time>
      </trkpt>
      <trkpt lat="46.63557" lon="6.0719">
        <ele>1071.7</ele>
        <time>2021-07-09T07:56:24Z</time>
      </trkpt>
      <trkpt lat="46.63554" lon="6.07186">
        <ele>1071.1</ele>
        <time>2021-07-09T07:56:29Z</time>
      </trkpt>
      <trkpt lat="46.63551" lon="6.0718">
        <ele>1070.4</ele>
        <time>2021-07-09T07:56:33Z</time>
      </trkpt>
      <trkpt lat="46.63549" lon="6.07173">
        <ele>1070.1</ele>
        <time>2021-07-09T07:56:37Z</time>
      </trkpt>
      <trkpt lat="46.63547" lon="6.07167">
        <ele>1069.9</ele>
        <time>2021-07-09T07:56:41Z</time>
      </trkpt>
      <trkpt lat="46.63543" lon="6.07161">
        <ele>1070</ele>
        <time>2021-07-09T07:56:46Z</time>
      </trkpt>
      <trkpt lat="46.63542" lon="6.07153">
        <ele>1069.7</ele>
        <time>2021-07-09T07:56:52Z</time>
      </trkpt>
      <trkpt lat="46.63543" lon="6.07147">
        <ele>1069.1</ele>
        <time>2021-07-09T07:56:56Z</time>
      </trkpt>
      <trkpt lat="46.63538" lon="6.07145">
        <ele>1067.6</ele>
        <time>2021-07-09T07:57:02Z</time>
      </trkpt>
      <trkpt lat="46.63533" lon="6.07143">
        <ele>1066.3</ele>
        <time>2021-07-09T07:57:06Z</time>
      </trkpt>
      <trkpt lat="46.63528" lon="6.07142">
        <ele>1064.6</ele>
        <time>2021-07-09T07:57:10Z</time>
      </trkpt>
      <trkpt lat="46.63523" lon="6.07142">
        <ele>1063</ele>
        <time>2021-07-09T07:57:14Z</time>
      </trkpt>
      <trkpt lat="46.63518" lon="6.07141">
        <ele>1061.8</ele>
        <time>2021-07-09T07:57:18Z</time>
      </trkpt>
      <trkpt lat="46.63513" lon="6.07138">
        <ele>1062.3</ele>
        <time>2021-07-09T07:57:23Z</time>
      </trkpt>
      <trkpt lat="46.63508" lon="6.07137">
        <ele>1063.2</ele>
        <time>2021-07-09T07:57:27Z</time>
      </trkpt>
      <trkpt lat="46.63503" lon="6.07137">
        <ele>1064.1</ele>
        <time>2021-07-09T07:57:31Z</time>
      </trkpt>
      <trkpt lat="46.63498" lon="6.0714">
        <ele>1065.2</ele>
        <time>2021-07-09T07:57:36Z</time>
      </trkpt>
      <trkpt lat="46.63494" lon="6.07142">
        <ele>1067</ele>
        <time>2021-07-09T07:57:43Z</time>
      </trkpt>
      <trkpt lat="46.63489" lon="6.07142">
        <ele>1068</ele>
        <time>2021-07-09T07:57:48Z</time>
      </trkpt>
      <trkpt lat="46.63484" lon="6.07142">
        <ele>1068.7</ele>
        <time>2021-07-09T07:57:52Z</time>
      </trkpt>
      <trkpt lat="46.63479" lon="6.07145">
        <ele>1069.6</ele>
        <time>2021-07-09T07:57:57Z</time>
      </trkpt>
      <trkpt lat="46.63474" lon="6.07146">
        <ele>1069.5</ele>
        <time>2021-07-09T07:58:04Z</time>
      </trkpt>
      <trkpt lat="46.6347" lon="6.07145">
        <ele>1069.8</ele>
        <time>2021-07-09T07:58:08Z</time>
      </trkpt>
      <trkpt lat="46.63465" lon="6.07145">
        <ele>1070</ele>
        <time>2021-07-09T07:58:13Z</time>
      </trkpt>
      <trkpt lat="46.6346" lon="6.07148">
        <ele>1070</ele>
        <time>2021-07-09T07:58:20Z</time>
      </trkpt>
      <trkpt lat="46.63455" lon="6.07151">
        <ele>1070.3</ele>
        <time>2021-07-09T07:58:24Z</time>
      </trkpt>
      <trkpt lat="46.63449" lon="6.07154">
        <ele>1070.4</ele>
        <time>2021-07-09T07:58:28Z</time>
      </trkpt>
      <trkpt lat="46.63444" lon="6.07154">
        <ele>1070.7</ele>
        <time>2021-07-09T07:58:34Z</time>
      </trkpt>
      <trkpt lat="46.63439" lon="6.07153">
        <ele>1070</ele>
        <time>2021-07-09T07:58:41Z</time>
      </trkpt>
      <trkpt lat="46.63433" lon="6.07154">
        <ele>1069.3</ele>
        <time>2021-07-09T07:58:45Z</time>
      </trkpt>
      <trkpt lat="46.63428" lon="6.07155">
        <ele>1068.5</ele>
        <time>2021-07-09T07:58:49Z</time>
      </trkpt>
      <trkpt lat="46.63423" lon="6.07154">
        <ele>1067</ele>
        <time>2021-07-09T07:58:55Z</time>
      </trkpt>
      <trkpt lat="46.63419" lon="6.0715">
        <ele>1065</ele>
        <time>2021-07-09T07:59:02Z</time>
      </trkpt>
      <trkpt lat="46.63415" lon="6.07143">
        <ele>1063.9</ele>
        <time>2021-07-09T07:59:07Z</time>
      </trkpt>
      <trkpt lat="46.63414" lon="6.07136">
        <ele>1061.5</ele>
        <time>2021-07-09T07:59:14Z</time>
      </trkpt>
      <trkpt lat="46.6341" lon="6.07132">
        <ele>1057.9</ele>
        <time>2021-07-09T07:59:24Z</time>
      </trkpt>
      <trkpt lat="46.63409" lon="6.07125">
        <ele>1055</ele>
        <time>2021-07-09T07:59:34Z</time>
      </trkpt>
      <trkpt lat="46.63409" lon="6.07118">
        <ele>1054.5</ele>
        <time>2021-07-09T07:59:39Z</time>
      </trkpt>
      <trkpt lat="46.63409" lon="6.07111">
        <ele>1054.9</ele>
        <time>2021-07-09T07:59:45Z</time>
      </trkpt>
      <trkpt lat="46.63406" lon="6.07104">
        <ele>1054.4</ele>
        <time>2021-07-09T07:59:51Z</time>
      </trkpt>
      <trkpt lat="46.63403" lon="6.07098">
        <ele>1053.1</ele>
        <time>2021-07-09T07:59:56Z</time>
      </trkpt>
      <trkpt lat="46.63399" lon="6.07095">
        <ele>1052.3</ele>
        <time>2021-07-09T08:00:00Z</time>
      </trkpt>
      <trkpt lat="46.63394" lon="6.0709">
        <ele>1052.1</ele>
        <time>2021-07-09T08:00:04Z</time>
      </trkpt>
      <trkpt lat="46.6339" lon="6.07088">
        <ele>1052.2</ele>
        <time>2021-07-09T08:00:08Z</time>
      </trkpt>
      <trkpt lat="46.63386" lon="6.07085">
        <ele>1052.7</ele>
        <time>2021-07-09T08:00:14Z</time>
      </trkpt>
      <trkpt lat="46.63382" lon="6.0708">
        <ele>1053.6</ele>
        <time>2021-07-09T08:00:23Z</time>
      </trkpt>
      <trkpt lat="46.63377" lon="6.07078">
        <ele>1053.9</ele>
        <time>2021-07-09T08:00:27Z</time>
      </trkpt>
      <trkpt lat="46.63373" lon="6.07075">
        <ele>1054</ele>
        <time>2021-07-09T08:00:32Z</time>
      </trkpt>
      <trkpt lat="46.63367" lon="6.07072">
        <ele>1054.9</ele>
        <time>2021-07-09T08:00:38Z</time>
      </trkpt>
      <trkpt lat="46.63363" lon="6.07069">
        <ele>1055.5</ele>
        <time>2021-07-09T08:00:42Z</time>
      </trkpt>
      <trkpt lat="46.63358" lon="6.07066">
        <ele>1056.2</ele>
        <time>2021-07-09T08:00:46Z</time>
      </trkpt>
      <trkpt lat="46.63355" lon="6.0706">
        <ele>1056.7</ele>
        <time>2021-07-09T08:00:51Z</time>
      </trkpt>
      <trkpt lat="46.63352" lon="6.07054">
        <ele>1057.9</ele>
        <time>2021-07-09T08:00:55Z</time>
      </trkpt>
      <trkpt lat="46.63352" lon="6.07047">
        <ele>1059.4</ele>
        <time>2021-07-09T08:00:59Z</time>
      </trkpt>
      <trkpt lat="46.63351" lon="6.07041">
        <ele>1060.7</ele>
        <time>2021-07-09T08:01:04Z</time>
      </trkpt>
      <trkpt lat="46.63349" lon="6.07035">
        <ele>1061.7</ele>
        <time>2021-07-09T08:01:10Z</time>
      </trkpt>
      <trkpt lat="46.63346" lon="6.07029">
        <ele>1062.3</ele>
        <time>2021-07-09T08:01:15Z</time>
      </trkpt>
      <trkpt lat="46.63343" lon="6.07023">
        <ele>1062.9</ele>
        <time>2021-07-09T08:01:19Z</time>
      </trkpt>
      <trkpt lat="46.6334" lon="6.07018">
        <ele>1063.4</ele>
        <time>2021-07-09T08:01:24Z</time>
      </trkpt>
      <trkpt lat="46.63338" lon="6.07012">
        <ele>1063</ele>
        <time>2021-07-09T08:01:29Z</time>
      </trkpt>
      <trkpt lat="46.63334" lon="6.07007">
        <ele>1061.9</ele>
        <time>2021-07-09T08:01:35Z</time>
      </trkpt>
      <trkpt lat="46.63332" lon="6.07001">
        <ele>1060.8</ele>
        <time>2021-07-09T08:01:40Z</time>
      </trkpt>
      <trkpt lat="46.6333" lon="6.06994">
        <ele>1060.6</ele>
        <time>2021-07-09T08:01:44Z</time>
      </trkpt>
      <trkpt lat="46.63326" lon="6.06987">
        <ele>1060</ele>
        <time>2021-07-09T08:01:48Z</time>
      </trkpt>
      <trkpt lat="46.63322" lon="6.0698">
        <ele>1059.6</ele>
        <time>2021-07-09T08:01:52Z</time>
      </trkpt>
      <trkpt lat="46.63321" lon="6.06973">
        <ele>1059.4</ele>
        <time>2021-07-09T08:01:57Z</time>
      </trkpt>
      <trkpt lat="46.63319" lon="6.06967">
        <ele>1059.2</ele>
        <time>2021-07-09T08:02:03Z</time>
      </trkpt>
      <trkpt lat="46.63317" lon="6.06961">
        <ele>1058.6</ele>
        <time>2021-07-09T08:02:08Z</time>
      </trkpt>
      <trkpt lat="46.63315" lon="6.06955">
        <ele>1058</ele>
        <time>2021-07-09T08:02:13Z</time>
      </trkpt>
      <trkpt lat="46.63312" lon="6.06949">
        <ele>1056.9</ele>
        <time>2021-07-09T08:02:18Z</time>
      </trkpt>
      <trkpt lat="46.63312" lon="6.06942">
        <ele>1055.9</ele>
        <time>2021-07-09T08:02:23Z</time>
      </trkpt>
      <trkpt lat="46.63312" lon="6.06935">
        <ele>1054</ele>
        <time>2021-07-09T08:02:29Z</time>
      </trkpt>
      <trkpt lat="46.63312" lon="6.06926">
        <ele>1052.9</ele>
        <time>2021-07-09T08:02:35Z</time>
      </trkpt>
      <trkpt lat="46.63312" lon="6.06919">
        <ele>1052.1</ele>
        <time>2021-07-09T08:02:40Z</time>
      </trkpt>
      <trkpt lat="46.6331" lon="6.06913">
        <ele>1051.8</ele>
        <time>2021-07-09T08:02:47Z</time>
      </trkpt>
      <trkpt lat="46.63311" lon="6.06906">
        <ele>1051.1</ele>
        <time>2021-07-09T08:02:56Z</time>
      </trkpt>
      <trkpt lat="46.63312" lon="6.06897">
        <ele>1050.8</ele>
        <time>2021-07-09T08:03:02Z</time>
      </trkpt>
      <trkpt lat="46.63314" lon="6.0689">
        <ele>1050.3</ele>
        <time>2021-07-09T08:03:07Z</time>
      </trkpt>
      <trkpt lat="46.63315" lon="6.06883">
        <ele>1049.5</ele>
        <time>2021-07-09T08:03:14Z</time>
      </trkpt>
      <trkpt lat="46.63313" lon="6.06875">
        <ele>1048.1</ele>
        <time>2021-07-09T08:03:20Z</time>
      </trkpt>
      <trkpt lat="46.63314" lon="6.06867">
        <ele>1047.1</ele>
        <time>2021-07-09T08:03:25Z</time>
      </trkpt>
      <trkpt lat="46.63313" lon="6.06859">
        <ele>1046.6</ele>
        <time>2021-07-09T08:03:29Z</time>
      </trkpt>
      <trkpt lat="46.63311" lon="6.06853">
        <ele>1046</ele>
        <time>2021-07-09T08:03:34Z</time>
      </trkpt>
      <trkpt lat="46.63308" lon="6.06847">
        <ele>1045.2</ele>
        <time>2021-07-09T08:03:39Z</time>
      </trkpt>
      <trkpt lat="46.63307" lon="6.0684">
        <ele>1044.6</ele>
        <time>2021-07-09T08:03:43Z</time>
      </trkpt>
      <trkpt lat="46.63304" lon="6.06835">
        <ele>1042.8</ele>
        <time>2021-07-09T08:03:51Z</time>
      </trkpt>
      <trkpt lat="46.633" lon="6.06831">
        <ele>1041.9</ele>
        <time>2021-07-09T08:03:55Z</time>
      </trkpt>
      <trkpt lat="46.63296" lon="6.06825">
        <ele>1041.2</ele>
        <time>2021-07-09T08:04:00Z</time>
      </trkpt>
      <trkpt lat="46.63295" lon="6.06818">
        <ele>1041.2</ele>
        <time>2021-07-09T08:04:04Z</time>
      </trkpt>
      <trkpt lat="46.6329" lon="6.06815">
        <ele>1040.9</ele>
        <time>2021-07-09T08:04:08Z</time>
      </trkpt>
      <trkpt lat="46.63285" lon="6.06813">
        <ele>1040.6</ele>
        <time>2021-07-09T08:04:12Z</time>
      </trkpt>
      <trkpt lat="46.6328" lon="6.06811">
        <ele>1040.2</ele>
        <time>2021-07-09T08:04:16Z</time>
      </trkpt>
      <trkpt lat="46.63274" lon="6.06809">
        <ele>1039.6</ele>
        <time>2021-07-09T08:04:20Z</time>
      </trkpt>
      <trkpt lat="46.63269" lon="6.0681">
        <ele>1039</ele>
        <time>2021-07-09T08:04:24Z</time>
      </trkpt>
      <trkpt lat="46.63264" lon="6.0681">
        <ele>1038.3</ele>
        <time>2021-07-09T08:04:28Z</time>
      </trkpt>
      <trkpt lat="46.63259" lon="6.06809">
        <ele>1037.6</ele>
        <time>2021-07-09T08:04:33Z</time>
      </trkpt>
      <trkpt lat="46.63253" lon="6.06809">
        <ele>1036.6</ele>
        <time>2021-07-09T08:04:38Z</time>
      </trkpt>
      <trkpt lat="46.63249" lon="6.06809">
        <ele>1035.8</ele>
        <time>2021-07-09T08:04:42Z</time>
      </trkpt>
      <trkpt lat="46.63244" lon="6.06809">
        <ele>1035.1</ele>
        <time>2021-07-09T08:04:47Z</time>
      </trkpt>
      <trkpt lat="46.63241" lon="6.06804">
        <ele>1034.6</ele>
        <time>2021-07-09T08:04:52Z</time>
      </trkpt>
      <trkpt lat="46.63236" lon="6.068">
        <ele>1034.1</ele>
        <time>2021-07-09T08:04:57Z</time>
      </trkpt>
      <trkpt lat="46.6323" lon="6.06798">
        <ele>1033.8</ele>
        <time>2021-07-09T08:05:01Z</time>
      </trkpt>
      <trkpt lat="46.63226" lon="6.06794">
        <ele>1033.7</ele>
        <time>2021-07-09T08:05:07Z</time>
      </trkpt>
      <trkpt lat="46.63222" lon="6.06791">
        <ele>1033.8</ele>
        <time>2021-07-09T08:05:12Z</time>
      </trkpt>
      <trkpt lat="46.63217" lon="6.0679">
        <ele>1033.7</ele>
        <time>2021-07-09T08:05:17Z</time>
      </trkpt>
      <trkpt lat="46.63213" lon="6.06785">
        <ele>1033.6</ele>
        <time>2021-07-09T08:05:22Z</time>
      </trkpt>
      <trkpt lat="46.63209" lon="6.06781">
        <ele>1033.6</ele>
        <time>2021-07-09T08:05:27Z</time>
      </trkpt>
      <trkpt lat="46.63204" lon="6.06775">
        <ele>1033.7</ele>
        <time>2021-07-09T08:05:31Z</time>
      </trkpt>
      <trkpt lat="46.632" lon="6.06768">
        <ele>1034</ele>
        <time>2021-07-09T08:05:35Z</time>
      </trkpt>
      <trkpt lat="46.632" lon="6.06762">
        <ele>1034.9</ele>
        <time>2021-07-09T08:05:44Z</time>
      </trkpt>
      <trkpt lat="46.63196" lon="6.06757">
        <ele>1035.7</ele>
        <time>2021-07-09T08:05:56Z</time>
      </trkpt>
      <trkpt lat="46.63191" lon="6.06755">
        <ele>1036.1</ele>
        <time>2021-07-09T08:06:01Z</time>
      </trkpt>
      <trkpt lat="46.63186" lon="6.06754">
        <ele>1036.4</ele>
        <time>2021-07-09T08:06:08Z</time>
      </trkpt>
      <trkpt lat="46.63182" lon="6.0675">
        <ele>1035.8</ele>
        <time>2021-07-09T08:06:19Z</time>
      </trkpt>
      <trkpt lat="46.63176" lon="6.0675">
        <ele>1035.7</ele>
        <time>2021-07-09T08:06:25Z</time>
      </trkpt>
      <trkpt lat="46.63171" lon="6.0675">
        <ele>1035.6</ele>
        <time>2021-07-09T08:06:32Z</time>
      </trkpt>
      <trkpt lat="46.63168" lon="6.06745">
        <ele>1035.8</ele>
        <time>2021-07-09T08:06:41Z</time>
      </trkpt>
      <trkpt lat="46.63162" lon="6.06744">
        <ele>1037.1</ele>
        <time>2021-07-09T08:06:47Z</time>
      </trkpt>
      <trkpt lat="46.63158" lon="6.06746">
        <ele>1038.4</ele>
        <time>2021-07-09T08:06:53Z</time>
      </trkpt>
      <trkpt lat="46.63154" lon="6.06748">
        <ele>1040.6</ele>
        <time>2021-07-09T08:07:31Z</time>
      </trkpt>
      <trkpt lat="46.63156" lon="6.06742">
        <ele>1041.1</ele>
        <time>2021-07-09T08:07:57Z</time>
      </trkpt>
      <trkpt lat="46.63153" lon="6.06736">
        <ele>1048.8</ele>
        <time>2021-07-09T08:08:18Z</time>
      </trkpt>
      <trkpt lat="46.63149" lon="6.06738">
        <ele>1049</ele>
        <time>2021-07-09T08:08:22Z</time>
      </trkpt>
      <trkpt lat="46.63144" lon="6.0674">
        <ele>1049.7</ele>
        <time>2021-07-09T08:08:28Z</time>
      </trkpt>
      <trkpt lat="46.63143" lon="6.06733">
        <ele>1051.6</ele>
        <time>2021-07-09T08:08:44Z</time>
      </trkpt>
      <trkpt lat="46.63139" lon="6.06728">
        <ele>1053.4</ele>
        <time>2021-07-09T08:08:53Z</time>
      </trkpt>
      <trkpt lat="46.63135" lon="6.06725">
        <ele>1053.1</ele>
        <time>2021-07-09T08:08:58Z</time>
      </trkpt>
      <trkpt lat="46.6313" lon="6.06723">
        <ele>1050.9</ele>
        <time>2021-07-09T08:09:03Z</time>
      </trkpt>
      <trkpt lat="46.63125" lon="6.06722">
        <ele>1047</ele>
        <time>2021-07-09T08:09:10Z</time>
      </trkpt>
      <trkpt lat="46.6312" lon="6.06723">
        <ele>1045.1</ele>
        <time>2021-07-09T08:09:14Z</time>
      </trkpt>
      <trkpt lat="46.63114" lon="6.06724">
        <ele>1043.6</ele>
        <time>2021-07-09T08:09:18Z</time>
      </trkpt>
      <trkpt lat="46.63108" lon="6.06722">
        <ele>1042.6</ele>
        <time>2021-07-09T08:09:22Z</time>
      </trkpt>
      <trkpt lat="46.63102" lon="6.06722">
        <ele>1041.9</ele>
        <time>2021-07-09T08:09:26Z</time>
      </trkpt>
      <trkpt lat="46.63096" lon="6.06723">
        <ele>1041.4</ele>
        <time>2021-07-09T08:09:30Z</time>
      </trkpt>
      <trkpt lat="46.6309" lon="6.06725">
        <ele>1041.1</ele>
        <time>2021-07-09T08:09:34Z</time>
      </trkpt>
      <trkpt lat="46.63084" lon="6.06724">
        <ele>1040.8</ele>
        <time>2021-07-09T08:09:38Z</time>
      </trkpt>
      <trkpt lat="46.63079" lon="6.06722">
        <ele>1040.7</ele>
        <time>2021-07-09T08:09:42Z</time>
      </trkpt>
      <trkpt lat="46.63075" lon="6.06716">
        <ele>1040.8</ele>
        <time>2021-07-09T08:09:46Z</time>
      </trkpt>
      <trkpt lat="46.63071" lon="6.06711">
        <ele>1040.4</ele>
        <time>2021-07-09T08:09:52Z</time>
      </trkpt>
      <trkpt lat="46.63067" lon="6.06709">
        <ele>1040.7</ele>
        <time>2021-07-09T08:09:57Z</time>
      </trkpt>
      <trkpt lat="46.63064" lon="6.06703">
        <ele>1040.9</ele>
        <time>2021-07-09T08:10:02Z</time>
      </trkpt>
      <trkpt lat="46.63062" lon="6.06695">
        <ele>1041.3</ele>
        <time>2021-07-09T08:10:07Z</time>
      </trkpt>
      <trkpt lat="46.6306" lon="6.06688">
        <ele>1041.5</ele>
        <time>2021-07-09T08:10:11Z</time>
      </trkpt>
      <trkpt lat="46.63057" lon="6.06682">
        <ele>1041.8</ele>
        <time>2021-07-09T08:10:15Z</time>
      </trkpt>
      <trkpt lat="46.63055" lon="6.06676">
        <ele>1042.1</ele>
        <time>2021-07-09T08:10:19Z</time>
      </trkpt>
      <trkpt lat="46.63054" lon="6.0667">
        <ele>1042.4</ele>
        <time>2021-07-09T08:10:23Z</time>
      </trkpt>
      <trkpt lat="46.63053" lon="6.06663">
        <ele>1042.8</ele>
        <time>2021-07-09T08:10:28Z</time>
      </trkpt>
      <trkpt lat="46.63048" lon="6.06658">
        <ele>1043.2</ele>
        <time>2021-07-09T08:10:32Z</time>
      </trkpt>
      <trkpt lat="46.63043" lon="6.06653">
        <ele>1043.3</ele>
        <time>2021-07-09T08:10:36Z</time>
      </trkpt>
      <trkpt lat="46.6304" lon="6.06647">
        <ele>1043.4</ele>
        <time>2021-07-09T08:10:40Z</time>
      </trkpt>
      <trkpt lat="46.63037" lon="6.06641">
        <ele>1043.1</ele>
        <time>2021-07-09T08:10:44Z</time>
      </trkpt>
      <trkpt lat="46.63034" lon="6.06635">
        <ele>1043.1</ele>
        <time>2021-07-09T08:10:48Z</time>
      </trkpt>
      <trkpt lat="46.6303" lon="6.0663">
        <ele>1043.3</ele>
        <time>2021-07-09T08:10:53Z</time>
      </trkpt>
      <trkpt lat="46.63026" lon="6.06626">
        <ele>1043.6</ele>
        <time>2021-07-09T08:10:59Z</time>
      </trkpt>
      <trkpt lat="46.63022" lon="6.06623">
        <ele>1044</ele>
        <time>2021-07-09T08:11:05Z</time>
      </trkpt>
      <trkpt lat="46.63017" lon="6.06623">
        <ele>1044.1</ele>
        <time>2021-07-09T08:11:10Z</time>
      </trkpt>
      <trkpt lat="46.63012" lon="6.06621">
        <ele>1043.9</ele>
        <time>2021-07-09T08:11:20Z</time>
      </trkpt>
      <trkpt lat="46.63007" lon="6.06622">
        <ele>1044</ele>
        <time>2021-07-09T08:11:24Z</time>
      </trkpt>
      <trkpt lat="46.63001" lon="6.06625">
        <ele>1043.9</ele>
        <time>2021-07-09T08:11:28Z</time>
      </trkpt>
      <trkpt lat="46.62995" lon="6.06629">
        <ele>1043.7</ele>
        <time>2021-07-09T08:11:32Z</time>
      </trkpt>
      <trkpt lat="46.62989" lon="6.06631">
        <ele>1043.8</ele>
        <time>2021-07-09T08:11:36Z</time>
      </trkpt>
      <trkpt lat="46.62985" lon="6.06631">
        <ele>1043.9</ele>
        <time>2021-07-09T08:11:42Z</time>
      </trkpt>
      <trkpt lat="46.62981" lon="6.06634">
        <ele>1044.4</ele>
        <time>2021-07-09T08:11:49Z</time>
      </trkpt>
      <trkpt lat="46.62975" lon="6.06634">
        <ele>1045.6</ele>
        <time>2021-07-09T08:11:54Z</time>
      </trkpt>
      <trkpt lat="46.62971" lon="6.06633">
        <ele>1046.6</ele>
        <time>2021-07-09T08:11:59Z</time>
      </trkpt>
      <trkpt lat="46.62966" lon="6.06639">
        <ele>1047.5</ele>
        <time>2021-07-09T08:12:04Z</time>
      </trkpt>
      <trkpt lat="46.62964" lon="6.06645">
        <ele>1048.4</ele>
        <time>2021-07-09T08:12:09Z</time>
      </trkpt>
      <trkpt lat="46.62963" lon="6.06652">
        <ele>1049.5</ele>
        <time>2021-07-09T08:12:18Z</time>
      </trkpt>
      <trkpt lat="46.62959" lon="6.06657">
        <ele>1049.9</ele>
        <time>2021-07-09T08:12:25Z</time>
      </trkpt>
      <trkpt lat="46.62955" lon="6.06661">
        <ele>1050.1</ele>
        <time>2021-07-09T08:12:29Z</time>
      </trkpt>
      <trkpt lat="46.6295" lon="6.06666">
        <ele>1050.1</ele>
        <time>2021-07-09T08:12:33Z</time>
      </trkpt>
      <trkpt lat="46.62946" lon="6.06671">
        <ele>1050.1</ele>
        <time>2021-07-09T08:12:37Z</time>
      </trkpt>
      <trkpt lat="46.6294" lon="6.06674">
        <ele>1050.1</ele>
        <time>2021-07-09T08:12:41Z</time>
      </trkpt>
      <trkpt lat="46.62936" lon="6.06678">
        <ele>1050.4</ele>
        <time>2021-07-09T08:12:45Z</time>
      </trkpt>
      <trkpt lat="46.62933" lon="6.06684">
        <ele>1050.5</ele>
        <time>2021-07-09T08:12:49Z</time>
      </trkpt>
      <trkpt lat="46.62929" lon="6.0669">
        <ele>1051.1</ele>
        <time>2021-07-09T08:12:54Z</time>
      </trkpt>
      <trkpt lat="46.62926" lon="6.06695">
        <ele>1051.7</ele>
        <time>2021-07-09T08:12:58Z</time>
      </trkpt>
      <trkpt lat="46.62923" lon="6.06701">
        <ele>1052.4</ele>
        <time>2021-07-09T08:13:03Z</time>
      </trkpt>
      <trkpt lat="46.6292" lon="6.06706">
        <ele>1052.9</ele>
        <time>2021-07-09T08:13:08Z</time>
      </trkpt>
      <trkpt lat="46.62915" lon="6.0671">
        <ele>1053.3</ele>
        <time>2021-07-09T08:13:13Z</time>
      </trkpt>
      <trkpt lat="46.62911" lon="6.06714">
        <ele>1053.4</ele>
        <time>2021-07-09T08:13:17Z</time>
      </trkpt>
      <trkpt lat="46.62907" lon="6.06718">
        <ele>1053</ele>
        <time>2021-07-09T08:13:22Z</time>
      </trkpt>
      <trkpt lat="46.62902" lon="6.0672">
        <ele>1052.4</ele>
        <time>2021-07-09T08:13:27Z</time>
      </trkpt>
      <trkpt lat="46.62898" lon="6.06719">
        <ele>1051.8</ele>
        <time>2021-07-09T08:13:32Z</time>
      </trkpt>
      <trkpt lat="46.62893" lon="6.06721">
        <ele>1051.2</ele>
        <time>2021-07-09T08:13:36Z</time>
      </trkpt>
      <trkpt lat="46.62889" lon="6.06719">
        <ele>1050.3</ele>
        <time>2021-07-09T08:13:40Z</time>
      </trkpt>
      <trkpt lat="46.62884" lon="6.06717">
        <ele>1049.3</ele>
        <time>2021-07-09T08:13:44Z</time>
      </trkpt>
      <trkpt lat="46.62877" lon="6.06715">
        <ele>1047.9</ele>
        <time>2021-07-09T08:13:48Z</time>
      </trkpt>
      <trkpt lat="46.62872" lon="6.06713">
        <ele>1046.5</ele>
        <time>2021-07-09T08:13:52Z</time>
      </trkpt>
      <trkpt lat="46.62866" lon="6.06712">
        <ele>1045</ele>
        <time>2021-07-09T08:13:56Z</time>
      </trkpt>
      <trkpt lat="46.62864" lon="6.06705">
        <ele>1043.7</ele>
        <time>2021-07-09T08:14:01Z</time>
      </trkpt>
      <trkpt lat="46.62862" lon="6.06698">
        <ele>1043</ele>
        <time>2021-07-09T08:14:05Z</time>
      </trkpt>
      <trkpt lat="46.62858" lon="6.06694">
        <ele>1042.5</ele>
        <time>2021-07-09T08:14:10Z</time>
      </trkpt>
      <trkpt lat="46.62854" lon="6.0669">
        <ele>1042.1</ele>
        <time>2021-07-09T08:14:16Z</time>
      </trkpt>
      <trkpt lat="46.62849" lon="6.06686">
        <ele>1041.2</ele>
        <time>2021-07-09T08:14:22Z</time>
      </trkpt>
      <trkpt lat="46.62846" lon="6.06681">
        <ele>1040.3</ele>
        <time>2021-07-09T08:14:27Z</time>
      </trkpt>
      <trkpt lat="46.62843" lon="6.06676">
        <ele>1039.8</ele>
        <time>2021-07-09T08:14:31Z</time>
      </trkpt>
      <trkpt lat="46.6284" lon="6.0667">
        <ele>1039.1</ele>
        <time>2021-07-09T08:14:35Z</time>
      </trkpt>
      <trkpt lat="46.62836" lon="6.06665">
        <ele>1038.7</ele>
        <time>2021-07-09T08:14:40Z</time>
      </trkpt>
      <trkpt lat="46.62832" lon="6.0666">
        <ele>1038.3</ele>
        <time>2021-07-09T08:14:45Z</time>
      </trkpt>
      <trkpt lat="46.62827" lon="6.06657">
        <ele>1038</ele>
        <time>2021-07-09T08:14:50Z</time>
      </trkpt>
      <trkpt lat="46.62823" lon="6.06652">
        <ele>1037.2</ele>
        <time>2021-07-09T08:14:58Z</time>
      </trkpt>
      <trkpt lat="46.62819" lon="6.06649">
        <ele>1036.1</ele>
        <time>2021-07-09T08:15:05Z</time>
      </trkpt>
      <trkpt lat="46.62815" lon="6.06644">
        <ele>1032.2</ele>
        <time>2021-07-09T08:15:20Z</time>
      </trkpt>
      <trkpt lat="46.62811" lon="6.0664">
        <ele>1032</ele>
        <time>2021-07-09T08:15:24Z</time>
      </trkpt>
      <trkpt lat="46.62806" lon="6.06636">
        <ele>1031.8</ele>
        <time>2021-07-09T08:15:30Z</time>
      </trkpt>
      <trkpt lat="46.62802" lon="6.06632">
        <ele>1031.3</ele>
        <time>2021-07-09T08:15:36Z</time>
      </trkpt>
      <trkpt lat="46.62798" lon="6.06627">
        <ele>1030.9</ele>
        <time>2021-07-09T08:15:40Z</time>
      </trkpt>
      <trkpt lat="46.62794" lon="6.06623">
        <ele>1030.9</ele>
        <time>2021-07-09T08:15:44Z</time>
      </trkpt>
      <trkpt lat="46.6279" lon="6.06617">
        <ele>1031.3</ele>
        <time>2021-07-09T08:15:48Z</time>
      </trkpt>
      <trkpt lat="46.62786" lon="6.06612">
        <ele>1032.1</ele>
        <time>2021-07-09T08:15:52Z</time>
      </trkpt>
      <trkpt lat="46.62783" lon="6.06606">
        <ele>1033.2</ele>
        <time>2021-07-09T08:15:56Z</time>
      </trkpt>
      <trkpt lat="46.62779" lon="6.06602">
        <ele>1034.9</ele>
        <time>2021-07-09T08:16:02Z</time>
      </trkpt>
      <trkpt lat="46.62775" lon="6.06599">
        <ele>1036.3</ele>
        <time>2021-07-09T08:16:07Z</time>
      </trkpt>
      <trkpt lat="46.62771" lon="6.06594">
        <ele>1037.8</ele>
        <time>2021-07-09T08:16:12Z</time>
      </trkpt>
      <trkpt lat="46.62766" lon="6.0659">
        <ele>1038.4</ele>
        <time>2021-07-09T08:16:17Z</time>
      </trkpt>
      <trkpt lat="46.62763" lon="6.06585">
        <ele>1038.1</ele>
        <time>2021-07-09T08:16:26Z</time>
      </trkpt>
      <trkpt lat="46.62758" lon="6.06583">
        <ele>1038</ele>
        <time>2021-07-09T08:16:31Z</time>
      </trkpt>
      <trkpt lat="46.62753" lon="6.06581">
        <ele>1037.8</ele>
        <time>2021-07-09T08:16:36Z</time>
      </trkpt>
      <trkpt lat="46.62749" lon="6.06579">
        <ele>1037.8</ele>
        <time>2021-07-09T08:16:40Z</time>
      </trkpt>
      <trkpt lat="46.62744" lon="6.06579">
        <ele>1037.7</ele>
        <time>2021-07-09T08:16:45Z</time>
      </trkpt>
      <trkpt lat="46.62739" lon="6.06578">
        <ele>1037.8</ele>
        <time>2021-07-09T08:16:51Z</time>
      </trkpt>
      <trkpt lat="46.62733" lon="6.06577">
        <ele>1037.9</ele>
        <time>2021-07-09T08:16:56Z</time>
      </trkpt>
      <trkpt lat="46.62729" lon="6.06574">
        <ele>1038.4</ele>
        <time>2021-07-09T08:17:01Z</time>
      </trkpt>
      <trkpt lat="46.62724" lon="6.0657">
        <ele>1039.1</ele>
        <time>2021-07-09T08:17:05Z</time>
      </trkpt>
      <trkpt lat="46.6272" lon="6.06568">
        <ele>1039.8</ele>
        <time>2021-07-09T08:17:09Z</time>
      </trkpt>
      <trkpt lat="46.62715" lon="6.06568">
        <ele>1040.2</ele>
        <time>2021-07-09T08:17:13Z</time>
      </trkpt>
      <trkpt lat="46.62711" lon="6.06565">
        <ele>1040</ele>
        <time>2021-07-09T08:17:17Z</time>
      </trkpt>
      <trkpt lat="46.62707" lon="6.0656">
        <ele>1039.7</ele>
        <time>2021-07-09T08:17:21Z</time>
      </trkpt>
      <trkpt lat="46.62704" lon="6.06556">
        <ele>1038.9</ele>
        <time>2021-07-09T08:17:25Z</time>
      </trkpt>
      <trkpt lat="46.62701" lon="6.0655">
        <ele>1038.5</ele>
        <time>2021-07-09T08:17:30Z</time>
      </trkpt>
      <trkpt lat="46.62697" lon="6.06547">
        <ele>1038.6</ele>
        <time>2021-07-09T08:17:34Z</time>
      </trkpt>
      <trkpt lat="46.62692" lon="6.06545">
        <ele>1039</ele>
        <time>2021-07-09T08:17:38Z</time>
      </trkpt>
      <trkpt lat="46.62687" lon="6.06543">
        <ele>1039.6</ele>
        <time>2021-07-09T08:17:43Z</time>
      </trkpt>
      <trkpt lat="46.62681" lon="6.0654">
        <ele>1040.2</ele>
        <time>2021-07-09T08:17:47Z</time>
      </trkpt>
      <trkpt lat="46.62678" lon="6.06534">
        <ele>1040.5</ele>
        <time>2021-07-09T08:17:53Z</time>
      </trkpt>
      <trkpt lat="46.62674" lon="6.06531">
        <ele>1040.3</ele>
        <time>2021-07-09T08:18:00Z</time>
      </trkpt>
      <trkpt lat="46.6267" lon="6.06529">
        <ele>1040.3</ele>
        <time>2021-07-09T08:18:08Z</time>
      </trkpt>
      <trkpt lat="46.62665" lon="6.06526">
        <ele>1040</ele>
        <time>2021-07-09T08:18:15Z</time>
      </trkpt>
      <trkpt lat="46.6266" lon="6.06521">
        <ele>1039.9</ele>
        <time>2021-07-09T08:18:19Z</time>
      </trkpt>
      <trkpt lat="46.62654" lon="6.06517">
        <ele>1040</ele>
        <time>2021-07-09T08:18:23Z</time>
      </trkpt>
      <trkpt lat="46.62647" lon="6.06512">
        <ele>1040.1</ele>
        <time>2021-07-09T08:18:27Z</time>
      </trkpt>
      <trkpt lat="46.62641" lon="6.0651">
        <ele>1040.4</ele>
        <time>2021-07-09T08:18:31Z</time>
      </trkpt>
      <trkpt lat="46.62637" lon="6.06508">
        <ele>1040.9</ele>
        <time>2021-07-09T08:18:35Z</time>
      </trkpt>
      <trkpt lat="46.62632" lon="6.0651">
        <ele>1041.4</ele>
        <time>2021-07-09T08:18:39Z</time>
      </trkpt>
      <trkpt lat="46.62627" lon="6.06511">
        <ele>1042.1</ele>
        <time>2021-07-09T08:18:44Z</time>
      </trkpt>
      <trkpt lat="46.62624" lon="6.06506">
        <ele>1043</ele>
        <time>2021-07-09T08:18:50Z</time>
      </trkpt>
      <trkpt lat="46.62619" lon="6.06502">
        <ele>1042.8</ele>
        <time>2021-07-09T08:18:56Z</time>
      </trkpt>
      <trkpt lat="46.62614" lon="6.06499">
        <ele>1042.3</ele>
        <time>2021-07-09T08:19:00Z</time>
      </trkpt>
      <trkpt lat="46.62609" lon="6.06496">
        <ele>1041.8</ele>
        <time>2021-07-09T08:19:04Z</time>
      </trkpt>
      <trkpt lat="46.62604" lon="6.06492">
        <ele>1041.6</ele>
        <time>2021-07-09T08:19:08Z</time>
      </trkpt>
      <trkpt lat="46.626" lon="6.06487">
        <ele>1041.5</ele>
        <time>2021-07-09T08:19:12Z</time>
      </trkpt>
      <trkpt lat="46.62597" lon="6.06483">
        <ele>1041.2</ele>
        <time>2021-07-09T08:19:16Z</time>
      </trkpt>
      <trkpt lat="46.62594" lon="6.06476">
        <ele>1041.3</ele>
        <time>2021-07-09T08:19:21Z</time>
      </trkpt>
      <trkpt lat="46.62592" lon="6.06471">
        <ele>1041.3</ele>
        <time>2021-07-09T08:19:26Z</time>
      </trkpt>
      <trkpt lat="46.6259" lon="6.06464">
        <ele>1040.1</ele>
        <time>2021-07-09T08:19:32Z</time>
      </trkpt>
      <trkpt lat="46.62586" lon="6.06459">
        <ele>1037.6</ele>
        <time>2021-07-09T08:19:39Z</time>
      </trkpt>
      <trkpt lat="46.62582" lon="6.06454">
        <ele>1035.9</ele>
        <time>2021-07-09T08:19:44Z</time>
      </trkpt>
      <trkpt lat="46.62579" lon="6.0645">
        <ele>1034.8</ele>
        <time>2021-07-09T08:19:49Z</time>
      </trkpt>
      <trkpt lat="46.62576" lon="6.06444">
        <ele>1033.7</ele>
        <time>2021-07-09T08:19:54Z</time>
      </trkpt>
      <trkpt lat="46.62576" lon="6.06436">
        <ele>1032.9</ele>
        <time>2021-07-09T08:19:58Z</time>
      </trkpt>
      <trkpt lat="46.62577" lon="6.06428">
        <ele>1032.5</ele>
        <time>2021-07-09T08:20:02Z</time>
      </trkpt>
      <trkpt lat="46.62578" lon="6.06419">
        <ele>1032.5</ele>
        <time>2021-07-09T08:20:06Z</time>
      </trkpt>
      <trkpt lat="46.62578" lon="6.06413">
        <ele>1032.6</ele>
        <time>2021-07-09T08:20:10Z</time>
      </trkpt>
      <trkpt lat="46.62578" lon="6.06405">
        <ele>1032.9</ele>
        <time>2021-07-09T08:20:15Z</time>
      </trkpt>
      <trkpt lat="46.62577" lon="6.06398">
        <ele>1033</ele>
        <time>2021-07-09T08:20:19Z</time>
      </trkpt>
      <trkpt lat="46.62574" lon="6.06392">
        <ele>1032.9</ele>
        <time>2021-07-09T08:20:25Z</time>
      </trkpt>
      <trkpt lat="46.6257" lon="6.06387">
        <ele>1032</ele>
        <time>2021-07-09T08:20:30Z</time>
      </trkpt>
      <trkpt lat="46.62566" lon="6.06383">
        <ele>1031.2</ele>
        <time>2021-07-09T08:20:34Z</time>
      </trkpt>
      <trkpt lat="46.62561" lon="6.06381">
        <ele>1029.9</ele>
        <time>2021-07-09T08:20:39Z</time>
      </trkpt>
      <trkpt lat="46.62556" lon="6.06381">
        <ele>1028.5</ele>
        <time>2021-07-09T08:20:43Z</time>
      </trkpt>
      <trkpt lat="46.62551" lon="6.06381">
        <ele>1026.5</ele>
        <time>2021-07-09T08:20:48Z</time>
      </trkpt>
      <trkpt lat="46.62547" lon="6.06379">
        <ele>1024.5</ele>
        <time>2021-07-09T08:20:55Z</time>
      </trkpt>
      <trkpt lat="46.62543" lon="6.06374">
        <ele>1022.6</ele>
        <time>2021-07-09T08:21:02Z</time>
      </trkpt>
      <trkpt lat="46.62539" lon="6.06371">
        <ele>1020.9</ele>
        <time>2021-07-09T08:21:09Z</time>
      </trkpt>
      <trkpt lat="46.62539" lon="6.06364">
        <ele>1020.4</ele>
        <time>2021-07-09T08:21:16Z</time>
      </trkpt>
      <trkpt lat="46.62533" lon="6.06366">
        <ele>1022.3</ele>
        <time>2021-07-09T08:21:22Z</time>
      </trkpt>
      <trkpt lat="46.62529" lon="6.0637">
        <ele>1024.3</ele>
        <time>2021-07-09T08:21:27Z</time>
      </trkpt>
      <trkpt lat="46.62525" lon="6.06375">
        <ele>1025.9</ele>
        <time>2021-07-09T08:21:32Z</time>
      </trkpt>
      <trkpt lat="46.6252" lon="6.06377">
        <ele>1027</ele>
        <time>2021-07-09T08:21:36Z</time>
      </trkpt>
      <trkpt lat="46.62515" lon="6.06381">
        <ele>1027.9</ele>
        <time>2021-07-09T08:21:40Z</time>
      </trkpt>
      <trkpt lat="46.62511" lon="6.06385">
        <ele>1029.1</ele>
        <time>2021-07-09T08:21:45Z</time>
      </trkpt>
      <trkpt lat="46.62506" lon="6.06386">
        <ele>1029.8</ele>
        <time>2021-07-09T08:21:49Z</time>
      </trkpt>
      <trkpt lat="46.62501" lon="6.06386">
        <ele>1031.2</ele>
        <time>2021-07-09T08:21:56Z</time>
      </trkpt>
      <trkpt lat="46.62498" lon="6.06391">
        <ele>1030.3</ele>
        <time>2021-07-09T08:22:13Z</time>
      </trkpt>
      <trkpt lat="46.62493" lon="6.06392">
        <ele>1030.5</ele>
        <time>2021-07-09T08:22:19Z</time>
      </trkpt>
      <trkpt lat="46.62488" lon="6.06393">
        <ele>1030.6</ele>
        <time>2021-07-09T08:22:27Z</time>
      </trkpt>
      <trkpt lat="46.62484" lon="6.06397">
        <ele>1030.2</ele>
        <time>2021-07-09T08:22:31Z</time>
      </trkpt>
      <trkpt lat="46.6248" lon="6.06401">
        <ele>1029.7</ele>
        <time>2021-07-09T08:22:35Z</time>
      </trkpt>
      <trkpt lat="46.62475" lon="6.06405">
        <ele>1029.8</ele>
        <time>2021-07-09T08:22:39Z</time>
      </trkpt>
      <trkpt lat="46.6247" lon="6.06407">
        <ele>1029.6</ele>
        <time>2021-07-09T08:22:44Z</time>
      </trkpt>
      <trkpt lat="46.62465" lon="6.06406">
        <ele>1028.9</ele>
        <time>2021-07-09T08:22:49Z</time>
      </trkpt>
      <trkpt lat="46.6246" lon="6.06408">
        <ele>1028.6</ele>
        <time>2021-07-09T08:22:54Z</time>
      </trkpt>
      <trkpt lat="46.62455" lon="6.0641">
        <ele>1028.8</ele>
        <time>2021-07-09T08:22:58Z</time>
      </trkpt>
      <trkpt lat="46.62449" lon="6.06411">
        <ele>1029.2</ele>
        <time>2021-07-09T08:23:02Z</time>
      </trkpt>
      <trkpt lat="46.62444" lon="6.06409">
        <ele>1029.4</ele>
        <time>2021-07-09T08:23:06Z</time>
      </trkpt>
      <trkpt lat="46.62439" lon="6.06408">
        <ele>1029.1</ele>
        <time>2021-07-09T08:23:11Z</time>
      </trkpt>
      <trkpt lat="46.62434" lon="6.06408">
        <ele>1028.5</ele>
        <time>2021-07-09T08:23:15Z</time>
      </trkpt>
      <trkpt lat="46.62429" lon="6.0641">
        <ele>1027.5</ele>
        <time>2021-07-09T08:23:20Z</time>
      </trkpt>
      <trkpt lat="46.62424" lon="6.06415">
        <ele>1026.2</ele>
        <time>2021-07-09T08:23:26Z</time>
      </trkpt>
      <trkpt lat="46.62421" lon="6.06419">
        <ele>1025.6</ele>
        <time>2021-07-09T08:23:30Z</time>
      </trkpt>
      <trkpt lat="46.62418" lon="6.06425">
        <ele>1025.2</ele>
        <time>2021-07-09T08:23:35Z</time>
      </trkpt>
      <trkpt lat="46.62414" lon="6.06431">
        <ele>1024.1</ele>
        <time>2021-07-09T08:23:40Z</time>
      </trkpt>
      <trkpt lat="46.6241" lon="6.06436">
        <ele>1022.9</ele>
        <time>2021-07-09T08:23:44Z</time>
      </trkpt>
      <trkpt lat="46.62407" lon="6.06441">
        <ele>1022</ele>
        <time>2021-07-09T08:23:48Z</time>
      </trkpt>
      <trkpt lat="46.62404" lon="6.06447">
        <ele>1020.8</ele>
        <time>2021-07-09T08:23:53Z</time>
      </trkpt>
      <trkpt lat="46.62402" lon="6.06454">
        <ele>1020.4</ele>
        <time>2021-07-09T08:23:58Z</time>
      </trkpt>
      <trkpt lat="46.624" lon="6.0646">
        <ele>1020.4</ele>
        <time>2021-07-09T08:24:03Z</time>
      </trkpt>
      <trkpt lat="46.62401" lon="6.06467">
        <ele>1020.7</ele>
        <time>2021-07-09T08:24:12Z</time>
      </trkpt>
      <trkpt lat="46.62398" lon="6.06475">
        <ele>1020.7</ele>
        <time>2021-07-09T08:24:16Z</time>
      </trkpt>
      <trkpt lat="46.62394" lon="6.06485">
        <ele>1020.5</ele>
        <time>2021-07-09T08:24:20Z</time>
      </trkpt>
      <trkpt lat="46.62393" lon="6.06493">
        <ele>1020.3</ele>
        <time>2021-07-09T08:24:24Z</time>
      </trkpt>
      <trkpt lat="46.62391" lon="6.06499">
        <ele>1020.4</ele>
        <time>2021-07-09T08:24:30Z</time>
      </trkpt>
      <trkpt lat="46.62389" lon="6.06505">
        <ele>1020.6</ele>
        <time>2021-07-09T08:24:36Z</time>
      </trkpt>
      <trkpt lat="46.62386" lon="6.06512">
        <ele>1021.2</ele>
        <time>2021-07-09T08:24:41Z</time>
      </trkpt>
      <trkpt lat="46.62383" lon="6.06518">
        <ele>1021.6</ele>
        <time>2021-07-09T08:24:45Z</time>
      </trkpt>
      <trkpt lat="46.62379" lon="6.06525">
        <ele>1021.8</ele>
        <time>2021-07-09T08:24:49Z</time>
      </trkpt>
      <trkpt lat="46.62378" lon="6.06531">
        <ele>1021.8</ele>
        <time>2021-07-09T08:24:53Z</time>
      </trkpt>
      <trkpt lat="46.62374" lon="6.06534">
        <ele>1021.3</ele>
        <time>2021-07-09T08:25:01Z</time>
      </trkpt>
      <trkpt lat="46.62371" lon="6.06541">
        <ele>1020.6</ele>
        <time>2021-07-09T08:25:06Z</time>
      </trkpt>
      <trkpt lat="46.62368" lon="6.06548">
        <ele>1019.9</ele>
        <time>2021-07-09T08:25:10Z</time>
      </trkpt>
      <trkpt lat="46.62365" lon="6.06554">
        <ele>1019.2</ele>
        <time>2021-07-09T08:25:15Z</time>
      </trkpt>
      <trkpt lat="46.62362" lon="6.0656">
        <ele>1019.1</ele>
        <time>2021-07-09T08:25:21Z</time>
      </trkpt>
      <trkpt lat="46.62358" lon="6.06565">
        <ele>1019.5</ele>
        <time>2021-07-09T08:25:26Z</time>
      </trkpt>
      <trkpt lat="46.62354" lon="6.0657">
        <ele>1020.1</ele>
        <time>2021-07-09T08:25:31Z</time>
      </trkpt>
      <trkpt lat="46.62349" lon="6.06575">
        <ele>1020.2</ele>
        <time>2021-07-09T08:25:35Z</time>
      </trkpt>
      <trkpt lat="46.62344" lon="6.06579">
        <ele>1019.3</ele>
        <time>2021-07-09T08:25:39Z</time>
      </trkpt>
      <trkpt lat="46.6234" lon="6.06583">
        <ele>1018.5</ele>
        <time>2021-07-09T08:25:43Z</time>
      </trkpt>
      <trkpt lat="46.62336" lon="6.06587">
        <ele>1018.2</ele>
        <time>2021-07-09T08:25:50Z</time>
      </trkpt>
      <trkpt lat="46.6233" lon="6.06592">
        <ele>1018.3</ele>
        <time>2021-07-09T08:25:56Z</time>
      </trkpt>
      <trkpt lat="46.62325" lon="6.06599">
        <ele>1017.6</ele>
        <time>2021-07-09T08:26:00Z</time>
      </trkpt>
      <trkpt lat="46.6232" lon="6.06605">
        <ele>1017.4</ele>
        <time>2021-07-09T08:26:04Z</time>
      </trkpt>
      <trkpt lat="46.62315" lon="6.06609">
        <ele>1017.8</ele>
        <time>2021-07-09T08:26:08Z</time>
      </trkpt>
      <trkpt lat="46.62311" lon="6.06611">
        <ele>1022.5</ele>
        <time>2021-07-09T08:26:20Z</time>
      </trkpt>
      <trkpt lat="46.62306" lon="6.0661">
        <ele>1023.8</ele>
        <time>2021-07-09T08:26:27Z</time>
      </trkpt>
      <trkpt lat="46.623" lon="6.06617">
        <ele>1024.9</ele>
        <time>2021-07-09T08:26:31Z</time>
      </trkpt>
      <trkpt lat="46.62295" lon="6.0662">
        <ele>1025.6</ele>
        <time>2021-07-09T08:26:38Z</time>
      </trkpt>
      <trkpt lat="46.6229" lon="6.06623">
        <ele>1025.9</ele>
        <time>2021-07-09T08:26:45Z</time>
      </trkpt>
      <trkpt lat="46.62286" lon="6.06631">
        <ele>1026.1</ele>
        <time>2021-07-09T08:26:49Z</time>
      </trkpt>
      <trkpt lat="46.62281" lon="6.06638">
        <ele>1026.2</ele>
        <time>2021-07-09T08:26:53Z</time>
      </trkpt>
      <trkpt lat="46.62276" lon="6.06643">
        <ele>1026.7</ele>
        <time>2021-07-09T08:26:57Z</time>
      </trkpt>
      <trkpt lat="46.62272" lon="6.06646">
        <ele>1027.3</ele>
        <time>2021-07-09T08:27:01Z</time>
      </trkpt>
      <trkpt lat="46.62267" lon="6.06649">
        <ele>1027.4</ele>
        <time>2021-07-09T08:27:07Z</time>
      </trkpt>
      <trkpt lat="46.62263" lon="6.06652">
        <ele>1027.2</ele>
        <time>2021-07-09T08:27:13Z</time>
      </trkpt>
      <trkpt lat="46.62257" lon="6.06653">
        <ele>1027.1</ele>
        <time>2021-07-09T08:27:18Z</time>
      </trkpt>
      <trkpt lat="46.62252" lon="6.06657">
        <ele>1027.4</ele>
        <time>2021-07-09T08:27:24Z</time>
      </trkpt>
      <trkpt lat="46.62247" lon="6.0666">
        <ele>1028.3</ele>
        <time>2021-07-09T08:27:30Z</time>
      </trkpt>
      <trkpt lat="46.62242" lon="6.06664">
        <ele>1028.8</ele>
        <time>2021-07-09T08:27:35Z</time>
      </trkpt>
      <trkpt lat="46.62238" lon="6.0667">
        <ele>1029.4</ele>
        <time>2021-07-09T08:27:40Z</time>
      </trkpt>
      <trkpt lat="46.62233" lon="6.06673">
        <ele>1029.9</ele>
        <time>2021-07-09T08:27:45Z</time>
      </trkpt>
      <trkpt lat="46.6223" lon="6.06678">
        <ele>1030.8</ele>
        <time>2021-07-09T08:27:52Z</time>
      </trkpt>
      <trkpt lat="46.62228" lon="6.06684">
        <ele>1031</ele>
        <time>2021-07-09T08:27:58Z</time>
      </trkpt>
      <trkpt lat="46.62224" lon="6.06688">
        <ele>1031.2</ele>
        <time>2021-07-09T08:28:04Z</time>
      </trkpt>
      <trkpt lat="46.6222" lon="6.06692">
        <ele>1031.8</ele>
        <time>2021-07-09T08:28:11Z</time>
      </trkpt>
      <trkpt lat="46.62215" lon="6.06693">
        <ele>1032.1</ele>
        <time>2021-07-09T08:28:15Z</time>
      </trkpt>
      <trkpt lat="46.62209" lon="6.06696">
        <ele>1032.3</ele>
        <time>2021-07-09T08:28:19Z</time>
      </trkpt>
      <trkpt lat="46.62206" lon="6.06701">
        <ele>1032.2</ele>
        <time>2021-07-09T08:28:26Z</time>
      </trkpt>
      <trkpt lat="46.62203" lon="6.06706">
        <ele>1031.7</ele>
        <time>2021-07-09T08:28:33Z</time>
      </trkpt>
      <trkpt lat="46.62196" lon="6.06711">
        <ele>1031.6</ele>
        <time>2021-07-09T08:28:37Z</time>
      </trkpt>
      <trkpt lat="46.6219" lon="6.06718">
        <ele>1031.4</ele>
        <time>2021-07-09T08:28:41Z</time>
      </trkpt>
      <trkpt lat="46.62184" lon="6.06722">
        <ele>1031.3</ele>
        <time>2021-07-09T08:28:45Z</time>
      </trkpt>
      <trkpt lat="46.62176" lon="6.06726">
        <ele>1031.3</ele>
        <time>2021-07-09T08:28:49Z</time>
      </trkpt>
      <trkpt lat="46.62172" lon="6.06728">
        <ele>1031.5</ele>
        <time>2021-07-09T08:28:54Z</time>
      </trkpt>
      <trkpt lat="46.62167" lon="6.06731">
        <ele>1031.5</ele>
        <time>2021-07-09T08:28:58Z</time>
      </trkpt>
      <trkpt lat="46.6216" lon="6.06732">
        <ele>1031.2</ele>
        <time>2021-07-09T08:29:02Z</time>
      </trkpt>
      <trkpt lat="46.62155" lon="6.06735">
        <ele>1031</ele>
        <time>2021-07-09T08:29:06Z</time>
      </trkpt>
      <trkpt lat="46.6215" lon="6.06738">
        <ele>1030.7</ele>
        <time>2021-07-09T08:29:12Z</time>
      </trkpt>
      <trkpt lat="46.62149" lon="6.06729">
        <ele>1029.9</ele>
        <time>2021-07-09T08:29:43Z</time>
      </trkpt>
      <trkpt lat="46.62149" lon="6.06737">
        <ele>1030</ele>
        <time>2021-07-09T08:29:56Z</time>
      </trkpt>
      <trkpt lat="46.62154" lon="6.06738">
        <ele>1031.1</ele>
        <time>2021-07-09T08:30:07Z</time>
      </trkpt>
      <trkpt lat="46.62151" lon="6.06733">
        <ele>1031.2</ele>
        <time>2021-07-09T08:30:20Z</time>
      </trkpt>
      <trkpt lat="46.62148" lon="6.06727">
        <ele>1031</ele>
        <time>2021-07-09T08:30:32Z</time>
      </trkpt>
      <trkpt lat="46.62148" lon="6.0672">
        <ele>1030.3</ele>
        <time>2021-07-09T08:30:56Z</time>
      </trkpt>
      <trkpt lat="46.62146" lon="6.06728">
        <ele>1029.9</ele>
        <time>2021-07-09T08:31:30Z</time>
      </trkpt>
      <trkpt lat="46.62146" lon="6.06721">
        <ele>1033.4</ele>
        <time>2021-07-09T08:32:01Z</time>
      </trkpt>
      <trkpt lat="46.62143" lon="6.06727">
        <ele>1032.2</ele>
        <time>2021-07-09T08:32:17Z</time>
      </trkpt>
      <trkpt lat="46.62149" lon="6.06729">
        <ele>1030.8</ele>
        <time>2021-07-09T08:32:53Z</time>
      </trkpt>
      <trkpt lat="46.62148" lon="6.06722">
        <ele>1031.6</ele>
        <time>2021-07-09T08:33:02Z</time>
      </trkpt>
      <trkpt lat="46.62142" lon="6.06724">
        <ele>1032.3</ele>
        <time>2021-07-09T08:33:06Z</time>
      </trkpt>
      <trkpt lat="46.62139" lon="6.06732">
        <ele>1032.8</ele>
        <time>2021-07-09T08:33:10Z</time>
      </trkpt>
      <trkpt lat="46.62135" lon="6.06737">
        <ele>1033</ele>
        <time>2021-07-09T08:33:14Z</time>
      </trkpt>
      <trkpt lat="46.62131" lon="6.06741">
        <ele>1032.9</ele>
        <time>2021-07-09T08:33:21Z</time>
      </trkpt>
      <trkpt lat="46.62127" lon="6.06745">
        <ele>1032.7</ele>
        <time>2021-07-09T08:33:29Z</time>
      </trkpt>
      <trkpt lat="46.62124" lon="6.06753">
        <ele>1032.4</ele>
        <time>2021-07-09T08:33:37Z</time>
      </trkpt>
      <trkpt lat="46.62122" lon="6.06759">
        <ele>1032.4</ele>
        <time>2021-07-09T08:33:41Z</time>
      </trkpt>
      <trkpt lat="46.62117" lon="6.06757">
        <ele>1032.5</ele>
        <time>2021-07-09T08:33:48Z</time>
      </trkpt>
      <trkpt lat="46.62104" lon="6.06756">
        <ele>1032</ele>
        <time>2021-07-09T08:34:01Z</time>
      </trkpt>
      <trkpt lat="46.62099" lon="6.06757">
        <ele>1032.2</ele>
        <time>2021-07-09T08:34:08Z</time>
      </trkpt>
      <trkpt lat="46.62094" lon="6.06759">
        <ele>1033.1</ele>
        <time>2021-07-09T08:34:12Z</time>
      </trkpt>
      <trkpt lat="46.62089" lon="6.06762">
        <ele>1034.8</ele>
        <time>2021-07-09T08:34:17Z</time>
      </trkpt>
      <trkpt lat="46.62085" lon="6.06765">
        <ele>1037.4</ele>
        <time>2021-07-09T08:34:23Z</time>
      </trkpt>
      <trkpt lat="46.6208" lon="6.06768">
        <ele>1038.8</ele>
        <time>2021-07-09T08:34:28Z</time>
      </trkpt>
      <trkpt lat="46.62075" lon="6.06769">
        <ele>1039.5</ele>
        <time>2021-07-09T08:34:33Z</time>
      </trkpt>
      <trkpt lat="46.62073" lon="6.06777">
        <ele>1039.3</ele>
        <time>2021-07-09T08:34:39Z</time>
      </trkpt>
      <trkpt lat="46.62071" lon="6.06783">
        <ele>1038.9</ele>
        <time>2021-07-09T08:34:44Z</time>
      </trkpt>
      <trkpt lat="46.62067" lon="6.06787">
        <ele>1038.5</ele>
        <time>2021-07-09T08:34:54Z</time>
      </trkpt>
      <trkpt lat="46.62065" lon="6.06795">
        <ele>1037.7</ele>
        <time>2021-07-09T08:35:02Z</time>
      </trkpt>
      <trkpt lat="46.6206" lon="6.06802">
        <ele>1036.4</ele>
        <time>2021-07-09T08:35:06Z</time>
      </trkpt>
      <trkpt lat="46.62056" lon="6.06804">
        <ele>1036.1</ele>
        <time>2021-07-09T08:35:11Z</time>
      </trkpt>
      <trkpt lat="46.6205" lon="6.06805">
        <ele>1038.2</ele>
        <time>2021-07-09T08:35:23Z</time>
      </trkpt>
      <trkpt lat="46.62047" lon="6.06809">
        <ele>1039</ele>
        <time>2021-07-09T08:35:29Z</time>
      </trkpt>
      <trkpt lat="46.62042" lon="6.06808">
        <ele>1039.7</ele>
        <time>2021-07-09T08:35:36Z</time>
      </trkpt>
      <trkpt lat="46.62038" lon="6.0681">
        <ele>1039.9</ele>
        <time>2021-07-09T08:35:40Z</time>
      </trkpt>
      <trkpt lat="46.62043" lon="6.06809">
        <ele>1041.1</ele>
        <time>2021-07-09T08:35:53Z</time>
      </trkpt>
      <trkpt lat="46.62047" lon="6.06809">
        <ele>1042.5</ele>
        <time>2021-07-09T08:36:02Z</time>
      </trkpt>
      <trkpt lat="46.62047" lon="6.06802">
        <ele>1042.4</ele>
        <time>2021-07-09T08:36:11Z</time>
      </trkpt>
      <trkpt lat="46.62047" lon="6.06795">
        <ele>1044.1</ele>
        <time>2021-07-09T08:36:53Z</time>
      </trkpt>
      <trkpt lat="46.62043" lon="6.068">
        <ele>1043.3</ele>
        <time>2021-07-09T08:37:23Z</time>
      </trkpt>
      <trkpt lat="46.62038" lon="6.06802">
        <ele>1041.7</ele>
        <time>2021-07-09T08:37:28Z</time>
      </trkpt>
      <trkpt lat="46.62043" lon="6.06799">
        <ele>1039.3</ele>
        <time>2021-07-09T08:37:40Z</time>
      </trkpt>
      <trkpt lat="46.62042" lon="6.06807">
        <ele>1042.7</ele>
        <time>2021-07-09T08:38:15Z</time>
      </trkpt>
      <trkpt lat="46.62048" lon="6.06808">
        <ele>1044.3</ele>
        <time>2021-07-09T08:38:27Z</time>
      </trkpt>
      <trkpt lat="46.62045" lon="6.06802">
        <ele>1046.9</ele>
        <time>2021-07-09T08:38:55Z</time>
      </trkpt>
      <trkpt lat="46.62049" lon="6.06805">
        <ele>1050</ele>
        <time>2021-07-09T08:39:04Z</time>
      </trkpt>
      <trkpt lat="46.62047" lon="6.068">
        <ele>1052</ele>
        <time>2021-07-09T08:39:16Z</time>
      </trkpt>
      <trkpt lat="46.62042" lon="6.06803">
        <ele>1054</ele>
        <time>2021-07-09T08:39:44Z</time>
      </trkpt>
      <trkpt lat="46.62041" lon="6.06796">
        <ele>1055.7</ele>
        <time>2021-07-09T08:40:01Z</time>
      </trkpt>
      <trkpt lat="46.62039" lon="6.06802">
        <ele>1055.1</ele>
        <time>2021-07-09T08:40:18Z</time>
      </trkpt>
      <trkpt lat="46.6204" lon="6.06809">
        <ele>1056</ele>
        <time>2021-07-09T08:40:22Z</time>
      </trkpt>
      <trkpt lat="46.62043" lon="6.06816">
        <ele>1056.7</ele>
        <time>2021-07-09T08:40:26Z</time>
      </trkpt>
      <trkpt lat="46.62046" lon="6.06822">
        <ele>1057.5</ele>
        <time>2021-07-09T08:40:30Z</time>
      </trkpt>
      <trkpt lat="46.62049" lon="6.06829">
        <ele>1058.6</ele>
        <time>2021-07-09T08:40:34Z</time>
      </trkpt>
      <trkpt lat="46.62047" lon="6.06836">
        <ele>1059.7</ele>
        <time>2021-07-09T08:40:39Z</time>
      </trkpt>
      <trkpt lat="46.62046" lon="6.06843">
        <ele>1060.8</ele>
        <time>2021-07-09T08:40:44Z</time>
      </trkpt>
      <trkpt lat="46.62046" lon="6.06851">
        <ele>1061.3</ele>
        <time>2021-07-09T08:40:49Z</time>
      </trkpt>
      <trkpt lat="46.62045" lon="6.06858">
        <ele>1061.3</ele>
        <time>2021-07-09T08:40:54Z</time>
      </trkpt>
      <trkpt lat="46.62043" lon="6.06864">
        <ele>1061</ele>
        <time>2021-07-09T08:41:05Z</time>
      </trkpt>
      <trkpt lat="46.62043" lon="6.06872">
        <ele>1060.9</ele>
        <time>2021-07-09T08:41:13Z</time>
      </trkpt>
      <trkpt lat="46.62041" lon="6.06878">
        <ele>1060.6</ele>
        <time>2021-07-09T08:41:19Z</time>
      </trkpt>
      <trkpt lat="46.62037" lon="6.06883">
        <ele>1060</ele>
        <time>2021-07-09T08:41:24Z</time>
      </trkpt>
      <trkpt lat="46.62033" lon="6.06889">
        <ele>1059.1</ele>
        <time>2021-07-09T08:41:29Z</time>
      </trkpt>
      <trkpt lat="46.62029" lon="6.06894">
        <ele>1057.8</ele>
        <time>2021-07-09T08:41:33Z</time>
      </trkpt>
      <trkpt lat="46.62027" lon="6.069">
        <ele>1056.3</ele>
        <time>2021-07-09T08:41:37Z</time>
      </trkpt>
      <trkpt lat="46.62027" lon="6.06908">
        <ele>1055</ele>
        <time>2021-07-09T08:41:42Z</time>
      </trkpt>
      <trkpt lat="46.62028" lon="6.06914">
        <ele>1054.2</ele>
        <time>2021-07-09T08:41:47Z</time>
      </trkpt>
      <trkpt lat="46.62027" lon="6.06921">
        <ele>1054.5</ele>
        <time>2021-07-09T08:41:53Z</time>
      </trkpt>
      <trkpt lat="46.62026" lon="6.06928">
        <ele>1055.7</ele>
        <time>2021-07-09T08:41:58Z</time>
      </trkpt>
      <trkpt lat="46.62024" lon="6.06935">
        <ele>1056.9</ele>
        <time>2021-07-09T08:42:03Z</time>
      </trkpt>
      <trkpt lat="46.62019" lon="6.06941">
        <ele>1057.9</ele>
        <time>2021-07-09T08:42:07Z</time>
      </trkpt>
      <trkpt lat="46.62014" lon="6.06944">
        <ele>1059.2</ele>
        <time>2021-07-09T08:42:11Z</time>
      </trkpt>
      <trkpt lat="46.6201" lon="6.06949">
        <ele>1060.5</ele>
        <time>2021-07-09T08:42:16Z</time>
      </trkpt>
      <trkpt lat="46.62006" lon="6.06954">
        <ele>1061.3</ele>
        <time>2021-07-09T08:42:22Z</time>
      </trkpt>
      <trkpt lat="46.62002" lon="6.06958">
        <ele>1061.6</ele>
        <time>2021-07-09T08:42:28Z</time>
      </trkpt>
      <trkpt lat="46.61998" lon="6.06963">
        <ele>1061.7</ele>
        <time>2021-07-09T08:42:32Z</time>
      </trkpt>
      <trkpt lat="46.61996" lon="6.06969">
        <ele>1061.9</ele>
        <time>2021-07-09T08:42:37Z</time>
      </trkpt>
      <trkpt lat="46.61994" lon="6.06975">
        <ele>1062.7</ele>
        <time>2021-07-09T08:42:42Z</time>
      </trkpt>
      <trkpt lat="46.61991" lon="6.06981">
        <ele>1063.6</ele>
        <time>2021-07-09T08:42:47Z</time>
      </trkpt>
      <trkpt lat="46.61987" lon="6.06986">
        <ele>1064.7</ele>
        <time>2021-07-09T08:42:52Z</time>
      </trkpt>
      <trkpt lat="46.61985" lon="6.06993">
        <ele>1065.4</ele>
        <time>2021-07-09T08:42:57Z</time>
      </trkpt>
      <trkpt lat="46.61982" lon="6.06998">
        <ele>1066.1</ele>
        <time>2021-07-09T08:43:03Z</time>
      </trkpt>
      <trkpt lat="46.61979" lon="6.07006">
        <ele>1066.3</ele>
        <time>2021-07-09T08:43:07Z</time>
      </trkpt>
      <trkpt lat="46.61975" lon="6.07013">
        <ele>1066.1</ele>
        <time>2021-07-09T08:43:11Z</time>
      </trkpt>
      <trkpt lat="46.61971" lon="6.07017">
        <ele>1065.1</ele>
        <time>2021-07-09T08:43:16Z</time>
      </trkpt>
      <trkpt lat="46.61966" lon="6.07019">
        <ele>1064.3</ele>
        <time>2021-07-09T08:43:20Z</time>
      </trkpt>
      <trkpt lat="46.61962" lon="6.07022">
        <ele>1063.2</ele>
        <time>2021-07-09T08:43:24Z</time>
      </trkpt>
      <trkpt lat="46.61957" lon="6.07026">
        <ele>1061.5</ele>
        <time>2021-07-09T08:43:31Z</time>
      </trkpt>
      <trkpt lat="46.61953" lon="6.07028">
        <ele>1061</ele>
        <time>2021-07-09T08:43:35Z</time>
      </trkpt>
      <trkpt lat="46.61947" lon="6.07033">
        <ele>1060.4</ele>
        <time>2021-07-09T08:43:39Z</time>
      </trkpt>
      <trkpt lat="46.61945" lon="6.0704">
        <ele>1059.4</ele>
        <time>2021-07-09T08:43:44Z</time>
      </trkpt>
      <trkpt lat="46.61941" lon="6.07043">
        <ele>1058.3</ele>
        <time>2021-07-09T08:43:50Z</time>
      </trkpt>
      <trkpt lat="46.6194" lon="6.07051">
        <ele>1056.4</ele>
        <time>2021-07-09T08:44:00Z</time>
      </trkpt>
      <trkpt lat="46.61941" lon="6.07059">
        <ele>1055.7</ele>
        <time>2021-07-09T08:44:04Z</time>
      </trkpt>
      <trkpt lat="46.61938" lon="6.07066">
        <ele>1055.1</ele>
        <time>2021-07-09T08:44:09Z</time>
      </trkpt>
      <trkpt lat="46.61934" lon="6.0707">
        <ele>1054.8</ele>
        <time>2021-07-09T08:44:13Z</time>
      </trkpt>
      <trkpt lat="46.61931" lon="6.07076">
        <ele>1054.1</ele>
        <time>2021-07-09T08:44:19Z</time>
      </trkpt>
      <trkpt lat="46.6193" lon="6.07084">
        <ele>1053</ele>
        <time>2021-07-09T08:44:25Z</time>
      </trkpt>
      <trkpt lat="46.6193" lon="6.0709">
        <ele>1052.5</ele>
        <time>2021-07-09T08:44:30Z</time>
      </trkpt>
      <trkpt lat="46.61926" lon="6.07095">
        <ele>1052.2</ele>
        <time>2021-07-09T08:44:36Z</time>
      </trkpt>
      <trkpt lat="46.61924" lon="6.07102">
        <ele>1052</ele>
        <time>2021-07-09T08:44:43Z</time>
      </trkpt>
      <trkpt lat="46.6192" lon="6.07105">
        <ele>1052.3</ele>
        <time>2021-07-09T08:44:48Z</time>
      </trkpt>
      <trkpt lat="46.61917" lon="6.07111">
        <ele>1053.4</ele>
        <time>2021-07-09T08:44:53Z</time>
      </trkpt>
      <trkpt lat="46.61914" lon="6.07117">
        <ele>1054.6</ele>
        <time>2021-07-09T08:44:58Z</time>
      </trkpt>
      <trkpt lat="46.61909" lon="6.07122">
        <ele>1055.1</ele>
        <time>2021-07-09T08:45:02Z</time>
      </trkpt>
      <trkpt lat="46.61908" lon="6.0713">
        <ele>1055.5</ele>
        <time>2021-07-09T08:45:06Z</time>
      </trkpt>
      <trkpt lat="46.61903" lon="6.07135">
        <ele>1056</ele>
        <time>2021-07-09T08:45:11Z</time>
      </trkpt>
      <trkpt lat="46.61896" lon="6.07136">
        <ele>1056.8</ele>
        <time>2021-07-09T08:45:15Z</time>
      </trkpt>
      <trkpt lat="46.61892" lon="6.07141">
        <ele>1058.1</ele>
        <time>2021-07-09T08:45:19Z</time>
      </trkpt>
      <trkpt lat="46.61888" lon="6.07145">
        <ele>1059.1</ele>
        <time>2021-07-09T08:45:23Z</time>
      </trkpt>
      <trkpt lat="46.61886" lon="6.07151">
        <ele>1060</ele>
        <time>2021-07-09T08:45:29Z</time>
      </trkpt>
      <trkpt lat="46.61883" lon="6.07155">
        <ele>1060.3</ele>
        <time>2021-07-09T08:45:34Z</time>
      </trkpt>
      <trkpt lat="46.61879" lon="6.07159">
        <ele>1060.6</ele>
        <time>2021-07-09T08:45:40Z</time>
      </trkpt>
      <trkpt lat="46.61875" lon="6.07164">
        <ele>1060.7</ele>
        <time>2021-07-09T08:45:44Z</time>
      </trkpt>
      <trkpt lat="46.61872" lon="6.07168">
        <ele>1060.8</ele>
        <time>2021-07-09T08:45:48Z</time>
      </trkpt>
      <trkpt lat="46.61869" lon="6.07173">
        <ele>1060.9</ele>
        <time>2021-07-09T08:45:52Z</time>
      </trkpt>
      <trkpt lat="46.61864" lon="6.07175">
        <ele>1061.2</ele>
        <time>2021-07-09T08:45:56Z</time>
      </trkpt>
      <trkpt lat="46.61859" lon="6.07178">
        <ele>1061.9</ele>
        <time>2021-07-09T08:46:02Z</time>
      </trkpt>
      <trkpt lat="46.61856" lon="6.07183">
        <ele>1062.7</ele>
        <time>2021-07-09T08:46:08Z</time>
      </trkpt>
      <trkpt lat="46.61851" lon="6.07187">
        <ele>1062.1</ele>
        <time>2021-07-09T08:46:18Z</time>
      </trkpt>
      <trkpt lat="46.61847" lon="6.07191">
        <ele>1061.8</ele>
        <time>2021-07-09T08:46:23Z</time>
      </trkpt>
      <trkpt lat="46.61844" lon="6.072">
        <ele>1062.2</ele>
        <time>2021-07-09T08:46:27Z</time>
      </trkpt>
      <trkpt lat="46.61839" lon="6.07206">
        <ele>1062.8</ele>
        <time>2021-07-09T08:46:31Z</time>
      </trkpt>
      <trkpt lat="46.61834" lon="6.07207">
        <ele>1063.3</ele>
        <time>2021-07-09T08:46:35Z</time>
      </trkpt>
      <trkpt lat="46.61829" lon="6.07205">
        <ele>1063.4</ele>
        <time>2021-07-09T08:46:39Z</time>
      </trkpt>
      <trkpt lat="46.61824" lon="6.07207">
        <ele>1063.6</ele>
        <time>2021-07-09T08:46:44Z</time>
      </trkpt>
      <trkpt lat="46.61821" lon="6.07213">
        <ele>1064.1</ele>
        <time>2021-07-09T08:46:49Z</time>
      </trkpt>
      <trkpt lat="46.61817" lon="6.07217">
        <ele>1064.6</ele>
        <time>2021-07-09T08:46:55Z</time>
      </trkpt>
      <trkpt lat="46.61812" lon="6.07218">
        <ele>1065</ele>
        <time>2021-07-09T08:47:00Z</time>
      </trkpt>
      <trkpt lat="46.61807" lon="6.07221">
        <ele>1065.2</ele>
        <time>2021-07-09T08:47:06Z</time>
      </trkpt>
      <trkpt lat="46.618" lon="6.07221">
        <ele>1065.2</ele>
        <time>2021-07-09T08:47:10Z</time>
      </trkpt>
      <trkpt lat="46.61796" lon="6.07219">
        <ele>1065.6</ele>
        <time>2021-07-09T08:47:14Z</time>
      </trkpt>
      <trkpt lat="46.61791" lon="6.07219">
        <ele>1065.9</ele>
        <time>2021-07-09T08:47:21Z</time>
      </trkpt>
      <trkpt lat="46.61787" lon="6.07215">
        <ele>1067.3</ele>
        <time>2021-07-09T08:47:26Z</time>
      </trkpt>
      <trkpt lat="46.61783" lon="6.07212">
        <ele>1069.3</ele>
        <time>2021-07-09T08:47:30Z</time>
      </trkpt>
      <trkpt lat="46.61779" lon="6.07208">
        <ele>1071.9</ele>
        <time>2021-07-09T08:47:34Z</time>
      </trkpt>
      <trkpt lat="46.61775" lon="6.07204">
        <ele>1074.1</ele>
        <time>2021-07-09T08:47:38Z</time>
      </trkpt>
      <trkpt lat="46.6177" lon="6.07202">
        <ele>1075.8</ele>
        <time>2021-07-09T08:47:42Z</time>
      </trkpt>
      <trkpt lat="46.61765" lon="6.07202">
        <ele>1077.3</ele>
        <time>2021-07-09T08:47:47Z</time>
      </trkpt>
      <trkpt lat="46.6176" lon="6.07204">
        <ele>1078.1</ele>
        <time>2021-07-09T08:47:52Z</time>
      </trkpt>
      <trkpt lat="46.61755" lon="6.07205">
        <ele>1078.2</ele>
        <time>2021-07-09T08:47:58Z</time>
      </trkpt>
      <trkpt lat="46.6175" lon="6.07206">
        <ele>1078.5</ele>
        <time>2021-07-09T08:48:03Z</time>
      </trkpt>
      <trkpt lat="46.61746" lon="6.07209">
        <ele>1078.6</ele>
        <time>2021-07-09T08:48:07Z</time>
      </trkpt>
      <trkpt lat="46.61743" lon="6.07214">
        <ele>1077.1</ele>
        <time>2021-07-09T08:48:15Z</time>
      </trkpt>
      <trkpt lat="46.61739" lon="6.07219">
        <ele>1075.4</ele>
        <time>2021-07-09T08:48:22Z</time>
      </trkpt>
      <trkpt lat="46.61735" lon="6.07218">
        <ele>1073.8</ele>
        <time>2021-07-09T08:48:28Z</time>
      </trkpt>
      <trkpt lat="46.6173" lon="6.07219">
        <ele>1073.1</ele>
        <time>2021-07-09T08:48:33Z</time>
      </trkpt>
      <trkpt lat="46.61725" lon="6.07218">
        <ele>1072.8</ele>
        <time>2021-07-09T08:48:37Z</time>
      </trkpt>
      <trkpt lat="46.61721" lon="6.07215">
        <ele>1072.6</ele>
        <time>2021-07-09T08:48:42Z</time>
      </trkpt>
      <trkpt lat="46.61716" lon="6.07216">
        <ele>1072.9</ele>
        <time>2021-07-09T08:48:50Z</time>
      </trkpt>
      <trkpt lat="46.61711" lon="6.07215">
        <ele>1073.2</ele>
        <time>2021-07-09T08:48:54Z</time>
      </trkpt>
      <trkpt lat="46.61706" lon="6.07214">
        <ele>1073.5</ele>
        <time>2021-07-09T08:48:58Z</time>
      </trkpt>
      <trkpt lat="46.61701" lon="6.07213">
        <ele>1073.7</ele>
        <time>2021-07-09T08:49:02Z</time>
      </trkpt>
      <trkpt lat="46.61696" lon="6.0721">
        <ele>1073.5</ele>
        <time>2021-07-09T08:49:06Z</time>
      </trkpt>
      <trkpt lat="46.61692" lon="6.07209">
        <ele>1073.4</ele>
        <time>2021-07-09T08:49:10Z</time>
      </trkpt>
      <trkpt lat="46.61687" lon="6.07208">
        <ele>1074.3</ele>
        <time>2021-07-09T08:49:14Z</time>
      </trkpt>
      <trkpt lat="46.61683" lon="6.07209">
        <ele>1075.7</ele>
        <time>2021-07-09T08:49:18Z</time>
      </trkpt>
      <trkpt lat="46.61678" lon="6.07209">
        <ele>1077.2</ele>
        <time>2021-07-09T08:49:23Z</time>
      </trkpt>
      <trkpt lat="46.61672" lon="6.07209">
        <ele>1079.3</ele>
        <time>2021-07-09T08:49:27Z</time>
      </trkpt>
      <trkpt lat="46.61667" lon="6.07209">
        <ele>1081.7</ele>
        <time>2021-07-09T08:49:31Z</time>
      </trkpt>
      <trkpt lat="46.61662" lon="6.07213">
        <ele>1083.6</ele>
        <time>2021-07-09T08:49:35Z</time>
      </trkpt>
      <trkpt lat="46.61657" lon="6.07217">
        <ele>1084.9</ele>
        <time>2021-07-09T08:49:39Z</time>
      </trkpt>
      <trkpt lat="46.61653" lon="6.07221">
        <ele>1086.6</ele>
        <time>2021-07-09T08:49:45Z</time>
      </trkpt>
      <trkpt lat="46.61648" lon="6.07224">
        <ele>1087.5</ele>
        <time>2021-07-09T08:49:49Z</time>
      </trkpt>
      <trkpt lat="46.61644" lon="6.07228">
        <ele>1088.1</ele>
        <time>2021-07-09T08:49:53Z</time>
      </trkpt>
      <trkpt lat="46.6164" lon="6.07232">
        <ele>1088</ele>
        <time>2021-07-09T08:49:58Z</time>
      </trkpt>
      <trkpt lat="46.61636" lon="6.07236">
        <ele>1087.1</ele>
        <time>2021-07-09T08:50:02Z</time>
      </trkpt>
      <trkpt lat="46.61634" lon="6.07242">
        <ele>1085.6</ele>
        <time>2021-07-09T08:50:07Z</time>
      </trkpt>
      <trkpt lat="46.61632" lon="6.07249">
        <ele>1084.3</ele>
        <time>2021-07-09T08:50:14Z</time>
      </trkpt>
      <trkpt lat="46.61629" lon="6.07255">
        <ele>1083.1</ele>
        <time>2021-07-09T08:50:21Z</time>
      </trkpt>
      <trkpt lat="46.61626" lon="6.0726">
        <ele>1082.3</ele>
        <time>2021-07-09T08:50:29Z</time>
      </trkpt>
      <trkpt lat="46.61621" lon="6.07264">
        <ele>1081.5</ele>
        <time>2021-07-09T08:50:35Z</time>
      </trkpt>
      <trkpt lat="46.61615" lon="6.07271">
        <ele>1081.1</ele>
        <time>2021-07-09T08:50:39Z</time>
      </trkpt>
      <trkpt lat="46.61611" lon="6.07275">
        <ele>1080.5</ele>
        <time>2021-07-09T08:50:43Z</time>
      </trkpt>
      <trkpt lat="46.61606" lon="6.07277">
        <ele>1079.8</ele>
        <time>2021-07-09T08:50:48Z</time>
      </trkpt>
      <trkpt lat="46.61601" lon="6.07277">
        <ele>1079.4</ele>
        <time>2021-07-09T08:50:52Z</time>
      </trkpt>
      <trkpt lat="46.61596" lon="6.07278">
        <ele>1078.6</ele>
        <time>2021-07-09T08:50:56Z</time>
      </trkpt>
      <trkpt lat="46.61591" lon="6.07281">
        <ele>1078.3</ele>
        <time>2021-07-09T08:51:00Z</time>
      </trkpt>
      <trkpt lat="46.61587" lon="6.07285">
        <ele>1077.9</ele>
        <time>2021-07-09T08:51:04Z</time>
      </trkpt>
      <trkpt lat="46.61584" lon="6.07289">
        <ele>1076.7</ele>
        <time>2021-07-09T08:51:09Z</time>
      </trkpt>
      <trkpt lat="46.61579" lon="6.07291">
        <ele>1076.2</ele>
        <time>2021-07-09T08:51:13Z</time>
      </trkpt>
      <trkpt lat="46.61574" lon="6.07292">
        <ele>1076.1</ele>
        <time>2021-07-09T08:51:18Z</time>
      </trkpt>
      <trkpt lat="46.61569" lon="6.07293">
        <ele>1075.7</ele>
        <time>2021-07-09T08:51:23Z</time>
      </trkpt>
      <trkpt lat="46.61564" lon="6.07296">
        <ele>1075.2</ele>
        <time>2021-07-09T08:51:28Z</time>
      </trkpt>
      <trkpt lat="46.61559" lon="6.07299">
        <ele>1074.9</ele>
        <time>2021-07-09T08:51:32Z</time>
      </trkpt>
      <trkpt lat="46.61556" lon="6.07303">
        <ele>1074.5</ele>
        <time>2021-07-09T08:51:37Z</time>
      </trkpt>
      <trkpt lat="46.61554" lon="6.0731">
        <ele>1073.9</ele>
        <time>2021-07-09T08:51:43Z</time>
      </trkpt>
      <trkpt lat="46.61552" lon="6.07316">
        <ele>1073.6</ele>
        <time>2021-07-09T08:51:48Z</time>
      </trkpt>
      <trkpt lat="46.61549" lon="6.07321">
        <ele>1073</ele>
        <time>2021-07-09T08:51:53Z</time>
      </trkpt>
      <trkpt lat="46.61544" lon="6.07327">
        <ele>1072.3</ele>
        <time>2021-07-09T08:51:58Z</time>
      </trkpt>
      <trkpt lat="46.61541" lon="6.07332">
        <ele>1072.3</ele>
        <time>2021-07-09T08:52:03Z</time>
      </trkpt>
      <trkpt lat="46.61538" lon="6.07337">
        <ele>1072.3</ele>
        <time>2021-07-09T08:52:09Z</time>
      </trkpt>
      <trkpt lat="46.61535" lon="6.07342">
        <ele>1072.1</ele>
        <time>2021-07-09T08:52:14Z</time>
      </trkpt>
      <trkpt lat="46.6153" lon="6.07346">
        <ele>1072</ele>
        <time>2021-07-09T08:52:18Z</time>
      </trkpt>
      <trkpt lat="46.61526" lon="6.07351">
        <ele>1071.9</ele>
        <time>2021-07-09T08:52:24Z</time>
      </trkpt>
      <trkpt lat="46.61523" lon="6.07357">
        <ele>1071.7</ele>
        <time>2021-07-09T08:52:29Z</time>
      </trkpt>
      <trkpt lat="46.6152" lon="6.07364">
        <ele>1071.9</ele>
        <time>2021-07-09T08:52:34Z</time>
      </trkpt>
      <trkpt lat="46.61518" lon="6.0737">
        <ele>1071.9</ele>
        <time>2021-07-09T08:52:39Z</time>
      </trkpt>
      <trkpt lat="46.61515" lon="6.07375">
        <ele>1071.9</ele>
        <time>2021-07-09T08:52:44Z</time>
      </trkpt>
      <trkpt lat="46.61512" lon="6.0738">
        <ele>1071.9</ele>
        <time>2021-07-09T08:52:49Z</time>
      </trkpt>
      <trkpt lat="46.61508" lon="6.07385">
        <ele>1071.1</ele>
        <time>2021-07-09T08:52:55Z</time>
      </trkpt>
      <trkpt lat="46.61503" lon="6.07388">
        <ele>1069.8</ele>
        <time>2021-07-09T08:53:00Z</time>
      </trkpt>
      <trkpt lat="46.615" lon="6.07394">
        <ele>1068.6</ele>
        <time>2021-07-09T08:53:05Z</time>
      </trkpt>
      <trkpt lat="46.61497" lon="6.07399">
        <ele>1067.6</ele>
        <time>2021-07-09T08:53:10Z</time>
      </trkpt>
      <trkpt lat="46.61494" lon="6.07404">
        <ele>1067.1</ele>
        <time>2021-07-09T08:53:15Z</time>
      </trkpt>
      <trkpt lat="46.6149" lon="6.07409">
        <ele>1066.7</ele>
        <time>2021-07-09T08:53:20Z</time>
      </trkpt>
      <trkpt lat="46.61486" lon="6.07413">
        <ele>1066.1</ele>
        <time>2021-07-09T08:53:25Z</time>
      </trkpt>
      <trkpt lat="46.61482" lon="6.07418">
        <ele>1065.5</ele>
        <time>2021-07-09T08:53:30Z</time>
      </trkpt>
      <trkpt lat="46.61479" lon="6.07422">
        <ele>1065.1</ele>
        <time>2021-07-09T08:53:34Z</time>
      </trkpt>
      <trkpt lat="46.61475" lon="6.07428">
        <ele>1064.4</ele>
        <time>2021-07-09T08:53:41Z</time>
      </trkpt>
      <trkpt lat="46.61472" lon="6.07434">
        <ele>1064</ele>
        <time>2021-07-09T08:53:46Z</time>
      </trkpt>
      <trkpt lat="46.61468" lon="6.07438">
        <ele>1063.5</ele>
        <time>2021-07-09T08:53:51Z</time>
      </trkpt>
      <trkpt lat="46.61466" lon="6.07444">
        <ele>1063.3</ele>
        <time>2021-07-09T08:53:56Z</time>
      </trkpt>
      <trkpt lat="46.61464" lon="6.0745">
        <ele>1063</ele>
        <time>2021-07-09T08:54:00Z</time>
      </trkpt>
      <trkpt lat="46.61461" lon="6.07456">
        <ele>1062.6</ele>
        <time>2021-07-09T08:54:05Z</time>
      </trkpt>
      <trkpt lat="46.61459" lon="6.07462">
        <ele>1062.1</ele>
        <time>2021-07-09T08:54:10Z</time>
      </trkpt>
      <trkpt lat="46.61456" lon="6.07468">
        <ele>1061.9</ele>
        <time>2021-07-09T08:54:16Z</time>
      </trkpt>
      <trkpt lat="46.61453" lon="6.07473">
        <ele>1061.9</ele>
        <time>2021-07-09T08:54:22Z</time>
      </trkpt>
      <trkpt lat="46.6145" lon="6.07478">
        <ele>1062.2</ele>
        <time>2021-07-09T08:54:27Z</time>
      </trkpt>
      <trkpt lat="46.61446" lon="6.07484">
        <ele>1062.5</ele>
        <time>2021-07-09T08:54:32Z</time>
      </trkpt>
      <trkpt lat="46.61443" lon="6.0749">
        <ele>1062.4</ele>
        <time>2021-07-09T08:54:37Z</time>
      </trkpt>
      <trkpt lat="46.61441" lon="6.07496">
        <ele>1062.3</ele>
        <time>2021-07-09T08:54:42Z</time>
      </trkpt>
      <trkpt lat="46.61437" lon="6.07501">
        <ele>1062.4</ele>
        <time>2021-07-09T08:54:46Z</time>
      </trkpt>
      <trkpt lat="46.61434" lon="6.07508">
        <ele>1062.5</ele>
        <time>2021-07-09T08:54:50Z</time>
      </trkpt>
      <trkpt lat="46.61431" lon="6.07514">
        <ele>1062.8</ele>
        <time>2021-07-09T08:54:54Z</time>
      </trkpt>
      <trkpt lat="46.6143" lon="6.07521">
        <ele>1063</ele>
        <time>2021-07-09T08:54:58Z</time>
      </trkpt>
      <trkpt lat="46.6143" lon="6.07528">
        <ele>1062.8</ele>
        <time>2021-07-09T08:55:02Z</time>
      </trkpt>
      <trkpt lat="46.61426" lon="6.07533">
        <ele>1062.8</ele>
        <time>2021-07-09T08:55:09Z</time>
      </trkpt>
      <trkpt lat="46.61421" lon="6.07539">
        <ele>1062.9</ele>
        <time>2021-07-09T08:55:14Z</time>
      </trkpt>
      <trkpt lat="46.61419" lon="6.07546">
        <ele>1062.9</ele>
        <time>2021-07-09T08:55:18Z</time>
      </trkpt>
      <trkpt lat="46.61417" lon="6.07553">
        <ele>1063.3</ele>
        <time>2021-07-09T08:55:22Z</time>
      </trkpt>
      <trkpt lat="46.61416" lon="6.07559">
        <ele>1063.9</ele>
        <time>2021-07-09T08:55:26Z</time>
      </trkpt>
      <trkpt lat="46.61415" lon="6.07567">
        <ele>1064.6</ele>
        <time>2021-07-09T08:55:30Z</time>
      </trkpt>
      <trkpt lat="46.61414" lon="6.07575">
        <ele>1064.4</ele>
        <time>2021-07-09T08:55:34Z</time>
      </trkpt>
      <trkpt lat="46.61412" lon="6.07581">
        <ele>1064</ele>
        <time>2021-07-09T08:55:39Z</time>
      </trkpt>
      <trkpt lat="46.6141" lon="6.07588">
        <ele>1063.7</ele>
        <time>2021-07-09T08:55:44Z</time>
      </trkpt>
      <trkpt lat="46.61408" lon="6.07594">
        <ele>1063.3</ele>
        <time>2021-07-09T08:55:49Z</time>
      </trkpt>
      <trkpt lat="46.61406" lon="6.076">
        <ele>1063.1</ele>
        <time>2021-07-09T08:55:53Z</time>
      </trkpt>
      <trkpt lat="46.61403" lon="6.07606">
        <ele>1062.8</ele>
        <time>2021-07-09T08:55:58Z</time>
      </trkpt>
      <trkpt lat="46.614" lon="6.07612">
        <ele>1062.7</ele>
        <time>2021-07-09T08:56:03Z</time>
      </trkpt>
      <trkpt lat="46.61398" lon="6.07618">
        <ele>1062.6</ele>
        <time>2021-07-09T08:56:07Z</time>
      </trkpt>
      <trkpt lat="46.61395" lon="6.07626">
        <ele>1062.2</ele>
        <time>2021-07-09T08:56:11Z</time>
      </trkpt>
      <trkpt lat="46.61392" lon="6.07632">
        <ele>1061.6</ele>
        <time>2021-07-09T08:56:16Z</time>
      </trkpt>
      <trkpt lat="46.6139" lon="6.07639">
        <ele>1061.2</ele>
        <time>2021-07-09T08:56:20Z</time>
      </trkpt>
      <trkpt lat="46.61386" lon="6.07645">
        <ele>1060.8</ele>
        <time>2021-07-09T08:56:25Z</time>
      </trkpt>
      <trkpt lat="46.61382" lon="6.07648">
        <ele>1060.3</ele>
        <time>2021-07-09T08:56:30Z</time>
      </trkpt>
      <trkpt lat="46.61379" lon="6.07655">
        <ele>1060</ele>
        <time>2021-07-09T08:56:37Z</time>
      </trkpt>
      <trkpt lat="46.61379" lon="6.07663">
        <ele>1059.6</ele>
        <time>2021-07-09T08:56:41Z</time>
      </trkpt>
      <trkpt lat="46.61375" lon="6.07669">
        <ele>1059.3</ele>
        <time>2021-07-09T08:56:46Z</time>
      </trkpt>
      <trkpt lat="46.61373" lon="6.07675">
        <ele>1059.2</ele>
        <time>2021-07-09T08:56:50Z</time>
      </trkpt>
      <trkpt lat="46.61371" lon="6.07682">
        <ele>1059.4</ele>
        <time>2021-07-09T08:56:54Z</time>
      </trkpt>
      <trkpt lat="46.61366" lon="6.07687">
        <ele>1060.1</ele>
        <time>2021-07-09T08:56:58Z</time>
      </trkpt>
      <trkpt lat="46.61363" lon="6.07693">
        <ele>1060.8</ele>
        <time>2021-07-09T08:57:02Z</time>
      </trkpt>
      <trkpt lat="46.61359" lon="6.07697">
        <ele>1061.5</ele>
        <time>2021-07-09T08:57:06Z</time>
      </trkpt>
      <trkpt lat="46.61354" lon="6.077">
        <ele>1062.5</ele>
        <time>2021-07-09T08:57:12Z</time>
      </trkpt>
      <trkpt lat="46.61349" lon="6.07704">
        <ele>1063.2</ele>
        <time>2021-07-09T08:57:16Z</time>
      </trkpt>
      <trkpt lat="46.61345" lon="6.07708">
        <ele>1063.8</ele>
        <time>2021-07-09T08:57:20Z</time>
      </trkpt>
      <trkpt lat="46.61341" lon="6.07713">
        <ele>1064.7</ele>
        <time>2021-07-09T08:57:26Z</time>
      </trkpt>
      <trkpt lat="46.61337" lon="6.07718">
        <ele>1065.3</ele>
        <time>2021-07-09T08:57:30Z</time>
      </trkpt>
      <trkpt lat="46.61334" lon="6.07722">
        <ele>1065.5</ele>
        <time>2021-07-09T08:57:34Z</time>
      </trkpt>
      <trkpt lat="46.61332" lon="6.07729">
        <ele>1065.5</ele>
        <time>2021-07-09T08:57:40Z</time>
      </trkpt>
      <trkpt lat="46.61329" lon="6.07735">
        <ele>1065.5</ele>
        <time>2021-07-09T08:57:46Z</time>
      </trkpt>
      <trkpt lat="46.61326" lon="6.0774">
        <ele>1065.7</ele>
        <time>2021-07-09T08:57:51Z</time>
      </trkpt>
      <trkpt lat="46.61326" lon="6.07748">
        <ele>1065.1</ele>
        <time>2021-07-09T08:57:55Z</time>
      </trkpt>
      <trkpt lat="46.61322" lon="6.07754">
        <ele>1064.8</ele>
        <time>2021-07-09T08:58:00Z</time>
      </trkpt>
      <trkpt lat="46.61318" lon="6.07757">
        <ele>1064.7</ele>
        <time>2021-07-09T08:58:04Z</time>
      </trkpt>
      <trkpt lat="46.61314" lon="6.07763">
        <ele>1064.7</ele>
        <time>2021-07-09T08:58:09Z</time>
      </trkpt>
      <trkpt lat="46.61314" lon="6.07771">
        <ele>1064.2</ele>
        <time>2021-07-09T08:58:14Z</time>
      </trkpt>
      <trkpt lat="46.6131" lon="6.07777">
        <ele>1063.4</ele>
        <time>2021-07-09T08:58:20Z</time>
      </trkpt>
      <trkpt lat="46.61308" lon="6.07783">
        <ele>1062.5</ele>
        <time>2021-07-09T08:58:24Z</time>
      </trkpt>
      <trkpt lat="46.61305" lon="6.07788">
        <ele>1061.1</ele>
        <time>2021-07-09T08:58:29Z</time>
      </trkpt>
      <trkpt lat="46.61301" lon="6.07793">
        <ele>1060.3</ele>
        <time>2021-07-09T08:58:33Z</time>
      </trkpt>
      <trkpt lat="46.61299" lon="6.078">
        <ele>1060.1</ele>
        <time>2021-07-09T08:58:38Z</time>
      </trkpt>
      <trkpt lat="46.61297" lon="6.07807">
        <ele>1060.1</ele>
        <time>2021-07-09T08:58:42Z</time>
      </trkpt>
      <trkpt lat="46.61295" lon="6.07813">
        <ele>1059.6</ele>
        <time>2021-07-09T08:58:46Z</time>
      </trkpt>
      <trkpt lat="46.61292" lon="6.07819">
        <ele>1058.8</ele>
        <time>2021-07-09T08:58:52Z</time>
      </trkpt>
      <trkpt lat="46.61291" lon="6.07827">
        <ele>1057.9</ele>
        <time>2021-07-09T08:58:58Z</time>
      </trkpt>
      <trkpt lat="46.61289" lon="6.07834">
        <ele>1057.5</ele>
        <time>2021-07-09T08:59:03Z</time>
      </trkpt>
      <trkpt lat="46.61287" lon="6.07841">
        <ele>1057.4</ele>
        <time>2021-07-09T08:59:07Z</time>
      </trkpt>
      <trkpt lat="46.61284" lon="6.07848">
        <ele>1057.3</ele>
        <time>2021-07-09T08:59:12Z</time>
      </trkpt>
      <trkpt lat="46.61284" lon="6.07854">
        <ele>1057.1</ele>
        <time>2021-07-09T08:59:18Z</time>
      </trkpt>
      <trkpt lat="46.61284" lon="6.07864">
        <ele>1057.3</ele>
        <time>2021-07-09T08:59:22Z</time>
      </trkpt>
      <trkpt lat="46.61283" lon="6.07875">
        <ele>1057.7</ele>
        <time>2021-07-09T08:59:26Z</time>
      </trkpt>
      <trkpt lat="46.61282" lon="6.07883">
        <ele>1058.3</ele>
        <time>2021-07-09T08:59:30Z</time>
      </trkpt>
      <trkpt lat="46.6128" lon="6.0789">
        <ele>1059</ele>
        <time>2021-07-09T08:59:34Z</time>
      </trkpt>
      <trkpt lat="46.61277" lon="6.07896">
        <ele>1059.7</ele>
        <time>2021-07-09T08:59:39Z</time>
      </trkpt>
      <trkpt lat="46.61275" lon="6.07902">
        <ele>1060.1</ele>
        <time>2021-07-09T08:59:43Z</time>
      </trkpt>
      <trkpt lat="46.61275" lon="6.0791">
        <ele>1060.7</ele>
        <time>2021-07-09T08:59:50Z</time>
      </trkpt>
      <trkpt lat="46.61275" lon="6.07917">
        <ele>1060.8</ele>
        <time>2021-07-09T08:59:55Z</time>
      </trkpt>
      <trkpt lat="46.61273" lon="6.07924">
        <ele>1060.7</ele>
        <time>2021-07-09T08:59:59Z</time>
      </trkpt>
      <trkpt lat="46.61269" lon="6.0793">
        <ele>1060.8</ele>
        <time>2021-07-09T09:00:04Z</time>
      </trkpt>
      <trkpt lat="46.61269" lon="6.07938">
        <ele>1061.2</ele>
        <time>2021-07-09T09:00:08Z</time>
      </trkpt>
      <trkpt lat="46.61267" lon="6.07945">
        <ele>1062</ele>
        <time>2021-07-09T09:00:13Z</time>
      </trkpt>
      <trkpt lat="46.61264" lon="6.07951">
        <ele>1063</ele>
        <time>2021-07-09T09:00:17Z</time>
      </trkpt>
      <trkpt lat="46.6126" lon="6.07957">
        <ele>1063.4</ele>
        <time>2021-07-09T09:00:22Z</time>
      </trkpt>
      <trkpt lat="46.61256" lon="6.07961">
        <ele>1063.4</ele>
        <time>2021-07-09T09:00:26Z</time>
      </trkpt>
      <trkpt lat="46.61253" lon="6.07967">
        <ele>1062.9</ele>
        <time>2021-07-09T09:00:31Z</time>
      </trkpt>
      <trkpt lat="46.61253" lon="6.07974">
        <ele>1062.9</ele>
        <time>2021-07-09T09:00:55Z</time>
      </trkpt>
      <trkpt lat="46.61248" lon="6.07976">
        <ele>1064.8</ele>
        <time>2021-07-09T09:01:21Z</time>
      </trkpt>
      <trkpt lat="46.61243" lon="6.07979">
        <ele>1065</ele>
        <time>2021-07-09T09:01:25Z</time>
      </trkpt>
      <trkpt lat="46.61242" lon="6.07987">
        <ele>1064.7</ele>
        <time>2021-07-09T09:01:30Z</time>
      </trkpt>
      <trkpt lat="46.6124" lon="6.07995">
        <ele>1064.6</ele>
        <time>2021-07-09T09:01:34Z</time>
      </trkpt>
      <trkpt lat="46.61237" lon="6.08004">
        <ele>1064.8</ele>
        <time>2021-07-09T09:01:38Z</time>
      </trkpt>
      <trkpt lat="46.61235" lon="6.08011">
        <ele>1065.1</ele>
        <time>2021-07-09T09:01:42Z</time>
      </trkpt>
      <trkpt lat="46.61232" lon="6.08016">
        <ele>1065.1</ele>
        <time>2021-07-09T09:01:46Z</time>
      </trkpt>
      <trkpt lat="46.61229" lon="6.08021">
        <ele>1064.7</ele>
        <time>2021-07-09T09:01:50Z</time>
      </trkpt>
      <trkpt lat="46.61226" lon="6.08027">
        <ele>1064.5</ele>
        <time>2021-07-09T09:01:54Z</time>
      </trkpt>
      <trkpt lat="46.61223" lon="6.08033">
        <ele>1064.1</ele>
        <time>2021-07-09T09:01:58Z</time>
      </trkpt>
      <trkpt lat="46.6122" lon="6.08039">
        <ele>1063.6</ele>
        <time>2021-07-09T09:02:02Z</time>
      </trkpt>
      <trkpt lat="46.61218" lon="6.08045">
        <ele>1063.5</ele>
        <time>2021-07-09T09:02:06Z</time>
      </trkpt>
      <trkpt lat="46.61217" lon="6.08054">
        <ele>1063.3</ele>
        <time>2021-07-09T09:02:10Z</time>
      </trkpt>
      <trkpt lat="46.61216" lon="6.08062">
        <ele>1063.5</ele>
        <time>2021-07-09T09:02:14Z</time>
      </trkpt>
      <trkpt lat="46.61215" lon="6.08071">
        <ele>1063.6</ele>
        <time>2021-07-09T09:02:18Z</time>
      </trkpt>
      <trkpt lat="46.61215" lon="6.0808">
        <ele>1063.7</ele>
        <time>2021-07-09T09:02:22Z</time>
      </trkpt>
      <trkpt lat="46.61215" lon="6.08087">
        <ele>1063.7</ele>
        <time>2021-07-09T09:02:26Z</time>
      </trkpt>
      <trkpt lat="46.61214" lon="6.08094">
        <ele>1063.5</ele>
        <time>2021-07-09T09:02:30Z</time>
      </trkpt>
      <trkpt lat="46.61214" lon="6.08101">
        <ele>1063.1</ele>
        <time>2021-07-09T09:02:34Z</time>
      </trkpt>
      <trkpt lat="46.61214" lon="6.08108">
        <ele>1062.8</ele>
        <time>2021-07-09T09:02:38Z</time>
      </trkpt>
      <trkpt lat="46.61214" lon="6.08116">
        <ele>1062.6</ele>
        <time>2021-07-09T09:02:42Z</time>
      </trkpt>
      <trkpt lat="46.61214" lon="6.08123">
        <ele>1062.6</ele>
        <time>2021-07-09T09:02:46Z</time>
      </trkpt>
      <trkpt lat="46.61215" lon="6.08131">
        <ele>1062.5</ele>
        <time>2021-07-09T09:02:50Z</time>
      </trkpt>
      <trkpt lat="46.61217" lon="6.0814">
        <ele>1062.4</ele>
        <time>2021-07-09T09:02:54Z</time>
      </trkpt>
      <trkpt lat="46.61217" lon="6.08148">
        <ele>1062.4</ele>
        <time>2021-07-09T09:02:58Z</time>
      </trkpt>
      <trkpt lat="46.61217" lon="6.08155">
        <ele>1062.4</ele>
        <time>2021-07-09T09:03:02Z</time>
      </trkpt>
      <trkpt lat="46.61217" lon="6.08163">
        <ele>1062.4</ele>
        <time>2021-07-09T09:03:07Z</time>
      </trkpt>
      <trkpt lat="46.61216" lon="6.08171">
        <ele>1062.4</ele>
        <time>2021-07-09T09:03:11Z</time>
      </trkpt>
      <trkpt lat="46.61215" lon="6.08178">
        <ele>1062.5</ele>
        <time>2021-07-09T09:03:16Z</time>
      </trkpt>
      <trkpt lat="46.61213" lon="6.08183">
        <ele>1062.8</ele>
        <time>2021-07-09T09:03:20Z</time>
      </trkpt>
      <trkpt lat="46.6121" lon="6.0819">
        <ele>1062.9</ele>
        <time>2021-07-09T09:03:24Z</time>
      </trkpt>
      <trkpt lat="46.61207" lon="6.08196">
        <ele>1062.9</ele>
        <time>2021-07-09T09:03:28Z</time>
      </trkpt>
      <trkpt lat="46.61204" lon="6.08202">
        <ele>1062.8</ele>
        <time>2021-07-09T09:03:32Z</time>
      </trkpt>
      <trkpt lat="46.61203" lon="6.08209">
        <ele>1062.5</ele>
        <time>2021-07-09T09:03:37Z</time>
      </trkpt>
      <trkpt lat="46.61201" lon="6.08215">
        <ele>1062.4</ele>
        <time>2021-07-09T09:03:41Z</time>
      </trkpt>
      <trkpt lat="46.61199" lon="6.08223">
        <ele>1062.7</ele>
        <time>2021-07-09T09:03:45Z</time>
      </trkpt>
      <trkpt lat="46.61198" lon="6.0823">
        <ele>1062.7</ele>
        <time>2021-07-09T09:03:50Z</time>
      </trkpt>
      <trkpt lat="46.61196" lon="6.08236">
        <ele>1062.3</ele>
        <time>2021-07-09T09:03:55Z</time>
      </trkpt>
      <trkpt lat="46.61194" lon="6.08243">
        <ele>1061.8</ele>
        <time>2021-07-09T09:04:00Z</time>
      </trkpt>
      <trkpt lat="46.61192" lon="6.08249">
        <ele>1061.6</ele>
        <time>2021-07-09T09:04:05Z</time>
      </trkpt>
      <trkpt lat="46.61189" lon="6.08255">
        <ele>1061.7</ele>
        <time>2021-07-09T09:04:10Z</time>
      </trkpt>
      <trkpt lat="46.61185" lon="6.0826">
        <ele>1061.9</ele>
        <time>2021-07-09T09:04:14Z</time>
      </trkpt>
      <trkpt lat="46.61182" lon="6.08266">
        <ele>1061.9</ele>
        <time>2021-07-09T09:04:19Z</time>
      </trkpt>
      <trkpt lat="46.61178" lon="6.08271">
        <ele>1061.8</ele>
        <time>2021-07-09T09:04:25Z</time>
      </trkpt>
      <trkpt lat="46.61175" lon="6.08276">
        <ele>1062.3</ele>
        <time>2021-07-09T09:04:30Z</time>
      </trkpt>
      <trkpt lat="46.61172" lon="6.08281">
        <ele>1062.9</ele>
        <time>2021-07-09T09:04:35Z</time>
      </trkpt>
      <trkpt lat="46.61168" lon="6.08285">
        <ele>1063.7</ele>
        <time>2021-07-09T09:04:40Z</time>
      </trkpt>
      <trkpt lat="46.61165" lon="6.0829">
        <ele>1064.3</ele>
        <time>2021-07-09T09:04:44Z</time>
      </trkpt>
      <trkpt lat="46.61162" lon="6.08296">
        <ele>1065.2</ele>
        <time>2021-07-09T09:04:49Z</time>
      </trkpt>
      <trkpt lat="46.61158" lon="6.08302">
        <ele>1066</ele>
        <time>2021-07-09T09:04:54Z</time>
      </trkpt>
      <trkpt lat="46.61155" lon="6.08307">
        <ele>1066.4</ele>
        <time>2021-07-09T09:04:58Z</time>
      </trkpt>
      <trkpt lat="46.61151" lon="6.08311">
        <ele>1066.7</ele>
        <time>2021-07-09T09:05:02Z</time>
      </trkpt>
      <trkpt lat="46.61148" lon="6.08317">
        <ele>1066.8</ele>
        <time>2021-07-09T09:05:07Z</time>
      </trkpt>
      <trkpt lat="46.61145" lon="6.08322">
        <ele>1066.6</ele>
        <time>2021-07-09T09:05:13Z</time>
      </trkpt>
      <trkpt lat="46.61142" lon="6.08328">
        <ele>1065.8</ele>
        <time>2021-07-09T09:05:19Z</time>
      </trkpt>
      <trkpt lat="46.61139" lon="6.08334">
        <ele>1065</ele>
        <time>2021-07-09T09:05:25Z</time>
      </trkpt>
      <trkpt lat="46.61136" lon="6.08339">
        <ele>1064.4</ele>
        <time>2021-07-09T09:05:29Z</time>
      </trkpt>
      <trkpt lat="46.61132" lon="6.08344">
        <ele>1063.9</ele>
        <time>2021-07-09T09:05:33Z</time>
      </trkpt>
      <trkpt lat="46.61129" lon="6.08349">
        <ele>1063.7</ele>
        <time>2021-07-09T09:05:38Z</time>
      </trkpt>
      <trkpt lat="46.61125" lon="6.08353">
        <ele>1063.9</ele>
        <time>2021-07-09T09:05:42Z</time>
      </trkpt>
      <trkpt lat="46.61121" lon="6.08358">
        <ele>1064.6</ele>
        <time>2021-07-09T09:05:47Z</time>
      </trkpt>
      <trkpt lat="46.61118" lon="6.08363">
        <ele>1065.1</ele>
        <time>2021-07-09T09:05:52Z</time>
      </trkpt>
      <trkpt lat="46.61114" lon="6.08368">
        <ele>1065.1</ele>
        <time>2021-07-09T09:05:56Z</time>
      </trkpt>
      <trkpt lat="46.61112" lon="6.08374">
        <ele>1064.9</ele>
        <time>2021-07-09T09:06:01Z</time>
      </trkpt>
      <trkpt lat="46.6111" lon="6.0838">
        <ele>1064.6</ele>
        <time>2021-07-09T09:06:06Z</time>
      </trkpt>
      <trkpt lat="46.61107" lon="6.08386">
        <ele>1064.2</ele>
        <time>2021-07-09T09:06:11Z</time>
      </trkpt>
      <trkpt lat="46.61104" lon="6.08392">
        <ele>1063.9</ele>
        <time>2021-07-09T09:06:16Z</time>
      </trkpt>
      <trkpt lat="46.61101" lon="6.08398">
        <ele>1063.6</ele>
        <time>2021-07-09T09:06:20Z</time>
      </trkpt>
      <trkpt lat="46.61098" lon="6.08403">
        <ele>1063.3</ele>
        <time>2021-07-09T09:06:24Z</time>
      </trkpt>
      <trkpt lat="46.61095" lon="6.08408">
        <ele>1063.2</ele>
        <time>2021-07-09T09:06:28Z</time>
      </trkpt>
      <trkpt lat="46.61092" lon="6.08415">
        <ele>1062</ele>
        <time>2021-07-09T09:06:33Z</time>
      </trkpt>
      <trkpt lat="46.61089" lon="6.08421">
        <ele>1060.9</ele>
        <time>2021-07-09T09:06:38Z</time>
      </trkpt>
      <trkpt lat="46.61087" lon="6.08427">
        <ele>1060.7</ele>
        <time>2021-07-09T09:06:42Z</time>
      </trkpt>
      <trkpt lat="46.61085" lon="6.08433">
        <ele>1060.8</ele>
        <time>2021-07-09T09:06:47Z</time>
      </trkpt>
      <trkpt lat="46.6108" lon="6.08438">
        <ele>1060.6</ele>
        <time>2021-07-09T09:06:52Z</time>
      </trkpt>
      <trkpt lat="46.61076" lon="6.08442">
        <ele>1060.5</ele>
        <time>2021-07-09T09:06:56Z</time>
      </trkpt>
      <trkpt lat="46.61072" lon="6.08446">
        <ele>1060.6</ele>
        <time>2021-07-09T09:07:01Z</time>
      </trkpt>
      <trkpt lat="46.61068" lon="6.08451">
        <ele>1060.8</ele>
        <time>2021-07-09T09:07:06Z</time>
      </trkpt>
      <trkpt lat="46.61064" lon="6.08455">
        <ele>1061.5</ele>
        <time>2021-07-09T09:07:12Z</time>
      </trkpt>
      <trkpt lat="46.61059" lon="6.08458">
        <ele>1062</ele>
        <time>2021-07-09T09:07:17Z</time>
      </trkpt>
      <trkpt lat="46.61056" lon="6.08462">
        <ele>1062.3</ele>
        <time>2021-07-09T09:07:22Z</time>
      </trkpt>
      <trkpt lat="46.61053" lon="6.08469">
        <ele>1062.2</ele>
        <time>2021-07-09T09:07:27Z</time>
      </trkpt>
      <trkpt lat="46.61052" lon="6.08475">
        <ele>1061.8</ele>
        <time>2021-07-09T09:07:34Z</time>
      </trkpt>
      <trkpt lat="46.6105" lon="6.08481">
        <ele>1061.3</ele>
        <time>2021-07-09T09:07:41Z</time>
      </trkpt>
      <trkpt lat="46.61048" lon="6.08488">
        <ele>1061.8</ele>
        <time>2021-07-09T09:07:56Z</time>
      </trkpt>
      <trkpt lat="46.61045" lon="6.08494">
        <ele>1061.1</ele>
        <time>2021-07-09T09:08:05Z</time>
      </trkpt>
      <trkpt lat="46.61045" lon="6.08502">
        <ele>1060.9</ele>
        <time>2021-07-09T09:08:09Z</time>
      </trkpt>
      <trkpt lat="46.61045" lon="6.08509">
        <ele>1060.3</ele>
        <time>2021-07-09T09:08:13Z</time>
      </trkpt>
      <trkpt lat="46.61041" lon="6.08516">
        <ele>1059.7</ele>
        <time>2021-07-09T09:08:18Z</time>
      </trkpt>
      <trkpt lat="46.61038" lon="6.08522">
        <ele>1059.4</ele>
        <time>2021-07-09T09:08:23Z</time>
      </trkpt>
      <trkpt lat="46.61035" lon="6.08527">
        <ele>1058.8</ele>
        <time>2021-07-09T09:08:28Z</time>
      </trkpt>
      <trkpt lat="46.61031" lon="6.08532">
        <ele>1058.2</ele>
        <time>2021-07-09T09:08:32Z</time>
      </trkpt>
      <trkpt lat="46.61028" lon="6.08538">
        <ele>1057.4</ele>
        <time>2021-07-09T09:08:38Z</time>
      </trkpt>
      <trkpt lat="46.61024" lon="6.08543">
        <ele>1056.8</ele>
        <time>2021-07-09T09:08:45Z</time>
      </trkpt>
      <trkpt lat="46.61019" lon="6.08547">
        <ele>1056.5</ele>
        <time>2021-07-09T09:08:50Z</time>
      </trkpt>
      <trkpt lat="46.61015" lon="6.08551">
        <ele>1055.9</ele>
        <time>2021-07-09T09:08:56Z</time>
      </trkpt>
      <trkpt lat="46.61012" lon="6.08557">
        <ele>1055</ele>
        <time>2021-07-09T09:09:23Z</time>
      </trkpt>
      <trkpt lat="46.61011" lon="6.08563">
        <ele>1054.2</ele>
        <time>2021-07-09T09:11:01Z</time>
      </trkpt>
      <trkpt lat="46.61012" lon="6.0857">
        <ele>1054.2</ele>
        <time>2021-07-09T09:11:07Z</time>
      </trkpt>
      <trkpt lat="46.61014" lon="6.08576">
        <ele>1054.3</ele>
        <time>2021-07-09T09:11:12Z</time>
      </trkpt>
      <trkpt lat="46.61014" lon="6.08583">
        <ele>1054.4</ele>
        <time>2021-07-09T09:11:17Z</time>
      </trkpt>
      <trkpt lat="46.61013" lon="6.0859">
        <ele>1055</ele>
        <time>2021-07-09T09:11:23Z</time>
      </trkpt>
      <trkpt lat="46.61012" lon="6.08598">
        <ele>1056</ele>
        <time>2021-07-09T09:11:29Z</time>
      </trkpt>
      <trkpt lat="46.61013" lon="6.08605">
        <ele>1057.1</ele>
        <time>2021-07-09T09:11:35Z</time>
      </trkpt>
      <trkpt lat="46.61012" lon="6.08612">
        <ele>1058.5</ele>
        <time>2021-07-09T09:11:41Z</time>
      </trkpt>
      <trkpt lat="46.61011" lon="6.0862">
        <ele>1059.7</ele>
        <time>2021-07-09T09:11:46Z</time>
      </trkpt>
      <trkpt lat="46.6101" lon="6.08627">
        <ele>1060.4</ele>
        <time>2021-07-09T09:11:51Z</time>
      </trkpt>
      <trkpt lat="46.61011" lon="6.08635">
        <ele>1060.7</ele>
        <time>2021-07-09T09:11:56Z</time>
      </trkpt>
      <trkpt lat="46.61012" lon="6.08643">
        <ele>1060.8</ele>
        <time>2021-07-09T09:12:01Z</time>
      </trkpt>
      <trkpt lat="46.61012" lon="6.08651">
        <ele>1060.8</ele>
        <time>2021-07-09T09:12:06Z</time>
      </trkpt>
      <trkpt lat="46.61012" lon="6.08658">
        <ele>1060.8</ele>
        <time>2021-07-09T09:12:11Z</time>
      </trkpt>
      <trkpt lat="46.61013" lon="6.08665">
        <ele>1061.2</ele>
        <time>2021-07-09T09:12:16Z</time>
      </trkpt>
      <trkpt lat="46.61014" lon="6.08673">
        <ele>1061.6</ele>
        <time>2021-07-09T09:12:21Z</time>
      </trkpt>
      <trkpt lat="46.61014" lon="6.08681">
        <ele>1061.6</ele>
        <time>2021-07-09T09:12:27Z</time>
      </trkpt>
      <trkpt lat="46.61016" lon="6.08688">
        <ele>1061.5</ele>
        <time>2021-07-09T09:12:32Z</time>
      </trkpt>
      <trkpt lat="46.61016" lon="6.08695">
        <ele>1061.3</ele>
        <time>2021-07-09T09:12:37Z</time>
      </trkpt>
      <trkpt lat="46.61018" lon="6.08701">
        <ele>1061.1</ele>
        <time>2021-07-09T09:12:42Z</time>
      </trkpt>
      <trkpt lat="46.6102" lon="6.08708">
        <ele>1061.2</ele>
        <time>2021-07-09T09:12:47Z</time>
      </trkpt>
      <trkpt lat="46.61022" lon="6.08715">
        <ele>1061.6</ele>
        <time>2021-07-09T09:12:52Z</time>
      </trkpt>
      <trkpt lat="46.61024" lon="6.08721">
        <ele>1061.9</ele>
        <time>2021-07-09T09:12:56Z</time>
      </trkpt>
      <trkpt lat="46.61026" lon="6.08728">
        <ele>1062.6</ele>
        <time>2021-07-09T09:13:01Z</time>
      </trkpt>
      <trkpt lat="46.61029" lon="6.08735">
        <ele>1063</ele>
        <time>2021-07-09T09:13:07Z</time>
      </trkpt>
      <trkpt lat="46.61031" lon="6.08741">
        <ele>1062.9</ele>
        <time>2021-07-09T09:13:12Z</time>
      </trkpt>
      <trkpt lat="46.61034" lon="6.08748">
        <ele>1062.7</ele>
        <time>2021-07-09T09:13:17Z</time>
      </trkpt>
      <trkpt lat="46.61036" lon="6.08755">
        <ele>1062.6</ele>
        <time>2021-07-09T09:13:23Z</time>
      </trkpt>
      <trkpt lat="46.61039" lon="6.08761">
        <ele>1062.3</ele>
        <time>2021-07-09T09:13:28Z</time>
      </trkpt>
      <trkpt lat="46.61043" lon="6.08767">
        <ele>1061.8</ele>
        <time>2021-07-09T09:13:33Z</time>
      </trkpt>
      <trkpt lat="46.61046" lon="6.08771">
        <ele>1061.3</ele>
        <time>2021-07-09T09:13:39Z</time>
      </trkpt>
      <trkpt lat="46.6105" lon="6.08776">
        <ele>1060.7</ele>
        <time>2021-07-09T09:13:44Z</time>
      </trkpt>
      <trkpt lat="46.61054" lon="6.08781">
        <ele>1059.8</ele>
        <time>2021-07-09T09:13:50Z</time>
      </trkpt>
      <trkpt lat="46.61058" lon="6.08785">
        <ele>1059.4</ele>
        <time>2021-07-09T09:13:55Z</time>
      </trkpt>
      <trkpt lat="46.61063" lon="6.08789">
        <ele>1059.4</ele>
        <time>2021-07-09T09:14:00Z</time>
      </trkpt>
      <trkpt lat="46.61067" lon="6.08793">
        <ele>1059.4</ele>
        <time>2021-07-09T09:14:04Z</time>
      </trkpt>
      <trkpt lat="46.61071" lon="6.08799">
        <ele>1059.8</ele>
        <time>2021-07-09T09:14:09Z</time>
      </trkpt>
      <trkpt lat="46.61074" lon="6.08804">
        <ele>1059.9</ele>
        <time>2021-07-09T09:14:14Z</time>
      </trkpt>
      <trkpt lat="46.61078" lon="6.08809">
        <ele>1059.8</ele>
        <time>2021-07-09T09:14:19Z</time>
      </trkpt>
      <trkpt lat="46.61081" lon="6.08814">
        <ele>1059.8</ele>
        <time>2021-07-09T09:14:24Z</time>
      </trkpt>
      <trkpt lat="46.61083" lon="6.0882">
        <ele>1060.1</ele>
        <time>2021-07-09T09:14:28Z</time>
      </trkpt>
      <trkpt lat="46.61085" lon="6.08827">
        <ele>1060.3</ele>
        <time>2021-07-09T09:14:33Z</time>
      </trkpt>
      <trkpt lat="46.61088" lon="6.08833">
        <ele>1060.3</ele>
        <time>2021-07-09T09:14:38Z</time>
      </trkpt>
      <trkpt lat="46.61092" lon="6.08837">
        <ele>1059.9</ele>
        <time>2021-07-09T09:14:43Z</time>
      </trkpt>
      <trkpt lat="46.61095" lon="6.08842">
        <ele>1060</ele>
        <time>2021-07-09T09:14:48Z</time>
      </trkpt>
      <trkpt lat="46.61099" lon="6.08847">
        <ele>1060.1</ele>
        <time>2021-07-09T09:14:53Z</time>
      </trkpt>
      <trkpt lat="46.61104" lon="6.08849">
        <ele>1060.2</ele>
        <time>2021-07-09T09:14:58Z</time>
      </trkpt>
      <trkpt lat="46.61108" lon="6.08851">
        <ele>1060.3</ele>
        <time>2021-07-09T09:15:02Z</time>
      </trkpt>
      <trkpt lat="46.61113" lon="6.08853">
        <ele>1060.6</ele>
        <time>2021-07-09T09:15:07Z</time>
      </trkpt>
      <trkpt lat="46.61118" lon="6.08856">
        <ele>1060.8</ele>
        <time>2021-07-09T09:15:13Z</time>
      </trkpt>
      <trkpt lat="46.61123" lon="6.0886">
        <ele>1060.5</ele>
        <time>2021-07-09T09:15:18Z</time>
      </trkpt>
      <trkpt lat="46.61128" lon="6.08862">
        <ele>1060.1</ele>
        <time>2021-07-09T09:15:22Z</time>
      </trkpt>
      <trkpt lat="46.61132" lon="6.08864">
        <ele>1059.6</ele>
        <time>2021-07-09T09:15:26Z</time>
      </trkpt>
      <trkpt lat="46.61137" lon="6.08865">
        <ele>1059.1</ele>
        <time>2021-07-09T09:15:30Z</time>
      </trkpt>
      <trkpt lat="46.61142" lon="6.08868">
        <ele>1059</ele>
        <time>2021-07-09T09:15:34Z</time>
      </trkpt>
      <trkpt lat="46.61147" lon="6.0887">
        <ele>1059.3</ele>
        <time>2021-07-09T09:15:39Z</time>
      </trkpt>
      <trkpt lat="46.6115" lon="6.08874">
        <ele>1060</ele>
        <time>2021-07-09T09:15:46Z</time>
      </trkpt>
      <trkpt lat="46.61155" lon="6.08877">
        <ele>1060</ele>
        <time>2021-07-09T09:15:51Z</time>
      </trkpt>
      <trkpt lat="46.61159" lon="6.08879">
        <ele>1060.6</ele>
        <time>2021-07-09T09:15:57Z</time>
      </trkpt>
      <trkpt lat="46.61164" lon="6.08882">
        <ele>1061.7</ele>
        <time>2021-07-09T09:16:03Z</time>
      </trkpt>
      <trkpt lat="46.61168" lon="6.08886">
        <ele>1062.1</ele>
        <time>2021-07-09T09:16:10Z</time>
      </trkpt>
      <trkpt lat="46.6117" lon="6.08891">
        <ele>1062</ele>
        <time>2021-07-09T09:16:16Z</time>
      </trkpt>
      <trkpt lat="46.61175" lon="6.08895">
        <ele>1061.7</ele>
        <time>2021-07-09T09:16:21Z</time>
      </trkpt>
      <trkpt lat="46.61179" lon="6.08898">
        <ele>1061.4</ele>
        <time>2021-07-09T09:16:26Z</time>
      </trkpt>
      <trkpt lat="46.61183" lon="6.08901">
        <ele>1061.4</ele>
        <time>2021-07-09T09:16:31Z</time>
      </trkpt>
      <trkpt lat="46.61189" lon="6.08903">
        <ele>1061.7</ele>
        <time>2021-07-09T09:16:38Z</time>
      </trkpt>
      <trkpt lat="46.61193" lon="6.08907">
        <ele>1062.2</ele>
        <time>2021-07-09T09:16:43Z</time>
      </trkpt>
      <trkpt lat="46.61192" lon="6.08914">
        <ele>1063.7</ele>
        <time>2021-07-09T09:16:55Z</time>
      </trkpt>
      <trkpt lat="46.61191" lon="6.08921">
        <ele>1065</ele>
        <time>2021-07-09T09:17:00Z</time>
      </trkpt>
      <trkpt lat="46.6119" lon="6.08928">
        <ele>1066.2</ele>
        <time>2021-07-09T09:17:05Z</time>
      </trkpt>
      <trkpt lat="46.61188" lon="6.08934">
        <ele>1067</ele>
        <time>2021-07-09T09:17:10Z</time>
      </trkpt>
      <trkpt lat="46.61187" lon="6.08941">
        <ele>1067.3</ele>
        <time>2021-07-09T09:17:16Z</time>
      </trkpt>
      <trkpt lat="46.61187" lon="6.08947">
        <ele>1067.7</ele>
        <time>2021-07-09T09:17:23Z</time>
      </trkpt>
      <trkpt lat="46.61185" lon="6.08953">
        <ele>1068.5</ele>
        <time>2021-07-09T09:17:31Z</time>
      </trkpt>
      <trkpt lat="46.6118" lon="6.08956">
        <ele>1069.3</ele>
        <time>2021-07-09T09:17:35Z</time>
      </trkpt>
      <trkpt lat="46.61178" lon="6.08962">
        <ele>1070.9</ele>
        <time>2021-07-09T09:17:42Z</time>
      </trkpt>
      <trkpt lat="46.61176" lon="6.08969">
        <ele>1071.9</ele>
        <time>2021-07-09T09:17:48Z</time>
      </trkpt>
      <trkpt lat="46.61175" lon="6.08976">
        <ele>1072.3</ele>
        <time>2021-07-09T09:17:55Z</time>
      </trkpt>
      <trkpt lat="46.61174" lon="6.08983">
        <ele>1072.3</ele>
        <time>2021-07-09T09:18:01Z</time>
      </trkpt>
      <trkpt lat="46.61171" lon="6.08989">
        <ele>1072.2</ele>
        <time>2021-07-09T09:18:06Z</time>
      </trkpt>
      <trkpt lat="46.61168" lon="6.08994">
        <ele>1072</ele>
        <time>2021-07-09T09:18:10Z</time>
      </trkpt>
      <trkpt lat="46.61164" lon="6.08998">
        <ele>1071.8</ele>
        <time>2021-07-09T09:18:14Z</time>
      </trkpt>
      <trkpt lat="46.6116" lon="6.09004">
        <ele>1071.6</ele>
        <time>2021-07-09T09:18:18Z</time>
      </trkpt>
      <trkpt lat="46.61157" lon="6.0901">
        <ele>1071.8</ele>
        <time>2021-07-09T09:18:22Z</time>
      </trkpt>
      <trkpt lat="46.61156" lon="6.09018">
        <ele>1071.9</ele>
        <time>2021-07-09T09:18:27Z</time>
      </trkpt>
      <trkpt lat="46.61154" lon="6.09024">
        <ele>1071.8</ele>
        <time>2021-07-09T09:18:32Z</time>
      </trkpt>
      <trkpt lat="46.61152" lon="6.09031">
        <ele>1071.1</ele>
        <time>2021-07-09T09:18:38Z</time>
      </trkpt>
      <trkpt lat="46.61149" lon="6.09037">
        <ele>1071.2</ele>
        <time>2021-07-09T09:18:45Z</time>
      </trkpt>
      <trkpt lat="46.61146" lon="6.09043">
        <ele>1071.3</ele>
        <time>2021-07-09T09:18:50Z</time>
      </trkpt>
      <trkpt lat="46.61143" lon="6.09048">
        <ele>1071.4</ele>
        <time>2021-07-09T09:18:54Z</time>
      </trkpt>
      <trkpt lat="46.61139" lon="6.09052">
        <ele>1071.5</ele>
        <time>2021-07-09T09:19:00Z</time>
      </trkpt>
      <trkpt lat="46.61138" lon="6.09059">
        <ele>1071</ele>
        <time>2021-07-09T09:19:10Z</time>
      </trkpt>
      <trkpt lat="46.61135" lon="6.09065">
        <ele>1070.7</ele>
        <time>2021-07-09T09:19:20Z</time>
      </trkpt>
      <trkpt lat="46.61131" lon="6.0907">
        <ele>1071.1</ele>
        <time>2021-07-09T09:19:25Z</time>
      </trkpt>
      <trkpt lat="46.61127" lon="6.09076">
        <ele>1072.2</ele>
        <time>2021-07-09T09:19:32Z</time>
      </trkpt>
      <trkpt lat="46.61126" lon="6.09082">
        <ele>1073.5</ele>
        <time>2021-07-09T09:19:36Z</time>
      </trkpt>
      <trkpt lat="46.61123" lon="6.09088">
        <ele>1075</ele>
        <time>2021-07-09T09:19:40Z</time>
      </trkpt>
      <trkpt lat="46.61119" lon="6.09091">
        <ele>1076.8</ele>
        <time>2021-07-09T09:19:48Z</time>
      </trkpt>
      <trkpt lat="46.61115" lon="6.09089">
        <ele>1076.8</ele>
        <time>2021-07-09T09:19:52Z</time>
      </trkpt>
      <trkpt lat="46.6111" lon="6.09089">
        <ele>1076.8</ele>
        <time>2021-07-09T09:19:56Z</time>
      </trkpt>
      <trkpt lat="46.61105" lon="6.09089">
        <ele>1076.7</ele>
        <time>2021-07-09T09:20:01Z</time>
      </trkpt>
      <trkpt lat="46.61102" lon="6.09095">
        <ele>1076.2</ele>
        <time>2021-07-09T09:20:08Z</time>
      </trkpt>
      <trkpt lat="46.61098" lon="6.09099">
        <ele>1076</ele>
        <time>2021-07-09T09:20:13Z</time>
      </trkpt>
      <trkpt lat="46.61093" lon="6.09101">
        <ele>1075.2</ele>
        <time>2021-07-09T09:20:18Z</time>
      </trkpt>
      <trkpt lat="46.61089" lon="6.09106">
        <ele>1073.9</ele>
        <time>2021-07-09T09:20:25Z</time>
      </trkpt>
      <trkpt lat="46.61087" lon="6.09112">
        <ele>1073.8</ele>
        <time>2021-07-09T09:20:30Z</time>
      </trkpt>
      <trkpt lat="46.61085" lon="6.09118">
        <ele>1074.4</ele>
        <time>2021-07-09T09:20:36Z</time>
      </trkpt>
      <trkpt lat="46.61083" lon="6.09124">
        <ele>1074.6</ele>
        <time>2021-07-09T09:20:45Z</time>
      </trkpt>
      <trkpt lat="46.61078" lon="6.09129">
        <ele>1074.3</ele>
        <time>2021-07-09T09:20:50Z</time>
      </trkpt>
      <trkpt lat="46.61074" lon="6.09131">
        <ele>1073.1</ele>
        <time>2021-07-09T09:20:56Z</time>
      </trkpt>
      <trkpt lat="46.6107" lon="6.09127">
        <ele>1070.2</ele>
        <time>2021-07-09T09:21:03Z</time>
      </trkpt>
      <trkpt lat="46.61065" lon="6.09125">
        <ele>1067.6</ele>
        <time>2021-07-09T09:21:09Z</time>
      </trkpt>
      <trkpt lat="46.61061" lon="6.09128">
        <ele>1066.4</ele>
        <time>2021-07-09T09:21:15Z</time>
      </trkpt>
      <trkpt lat="46.61056" lon="6.09134">
        <ele>1066.2</ele>
        <time>2021-07-09T09:21:20Z</time>
      </trkpt>
      <trkpt lat="46.61052" lon="6.09139">
        <ele>1066.2</ele>
        <time>2021-07-09T09:21:24Z</time>
      </trkpt>
      <trkpt lat="46.61049" lon="6.09143">
        <ele>1066.2</ele>
        <time>2021-07-09T09:21:30Z</time>
      </trkpt>
      <trkpt lat="46.61044" lon="6.09146">
        <ele>1066.2</ele>
        <time>2021-07-09T09:21:36Z</time>
      </trkpt>
      <trkpt lat="46.61043" lon="6.09153">
        <ele>1066.3</ele>
        <time>2021-07-09T09:21:42Z</time>
      </trkpt>
      <trkpt lat="46.61042" lon="6.09161">
        <ele>1066.1</ele>
        <time>2021-07-09T09:21:47Z</time>
      </trkpt>
      <trkpt lat="46.61039" lon="6.09167">
        <ele>1065.7</ele>
        <time>2021-07-09T09:21:52Z</time>
      </trkpt>
      <trkpt lat="46.61036" lon="6.09173">
        <ele>1065.6</ele>
        <time>2021-07-09T09:21:57Z</time>
      </trkpt>
      <trkpt lat="46.61036" lon="6.0918">
        <ele>1066</ele>
        <time>2021-07-09T09:22:04Z</time>
      </trkpt>
      <trkpt lat="46.61032" lon="6.09186">
        <ele>1066</ele>
        <time>2021-07-09T09:22:10Z</time>
      </trkpt>
      <trkpt lat="46.61028" lon="6.0919">
        <ele>1066</ele>
        <time>2021-07-09T09:22:14Z</time>
      </trkpt>
      <trkpt lat="46.61024" lon="6.09194">
        <ele>1065.9</ele>
        <time>2021-07-09T09:22:18Z</time>
      </trkpt>
      <trkpt lat="46.61019" lon="6.09199">
        <ele>1065.7</ele>
        <time>2021-07-09T09:22:22Z</time>
      </trkpt>
      <trkpt lat="46.61015" lon="6.09202">
        <ele>1065.6</ele>
        <time>2021-07-09T09:22:26Z</time>
      </trkpt>
      <trkpt lat="46.61012" lon="6.09207">
        <ele>1065.7</ele>
        <time>2021-07-09T09:22:31Z</time>
      </trkpt>
      <trkpt lat="46.61009" lon="6.09212">
        <ele>1065.9</ele>
        <time>2021-07-09T09:22:36Z</time>
      </trkpt>
      <trkpt lat="46.61007" lon="6.09218">
        <ele>1066.1</ele>
        <time>2021-07-09T09:22:41Z</time>
      </trkpt>
      <trkpt lat="46.61004" lon="6.09225">
        <ele>1066.2</ele>
        <time>2021-07-09T09:22:46Z</time>
      </trkpt>
      <trkpt lat="46.61001" lon="6.0923">
        <ele>1066.4</ele>
        <time>2021-07-09T09:22:53Z</time>
      </trkpt>
      <trkpt lat="46.60999" lon="6.09236">
        <ele>1066.2</ele>
        <time>2021-07-09T09:22:58Z</time>
      </trkpt>
      <trkpt lat="46.60997" lon="6.09243">
        <ele>1066.2</ele>
        <time>2021-07-09T09:23:03Z</time>
      </trkpt>
      <trkpt lat="46.60997" lon="6.09251">
        <ele>1066.2</ele>
        <time>2021-07-09T09:23:09Z</time>
      </trkpt>
      <trkpt lat="46.60993" lon="6.09255">
        <ele>1067</ele>
        <time>2021-07-09T09:23:17Z</time>
      </trkpt>
      <trkpt lat="46.60989" lon="6.0926">
        <ele>1067.7</ele>
        <time>2021-07-09T09:23:21Z</time>
      </trkpt>
      <trkpt lat="46.60985" lon="6.09265">
        <ele>1068.5</ele>
        <time>2021-07-09T09:23:27Z</time>
      </trkpt>
      <trkpt lat="46.60983" lon="6.09272">
        <ele>1069.2</ele>
        <time>2021-07-09T09:23:34Z</time>
      </trkpt>
      <trkpt lat="46.60982" lon="6.0928">
        <ele>1069.5</ele>
        <time>2021-07-09T09:23:39Z</time>
      </trkpt>
      <trkpt lat="46.60981" lon="6.09286">
        <ele>1069.7</ele>
        <time>2021-07-09T09:23:45Z</time>
      </trkpt>
      <trkpt lat="46.60977" lon="6.0929">
        <ele>1070.3</ele>
        <time>2021-07-09T09:23:52Z</time>
      </trkpt>
      <trkpt lat="46.60972" lon="6.09292">
        <ele>1070.7</ele>
        <time>2021-07-09T09:23:57Z</time>
      </trkpt>
      <trkpt lat="46.60968" lon="6.09297">
        <ele>1071.1</ele>
        <time>2021-07-09T09:24:03Z</time>
      </trkpt>
      <trkpt lat="46.60965" lon="6.09302">
        <ele>1071.1</ele>
        <time>2021-07-09T09:24:07Z</time>
      </trkpt>
      <trkpt lat="46.60961" lon="6.09305">
        <ele>1071.3</ele>
        <time>2021-07-09T09:24:12Z</time>
      </trkpt>
      <trkpt lat="46.60957" lon="6.09309">
        <ele>1071.5</ele>
        <time>2021-07-09T09:24:16Z</time>
      </trkpt>
      <trkpt lat="46.60953" lon="6.09314">
        <ele>1071.7</ele>
        <time>2021-07-09T09:24:20Z</time>
      </trkpt>
      <trkpt lat="46.6095" lon="6.09319">
        <ele>1072</ele>
        <time>2021-07-09T09:24:24Z</time>
      </trkpt>
      <trkpt lat="46.60947" lon="6.09324">
        <ele>1072</ele>
        <time>2021-07-09T09:24:31Z</time>
      </trkpt>
      <trkpt lat="46.60945" lon="6.09331">
        <ele>1071.7</ele>
        <time>2021-07-09T09:24:38Z</time>
      </trkpt>
      <trkpt lat="46.60943" lon="6.09338">
        <ele>1071.6</ele>
        <time>2021-07-09T09:24:42Z</time>
      </trkpt>
      <trkpt lat="46.60941" lon="6.09344">
        <ele>1071.6</ele>
        <time>2021-07-09T09:24:46Z</time>
      </trkpt>
      <trkpt lat="46.60937" lon="6.09343">
        <ele>1071.5</ele>
        <time>2021-07-09T09:24:50Z</time>
      </trkpt>
      <trkpt lat="46.60933" lon="6.09348">
        <ele>1071.3</ele>
        <time>2021-07-09T09:24:57Z</time>
      </trkpt>
      <trkpt lat="46.60932" lon="6.09354">
        <ele>1071.4</ele>
        <time>2021-07-09T09:25:01Z</time>
      </trkpt>
      <trkpt lat="46.60931" lon="6.09361">
        <ele>1071.7</ele>
        <time>2021-07-09T09:25:07Z</time>
      </trkpt>
      <trkpt lat="46.6093" lon="6.09368">
        <ele>1072.7</ele>
        <time>2021-07-09T09:25:13Z</time>
      </trkpt>
      <trkpt lat="46.60929" lon="6.09376">
        <ele>1073.2</ele>
        <time>2021-07-09T09:25:17Z</time>
      </trkpt>
      <trkpt lat="46.60927" lon="6.09383">
        <ele>1073.9</ele>
        <time>2021-07-09T09:25:22Z</time>
      </trkpt>
      <trkpt lat="46.60924" lon="6.09389">
        <ele>1074.3</ele>
        <time>2021-07-09T09:25:27Z</time>
      </trkpt>
      <trkpt lat="46.60922" lon="6.09395">
        <ele>1074.7</ele>
        <time>2021-07-09T09:25:33Z</time>
      </trkpt>
      <trkpt lat="46.60918" lon="6.09401">
        <ele>1074.9</ele>
        <time>2021-07-09T09:25:40Z</time>
      </trkpt>
      <trkpt lat="46.60915" lon="6.09406">
        <ele>1074.9</ele>
        <time>2021-07-09T09:25:44Z</time>
      </trkpt>
      <trkpt lat="46.60912" lon="6.09411">
        <ele>1074.8</ele>
        <time>2021-07-09T09:25:48Z</time>
      </trkpt>
      <trkpt lat="46.60908" lon="6.09414">
        <ele>1074.7</ele>
        <time>2021-07-09T09:25:52Z</time>
      </trkpt>
      <trkpt lat="46.60904" lon="6.09419">
        <ele>1074.6</ele>
        <time>2021-07-09T09:25:57Z</time>
      </trkpt>
      <trkpt lat="46.60901" lon="6.09424">
        <ele>1074.5</ele>
        <time>2021-07-09T09:26:02Z</time>
      </trkpt>
      <trkpt lat="46.60897" lon="6.09429">
        <ele>1074.3</ele>
        <time>2021-07-09T09:26:07Z</time>
      </trkpt>
      <trkpt lat="46.60898" lon="6.09436">
        <ele>1073.6</ele>
        <time>2021-07-09T09:26:13Z</time>
      </trkpt>
      <trkpt lat="46.609" lon="6.09442">
        <ele>1073</ele>
        <time>2021-07-09T09:26:18Z</time>
      </trkpt>
      <trkpt lat="46.60899" lon="6.09449">
        <ele>1072.7</ele>
        <time>2021-07-09T09:26:24Z</time>
      </trkpt>
      <trkpt lat="46.60895" lon="6.09454">
        <ele>1072.5</ele>
        <time>2021-07-09T09:26:33Z</time>
      </trkpt>
      <trkpt lat="46.60891" lon="6.09458">
        <ele>1072.4</ele>
        <time>2021-07-09T09:26:39Z</time>
      </trkpt>
      <trkpt lat="46.60888" lon="6.09463">
        <ele>1072.3</ele>
        <time>2021-07-09T09:26:45Z</time>
      </trkpt>
      <trkpt lat="46.60883" lon="6.09465">
        <ele>1072.3</ele>
        <time>2021-07-09T09:26:51Z</time>
      </trkpt>
      <trkpt lat="46.60878" lon="6.09465">
        <ele>1072.2</ele>
        <time>2021-07-09T09:26:58Z</time>
      </trkpt>
      <trkpt lat="46.60876" lon="6.09472">
        <ele>1072.5</ele>
        <time>2021-07-09T09:27:06Z</time>
      </trkpt>
      <trkpt lat="46.60871" lon="6.09482">
        <ele>1073.1</ele>
        <time>2021-07-09T09:27:17Z</time>
      </trkpt>
      <trkpt lat="46.60867" lon="6.09488">
        <ele>1072.8</ele>
        <time>2021-07-09T09:27:21Z</time>
      </trkpt>
      <trkpt lat="46.60864" lon="6.09494">
        <ele>1072.3</ele>
        <time>2021-07-09T09:27:26Z</time>
      </trkpt>
      <trkpt lat="46.6086" lon="6.09499">
        <ele>1071.5</ele>
        <time>2021-07-09T09:27:32Z</time>
      </trkpt>
      <trkpt lat="46.60854" lon="6.09501">
        <ele>1071.7</ele>
        <time>2021-07-09T09:27:36Z</time>
      </trkpt>
      <trkpt lat="46.6085" lon="6.09508">
        <ele>1071.8</ele>
        <time>2021-07-09T09:27:42Z</time>
      </trkpt>
      <trkpt lat="46.60847" lon="6.09515">
        <ele>1071.8</ele>
        <time>2021-07-09T09:27:46Z</time>
      </trkpt>
      <trkpt lat="46.60845" lon="6.09521">
        <ele>1071.9</ele>
        <time>2021-07-09T09:27:51Z</time>
      </trkpt>
      <trkpt lat="46.60841" lon="6.09527">
        <ele>1072.3</ele>
        <time>2021-07-09T09:27:57Z</time>
      </trkpt>
      <trkpt lat="46.60838" lon="6.09532">
        <ele>1072.3</ele>
        <time>2021-07-09T09:28:01Z</time>
      </trkpt>
      <trkpt lat="46.60834" lon="6.09537">
        <ele>1072.2</ele>
        <time>2021-07-09T09:28:06Z</time>
      </trkpt>
      <trkpt lat="46.6083" lon="6.09542">
        <ele>1072.4</ele>
        <time>2021-07-09T09:28:10Z</time>
      </trkpt>
      <trkpt lat="46.60824" lon="6.09544">
        <ele>1073.1</ele>
        <time>2021-07-09T09:28:14Z</time>
      </trkpt>
      <trkpt lat="46.6082" lon="6.09549">
        <ele>1073.9</ele>
        <time>2021-07-09T09:28:18Z</time>
      </trkpt>
      <trkpt lat="46.60819" lon="6.09557">
        <ele>1075.1</ele>
        <time>2021-07-09T09:28:24Z</time>
      </trkpt>
      <trkpt lat="46.60817" lon="6.09563">
        <ele>1075.9</ele>
        <time>2021-07-09T09:28:30Z</time>
      </trkpt>
      <trkpt lat="46.60816" lon="6.09569">
        <ele>1076.2</ele>
        <time>2021-07-09T09:28:42Z</time>
      </trkpt>
      <trkpt lat="46.60813" lon="6.09574">
        <ele>1076.3</ele>
        <time>2021-07-09T09:28:49Z</time>
      </trkpt>
      <trkpt lat="46.60811" lon="6.09581">
        <ele>1076.3</ele>
        <time>2021-07-09T09:28:55Z</time>
      </trkpt>
      <trkpt lat="46.60808" lon="6.09586">
        <ele>1076.5</ele>
        <time>2021-07-09T09:28:59Z</time>
      </trkpt>
      <trkpt lat="46.60804" lon="6.09591">
        <ele>1076.7</ele>
        <time>2021-07-09T09:29:03Z</time>
      </trkpt>
      <trkpt lat="46.60799" lon="6.09593">
        <ele>1077</ele>
        <time>2021-07-09T09:29:10Z</time>
      </trkpt>
      <trkpt lat="46.60795" lon="6.09593">
        <ele>1077.2</ele>
        <time>2021-07-09T09:29:17Z</time>
      </trkpt>
      <trkpt lat="46.6079" lon="6.09594">
        <ele>1077.3</ele>
        <time>2021-07-09T09:29:22Z</time>
      </trkpt>
      <trkpt lat="46.60785" lon="6.09595">
        <ele>1077.7</ele>
        <time>2021-07-09T09:29:28Z</time>
      </trkpt>
      <trkpt lat="46.6078" lon="6.09597">
        <ele>1078.1</ele>
        <time>2021-07-09T09:29:33Z</time>
      </trkpt>
      <trkpt lat="46.60775" lon="6.09598">
        <ele>1078.4</ele>
        <time>2021-07-09T09:29:38Z</time>
      </trkpt>
      <trkpt lat="46.60771" lon="6.09598">
        <ele>1078.6</ele>
        <time>2021-07-09T09:29:42Z</time>
      </trkpt>
      <trkpt lat="46.60766" lon="6.096">
        <ele>1078</ele>
        <time>2021-07-09T09:29:49Z</time>
      </trkpt>
      <trkpt lat="46.60763" lon="6.09605">
        <ele>1076</ele>
        <time>2021-07-09T09:29:57Z</time>
      </trkpt>
      <trkpt lat="46.60758" lon="6.09609">
        <ele>1075.5</ele>
        <time>2021-07-09T09:30:04Z</time>
      </trkpt>
      <trkpt lat="46.60755" lon="6.09613">
        <ele>1076.1</ele>
        <time>2021-07-09T09:30:12Z</time>
      </trkpt>
      <trkpt lat="46.6075" lon="6.09614">
        <ele>1076.6</ele>
        <time>2021-07-09T09:30:16Z</time>
      </trkpt>
      <trkpt lat="46.60744" lon="6.09618">
        <ele>1077.3</ele>
        <time>2021-07-09T09:30:21Z</time>
      </trkpt>
      <trkpt lat="46.60738" lon="6.09623">
        <ele>1078.6</ele>
        <time>2021-07-09T09:30:25Z</time>
      </trkpt>
      <trkpt lat="46.60735" lon="6.09628">
        <ele>1080</ele>
        <time>2021-07-09T09:30:29Z</time>
      </trkpt>
      <trkpt lat="46.60731" lon="6.09632">
        <ele>1081.1</ele>
        <time>2021-07-09T09:30:33Z</time>
      </trkpt>
      <trkpt lat="46.60727" lon="6.09637">
        <ele>1082.2</ele>
        <time>2021-07-09T09:30:37Z</time>
      </trkpt>
      <trkpt lat="46.60724" lon="6.09644">
        <ele>1083.7</ele>
        <time>2021-07-09T09:30:42Z</time>
      </trkpt>
      <trkpt lat="46.60721" lon="6.09649">
        <ele>1084.6</ele>
        <time>2021-07-09T09:30:46Z</time>
      </trkpt>
      <trkpt lat="46.60722" lon="6.09656">
        <ele>1085.3</ele>
        <time>2021-07-09T09:30:52Z</time>
      </trkpt>
      <trkpt lat="46.6072" lon="6.09663">
        <ele>1086.4</ele>
        <time>2021-07-09T09:30:59Z</time>
      </trkpt>
      <trkpt lat="46.60716" lon="6.09668">
        <ele>1087.3</ele>
        <time>2021-07-09T09:31:04Z</time>
      </trkpt>
      <trkpt lat="46.60712" lon="6.09674">
        <ele>1087.6</ele>
        <time>2021-07-09T09:31:08Z</time>
      </trkpt>
      <trkpt lat="46.6071" lon="6.0968">
        <ele>1088</ele>
        <time>2021-07-09T09:31:12Z</time>
      </trkpt>
      <trkpt lat="46.60706" lon="6.09685">
        <ele>1088.5</ele>
        <time>2021-07-09T09:31:18Z</time>
      </trkpt>
      <trkpt lat="46.60704" lon="6.09691">
        <ele>1088.3</ele>
        <time>2021-07-09T09:31:23Z</time>
      </trkpt>
      <trkpt lat="46.60701" lon="6.09696">
        <ele>1087.9</ele>
        <time>2021-07-09T09:31:28Z</time>
      </trkpt>
      <trkpt lat="46.60698" lon="6.09702">
        <ele>1087.6</ele>
        <time>2021-07-09T09:31:33Z</time>
      </trkpt>
      <trkpt lat="46.60698" lon="6.09709">
        <ele>1087.8</ele>
        <time>2021-07-09T09:31:40Z</time>
      </trkpt>
      <trkpt lat="46.60696" lon="6.09716">
        <ele>1087.7</ele>
        <time>2021-07-09T09:31:44Z</time>
      </trkpt>
      <trkpt lat="46.60695" lon="6.09724">
        <ele>1087.4</ele>
        <time>2021-07-09T09:31:48Z</time>
      </trkpt>
      <trkpt lat="46.60693" lon="6.09731">
        <ele>1086.9</ele>
        <time>2021-07-09T09:31:54Z</time>
      </trkpt>
      <trkpt lat="46.60691" lon="6.09737">
        <ele>1086.1</ele>
        <time>2021-07-09T09:31:59Z</time>
      </trkpt>
      <trkpt lat="46.60689" lon="6.09743">
        <ele>1085.7</ele>
        <time>2021-07-09T09:32:04Z</time>
      </trkpt>
      <trkpt lat="46.60685" lon="6.09746">
        <ele>1085.4</ele>
        <time>2021-07-09T09:32:10Z</time>
      </trkpt>
      <trkpt lat="46.6068" lon="6.09749">
        <ele>1085.2</ele>
        <time>2021-07-09T09:32:16Z</time>
      </trkpt>
      <trkpt lat="46.60675" lon="6.09753">
        <ele>1085.2</ele>
        <time>2021-07-09T09:32:20Z</time>
      </trkpt>
      <trkpt lat="46.6067" lon="6.09756">
        <ele>1085</ele>
        <time>2021-07-09T09:32:25Z</time>
      </trkpt>
      <trkpt lat="46.60667" lon="6.09762">
        <ele>1084.5</ele>
        <time>2021-07-09T09:32:31Z</time>
      </trkpt>
      <trkpt lat="46.60663" lon="6.09766">
        <ele>1082.3</ele>
        <time>2021-07-09T09:32:38Z</time>
      </trkpt>
      <trkpt lat="46.6066" lon="6.09771">
        <ele>1078.9</ele>
        <time>2021-07-09T09:32:44Z</time>
      </trkpt>
      <trkpt lat="46.60656" lon="6.09773">
        <ele>1077.2</ele>
        <time>2021-07-09T09:32:48Z</time>
      </trkpt>
      <trkpt lat="46.60652" lon="6.09777">
        <ele>1075.7</ele>
        <time>2021-07-09T09:32:52Z</time>
      </trkpt>
      <trkpt lat="46.60648" lon="6.09781">
        <ele>1074.3</ele>
        <time>2021-07-09T09:32:57Z</time>
      </trkpt>
      <trkpt lat="46.60643" lon="6.09782">
        <ele>1073.9</ele>
        <time>2021-07-09T09:33:02Z</time>
      </trkpt>
      <trkpt lat="46.60638" lon="6.09784">
        <ele>1074.4</ele>
        <time>2021-07-09T09:33:06Z</time>
      </trkpt>
      <trkpt lat="46.60635" lon="6.09788">
        <ele>1074.9</ele>
        <time>2021-07-09T09:33:10Z</time>
      </trkpt>
      <trkpt lat="46.60632" lon="6.09793">
        <ele>1074.9</ele>
        <time>2021-07-09T09:33:15Z</time>
      </trkpt>
      <trkpt lat="46.60629" lon="6.09799">
        <ele>1074.6</ele>
        <time>2021-07-09T09:33:20Z</time>
      </trkpt>
      <trkpt lat="46.60625" lon="6.09803">
        <ele>1075.2</ele>
        <time>2021-07-09T09:33:26Z</time>
      </trkpt>
      <trkpt lat="46.60622" lon="6.09808">
        <ele>1075.4</ele>
        <time>2021-07-09T09:33:31Z</time>
      </trkpt>
      <trkpt lat="46.60618" lon="6.09814">
        <ele>1075.1</ele>
        <time>2021-07-09T09:33:36Z</time>
      </trkpt>
      <trkpt lat="46.60615" lon="6.0982">
        <ele>1075.4</ele>
        <time>2021-07-09T09:33:41Z</time>
      </trkpt>
      <trkpt lat="46.60611" lon="6.09823">
        <ele>1075.6</ele>
        <time>2021-07-09T09:33:47Z</time>
      </trkpt>
      <trkpt lat="46.60606" lon="6.09824">
        <ele>1075.6</ele>
        <time>2021-07-09T09:33:51Z</time>
      </trkpt>
      <trkpt lat="46.60602" lon="6.09828">
        <ele>1075.7</ele>
        <time>2021-07-09T09:33:56Z</time>
      </trkpt>
      <trkpt lat="46.60598" lon="6.09835">
        <ele>1076</ele>
        <time>2021-07-09T09:34:01Z</time>
      </trkpt>
      <trkpt lat="46.60594" lon="6.09838">
        <ele>1076</ele>
        <time>2021-07-09T09:34:06Z</time>
      </trkpt>
      <trkpt lat="46.60589" lon="6.0984">
        <ele>1075.5</ele>
        <time>2021-07-09T09:34:13Z</time>
      </trkpt>
      <trkpt lat="46.60584" lon="6.09843">
        <ele>1075.1</ele>
        <time>2021-07-09T09:34:19Z</time>
      </trkpt>
      <trkpt lat="46.60581" lon="6.09848">
        <ele>1074.9</ele>
        <time>2021-07-09T09:34:26Z</time>
      </trkpt>
      <trkpt lat="46.60577" lon="6.09852">
        <ele>1074</ele>
        <time>2021-07-09T09:34:31Z</time>
      </trkpt>
      <trkpt lat="46.60573" lon="6.09855">
        <ele>1073.2</ele>
        <time>2021-07-09T09:34:36Z</time>
      </trkpt>
      <trkpt lat="46.60569" lon="6.0986">
        <ele>1073</ele>
        <time>2021-07-09T09:34:41Z</time>
      </trkpt>
      <trkpt lat="46.60563" lon="6.09863">
        <ele>1072.8</ele>
        <time>2021-07-09T09:34:45Z</time>
      </trkpt>
      <trkpt lat="46.60558" lon="6.09864">
        <ele>1073.5</ele>
        <time>2021-07-09T09:34:49Z</time>
      </trkpt>
      <trkpt lat="46.60554" lon="6.09866">
        <ele>1074.4</ele>
        <time>2021-07-09T09:34:54Z</time>
      </trkpt>
      <trkpt lat="46.6055" lon="6.09869">
        <ele>1075</ele>
        <time>2021-07-09T09:35:02Z</time>
      </trkpt>
      <trkpt lat="46.60545" lon="6.09872">
        <ele>1075.1</ele>
        <time>2021-07-09T09:35:07Z</time>
      </trkpt>
      <trkpt lat="46.6054" lon="6.09875">
        <ele>1075.6</ele>
        <time>2021-07-09T09:35:11Z</time>
      </trkpt>
      <trkpt lat="46.60534" lon="6.09878">
        <ele>1076.4</ele>
        <time>2021-07-09T09:35:15Z</time>
      </trkpt>
      <trkpt lat="46.6053" lon="6.0988">
        <ele>1077</ele>
        <time>2021-07-09T09:35:19Z</time>
      </trkpt>
      <trkpt lat="46.60525" lon="6.09882">
        <ele>1077</ele>
        <time>2021-07-09T09:35:24Z</time>
      </trkpt>
      <trkpt lat="46.6052" lon="6.09882">
        <ele>1076.7</ele>
        <time>2021-07-09T09:35:35Z</time>
      </trkpt>
      <trkpt lat="46.60516" lon="6.09878">
        <ele>1076.8</ele>
        <time>2021-07-09T09:35:45Z</time>
      </trkpt>
      <trkpt lat="46.6052" lon="6.09885">
        <ele>1077.6</ele>
        <time>2021-07-09T09:35:56Z</time>
      </trkpt>
      <trkpt lat="46.6052" lon="6.09892">
        <ele>1077.3</ele>
        <time>2021-07-09T09:36:01Z</time>
      </trkpt>
      <trkpt lat="46.60516" lon="6.09895">
        <ele>1077.3</ele>
        <time>2021-07-09T09:36:05Z</time>
      </trkpt>
      <trkpt lat="46.60509" lon="6.09895">
        <ele>1077.3</ele>
        <time>2021-07-09T09:36:09Z</time>
      </trkpt>
      <trkpt lat="46.60504" lon="6.09895">
        <ele>1077.4</ele>
        <time>2021-07-09T09:36:13Z</time>
      </trkpt>
      <trkpt lat="46.60498" lon="6.09895">
        <ele>1077.7</ele>
        <time>2021-07-09T09:36:20Z</time>
      </trkpt>
      <trkpt lat="46.60493" lon="6.09896">
        <ele>1078.3</ele>
        <time>2021-07-09T09:36:26Z</time>
      </trkpt>
      <trkpt lat="46.60488" lon="6.09899">
        <ele>1078.9</ele>
        <time>2021-07-09T09:36:30Z</time>
      </trkpt>
      <trkpt lat="46.60484" lon="6.09902">
        <ele>1079</ele>
        <time>2021-07-09T09:36:35Z</time>
      </trkpt>
      <trkpt lat="46.60479" lon="6.09906">
        <ele>1079.9</ele>
        <time>2021-07-09T09:36:41Z</time>
      </trkpt>
      <trkpt lat="46.60475" lon="6.09906">
        <ele>1080.6</ele>
        <time>2021-07-09T09:36:46Z</time>
      </trkpt>
      <trkpt lat="46.6047" lon="6.09907">
        <ele>1080.5</ele>
        <time>2021-07-09T09:36:50Z</time>
      </trkpt>
      <trkpt lat="46.60465" lon="6.09909">
        <ele>1080.2</ele>
        <time>2021-07-09T09:36:55Z</time>
      </trkpt>
      <trkpt lat="46.6046" lon="6.09909">
        <ele>1080.1</ele>
        <time>2021-07-09T09:37:00Z</time>
      </trkpt>
      <trkpt lat="46.60455" lon="6.09909">
        <ele>1080.1</ele>
        <time>2021-07-09T09:37:06Z</time>
      </trkpt>
      <trkpt lat="46.60451" lon="6.09911">
        <ele>1079.7</ele>
        <time>2021-07-09T09:37:15Z</time>
      </trkpt>
      <trkpt lat="46.60445" lon="6.09912">
        <ele>1079.3</ele>
        <time>2021-07-09T09:37:21Z</time>
      </trkpt>
      <trkpt lat="46.60441" lon="6.09912">
        <ele>1078.1</ele>
        <time>2021-07-09T09:37:26Z</time>
      </trkpt>
      <trkpt lat="46.60436" lon="6.0991">
        <ele>1076.1</ele>
        <time>2021-07-09T09:37:33Z</time>
      </trkpt>
      <trkpt lat="46.6043" lon="6.09913">
        <ele>1075.1</ele>
        <time>2021-07-09T09:37:40Z</time>
      </trkpt>
      <trkpt lat="46.60425" lon="6.09918">
        <ele>1075.2</ele>
        <time>2021-07-09T09:37:44Z</time>
      </trkpt>
      <trkpt lat="46.6042" lon="6.09921">
        <ele>1075.6</ele>
        <time>2021-07-09T09:37:48Z</time>
      </trkpt>
      <trkpt lat="46.60415" lon="6.09926">
        <ele>1076.6</ele>
        <time>2021-07-09T09:37:52Z</time>
      </trkpt>
      <trkpt lat="46.60412" lon="6.09932">
        <ele>1078.1</ele>
        <time>2021-07-09T09:37:57Z</time>
      </trkpt>
      <trkpt lat="46.60412" lon="6.09939">
        <ele>1079.5</ele>
        <time>2021-07-09T09:38:03Z</time>
      </trkpt>
      <trkpt lat="46.60411" lon="6.09946">
        <ele>1081</ele>
        <time>2021-07-09T09:38:08Z</time>
      </trkpt>
      <trkpt lat="46.6041" lon="6.09953">
        <ele>1082.5</ele>
        <time>2021-07-09T09:38:14Z</time>
      </trkpt>
      <trkpt lat="46.60407" lon="6.09957">
        <ele>1083.8</ele>
        <time>2021-07-09T09:38:23Z</time>
      </trkpt>
      <trkpt lat="46.60404" lon="6.09962">
        <ele>1084.6</ele>
        <time>2021-07-09T09:38:28Z</time>
      </trkpt>
      <trkpt lat="46.60402" lon="6.09968">
        <ele>1085.1</ele>
        <time>2021-07-09T09:38:32Z</time>
      </trkpt>
      <trkpt lat="46.60398" lon="6.09973">
        <ele>1085.9</ele>
        <time>2021-07-09T09:38:36Z</time>
      </trkpt>
      <trkpt lat="46.60394" lon="6.09978">
        <ele>1086.6</ele>
        <time>2021-07-09T09:38:40Z</time>
      </trkpt>
      <trkpt lat="46.60391" lon="6.09982">
        <ele>1087.5</ele>
        <time>2021-07-09T09:38:45Z</time>
      </trkpt>
      <trkpt lat="46.6039" lon="6.09989">
        <ele>1087.3</ele>
        <time>2021-07-09T09:38:52Z</time>
      </trkpt>
      <trkpt lat="46.60389" lon="6.09996">
        <ele>1085.7</ele>
        <time>2021-07-09T09:39:00Z</time>
      </trkpt>
      <trkpt lat="46.60386" lon="6.10001">
        <ele>1083.3</ele>
        <time>2021-07-09T09:39:10Z</time>
      </trkpt>
      <trkpt lat="46.60383" lon="6.10008">
        <ele>1082.2</ele>
        <time>2021-07-09T09:39:16Z</time>
      </trkpt>
      <trkpt lat="46.60381" lon="6.10015">
        <ele>1080.9</ele>
        <time>2021-07-09T09:39:23Z</time>
      </trkpt>
      <trkpt lat="46.60378" lon="6.10021">
        <ele>1079.3</ele>
        <time>2021-07-09T09:39:28Z</time>
      </trkpt>
      <trkpt lat="46.60375" lon="6.10028">
        <ele>1078.3</ele>
        <time>2021-07-09T09:39:33Z</time>
      </trkpt>
      <trkpt lat="46.60372" lon="6.10034">
        <ele>1077.4</ele>
        <time>2021-07-09T09:39:37Z</time>
      </trkpt>
      <trkpt lat="46.6037" lon="6.10039">
        <ele>1076.8</ele>
        <time>2021-07-09T09:39:42Z</time>
      </trkpt>
      <trkpt lat="46.60367" lon="6.10045">
        <ele>1076.3</ele>
        <time>2021-07-09T09:39:46Z</time>
      </trkpt>
      <trkpt lat="46.60367" lon="6.10052">
        <ele>1073.7</ele>
        <time>2021-07-09T09:39:54Z</time>
      </trkpt>
      <trkpt lat="46.60365" lon="6.10058">
        <ele>1072.4</ele>
        <time>2021-07-09T09:39:58Z</time>
      </trkpt>
      <trkpt lat="46.6036" lon="6.10063">
        <ele>1071.2</ele>
        <time>2021-07-09T09:40:03Z</time>
      </trkpt>
      <trkpt lat="46.60357" lon="6.10068">
        <ele>1070.3</ele>
        <time>2021-07-09T09:40:07Z</time>
      </trkpt>
      <trkpt lat="46.60354" lon="6.10074">
        <ele>1069.7</ele>
        <time>2021-07-09T09:40:12Z</time>
      </trkpt>
      <trkpt lat="46.60351" lon="6.1008">
        <ele>1069.5</ele>
        <time>2021-07-09T09:40:17Z</time>
      </trkpt>
      <trkpt lat="46.60349" lon="6.10087">
        <ele>1069.1</ele>
        <time>2021-07-09T09:40:23Z</time>
      </trkpt>
      <trkpt lat="46.60344" lon="6.10089">
        <ele>1068.9</ele>
        <time>2021-07-09T09:40:27Z</time>
      </trkpt>
      <trkpt lat="46.6034" lon="6.10092">
        <ele>1068.8</ele>
        <time>2021-07-09T09:40:31Z</time>
      </trkpt>
      <trkpt lat="46.60336" lon="6.10097">
        <ele>1068.1</ele>
        <time>2021-07-09T09:40:39Z</time>
      </trkpt>
      <trkpt lat="46.60333" lon="6.10102">
        <ele>1067.5</ele>
        <time>2021-07-09T09:40:44Z</time>
      </trkpt>
      <trkpt lat="46.60329" lon="6.10106">
        <ele>1067.5</ele>
        <time>2021-07-09T09:40:51Z</time>
      </trkpt>
      <trkpt lat="46.60325" lon="6.10111">
        <ele>1068.1</ele>
        <time>2021-07-09T09:40:57Z</time>
      </trkpt>
      <trkpt lat="46.60321" lon="6.10116">
        <ele>1069.1</ele>
        <time>2021-07-09T09:41:02Z</time>
      </trkpt>
      <trkpt lat="46.60319" lon="6.10122">
        <ele>1070.4</ele>
        <time>2021-07-09T09:41:07Z</time>
      </trkpt>
      <trkpt lat="46.60316" lon="6.10129">
        <ele>1071.8</ele>
        <time>2021-07-09T09:41:11Z</time>
      </trkpt>
      <trkpt lat="46.60314" lon="6.10135">
        <ele>1073.1</ele>
        <time>2021-07-09T09:41:15Z</time>
      </trkpt>
      <trkpt lat="46.6031" lon="6.1014">
        <ele>1073.9</ele>
        <time>2021-07-09T09:41:19Z</time>
      </trkpt>
      <trkpt lat="46.60307" lon="6.10145">
        <ele>1075</ele>
        <time>2021-07-09T09:41:25Z</time>
      </trkpt>
      <trkpt lat="46.60304" lon="6.10151">
        <ele>1076</ele>
        <time>2021-07-09T09:41:30Z</time>
      </trkpt>
      <trkpt lat="46.60302" lon="6.10157">
        <ele>1076.7</ele>
        <time>2021-07-09T09:41:35Z</time>
      </trkpt>
      <trkpt lat="46.60299" lon="6.10163">
        <ele>1077.6</ele>
        <time>2021-07-09T09:41:40Z</time>
      </trkpt>
      <trkpt lat="46.60295" lon="6.10169">
        <ele>1078.4</ele>
        <time>2021-07-09T09:41:45Z</time>
      </trkpt>
      <trkpt lat="46.60294" lon="6.10176">
        <ele>1079.8</ele>
        <time>2021-07-09T09:41:51Z</time>
      </trkpt>
      <trkpt lat="46.60292" lon="6.10182">
        <ele>1081</ele>
        <time>2021-07-09T09:41:56Z</time>
      </trkpt>
      <trkpt lat="46.6029" lon="6.10187">
        <ele>1081.8</ele>
        <time>2021-07-09T09:42:01Z</time>
      </trkpt>
      <trkpt lat="46.60287" lon="6.10194">
        <ele>1082.8</ele>
        <time>2021-07-09T09:42:06Z</time>
      </trkpt>
      <trkpt lat="46.60284" lon="6.10201">
        <ele>1083</ele>
        <time>2021-07-09T09:42:12Z</time>
      </trkpt>
      <trkpt lat="46.60283" lon="6.10207">
        <ele>1082.9</ele>
        <time>2021-07-09T09:42:16Z</time>
      </trkpt>
      <trkpt lat="46.60282" lon="6.10215">
        <ele>1082.9</ele>
        <time>2021-07-09T09:42:21Z</time>
      </trkpt>
      <trkpt lat="46.60281" lon="6.10222">
        <ele>1082.8</ele>
        <time>2021-07-09T09:42:25Z</time>
      </trkpt>
      <trkpt lat="46.6028" lon="6.10229">
        <ele>1082.8</ele>
        <time>2021-07-09T09:42:30Z</time>
      </trkpt>
      <trkpt lat="46.60279" lon="6.10235">
        <ele>1083.3</ele>
        <time>2021-07-09T09:42:34Z</time>
      </trkpt>
      <trkpt lat="46.60278" lon="6.10242">
        <ele>1083.8</ele>
        <time>2021-07-09T09:42:40Z</time>
      </trkpt>
      <trkpt lat="46.60277" lon="6.10248">
        <ele>1083.6</ele>
        <time>2021-07-09T09:42:51Z</time>
      </trkpt>
      <trkpt lat="46.60276" lon="6.10256">
        <ele>1083.4</ele>
        <time>2021-07-09T09:42:58Z</time>
      </trkpt>
      <trkpt lat="46.60275" lon="6.10262">
        <ele>1082.5</ele>
        <time>2021-07-09T09:43:05Z</time>
      </trkpt>
      <trkpt lat="46.60274" lon="6.10269">
        <ele>1081.8</ele>
        <time>2021-07-09T09:43:11Z</time>
      </trkpt>
      <trkpt lat="46.60273" lon="6.10276">
        <ele>1081.2</ele>
        <time>2021-07-09T09:43:16Z</time>
      </trkpt>
      <trkpt lat="46.6027" lon="6.10281">
        <ele>1080.5</ele>
        <time>2021-07-09T09:43:21Z</time>
      </trkpt>
      <trkpt lat="46.60267" lon="6.10286">
        <ele>1080.4</ele>
        <time>2021-07-09T09:43:26Z</time>
      </trkpt>
      <trkpt lat="46.60264" lon="6.10291">
        <ele>1080.3</ele>
        <time>2021-07-09T09:43:31Z</time>
      </trkpt>
      <trkpt lat="46.6026" lon="6.10295">
        <ele>1080.1</ele>
        <time>2021-07-09T09:43:37Z</time>
      </trkpt>
      <trkpt lat="46.60255" lon="6.10293">
        <ele>1080.6</ele>
        <time>2021-07-09T09:43:44Z</time>
      </trkpt>
      <trkpt lat="46.60251" lon="6.10295">
        <ele>1081.4</ele>
        <time>2021-07-09T09:43:48Z</time>
      </trkpt>
      <trkpt lat="46.60247" lon="6.10299">
        <ele>1082.1</ele>
        <time>2021-07-09T09:43:52Z</time>
      </trkpt>
      <trkpt lat="46.60242" lon="6.10303">
        <ele>1083.2</ele>
        <time>2021-07-09T09:43:57Z</time>
      </trkpt>
      <trkpt lat="46.60238" lon="6.10305">
        <ele>1082.4</ele>
        <time>2021-07-09T09:44:07Z</time>
      </trkpt>
      <trkpt lat="46.60235" lon="6.1031">
        <ele>1081.2</ele>
        <time>2021-07-09T09:44:13Z</time>
      </trkpt>
      <trkpt lat="46.60232" lon="6.10315">
        <ele>1078.8</ele>
        <time>2021-07-09T09:44:22Z</time>
      </trkpt>
      <trkpt lat="46.60228" lon="6.10318">
        <ele>1077.3</ele>
        <time>2021-07-09T09:44:29Z</time>
      </trkpt>
      <trkpt lat="46.60224" lon="6.10321">
        <ele>1076.9</ele>
        <time>2021-07-09T09:44:33Z</time>
      </trkpt>
      <trkpt lat="46.6022" lon="6.10328">
        <ele>1077.1</ele>
        <time>2021-07-09T09:44:37Z</time>
      </trkpt>
      <trkpt lat="46.60216" lon="6.10333">
        <ele>1077.7</ele>
        <time>2021-07-09T09:44:41Z</time>
      </trkpt>
      <trkpt lat="46.60212" lon="6.10339">
        <ele>1077.5</ele>
        <time>2021-07-09T09:44:46Z</time>
      </trkpt>
      <trkpt lat="46.60208" lon="6.10343">
        <ele>1077.1</ele>
        <time>2021-07-09T09:44:51Z</time>
      </trkpt>
      <trkpt lat="46.60204" lon="6.10347">
        <ele>1076.1</ele>
        <time>2021-07-09T09:44:58Z</time>
      </trkpt>
      <trkpt lat="46.602" lon="6.1035">
        <ele>1074.2</ele>
        <time>2021-07-09T09:45:06Z</time>
      </trkpt>
      <trkpt lat="46.60196" lon="6.10351">
        <ele>1071.6</ele>
        <time>2021-07-09T09:45:13Z</time>
      </trkpt>
      <trkpt lat="46.60191" lon="6.10354">
        <ele>1069.6</ele>
        <time>2021-07-09T09:45:19Z</time>
      </trkpt>
      <trkpt lat="46.60187" lon="6.10358">
        <ele>1068.1</ele>
        <time>2021-07-09T09:45:24Z</time>
      </trkpt>
      <trkpt lat="46.60182" lon="6.10363">
        <ele>1066.7</ele>
        <time>2021-07-09T09:45:29Z</time>
      </trkpt>
      <trkpt lat="46.60178" lon="6.10368">
        <ele>1065.8</ele>
        <time>2021-07-09T09:45:33Z</time>
      </trkpt>
      <trkpt lat="46.60174" lon="6.10372">
        <ele>1064.9</ele>
        <time>2021-07-09T09:45:38Z</time>
      </trkpt>
      <trkpt lat="46.60169" lon="6.10375">
        <ele>1064.3</ele>
        <time>2021-07-09T09:45:43Z</time>
      </trkpt>
      <trkpt lat="46.60167" lon="6.10381">
        <ele>1063</ele>
        <time>2021-07-09T09:45:54Z</time>
      </trkpt>
      <trkpt lat="46.60163" lon="6.10385">
        <ele>1063.4</ele>
        <time>2021-07-09T09:46:00Z</time>
      </trkpt>
      <trkpt lat="46.60158" lon="6.10387">
        <ele>1063.7</ele>
        <time>2021-07-09T09:46:04Z</time>
      </trkpt>
      <trkpt lat="46.60153" lon="6.10386">
        <ele>1064.7</ele>
        <time>2021-07-09T09:46:10Z</time>
      </trkpt>
      <trkpt lat="46.6015" lon="6.10392">
        <ele>1066.5</ele>
        <time>2021-07-09T09:46:26Z</time>
      </trkpt>
      <trkpt lat="46.60146" lon="6.10395">
        <ele>1067.1</ele>
        <time>2021-07-09T09:46:31Z</time>
      </trkpt>
      <trkpt lat="46.60141" lon="6.10398">
        <ele>1068.2</ele>
        <time>2021-07-09T09:46:36Z</time>
      </trkpt>
      <trkpt lat="46.60136" lon="6.10401">
        <ele>1069.5</ele>
        <time>2021-07-09T09:46:41Z</time>
      </trkpt>
      <trkpt lat="46.60132" lon="6.10404">
        <ele>1070.4</ele>
        <time>2021-07-09T09:46:45Z</time>
      </trkpt>
      <trkpt lat="46.60129" lon="6.10409">
        <ele>1072</ele>
        <time>2021-07-09T09:46:50Z</time>
      </trkpt>
      <trkpt lat="46.60124" lon="6.10413">
        <ele>1073.8</ele>
        <time>2021-07-09T09:46:55Z</time>
      </trkpt>
      <trkpt lat="46.60121" lon="6.10417">
        <ele>1075.1</ele>
        <time>2021-07-09T09:46:59Z</time>
      </trkpt>
      <trkpt lat="46.60118" lon="6.10423">
        <ele>1076.6</ele>
        <time>2021-07-09T09:47:05Z</time>
      </trkpt>
      <trkpt lat="46.60114" lon="6.10426">
        <ele>1078.1</ele>
        <time>2021-07-09T09:47:14Z</time>
      </trkpt>
      <trkpt lat="46.60112" lon="6.10433">
        <ele>1078.9</ele>
        <time>2021-07-09T09:47:19Z</time>
      </trkpt>
      <trkpt lat="46.60109" lon="6.10438">
        <ele>1079.1</ele>
        <time>2021-07-09T09:47:24Z</time>
      </trkpt>
      <trkpt lat="46.60105" lon="6.10443">
        <ele>1079</ele>
        <time>2021-07-09T09:47:29Z</time>
      </trkpt>
      <trkpt lat="46.60103" lon="6.10449">
        <ele>1078.8</ele>
        <time>2021-07-09T09:47:34Z</time>
      </trkpt>
      <trkpt lat="46.601" lon="6.10455">
        <ele>1078.3</ele>
        <time>2021-07-09T09:47:40Z</time>
      </trkpt>
      <trkpt lat="46.60096" lon="6.10461">
        <ele>1078.3</ele>
        <time>2021-07-09T09:47:45Z</time>
      </trkpt>
      <trkpt lat="46.60094" lon="6.10467">
        <ele>1078.6</ele>
        <time>2021-07-09T09:47:50Z</time>
      </trkpt>
      <trkpt lat="46.6009" lon="6.10472">
        <ele>1079.2</ele>
        <time>2021-07-09T09:47:55Z</time>
      </trkpt>
      <trkpt lat="46.60086" lon="6.10477">
        <ele>1080.1</ele>
        <time>2021-07-09T09:48:00Z</time>
      </trkpt>
      <trkpt lat="46.60082" lon="6.10481">
        <ele>1080.9</ele>
        <time>2021-07-09T09:48:05Z</time>
      </trkpt>
      <trkpt lat="46.60078" lon="6.10486">
        <ele>1081.1</ele>
        <time>2021-07-09T09:48:12Z</time>
      </trkpt>
      <trkpt lat="46.60074" lon="6.10492">
        <ele>1079.9</ele>
        <time>2021-07-09T09:48:17Z</time>
      </trkpt>
      <trkpt lat="46.60071" lon="6.10497">
        <ele>1079.1</ele>
        <time>2021-07-09T09:48:21Z</time>
      </trkpt>
      <trkpt lat="46.60068" lon="6.10502">
        <ele>1078.5</ele>
        <time>2021-07-09T09:48:25Z</time>
      </trkpt>
      <trkpt lat="46.60063" lon="6.10506">
        <ele>1077.8</ele>
        <time>2021-07-09T09:48:30Z</time>
      </trkpt>
      <trkpt lat="46.60059" lon="6.1051">
        <ele>1077.8</ele>
        <time>2021-07-09T09:48:34Z</time>
      </trkpt>
      <trkpt lat="46.60057" lon="6.10516">
        <ele>1078.4</ele>
        <time>2021-07-09T09:48:39Z</time>
      </trkpt>
      <trkpt lat="46.60061" lon="6.1052">
        <ele>1079.2</ele>
        <time>2021-07-09T09:49:03Z</time>
      </trkpt>
      <trkpt lat="46.6006" lon="6.10527">
        <ele>1077.5</ele>
        <time>2021-07-09T09:49:12Z</time>
      </trkpt>
      <trkpt lat="46.60055" lon="6.1053">
        <ele>1076.1</ele>
        <time>2021-07-09T09:49:17Z</time>
      </trkpt>
      <trkpt lat="46.60051" lon="6.10536">
        <ele>1075.5</ele>
        <time>2021-07-09T09:49:22Z</time>
      </trkpt>
      <trkpt lat="46.60047" lon="6.10541">
        <ele>1075.1</ele>
        <time>2021-07-09T09:49:28Z</time>
      </trkpt>
      <trkpt lat="46.60044" lon="6.10545">
        <ele>1075</ele>
        <time>2021-07-09T09:49:34Z</time>
      </trkpt>
      <trkpt lat="46.60042" lon="6.10552">
        <ele>1074.9</ele>
        <time>2021-07-09T09:49:41Z</time>
      </trkpt>
      <trkpt lat="46.60042" lon="6.10561">
        <ele>1075</ele>
        <time>2021-07-09T09:49:46Z</time>
      </trkpt>
      <trkpt lat="46.60041" lon="6.10567">
        <ele>1074.8</ele>
        <time>2021-07-09T09:49:51Z</time>
      </trkpt>
      <trkpt lat="46.6004" lon="6.10575">
        <ele>1075</ele>
        <time>2021-07-09T09:49:58Z</time>
      </trkpt>
      <trkpt lat="46.60038" lon="6.10581">
        <ele>1075.2</ele>
        <time>2021-07-09T09:50:07Z</time>
      </trkpt>
      <trkpt lat="46.60036" lon="6.10588">
        <ele>1077.1</ele>
        <time>2021-07-09T09:50:15Z</time>
      </trkpt>
      <trkpt lat="46.60041" lon="6.10592">
        <ele>1078.5</ele>
        <time>2021-07-09T09:50:34Z</time>
      </trkpt>
      <trkpt lat="46.60043" lon="6.10598">
        <ele>1078.2</ele>
        <time>2021-07-09T09:50:39Z</time>
      </trkpt>
      <trkpt lat="46.60045" lon="6.10605">
        <ele>1077.1</ele>
        <time>2021-07-09T09:50:52Z</time>
      </trkpt>
      <trkpt lat="46.60047" lon="6.10612">
        <ele>1076.1</ele>
        <time>2021-07-09T09:50:56Z</time>
      </trkpt>
      <trkpt lat="46.60049" lon="6.1062">
        <ele>1075.4</ele>
        <time>2021-07-09T09:51:00Z</time>
      </trkpt>
      <trkpt lat="46.60052" lon="6.10626">
        <ele>1075.4</ele>
        <time>2021-07-09T09:51:04Z</time>
      </trkpt>
      <trkpt lat="46.60053" lon="6.10634">
        <ele>1075.2</ele>
        <time>2021-07-09T09:51:08Z</time>
      </trkpt>
      <trkpt lat="46.60055" lon="6.10642">
        <ele>1074.9</ele>
        <time>2021-07-09T09:51:12Z</time>
      </trkpt>
      <trkpt lat="46.60056" lon="6.10649">
        <ele>1074.7</ele>
        <time>2021-07-09T09:51:16Z</time>
      </trkpt>
      <trkpt lat="46.60056" lon="6.10656">
        <ele>1074.5</ele>
        <time>2021-07-09T09:51:20Z</time>
      </trkpt>
      <trkpt lat="46.60057" lon="6.10663">
        <ele>1074.1</ele>
        <time>2021-07-09T09:51:26Z</time>
      </trkpt>
      <trkpt lat="46.60058" lon="6.1067">
        <ele>1073.6</ele>
        <time>2021-07-09T09:51:31Z</time>
      </trkpt>
      <trkpt lat="46.6006" lon="6.10677">
        <ele>1073.2</ele>
        <time>2021-07-09T09:51:35Z</time>
      </trkpt>
      <trkpt lat="46.60062" lon="6.10684">
        <ele>1073.2</ele>
        <time>2021-07-09T09:51:39Z</time>
      </trkpt>
      <trkpt lat="46.60064" lon="6.1069">
        <ele>1073.2</ele>
        <time>2021-07-09T09:51:43Z</time>
      </trkpt>
      <trkpt lat="46.60067" lon="6.10696">
        <ele>1073.6</ele>
        <time>2021-07-09T09:51:47Z</time>
      </trkpt>
      <trkpt lat="46.60068" lon="6.10702">
        <ele>1073.5</ele>
        <time>2021-07-09T09:51:51Z</time>
      </trkpt>
      <trkpt lat="46.6007" lon="6.10709">
        <ele>1073.6</ele>
        <time>2021-07-09T09:51:56Z</time>
      </trkpt>
      <trkpt lat="46.60073" lon="6.10714">
        <ele>1074.7</ele>
        <time>2021-07-09T09:52:02Z</time>
      </trkpt>
      <trkpt lat="46.60079" lon="6.10713">
        <ele>1077</ele>
        <time>2021-07-09T09:52:19Z</time>
      </trkpt>
      <trkpt lat="46.60084" lon="6.10712">
        <ele>1077.7</ele>
        <time>2021-07-09T09:52:26Z</time>
      </trkpt>
      <trkpt lat="46.60088" lon="6.1071">
        <ele>1077.2</ele>
        <time>2021-07-09T09:52:32Z</time>
      </trkpt>
      <trkpt lat="46.60093" lon="6.10708">
        <ele>1076.3</ele>
        <time>2021-07-09T09:52:37Z</time>
      </trkpt>
      <trkpt lat="46.60098" lon="6.10709">
        <ele>1075.3</ele>
        <time>2021-07-09T09:52:45Z</time>
      </trkpt>
      <trkpt lat="46.60103" lon="6.10708">
        <ele>1075.1</ele>
        <time>2021-07-09T09:52:50Z</time>
      </trkpt>
      <trkpt lat="46.60109" lon="6.10709">
        <ele>1075.2</ele>
        <time>2021-07-09T09:52:55Z</time>
      </trkpt>
      <trkpt lat="46.60113" lon="6.1071">
        <ele>1075.6</ele>
        <time>2021-07-09T09:52:59Z</time>
      </trkpt>
      <trkpt lat="46.60118" lon="6.10711">
        <ele>1075.3</ele>
        <time>2021-07-09T09:53:05Z</time>
      </trkpt>
      <trkpt lat="46.60123" lon="6.1071">
        <ele>1074.7</ele>
        <time>2021-07-09T09:53:10Z</time>
      </trkpt>
      <trkpt lat="46.60128" lon="6.10709">
        <ele>1074</ele>
        <time>2021-07-09T09:53:16Z</time>
      </trkpt>
      <trkpt lat="46.60133" lon="6.10708">
        <ele>1073.8</ele>
        <time>2021-07-09T09:53:20Z</time>
      </trkpt>
      <trkpt lat="46.60138" lon="6.10707">
        <ele>1073.9</ele>
        <time>2021-07-09T09:53:25Z</time>
      </trkpt>
      <trkpt lat="46.60142" lon="6.10707">
        <ele>1073.4</ele>
        <time>2021-07-09T09:53:29Z</time>
      </trkpt>
      <trkpt lat="46.60147" lon="6.10706">
        <ele>1072.9</ele>
        <time>2021-07-09T09:53:33Z</time>
      </trkpt>
      <trkpt lat="46.60152" lon="6.10705">
        <ele>1072.9</ele>
        <time>2021-07-09T09:53:37Z</time>
      </trkpt>
      <trkpt lat="46.60157" lon="6.10704">
        <ele>1073.2</ele>
        <time>2021-07-09T09:53:42Z</time>
      </trkpt>
      <trkpt lat="46.60162" lon="6.10701">
        <ele>1073.1</ele>
        <time>2021-07-09T09:53:47Z</time>
      </trkpt>
      <trkpt lat="46.60167" lon="6.10699">
        <ele>1073.3</ele>
        <time>2021-07-09T09:53:51Z</time>
      </trkpt>
      <trkpt lat="46.60172" lon="6.10697">
        <ele>1073.3</ele>
        <time>2021-07-09T09:53:56Z</time>
      </trkpt>
      <trkpt lat="46.60177" lon="6.10696">
        <ele>1072.9</ele>
        <time>2021-07-09T09:54:01Z</time>
      </trkpt>
      <trkpt lat="46.60181" lon="6.10696">
        <ele>1072.5</ele>
        <time>2021-07-09T09:54:06Z</time>
      </trkpt>
      <trkpt lat="46.60187" lon="6.10695">
        <ele>1072</ele>
        <time>2021-07-09T09:54:10Z</time>
      </trkpt>
      <trkpt lat="46.60191" lon="6.10692">
        <ele>1072</ele>
        <time>2021-07-09T09:54:14Z</time>
      </trkpt>
      <trkpt lat="46.60195" lon="6.10689">
        <ele>1072.6</ele>
        <time>2021-07-09T09:54:18Z</time>
      </trkpt>
      <trkpt lat="46.602" lon="6.10687">
        <ele>1073.2</ele>
        <time>2021-07-09T09:54:23Z</time>
      </trkpt>
      <trkpt lat="46.60205" lon="6.10685">
        <ele>1073.8</ele>
        <time>2021-07-09T09:54:28Z</time>
      </trkpt>
      <trkpt lat="46.6021" lon="6.10683">
        <ele>1074.5</ele>
        <time>2021-07-09T09:54:33Z</time>
      </trkpt>
      <trkpt lat="46.60214" lon="6.10681">
        <ele>1075.3</ele>
        <time>2021-07-09T09:54:38Z</time>
      </trkpt>
      <trkpt lat="46.60219" lon="6.1068">
        <ele>1076.1</ele>
        <time>2021-07-09T09:54:43Z</time>
      </trkpt>
      <trkpt lat="46.60224" lon="6.10679">
        <ele>1076.1</ele>
        <time>2021-07-09T09:54:48Z</time>
      </trkpt>
      <trkpt lat="46.60229" lon="6.10678">
        <ele>1075.6</ele>
        <time>2021-07-09T09:54:53Z</time>
      </trkpt>
      <trkpt lat="46.60234" lon="6.10676">
        <ele>1075</ele>
        <time>2021-07-09T09:54:58Z</time>
      </trkpt>
      <trkpt lat="46.60239" lon="6.10674">
        <ele>1074.3</ele>
        <time>2021-07-09T09:55:02Z</time>
      </trkpt>
      <trkpt lat="46.60243" lon="6.10674">
        <ele>1073.4</ele>
        <time>2021-07-09T09:55:07Z</time>
      </trkpt>
      <trkpt lat="46.60248" lon="6.10672">
        <ele>1072.7</ele>
        <time>2021-07-09T09:55:12Z</time>
      </trkpt>
      <trkpt lat="46.60253" lon="6.10671">
        <ele>1072.7</ele>
        <time>2021-07-09T09:55:17Z</time>
      </trkpt>
      <trkpt lat="46.60259" lon="6.1067">
        <ele>1072.7</ele>
        <time>2021-07-09T09:55:22Z</time>
      </trkpt>
      <trkpt lat="46.60263" lon="6.10669">
        <ele>1072.8</ele>
        <time>2021-07-09T09:55:26Z</time>
      </trkpt>
      <trkpt lat="46.60268" lon="6.10669">
        <ele>1073.4</ele>
        <time>2021-07-09T09:55:30Z</time>
      </trkpt>
      <trkpt lat="46.60273" lon="6.10669">
        <ele>1073.5</ele>
        <time>2021-07-09T09:55:34Z</time>
      </trkpt>
      <trkpt lat="46.60278" lon="6.10668">
        <ele>1073.4</ele>
        <time>2021-07-09T09:55:38Z</time>
      </trkpt>
      <trkpt lat="46.60283" lon="6.10668">
        <ele>1073.9</ele>
        <time>2021-07-09T09:55:43Z</time>
      </trkpt>
      <trkpt lat="46.60289" lon="6.10669">
        <ele>1074.1</ele>
        <time>2021-07-09T09:55:48Z</time>
      </trkpt>
      <trkpt lat="46.60294" lon="6.1067">
        <ele>1074.9</ele>
        <time>2021-07-09T09:55:52Z</time>
      </trkpt>
      <trkpt lat="46.60299" lon="6.10671">
        <ele>1075.4</ele>
        <time>2021-07-09T09:55:57Z</time>
      </trkpt>
      <trkpt lat="46.60304" lon="6.10671">
        <ele>1074.7</ele>
        <time>2021-07-09T09:56:03Z</time>
      </trkpt>
      <trkpt lat="46.60308" lon="6.10673">
        <ele>1074.1</ele>
        <time>2021-07-09T09:56:08Z</time>
      </trkpt>
      <trkpt lat="46.60313" lon="6.10675">
        <ele>1073.7</ele>
        <time>2021-07-09T09:56:14Z</time>
      </trkpt>
      <trkpt lat="46.60318" lon="6.10676">
        <ele>1073.8</ele>
        <time>2021-07-09T09:56:18Z</time>
      </trkpt>
      <trkpt lat="46.60323" lon="6.10678">
        <ele>1073.8</ele>
        <time>2021-07-09T09:56:23Z</time>
      </trkpt>
      <trkpt lat="46.60328" lon="6.10678">
        <ele>1074</ele>
        <time>2021-07-09T09:56:27Z</time>
      </trkpt>
      <trkpt lat="46.60333" lon="6.10677">
        <ele>1074.4</ele>
        <time>2021-07-09T09:56:31Z</time>
      </trkpt>
      <trkpt lat="46.60338" lon="6.10677">
        <ele>1074.5</ele>
        <time>2021-07-09T09:56:37Z</time>
      </trkpt>
      <trkpt lat="46.60344" lon="6.10676">
        <ele>1074.9</ele>
        <time>2021-07-09T09:56:42Z</time>
      </trkpt>
      <trkpt lat="46.60349" lon="6.10676">
        <ele>1075.3</ele>
        <time>2021-07-09T09:56:47Z</time>
      </trkpt>
      <trkpt lat="46.60353" lon="6.10675">
        <ele>1075.2</ele>
        <time>2021-07-09T09:56:52Z</time>
      </trkpt>
      <trkpt lat="46.60358" lon="6.10674">
        <ele>1075.6</ele>
        <time>2021-07-09T09:56:56Z</time>
      </trkpt>
      <trkpt lat="46.60363" lon="6.10673">
        <ele>1076.1</ele>
        <time>2021-07-09T09:57:01Z</time>
      </trkpt>
      <trkpt lat="46.60368" lon="6.10672">
        <ele>1076.3</ele>
        <time>2021-07-09T09:57:05Z</time>
      </trkpt>
      <trkpt lat="46.60373" lon="6.1067">
        <ele>1076.5</ele>
        <time>2021-07-09T09:57:09Z</time>
      </trkpt>
      <trkpt lat="46.60378" lon="6.10669">
        <ele>1076.2</ele>
        <time>2021-07-09T09:57:14Z</time>
      </trkpt>
      <trkpt lat="46.60382" lon="6.10669">
        <ele>1074.7</ele>
        <time>2021-07-09T09:57:37Z</time>
      </trkpt>
      <trkpt lat="46.60388" lon="6.10668">
        <ele>1075.3</ele>
        <time>2021-07-09T09:57:42Z</time>
      </trkpt>
      <trkpt lat="46.60393" lon="6.10668">
        <ele>1075.7</ele>
        <time>2021-07-09T09:57:46Z</time>
      </trkpt>
      <trkpt lat="46.60399" lon="6.10668">
        <ele>1076</ele>
        <time>2021-07-09T09:57:50Z</time>
      </trkpt>
      <trkpt lat="46.60405" lon="6.10668">
        <ele>1075.9</ele>
        <time>2021-07-09T09:57:55Z</time>
      </trkpt>
      <trkpt lat="46.6041" lon="6.10668">
        <ele>1076</ele>
        <time>2021-07-09T09:58:00Z</time>
      </trkpt>
      <trkpt lat="46.60414" lon="6.10668">
        <ele>1075.6</ele>
        <time>2021-07-09T09:58:05Z</time>
      </trkpt>
      <trkpt lat="46.60419" lon="6.10669">
        <ele>1075.1</ele>
        <time>2021-07-09T09:58:10Z</time>
      </trkpt>
      <trkpt lat="46.60424" lon="6.10667">
        <ele>1074.6</ele>
        <time>2021-07-09T09:58:15Z</time>
      </trkpt>
      <trkpt lat="46.60429" lon="6.10666">
        <ele>1073.9</ele>
        <time>2021-07-09T09:58:20Z</time>
      </trkpt>
      <trkpt lat="46.60435" lon="6.10664">
        <ele>1073.6</ele>
        <time>2021-07-09T09:58:25Z</time>
      </trkpt>
      <trkpt lat="46.6044" lon="6.10664">
        <ele>1072.9</ele>
        <time>2021-07-09T09:58:30Z</time>
      </trkpt>
      <trkpt lat="46.60444" lon="6.10665">
        <ele>1072.8</ele>
        <time>2021-07-09T09:58:34Z</time>
      </trkpt>
      <trkpt lat="46.60449" lon="6.10666">
        <ele>1072.2</ele>
        <time>2021-07-09T09:58:39Z</time>
      </trkpt>
      <trkpt lat="46.60454" lon="6.10666">
        <ele>1071.6</ele>
        <time>2021-07-09T09:58:44Z</time>
      </trkpt>
      <trkpt lat="46.60459" lon="6.10665">
        <ele>1071.4</ele>
        <time>2021-07-09T09:58:48Z</time>
      </trkpt>
      <trkpt lat="46.60464" lon="6.10665">
        <ele>1072</ele>
        <time>2021-07-09T09:58:53Z</time>
      </trkpt>
      <trkpt lat="46.60469" lon="6.10665">
        <ele>1072.9</ele>
        <time>2021-07-09T09:58:57Z</time>
      </trkpt>
      <trkpt lat="46.60474" lon="6.10664">
        <ele>1074</ele>
        <time>2021-07-09T09:59:01Z</time>
      </trkpt>
      <trkpt lat="46.60479" lon="6.10663">
        <ele>1075.1</ele>
        <time>2021-07-09T09:59:06Z</time>
      </trkpt>
      <trkpt lat="46.60485" lon="6.10664">
        <ele>1075</ele>
        <time>2021-07-09T09:59:11Z</time>
      </trkpt>
      <trkpt lat="46.60489" lon="6.10663">
        <ele>1075</ele>
        <time>2021-07-09T09:59:16Z</time>
      </trkpt>
      <trkpt lat="46.60494" lon="6.10663">
        <ele>1076.1</ele>
        <time>2021-07-09T09:59:23Z</time>
      </trkpt>
      <trkpt lat="46.60495" lon="6.10656">
        <ele>1076.4</ele>
        <time>2021-07-09T09:59:48Z</time>
      </trkpt>
      <trkpt lat="46.60498" lon="6.10661">
        <ele>1073.9</ele>
        <time>2021-07-09T10:36:51Z</time>
      </trkpt>
      <trkpt lat="46.60503" lon="6.10661">
        <ele>1075.4</ele>
        <time>2021-07-09T10:36:57Z</time>
      </trkpt>
      <trkpt lat="46.60508" lon="6.10661">
        <ele>1075.9</ele>
        <time>2021-07-09T10:37:02Z</time>
      </trkpt>
      <trkpt lat="46.60513" lon="6.10662">
        <ele>1076</ele>
        <time>2021-07-09T10:37:09Z</time>
      </trkpt>
      <trkpt lat="46.60518" lon="6.10663">
        <ele>1075.8</ele>
        <time>2021-07-09T10:37:15Z</time>
      </trkpt>
      <trkpt lat="46.60523" lon="6.10663">
        <ele>1075.7</ele>
        <time>2021-07-09T10:37:21Z</time>
      </trkpt>
      <trkpt lat="46.60528" lon="6.10663">
        <ele>1076.1</ele>
        <time>2021-07-09T10:37:27Z</time>
      </trkpt>
      <trkpt lat="46.60533" lon="6.10663">
        <ele>1076.7</ele>
        <time>2021-07-09T10:37:32Z</time>
      </trkpt>
      <trkpt lat="46.60538" lon="6.10663">
        <ele>1077.1</ele>
        <time>2021-07-09T10:37:37Z</time>
      </trkpt>
      <trkpt lat="46.60543" lon="6.10664">
        <ele>1076.6</ele>
        <time>2021-07-09T10:37:43Z</time>
      </trkpt>
      <trkpt lat="46.60548" lon="6.10665">
        <ele>1076.3</ele>
        <time>2021-07-09T10:37:48Z</time>
      </trkpt>
      <trkpt lat="46.60553" lon="6.10665">
        <ele>1076.3</ele>
        <time>2021-07-09T10:37:52Z</time>
      </trkpt>
      <trkpt lat="46.60558" lon="6.10665">
        <ele>1076.1</ele>
        <time>2021-07-09T10:37:57Z</time>
      </trkpt>
      <trkpt lat="46.60563" lon="6.10665">
        <ele>1076.1</ele>
        <time>2021-07-09T10:38:03Z</time>
      </trkpt>
      <trkpt lat="46.60568" lon="6.10665">
        <ele>1076.2</ele>
        <time>2021-07-09T10:38:09Z</time>
      </trkpt>
      <trkpt lat="46.60573" lon="6.10665">
        <ele>1074.8</ele>
        <time>2021-07-09T10:38:16Z</time>
      </trkpt>
      <trkpt lat="46.60577" lon="6.10666">
        <ele>1074.9</ele>
        <time>2021-07-09T10:38:21Z</time>
      </trkpt>
      <trkpt lat="46.60583" lon="6.10667">
        <ele>1075.1</ele>
        <time>2021-07-09T10:38:26Z</time>
      </trkpt>
      <trkpt lat="46.60588" lon="6.10668">
        <ele>1075</ele>
        <time>2021-07-09T10:38:30Z</time>
      </trkpt>
      <trkpt lat="46.60593" lon="6.10669">
        <ele>1075.3</ele>
        <time>2021-07-09T10:38:35Z</time>
      </trkpt>
      <trkpt lat="46.60598" lon="6.10668">
        <ele>1075.8</ele>
        <time>2021-07-09T10:38:40Z</time>
      </trkpt>
      <trkpt lat="46.60602" lon="6.10668">
        <ele>1076.8</ele>
        <time>2021-07-09T10:38:45Z</time>
      </trkpt>
      <trkpt lat="46.60608" lon="6.10668">
        <ele>1077.5</ele>
        <time>2021-07-09T10:38:51Z</time>
      </trkpt>
      <trkpt lat="46.60613" lon="6.10668">
        <ele>1077.7</ele>
        <time>2021-07-09T10:38:57Z</time>
      </trkpt>
      <trkpt lat="46.60617" lon="6.10669">
        <ele>1077.9</ele>
        <time>2021-07-09T10:39:02Z</time>
      </trkpt>
      <trkpt lat="46.60622" lon="6.1067">
        <ele>1078.1</ele>
        <time>2021-07-09T10:39:08Z</time>
      </trkpt>
      <trkpt lat="46.60627" lon="6.10671">
        <ele>1078.2</ele>
        <time>2021-07-09T10:39:14Z</time>
      </trkpt>
      <trkpt lat="46.60632" lon="6.10671">
        <ele>1077.4</ele>
        <time>2021-07-09T10:39:20Z</time>
      </trkpt>
      <trkpt lat="46.60637" lon="6.10671">
        <ele>1075.5</ele>
        <time>2021-07-09T10:39:27Z</time>
      </trkpt>
      <trkpt lat="46.60641" lon="6.10672">
        <ele>1074.9</ele>
        <time>2021-07-09T10:39:31Z</time>
      </trkpt>
      <trkpt lat="46.60646" lon="6.10672">
        <ele>1074.9</ele>
        <time>2021-07-09T10:39:36Z</time>
      </trkpt>
      <trkpt lat="46.60652" lon="6.10674">
        <ele>1075.5</ele>
        <time>2021-07-09T10:39:42Z</time>
      </trkpt>
      <trkpt lat="46.60656" lon="6.10675">
        <ele>1075.7</ele>
        <time>2021-07-09T10:39:48Z</time>
      </trkpt>
      <trkpt lat="46.60661" lon="6.10675">
        <ele>1076.1</ele>
        <time>2021-07-09T10:39:52Z</time>
      </trkpt>
      <trkpt lat="46.60666" lon="6.10675">
        <ele>1076.7</ele>
        <time>2021-07-09T10:39:56Z</time>
      </trkpt>
      <trkpt lat="46.60671" lon="6.10674">
        <ele>1077.5</ele>
        <time>2021-07-09T10:40:01Z</time>
      </trkpt>
      <trkpt lat="46.60676" lon="6.10674">
        <ele>1078.5</ele>
        <time>2021-07-09T10:40:07Z</time>
      </trkpt>
      <trkpt lat="46.6068" lon="6.10674">
        <ele>1079.6</ele>
        <time>2021-07-09T10:40:11Z</time>
      </trkpt>
      <trkpt lat="46.60686" lon="6.10673">
        <ele>1079.9</ele>
        <time>2021-07-09T10:40:15Z</time>
      </trkpt>
      <trkpt lat="46.60691" lon="6.10672">
        <ele>1079.8</ele>
        <time>2021-07-09T10:40:20Z</time>
      </trkpt>
      <trkpt lat="46.60696" lon="6.10671">
        <ele>1079.3</ele>
        <time>2021-07-09T10:40:26Z</time>
      </trkpt>
      <trkpt lat="46.60701" lon="6.10671">
        <ele>1078.2</ele>
        <time>2021-07-09T10:40:33Z</time>
      </trkpt>
      <trkpt lat="46.60705" lon="6.1067">
        <ele>1077.3</ele>
        <time>2021-07-09T10:40:42Z</time>
      </trkpt>
      <trkpt lat="46.6071" lon="6.10666">
        <ele>1077.5</ele>
        <time>2021-07-09T10:40:47Z</time>
      </trkpt>
      <trkpt lat="46.60714" lon="6.10663">
        <ele>1077.9</ele>
        <time>2021-07-09T10:40:52Z</time>
      </trkpt>
      <trkpt lat="46.60719" lon="6.10662">
        <ele>1078.2</ele>
        <time>2021-07-09T10:40:56Z</time>
      </trkpt>
      <trkpt lat="46.60724" lon="6.10661">
        <ele>1077.6</ele>
        <time>2021-07-09T10:41:03Z</time>
      </trkpt>
      <trkpt lat="46.60728" lon="6.10659">
        <ele>1077</ele>
        <time>2021-07-09T10:41:10Z</time>
      </trkpt>
      <trkpt lat="46.60734" lon="6.10658">
        <ele>1075.6</ele>
        <time>2021-07-09T10:41:15Z</time>
      </trkpt>
      <trkpt lat="46.60739" lon="6.10657">
        <ele>1073.5</ele>
        <time>2021-07-09T10:41:20Z</time>
      </trkpt>
      <trkpt lat="46.60743" lon="6.10653">
        <ele>1072.1</ele>
        <time>2021-07-09T10:41:25Z</time>
      </trkpt>
      <trkpt lat="46.60747" lon="6.10648">
        <ele>1071.3</ele>
        <time>2021-07-09T10:41:31Z</time>
      </trkpt>
      <trkpt lat="46.60752" lon="6.10646">
        <ele>1071.3</ele>
        <time>2021-07-09T10:41:36Z</time>
      </trkpt>
      <trkpt lat="46.60757" lon="6.10643">
        <ele>1071.5</ele>
        <time>2021-07-09T10:41:40Z</time>
      </trkpt>
      <trkpt lat="46.60762" lon="6.10641">
        <ele>1071.7</ele>
        <time>2021-07-09T10:41:44Z</time>
      </trkpt>
      <trkpt lat="46.60766" lon="6.10638">
        <ele>1072.4</ele>
        <time>2021-07-09T10:41:48Z</time>
      </trkpt>
      <trkpt lat="46.60771" lon="6.10636">
        <ele>1074.1</ele>
        <time>2021-07-09T10:41:54Z</time>
      </trkpt>
      <trkpt lat="46.60776" lon="6.10632">
        <ele>1075.1</ele>
        <time>2021-07-09T10:42:00Z</time>
      </trkpt>
      <trkpt lat="46.6078" lon="6.10628">
        <ele>1075.6</ele>
        <time>2021-07-09T10:42:05Z</time>
      </trkpt>
      <trkpt lat="46.60785" lon="6.10626">
        <ele>1075.9</ele>
        <time>2021-07-09T10:42:09Z</time>
      </trkpt>
      <trkpt lat="46.6079" lon="6.10624">
        <ele>1076.1</ele>
        <time>2021-07-09T10:42:14Z</time>
      </trkpt>
      <trkpt lat="46.60794" lon="6.10621">
        <ele>1076.5</ele>
        <time>2021-07-09T10:42:19Z</time>
      </trkpt>
      <trkpt lat="46.60799" lon="6.10617">
        <ele>1076.4</ele>
        <time>2021-07-09T10:42:24Z</time>
      </trkpt>
      <trkpt lat="46.60802" lon="6.10613">
        <ele>1076.8</ele>
        <time>2021-07-09T10:42:29Z</time>
      </trkpt>
      <trkpt lat="46.60807" lon="6.10609">
        <ele>1077.2</ele>
        <time>2021-07-09T10:42:35Z</time>
      </trkpt>
      <trkpt lat="46.60811" lon="6.10604">
        <ele>1077</ele>
        <time>2021-07-09T10:42:41Z</time>
      </trkpt>
      <trkpt lat="46.60816" lon="6.10602">
        <ele>1076.5</ele>
        <time>2021-07-09T10:42:47Z</time>
      </trkpt>
      <trkpt lat="46.60821" lon="6.10598">
        <ele>1075.4</ele>
        <time>2021-07-09T10:42:53Z</time>
      </trkpt>
      <trkpt lat="46.60825" lon="6.10593">
        <ele>1074.6</ele>
        <time>2021-07-09T10:42:58Z</time>
      </trkpt>
      <trkpt lat="46.60829" lon="6.1059">
        <ele>1074.3</ele>
        <time>2021-07-09T10:43:02Z</time>
      </trkpt>
      <trkpt lat="46.60833" lon="6.10588">
        <ele>1074.4</ele>
        <time>2021-07-09T10:43:07Z</time>
      </trkpt>
      <trkpt lat="46.60837" lon="6.10583">
        <ele>1074.3</ele>
        <time>2021-07-09T10:43:13Z</time>
      </trkpt>
      <trkpt lat="46.6084" lon="6.10578">
        <ele>1074.4</ele>
        <time>2021-07-09T10:43:18Z</time>
      </trkpt>
      <trkpt lat="46.60845" lon="6.10575">
        <ele>1075</ele>
        <time>2021-07-09T10:43:22Z</time>
      </trkpt>
      <trkpt lat="46.6085" lon="6.10571">
        <ele>1075.3</ele>
        <time>2021-07-09T10:43:27Z</time>
      </trkpt>
      <trkpt lat="46.60854" lon="6.10568">
        <ele>1075.5</ele>
        <time>2021-07-09T10:43:32Z</time>
      </trkpt>
      <trkpt lat="46.60858" lon="6.10564">
        <ele>1075.9</ele>
        <time>2021-07-09T10:43:36Z</time>
      </trkpt>
      <trkpt lat="46.60862" lon="6.10559">
        <ele>1076.7</ele>
        <time>2021-07-09T10:43:41Z</time>
      </trkpt>
      <trkpt lat="46.60867" lon="6.10554">
        <ele>1077.2</ele>
        <time>2021-07-09T10:43:46Z</time>
      </trkpt>
      <trkpt lat="46.60871" lon="6.10551">
        <ele>1076.8</ele>
        <time>2021-07-09T10:43:50Z</time>
      </trkpt>
      <trkpt lat="46.60875" lon="6.10547">
        <ele>1076.6</ele>
        <time>2021-07-09T10:43:56Z</time>
      </trkpt>
      <trkpt lat="46.60879" lon="6.10543">
        <ele>1076.7</ele>
        <time>2021-07-09T10:44:01Z</time>
      </trkpt>
      <trkpt lat="46.60885" lon="6.10541">
        <ele>1076.5</ele>
        <time>2021-07-09T10:44:07Z</time>
      </trkpt>
      <trkpt lat="46.60889" lon="6.1054">
        <ele>1076</ele>
        <time>2021-07-09T10:44:11Z</time>
      </trkpt>
      <trkpt lat="46.60894" lon="6.10537">
        <ele>1075.1</ele>
        <time>2021-07-09T10:44:19Z</time>
      </trkpt>
      <trkpt lat="46.60897" lon="6.10532">
        <ele>1075</ele>
        <time>2021-07-09T10:44:24Z</time>
      </trkpt>
      <trkpt lat="46.609" lon="6.10525">
        <ele>1075.2</ele>
        <time>2021-07-09T10:44:29Z</time>
      </trkpt>
      <trkpt lat="46.60904" lon="6.1052">
        <ele>1074.9</ele>
        <time>2021-07-09T10:44:34Z</time>
      </trkpt>
      <trkpt lat="46.60907" lon="6.10514">
        <ele>1074.9</ele>
        <time>2021-07-09T10:44:38Z</time>
      </trkpt>
      <trkpt lat="46.6091" lon="6.10509">
        <ele>1075.4</ele>
        <time>2021-07-09T10:44:42Z</time>
      </trkpt>
      <trkpt lat="46.60915" lon="6.10508">
        <ele>1075.8</ele>
        <time>2021-07-09T10:44:48Z</time>
      </trkpt>
      <trkpt lat="46.6092" lon="6.10508">
        <ele>1077.4</ele>
        <time>2021-07-09T10:44:54Z</time>
      </trkpt>
      <trkpt lat="46.60924" lon="6.10507">
        <ele>1077.9</ele>
        <time>2021-07-09T10:45:02Z</time>
      </trkpt>
      <trkpt lat="46.60929" lon="6.10504">
        <ele>1077.7</ele>
        <time>2021-07-09T10:45:37Z</time>
      </trkpt>
      <trkpt lat="46.60933" lon="6.105">
        <ele>1077.7</ele>
        <time>2021-07-09T10:45:44Z</time>
      </trkpt>
      <trkpt lat="46.60936" lon="6.10495">
        <ele>1077.8</ele>
        <time>2021-07-09T10:45:49Z</time>
      </trkpt>
      <trkpt lat="46.60941" lon="6.10492">
        <ele>1079.2</ele>
        <time>2021-07-09T10:45:55Z</time>
      </trkpt>
      <trkpt lat="46.60946" lon="6.10489">
        <ele>1079.6</ele>
        <time>2021-07-09T10:46:00Z</time>
      </trkpt>
      <trkpt lat="46.6095" lon="6.10486">
        <ele>1079.6</ele>
        <time>2021-07-09T10:46:05Z</time>
      </trkpt>
      <trkpt lat="46.60954" lon="6.10482">
        <ele>1080.6</ele>
        <time>2021-07-09T10:46:10Z</time>
      </trkpt>
      <trkpt lat="46.60958" lon="6.10479">
        <ele>1080.8</ele>
        <time>2021-07-09T10:46:15Z</time>
      </trkpt>
      <trkpt lat="46.60963" lon="6.10477">
        <ele>1080.9</ele>
        <time>2021-07-09T10:46:20Z</time>
      </trkpt>
      <trkpt lat="46.60968" lon="6.10474">
        <ele>1080.5</ele>
        <time>2021-07-09T10:46:26Z</time>
      </trkpt>
      <trkpt lat="46.60971" lon="6.1047">
        <ele>1080.6</ele>
        <time>2021-07-09T10:46:31Z</time>
      </trkpt>
      <trkpt lat="46.60976" lon="6.10467">
        <ele>1080.2</ele>
        <time>2021-07-09T10:46:37Z</time>
      </trkpt>
      <trkpt lat="46.60981" lon="6.10466">
        <ele>1079.6</ele>
        <time>2021-07-09T10:46:42Z</time>
      </trkpt>
      <trkpt lat="46.60985" lon="6.10464">
        <ele>1079.2</ele>
        <time>2021-07-09T10:46:48Z</time>
      </trkpt>
      <trkpt lat="46.6099" lon="6.10461">
        <ele>1079.2</ele>
        <time>2021-07-09T10:46:56Z</time>
      </trkpt>
      <trkpt lat="46.60995" lon="6.10458">
        <ele>1079.1</ele>
        <time>2021-07-09T10:47:02Z</time>
      </trkpt>
      <trkpt lat="46.60999" lon="6.10456">
        <ele>1079.3</ele>
        <time>2021-07-09T10:47:09Z</time>
      </trkpt>
      <trkpt lat="46.61004" lon="6.10454">
        <ele>1079.7</ele>
        <time>2021-07-09T10:47:16Z</time>
      </trkpt>
      <trkpt lat="46.61008" lon="6.10451">
        <ele>1079.9</ele>
        <time>2021-07-09T10:47:21Z</time>
      </trkpt>
      <trkpt lat="46.61012" lon="6.10448">
        <ele>1079.8</ele>
        <time>2021-07-09T10:47:26Z</time>
      </trkpt>
      <trkpt lat="46.61014" lon="6.10441">
        <ele>1079.2</ele>
        <time>2021-07-09T10:47:32Z</time>
      </trkpt>
      <trkpt lat="46.61018" lon="6.10439">
        <ele>1079.3</ele>
        <time>2021-07-09T10:47:39Z</time>
      </trkpt>
      <trkpt lat="46.61023" lon="6.1044">
        <ele>1079.7</ele>
        <time>2021-07-09T10:47:45Z</time>
      </trkpt>
      <trkpt lat="46.61028" lon="6.10439">
        <ele>1079.7</ele>
        <time>2021-07-09T10:47:51Z</time>
      </trkpt>
      <trkpt lat="46.61033" lon="6.10438">
        <ele>1079.1</ele>
        <time>2021-07-09T10:47:57Z</time>
      </trkpt>
      <trkpt lat="46.61037" lon="6.10435">
        <ele>1078.3</ele>
        <time>2021-07-09T10:48:04Z</time>
      </trkpt>
      <trkpt lat="46.61042" lon="6.10432">
        <ele>1077.7</ele>
        <time>2021-07-09T10:48:10Z</time>
      </trkpt>
      <trkpt lat="46.61048" lon="6.10432">
        <ele>1077.6</ele>
        <time>2021-07-09T10:48:16Z</time>
      </trkpt>
      <trkpt lat="46.61053" lon="6.10433">
        <ele>1077.6</ele>
        <time>2021-07-09T10:48:20Z</time>
      </trkpt>
      <trkpt lat="46.61058" lon="6.10432">
        <ele>1077.6</ele>
        <time>2021-07-09T10:48:25Z</time>
      </trkpt>
      <trkpt lat="46.61062" lon="6.10429">
        <ele>1077.6</ele>
        <time>2021-07-09T10:48:31Z</time>
      </trkpt>
      <trkpt lat="46.61067" lon="6.10427">
        <ele>1077.6</ele>
        <time>2021-07-09T10:48:37Z</time>
      </trkpt>
      <trkpt lat="46.61072" lon="6.1043">
        <ele>1077.9</ele>
        <time>2021-07-09T10:48:42Z</time>
      </trkpt>
      <trkpt lat="46.61075" lon="6.10433">
        <ele>1077.9</ele>
        <time>2021-07-09T10:48:47Z</time>
      </trkpt>
      <trkpt lat="46.61074" lon="6.1044">
        <ele>1076.2</ele>
        <time>2021-07-09T10:49:13Z</time>
      </trkpt>
      <trkpt lat="46.61076" lon="6.10433">
        <ele>1071.7</ele>
        <time>2021-07-09T10:49:39Z</time>
      </trkpt>
      <trkpt lat="46.61078" lon="6.10426">
        <ele>1071.9</ele>
        <time>2021-07-09T10:49:44Z</time>
      </trkpt>
      <trkpt lat="46.61082" lon="6.1042">
        <ele>1072.8</ele>
        <time>2021-07-09T10:49:49Z</time>
      </trkpt>
      <trkpt lat="46.61086" lon="6.10416">
        <ele>1073.7</ele>
        <time>2021-07-09T10:49:53Z</time>
      </trkpt>
      <trkpt lat="46.61091" lon="6.10412">
        <ele>1074.8</ele>
        <time>2021-07-09T10:49:57Z</time>
      </trkpt>
      <trkpt lat="46.61095" lon="6.10409">
        <ele>1075.7</ele>
        <time>2021-07-09T10:50:01Z</time>
      </trkpt>
      <trkpt lat="46.61099" lon="6.10405">
        <ele>1076.4</ele>
        <time>2021-07-09T10:50:05Z</time>
      </trkpt>
      <trkpt lat="46.61104" lon="6.10401">
        <ele>1077</ele>
        <time>2021-07-09T10:50:11Z</time>
      </trkpt>
      <trkpt lat="46.61109" lon="6.10398">
        <ele>1077.3</ele>
        <time>2021-07-09T10:50:16Z</time>
      </trkpt>
      <trkpt lat="46.61115" lon="6.10395">
        <ele>1077.4</ele>
        <time>2021-07-09T10:50:20Z</time>
      </trkpt>
      <trkpt lat="46.61121" lon="6.10392">
        <ele>1077.6</ele>
        <time>2021-07-09T10:50:24Z</time>
      </trkpt>
      <trkpt lat="46.61125" lon="6.1039">
        <ele>1077.6</ele>
        <time>2021-07-09T10:50:28Z</time>
      </trkpt>
      <trkpt lat="46.6113" lon="6.10389">
        <ele>1077.7</ele>
        <time>2021-07-09T10:50:32Z</time>
      </trkpt>
      <trkpt lat="46.61134" lon="6.10386">
        <ele>1077.6</ele>
        <time>2021-07-09T10:50:37Z</time>
      </trkpt>
      <trkpt lat="46.61139" lon="6.10383">
        <ele>1077.7</ele>
        <time>2021-07-09T10:50:42Z</time>
      </trkpt>
      <trkpt lat="46.61144" lon="6.10384">
        <ele>1077.7</ele>
        <time>2021-07-09T10:50:48Z</time>
      </trkpt>
      <trkpt lat="46.61149" lon="6.10386">
        <ele>1077.6</ele>
        <time>2021-07-09T10:50:55Z</time>
      </trkpt>
      <trkpt lat="46.61155" lon="6.10383">
        <ele>1077</ele>
        <time>2021-07-09T10:51:00Z</time>
      </trkpt>
      <trkpt lat="46.61161" lon="6.10383">
        <ele>1076.9</ele>
        <time>2021-07-09T10:51:04Z</time>
      </trkpt>
      <trkpt lat="46.61168" lon="6.10384">
        <ele>1077.2</ele>
        <time>2021-07-09T10:51:08Z</time>
      </trkpt>
      <trkpt lat="46.61173" lon="6.10386">
        <ele>1077.8</ele>
        <time>2021-07-09T10:51:12Z</time>
      </trkpt>
      <trkpt lat="46.61178" lon="6.10389">
        <ele>1078.8</ele>
        <time>2021-07-09T10:51:17Z</time>
      </trkpt>
      <trkpt lat="46.61182" lon="6.10391">
        <ele>1080.3</ele>
        <time>2021-07-09T10:51:21Z</time>
      </trkpt>
      <trkpt lat="46.61187" lon="6.10393">
        <ele>1083</ele>
        <time>2021-07-09T10:51:26Z</time>
      </trkpt>
      <trkpt lat="46.6119" lon="6.10399">
        <ele>1084.7</ele>
        <time>2021-07-09T10:51:34Z</time>
      </trkpt>
      <trkpt lat="46.61193" lon="6.10403">
        <ele>1084</ele>
        <time>2021-07-09T10:51:38Z</time>
      </trkpt>
      <trkpt lat="46.61199" lon="6.10406">
        <ele>1083.7</ele>
        <time>2021-07-09T10:51:42Z</time>
      </trkpt>
      <trkpt lat="46.61202" lon="6.10411">
        <ele>1084.2</ele>
        <time>2021-07-09T10:51:46Z</time>
      </trkpt>
      <trkpt lat="46.61205" lon="6.10417">
        <ele>1085.4</ele>
        <time>2021-07-09T10:51:50Z</time>
      </trkpt>
      <trkpt lat="46.61207" lon="6.10424">
        <ele>1088.1</ele>
        <time>2021-07-09T10:51:55Z</time>
      </trkpt>
      <trkpt lat="46.61209" lon="6.10432">
        <ele>1090.4</ele>
        <time>2021-07-09T10:51:59Z</time>
      </trkpt>
      <trkpt lat="46.61209" lon="6.10438">
        <ele>1092.3</ele>
        <time>2021-07-09T10:52:03Z</time>
      </trkpt>
      <trkpt lat="46.6121" lon="6.10445">
        <ele>1094</ele>
        <time>2021-07-09T10:52:07Z</time>
      </trkpt>
      <trkpt lat="46.61212" lon="6.10453">
        <ele>1095</ele>
        <time>2021-07-09T10:52:12Z</time>
      </trkpt>
      <trkpt lat="46.61214" lon="6.10458">
        <ele>1096.1</ele>
        <time>2021-07-09T10:52:17Z</time>
      </trkpt>
      <trkpt lat="46.61218" lon="6.10464">
        <ele>1096.5</ele>
        <time>2021-07-09T10:52:22Z</time>
      </trkpt>
      <trkpt lat="46.61219" lon="6.10471">
        <ele>1095.6</ele>
        <time>2021-07-09T10:52:27Z</time>
      </trkpt>
      <trkpt lat="46.6122" lon="6.10478">
        <ele>1094.2</ele>
        <time>2021-07-09T10:52:32Z</time>
      </trkpt>
      <trkpt lat="46.61223" lon="6.10484">
        <ele>1092.8</ele>
        <time>2021-07-09T10:52:37Z</time>
      </trkpt>
      <trkpt lat="46.61226" lon="6.1049">
        <ele>1091.4</ele>
        <time>2021-07-09T10:52:42Z</time>
      </trkpt>
      <trkpt lat="46.61228" lon="6.10496">
        <ele>1090.7</ele>
        <time>2021-07-09T10:52:47Z</time>
      </trkpt>
      <trkpt lat="46.6123" lon="6.10502">
        <ele>1090.3</ele>
        <time>2021-07-09T10:52:53Z</time>
      </trkpt>
      <trkpt lat="46.61234" lon="6.10507">
        <ele>1089.8</ele>
        <time>2021-07-09T10:52:59Z</time>
      </trkpt>
      <trkpt lat="46.61238" lon="6.10511">
        <ele>1088.7</ele>
        <time>2021-07-09T10:53:05Z</time>
      </trkpt>
      <trkpt lat="46.61241" lon="6.10517">
        <ele>1088.1</ele>
        <time>2021-07-09T10:53:11Z</time>
      </trkpt>
      <trkpt lat="46.61244" lon="6.10522">
        <ele>1087.8</ele>
        <time>2021-07-09T10:53:18Z</time>
      </trkpt>
      <trkpt lat="46.61248" lon="6.10526">
        <ele>1087.7</ele>
        <time>2021-07-09T10:53:24Z</time>
      </trkpt>
      <trkpt lat="46.61253" lon="6.10526">
        <ele>1087.7</ele>
        <time>2021-07-09T10:53:28Z</time>
      </trkpt>
      <trkpt lat="46.61258" lon="6.10527">
        <ele>1087.8</ele>
        <time>2021-07-09T10:53:33Z</time>
      </trkpt>
      <trkpt lat="46.61262" lon="6.1053">
        <ele>1089.1</ele>
        <time>2021-07-09T10:53:41Z</time>
      </trkpt>
      <trkpt lat="46.61268" lon="6.1053">
        <ele>1090.9</ele>
        <time>2021-07-09T10:53:49Z</time>
      </trkpt>
      <trkpt lat="46.61272" lon="6.1053">
        <ele>1090.6</ele>
        <time>2021-07-09T10:53:54Z</time>
      </trkpt>
      <trkpt lat="46.61277" lon="6.10534">
        <ele>1089.6</ele>
        <time>2021-07-09T10:53:59Z</time>
      </trkpt>
      <trkpt lat="46.61283" lon="6.10537">
        <ele>1088.7</ele>
        <time>2021-07-09T10:54:03Z</time>
      </trkpt>
      <trkpt lat="46.61288" lon="6.10538">
        <ele>1088.2</ele>
        <time>2021-07-09T10:54:07Z</time>
      </trkpt>
      <trkpt lat="46.61292" lon="6.10539">
        <ele>1088.5</ele>
        <time>2021-07-09T10:54:11Z</time>
      </trkpt>
      <trkpt lat="46.61297" lon="6.10539">
        <ele>1090.3</ele>
        <time>2021-07-09T10:54:20Z</time>
      </trkpt>
      <trkpt lat="46.61302" lon="6.10539">
        <ele>1090.6</ele>
        <time>2021-07-09T10:54:27Z</time>
      </trkpt>
      <trkpt lat="46.61307" lon="6.10539">
        <ele>1089.2</ele>
        <time>2021-07-09T10:54:33Z</time>
      </trkpt>
      <trkpt lat="46.61312" lon="6.1054">
        <ele>1088.2</ele>
        <time>2021-07-09T10:54:38Z</time>
      </trkpt>
      <trkpt lat="46.61317" lon="6.1054">
        <ele>1086.8</ele>
        <time>2021-07-09T10:54:45Z</time>
      </trkpt>
      <trkpt lat="46.61323" lon="6.10541">
        <ele>1086.3</ele>
        <time>2021-07-09T10:54:50Z</time>
      </trkpt>
      <trkpt lat="46.61328" lon="6.10543">
        <ele>1085.6</ele>
        <time>2021-07-09T10:54:54Z</time>
      </trkpt>
      <trkpt lat="46.61333" lon="6.10546">
        <ele>1084.6</ele>
        <time>2021-07-09T10:54:58Z</time>
      </trkpt>
      <trkpt lat="46.61337" lon="6.10549">
        <ele>1083.2</ele>
        <time>2021-07-09T10:55:02Z</time>
      </trkpt>
      <trkpt lat="46.61343" lon="6.10551">
        <ele>1082.2</ele>
        <time>2021-07-09T10:55:06Z</time>
      </trkpt>
      <trkpt lat="46.61348" lon="6.10556">
        <ele>1081.9</ele>
        <time>2021-07-09T10:55:10Z</time>
      </trkpt>
      <trkpt lat="46.61353" lon="6.10557">
        <ele>1081.5</ele>
        <time>2021-07-09T10:55:20Z</time>
      </trkpt>
      <trkpt lat="46.61359" lon="6.10558">
        <ele>1081.4</ele>
        <time>2021-07-09T10:55:24Z</time>
      </trkpt>
      <trkpt lat="46.61364" lon="6.10559">
        <ele>1081.8</ele>
        <time>2021-07-09T10:55:29Z</time>
      </trkpt>
      <trkpt lat="46.61369" lon="6.1056">
        <ele>1082.6</ele>
        <time>2021-07-09T10:55:35Z</time>
      </trkpt>
      <trkpt lat="46.61373" lon="6.10565">
        <ele>1082.1</ele>
        <time>2021-07-09T10:55:40Z</time>
      </trkpt>
      <trkpt lat="46.61377" lon="6.1057">
        <ele>1081.2</ele>
        <time>2021-07-09T10:55:45Z</time>
      </trkpt>
      <trkpt lat="46.61381" lon="6.10574">
        <ele>1080.4</ele>
        <time>2021-07-09T10:55:51Z</time>
      </trkpt>
      <trkpt lat="46.61386" lon="6.10578">
        <ele>1079.9</ele>
        <time>2021-07-09T10:55:56Z</time>
      </trkpt>
      <trkpt lat="46.61391" lon="6.10581">
        <ele>1079.7</ele>
        <time>2021-07-09T10:56:00Z</time>
      </trkpt>
      <trkpt lat="46.61394" lon="6.10587">
        <ele>1079.6</ele>
        <time>2021-07-09T10:56:05Z</time>
      </trkpt>
      <trkpt lat="46.61396" lon="6.10593">
        <ele>1079.8</ele>
        <time>2021-07-09T10:56:09Z</time>
      </trkpt>
      <trkpt lat="46.614" lon="6.106">
        <ele>1081.3</ele>
        <time>2021-07-09T10:56:13Z</time>
      </trkpt>
      <trkpt lat="46.61403" lon="6.10606">
        <ele>1083.8</ele>
        <time>2021-07-09T10:56:18Z</time>
      </trkpt>
      <trkpt lat="46.61407" lon="6.1061">
        <ele>1085.4</ele>
        <time>2021-07-09T10:56:22Z</time>
      </trkpt>
      <trkpt lat="46.61409" lon="6.10616">
        <ele>1087.6</ele>
        <time>2021-07-09T10:56:28Z</time>
      </trkpt>
      <trkpt lat="46.61413" lon="6.10621">
        <ele>1088.4</ele>
        <time>2021-07-09T10:56:33Z</time>
      </trkpt>
      <trkpt lat="46.61417" lon="6.10626">
        <ele>1089.1</ele>
        <time>2021-07-09T10:56:38Z</time>
      </trkpt>
      <trkpt lat="46.6142" lon="6.10631">
        <ele>1090</ele>
        <time>2021-07-09T10:56:43Z</time>
      </trkpt>
      <trkpt lat="46.61424" lon="6.10637">
        <ele>1091</ele>
        <time>2021-07-09T10:56:48Z</time>
      </trkpt>
      <trkpt lat="46.61425" lon="6.10644">
        <ele>1091.9</ele>
        <time>2021-07-09T10:56:55Z</time>
      </trkpt>
      <trkpt lat="46.61421" lon="6.10642">
        <ele>1092.5</ele>
        <time>2021-07-09T10:57:03Z</time>
      </trkpt>
      <trkpt lat="46.61426" lon="6.10641">
        <ele>1087.6</ele>
        <time>2021-07-09T10:57:34Z</time>
      </trkpt>
      <trkpt lat="46.6143" lon="6.10646">
        <ele>1085.2</ele>
        <time>2021-07-09T10:57:41Z</time>
      </trkpt>
      <trkpt lat="46.61435" lon="6.10648">
        <ele>1083.4</ele>
        <time>2021-07-09T10:57:49Z</time>
      </trkpt>
      <trkpt lat="46.6144" lon="6.10647">
        <ele>1081.8</ele>
        <time>2021-07-09T10:57:55Z</time>
      </trkpt>
      <trkpt lat="46.61445" lon="6.10646">
        <ele>1080.8</ele>
        <time>2021-07-09T10:58:01Z</time>
      </trkpt>
      <trkpt lat="46.6145" lon="6.10644">
        <ele>1081.4</ele>
        <time>2021-07-09T10:58:08Z</time>
      </trkpt>
      <trkpt lat="46.61454" lon="6.10641">
        <ele>1082.1</ele>
        <time>2021-07-09T10:58:13Z</time>
      </trkpt>
      <trkpt lat="46.61458" lon="6.10636">
        <ele>1082.7</ele>
        <time>2021-07-09T10:58:18Z</time>
      </trkpt>
      <trkpt lat="46.61463" lon="6.10633">
        <ele>1082.9</ele>
        <time>2021-07-09T10:58:24Z</time>
      </trkpt>
      <trkpt lat="46.61467" lon="6.10629">
        <ele>1083.1</ele>
        <time>2021-07-09T10:58:30Z</time>
      </trkpt>
      <trkpt lat="46.61472" lon="6.10627">
        <ele>1084</ele>
        <time>2021-07-09T10:58:35Z</time>
      </trkpt>
      <trkpt lat="46.61476" lon="6.10626">
        <ele>1085</ele>
        <time>2021-07-09T10:58:39Z</time>
      </trkpt>
      <trkpt lat="46.61482" lon="6.10624">
        <ele>1085.9</ele>
        <time>2021-07-09T10:58:43Z</time>
      </trkpt>
      <trkpt lat="46.61486" lon="6.10621">
        <ele>1086.5</ele>
        <time>2021-07-09T10:58:47Z</time>
      </trkpt>
      <trkpt lat="46.6149" lon="6.10617">
        <ele>1086.7</ele>
        <time>2021-07-09T10:58:52Z</time>
      </trkpt>
      <trkpt lat="46.61494" lon="6.10613">
        <ele>1086.1</ele>
        <time>2021-07-09T10:58:57Z</time>
      </trkpt>
      <trkpt lat="46.61498" lon="6.1061">
        <ele>1085.5</ele>
        <time>2021-07-09T10:59:04Z</time>
      </trkpt>
      <trkpt lat="46.61503" lon="6.10607">
        <ele>1084.6</ele>
        <time>2021-07-09T10:59:10Z</time>
      </trkpt>
      <trkpt lat="46.61508" lon="6.10604">
        <ele>1084.3</ele>
        <time>2021-07-09T10:59:14Z</time>
      </trkpt>
      <trkpt lat="46.61511" lon="6.106">
        <ele>1083.8</ele>
        <time>2021-07-09T10:59:20Z</time>
      </trkpt>
      <trkpt lat="46.61516" lon="6.10597">
        <ele>1083.7</ele>
        <time>2021-07-09T10:59:24Z</time>
      </trkpt>
      <trkpt lat="46.6152" lon="6.10594">
        <ele>1083.6</ele>
        <time>2021-07-09T10:59:28Z</time>
      </trkpt>
      <trkpt lat="46.61524" lon="6.1059">
        <ele>1083.1</ele>
        <time>2021-07-09T10:59:33Z</time>
      </trkpt>
      <trkpt lat="46.61529" lon="6.10588">
        <ele>1081.7</ele>
        <time>2021-07-09T10:59:38Z</time>
      </trkpt>
      <trkpt lat="46.61533" lon="6.10584">
        <ele>1081.1</ele>
        <time>2021-07-09T10:59:42Z</time>
      </trkpt>
      <trkpt lat="46.61538" lon="6.1058">
        <ele>1081.1</ele>
        <time>2021-07-09T10:59:46Z</time>
      </trkpt>
      <trkpt lat="46.61542" lon="6.10576">
        <ele>1081.7</ele>
        <time>2021-07-09T10:59:50Z</time>
      </trkpt>
      <trkpt lat="46.61546" lon="6.10571">
        <ele>1081.8</ele>
        <time>2021-07-09T10:59:56Z</time>
      </trkpt>
      <trkpt lat="46.6155" lon="6.10567">
        <ele>1081.7</ele>
        <time>2021-07-09T11:00:02Z</time>
      </trkpt>
      <trkpt lat="46.61556" lon="6.10564">
        <ele>1081.6</ele>
        <time>2021-07-09T11:00:07Z</time>
      </trkpt>
      <trkpt lat="46.61561" lon="6.1056">
        <ele>1081.8</ele>
        <time>2021-07-09T11:00:11Z</time>
      </trkpt>
      <trkpt lat="46.61565" lon="6.10557">
        <ele>1082.7</ele>
        <time>2021-07-09T11:00:16Z</time>
      </trkpt>
      <trkpt lat="46.6157" lon="6.10556">
        <ele>1084.3</ele>
        <time>2021-07-09T11:00:21Z</time>
      </trkpt>
      <trkpt lat="46.61575" lon="6.10554">
        <ele>1086.1</ele>
        <time>2021-07-09T11:00:26Z</time>
      </trkpt>
      <trkpt lat="46.61579" lon="6.10551">
        <ele>1087</ele>
        <time>2021-07-09T11:00:31Z</time>
      </trkpt>
      <trkpt lat="46.61583" lon="6.10552">
        <ele>1086.8</ele>
        <time>2021-07-09T11:00:35Z</time>
      </trkpt>
      <trkpt lat="46.61588" lon="6.10552">
        <ele>1086.2</ele>
        <time>2021-07-09T11:00:40Z</time>
      </trkpt>
      <trkpt lat="46.61593" lon="6.10552">
        <ele>1085.7</ele>
        <time>2021-07-09T11:00:46Z</time>
      </trkpt>
      <trkpt lat="46.61599" lon="6.10554">
        <ele>1084.7</ele>
        <time>2021-07-09T11:00:50Z</time>
      </trkpt>
      <trkpt lat="46.61604" lon="6.10554">
        <ele>1083.7</ele>
        <time>2021-07-09T11:00:54Z</time>
      </trkpt>
      <trkpt lat="46.61609" lon="6.10551">
        <ele>1083.9</ele>
        <time>2021-07-09T11:01:03Z</time>
      </trkpt>
      <trkpt lat="46.61613" lon="6.1055">
        <ele>1084.5</ele>
        <time>2021-07-09T11:01:09Z</time>
      </trkpt>
      <trkpt lat="46.61621" lon="6.10549">
        <ele>1085.1</ele>
        <time>2021-07-09T11:01:13Z</time>
      </trkpt>
      <trkpt lat="46.61627" lon="6.10548">
        <ele>1085.8</ele>
        <time>2021-07-09T11:01:17Z</time>
      </trkpt>
      <trkpt lat="46.61631" lon="6.10548">
        <ele>1086.7</ele>
        <time>2021-07-09T11:01:21Z</time>
      </trkpt>
      <trkpt lat="46.61636" lon="6.10548">
        <ele>1088</ele>
        <time>2021-07-09T11:01:27Z</time>
      </trkpt>
      <trkpt lat="46.61641" lon="6.10548">
        <ele>1089.2</ele>
        <time>2021-07-09T11:01:32Z</time>
      </trkpt>
      <trkpt lat="46.61646" lon="6.10546">
        <ele>1090.2</ele>
        <time>2021-07-09T11:01:38Z</time>
      </trkpt>
      <trkpt lat="46.6165" lon="6.10543">
        <ele>1089.2</ele>
        <time>2021-07-09T11:01:45Z</time>
      </trkpt>
      <trkpt lat="46.61654" lon="6.10538">
        <ele>1088.5</ele>
        <time>2021-07-09T11:01:50Z</time>
      </trkpt>
      <trkpt lat="46.61656" lon="6.10531">
        <ele>1088.3</ele>
        <time>2021-07-09T11:01:55Z</time>
      </trkpt>
      <trkpt lat="46.6166" lon="6.10525">
        <ele>1089.3</ele>
        <time>2021-07-09T11:02:00Z</time>
      </trkpt>
      <trkpt lat="46.61665" lon="6.10522">
        <ele>1090.6</ele>
        <time>2021-07-09T11:02:05Z</time>
      </trkpt>
      <trkpt lat="46.61669" lon="6.10518">
        <ele>1092.7</ele>
        <time>2021-07-09T11:02:10Z</time>
      </trkpt>
      <trkpt lat="46.61674" lon="6.10514">
        <ele>1094.5</ele>
        <time>2021-07-09T11:02:15Z</time>
      </trkpt>
      <trkpt lat="46.61678" lon="6.10513">
        <ele>1095.7</ele>
        <time>2021-07-09T11:02:20Z</time>
      </trkpt>
      <trkpt lat="46.61682" lon="6.10508">
        <ele>1097.6</ele>
        <time>2021-07-09T11:02:29Z</time>
      </trkpt>
      <trkpt lat="46.61687" lon="6.10507">
        <ele>1098.5</ele>
        <time>2021-07-09T11:02:33Z</time>
      </trkpt>
      <trkpt lat="46.61694" lon="6.10508">
        <ele>1099</ele>
        <time>2021-07-09T11:02:37Z</time>
      </trkpt>
      <trkpt lat="46.617" lon="6.10511">
        <ele>1099.4</ele>
        <time>2021-07-09T11:02:41Z</time>
      </trkpt>
      <trkpt lat="46.61703" lon="6.10516">
        <ele>1100</ele>
        <time>2021-07-09T11:02:46Z</time>
      </trkpt>
      <trkpt lat="46.61708" lon="6.10518">
        <ele>1099.8</ele>
        <time>2021-07-09T11:02:50Z</time>
      </trkpt>
      <trkpt lat="46.61712" lon="6.1052">
        <ele>1098.8</ele>
        <time>2021-07-09T11:02:55Z</time>
      </trkpt>
      <trkpt lat="46.61717" lon="6.1052">
        <ele>1097.2</ele>
        <time>2021-07-09T11:03:00Z</time>
      </trkpt>
      <trkpt lat="46.61722" lon="6.10517">
        <ele>1095.9</ele>
        <time>2021-07-09T11:03:05Z</time>
      </trkpt>
      <trkpt lat="46.61726" lon="6.10513">
        <ele>1095.4</ele>
        <time>2021-07-09T11:03:09Z</time>
      </trkpt>
      <trkpt lat="46.61731" lon="6.1051">
        <ele>1095.4</ele>
        <time>2021-07-09T11:03:13Z</time>
      </trkpt>
      <trkpt lat="46.61735" lon="6.10509">
        <ele>1096.1</ele>
        <time>2021-07-09T11:03:18Z</time>
      </trkpt>
      <trkpt lat="46.61739" lon="6.10504">
        <ele>1096.3</ele>
        <time>2021-07-09T11:03:23Z</time>
      </trkpt>
      <trkpt lat="46.61743" lon="6.10502">
        <ele>1095.6</ele>
        <time>2021-07-09T11:03:31Z</time>
      </trkpt>
      <trkpt lat="46.61748" lon="6.10502">
        <ele>1095.8</ele>
        <time>2021-07-09T11:03:37Z</time>
      </trkpt>
      <trkpt lat="46.61753" lon="6.10502">
        <ele>1095.7</ele>
        <time>2021-07-09T11:03:41Z</time>
      </trkpt>
      <trkpt lat="46.61757" lon="6.10502">
        <ele>1095</ele>
        <time>2021-07-09T11:03:45Z</time>
      </trkpt>
      <trkpt lat="46.61762" lon="6.10506">
        <ele>1094.4</ele>
        <time>2021-07-09T11:03:50Z</time>
      </trkpt>
      <trkpt lat="46.61767" lon="6.10509">
        <ele>1094.1</ele>
        <time>2021-07-09T11:03:55Z</time>
      </trkpt>
      <trkpt lat="46.61772" lon="6.1051">
        <ele>1093.6</ele>
        <time>2021-07-09T11:04:01Z</time>
      </trkpt>
      <trkpt lat="46.61776" lon="6.1051">
        <ele>1093.4</ele>
        <time>2021-07-09T11:04:05Z</time>
      </trkpt>
      <trkpt lat="46.61781" lon="6.10513">
        <ele>1093.7</ele>
        <time>2021-07-09T11:04:10Z</time>
      </trkpt>
      <trkpt lat="46.61785" lon="6.10517">
        <ele>1093.5</ele>
        <time>2021-07-09T11:04:17Z</time>
      </trkpt>
      <trkpt lat="46.6179" lon="6.10518">
        <ele>1093</ele>
        <time>2021-07-09T11:04:22Z</time>
      </trkpt>
      <trkpt lat="46.61795" lon="6.10519">
        <ele>1092.9</ele>
        <time>2021-07-09T11:04:28Z</time>
      </trkpt>
      <trkpt lat="46.618" lon="6.1052">
        <ele>1093.5</ele>
        <time>2021-07-09T11:04:34Z</time>
      </trkpt>
      <trkpt lat="46.61806" lon="6.10521">
        <ele>1093.9</ele>
        <time>2021-07-09T11:04:39Z</time>
      </trkpt>
      <trkpt lat="46.6181" lon="6.1052">
        <ele>1094.5</ele>
        <time>2021-07-09T11:04:44Z</time>
      </trkpt>
      <trkpt lat="46.61815" lon="6.10519">
        <ele>1095.3</ele>
        <time>2021-07-09T11:04:48Z</time>
      </trkpt>
      <trkpt lat="46.6182" lon="6.10519">
        <ele>1096.3</ele>
        <time>2021-07-09T11:04:52Z</time>
      </trkpt>
      <trkpt lat="46.61824" lon="6.10521">
        <ele>1096.4</ele>
        <time>2021-07-09T11:05:00Z</time>
      </trkpt>
      <trkpt lat="46.61828" lon="6.1052">
        <ele>1095.9</ele>
        <time>2021-07-09T11:05:06Z</time>
      </trkpt>
      <trkpt lat="46.61833" lon="6.10517">
        <ele>1095.1</ele>
        <time>2021-07-09T11:05:11Z</time>
      </trkpt>
      <trkpt lat="46.61838" lon="6.10514">
        <ele>1094.6</ele>
        <time>2021-07-09T11:05:16Z</time>
      </trkpt>
      <trkpt lat="46.61842" lon="6.10511">
        <ele>1094.2</ele>
        <time>2021-07-09T11:05:20Z</time>
      </trkpt>
      <trkpt lat="46.61847" lon="6.10509">
        <ele>1093.6</ele>
        <time>2021-07-09T11:05:24Z</time>
      </trkpt>
      <trkpt lat="46.61852" lon="6.10507">
        <ele>1093.1</ele>
        <time>2021-07-09T11:05:28Z</time>
      </trkpt>
      <trkpt lat="46.61856" lon="6.10506">
        <ele>1092.8</ele>
        <time>2021-07-09T11:05:32Z</time>
      </trkpt>
      <trkpt lat="46.61861" lon="6.10503">
        <ele>1093.3</ele>
        <time>2021-07-09T11:05:38Z</time>
      </trkpt>
      <trkpt lat="46.61866" lon="6.105">
        <ele>1094</ele>
        <time>2021-07-09T11:05:44Z</time>
      </trkpt>
      <trkpt lat="46.6187" lon="6.10499">
        <ele>1094.5</ele>
        <time>2021-07-09T11:05:52Z</time>
      </trkpt>
      <trkpt lat="46.61875" lon="6.10497">
        <ele>1093.9</ele>
        <time>2021-07-09T11:05:56Z</time>
      </trkpt>
      <trkpt lat="46.61879" lon="6.10495">
        <ele>1092.6</ele>
        <time>2021-07-09T11:06:01Z</time>
      </trkpt>
      <trkpt lat="46.61884" lon="6.10495">
        <ele>1091.6</ele>
        <time>2021-07-09T11:06:06Z</time>
      </trkpt>
      <trkpt lat="46.61889" lon="6.10498">
        <ele>1092.1</ele>
        <time>2021-07-09T11:07:39Z</time>
      </trkpt>
      <trkpt lat="46.61894" lon="6.10497">
        <ele>1093.9</ele>
        <time>2021-07-09T11:08:32Z</time>
      </trkpt>
      <trkpt lat="46.61898" lon="6.10501">
        <ele>1094.7</ele>
        <time>2021-07-09T11:08:37Z</time>
      </trkpt>
      <trkpt lat="46.61902" lon="6.10505">
        <ele>1095.7</ele>
        <time>2021-07-09T11:08:43Z</time>
      </trkpt>
      <trkpt lat="46.61906" lon="6.10508">
        <ele>1096.1</ele>
        <time>2021-07-09T11:08:51Z</time>
      </trkpt>
      <trkpt lat="46.6191" lon="6.10512">
        <ele>1096</ele>
        <time>2021-07-09T11:08:56Z</time>
      </trkpt>
      <trkpt lat="46.61914" lon="6.10516">
        <ele>1096.1</ele>
        <time>2021-07-09T11:09:02Z</time>
      </trkpt>
      <trkpt lat="46.61918" lon="6.10521">
        <ele>1096.6</ele>
        <time>2021-07-09T11:09:09Z</time>
      </trkpt>
      <trkpt lat="46.61921" lon="6.10526">
        <ele>1096.9</ele>
        <time>2021-07-09T11:09:15Z</time>
      </trkpt>
      <trkpt lat="46.61922" lon="6.10533">
        <ele>1097.6</ele>
        <time>2021-07-09T11:09:24Z</time>
      </trkpt>
      <trkpt lat="46.61926" lon="6.10537">
        <ele>1097.6</ele>
        <time>2021-07-09T11:09:31Z</time>
      </trkpt>
      <trkpt lat="46.61929" lon="6.10541">
        <ele>1097.1</ele>
        <time>2021-07-09T11:09:39Z</time>
      </trkpt>
      <trkpt lat="46.61934" lon="6.10544">
        <ele>1096.8</ele>
        <time>2021-07-09T11:09:43Z</time>
      </trkpt>
      <trkpt lat="46.61938" lon="6.10543">
        <ele>1095.4</ele>
        <time>2021-07-09T11:09:59Z</time>
      </trkpt>
      <trkpt lat="46.61942" lon="6.10547">
        <ele>1096.8</ele>
        <time>2021-07-09T11:10:28Z</time>
      </trkpt>
      <trkpt lat="46.61946" lon="6.10552">
        <ele>1099.1</ele>
        <time>2021-07-09T11:10:33Z</time>
      </trkpt>
      <trkpt lat="46.61949" lon="6.10558">
        <ele>1101.1</ele>
        <time>2021-07-09T11:10:41Z</time>
      </trkpt>
      <trkpt lat="46.61954" lon="6.1056">
        <ele>1101.3</ele>
        <time>2021-07-09T11:10:46Z</time>
      </trkpt>
      <trkpt lat="46.61959" lon="6.10563">
        <ele>1101.1</ele>
        <time>2021-07-09T11:10:52Z</time>
      </trkpt>
      <trkpt lat="46.61963" lon="6.10568">
        <ele>1101</ele>
        <time>2021-07-09T11:11:00Z</time>
      </trkpt>
      <trkpt lat="46.61968" lon="6.10568">
        <ele>1101</ele>
        <time>2021-07-09T11:11:07Z</time>
      </trkpt>
      <trkpt lat="46.61972" lon="6.10567">
        <ele>1101.6</ele>
        <time>2021-07-09T11:11:12Z</time>
      </trkpt>
      <trkpt lat="46.61978" lon="6.10566">
        <ele>1102.1</ele>
        <time>2021-07-09T11:11:16Z</time>
      </trkpt>
      <trkpt lat="46.61982" lon="6.10566">
        <ele>1102.1</ele>
        <time>2021-07-09T11:11:20Z</time>
      </trkpt>
      <trkpt lat="46.61987" lon="6.10568">
        <ele>1102</ele>
        <time>2021-07-09T11:11:26Z</time>
      </trkpt>
      <trkpt lat="46.61992" lon="6.1057">
        <ele>1102.4</ele>
        <time>2021-07-09T11:11:31Z</time>
      </trkpt>
      <trkpt lat="46.61998" lon="6.10572">
        <ele>1102.8</ele>
        <time>2021-07-09T11:11:35Z</time>
      </trkpt>
      <trkpt lat="46.62003" lon="6.10574">
        <ele>1103.3</ele>
        <time>2021-07-09T11:11:39Z</time>
      </trkpt>
      <trkpt lat="46.62008" lon="6.10577">
        <ele>1104.5</ele>
        <time>2021-07-09T11:11:45Z</time>
      </trkpt>
      <trkpt lat="46.62012" lon="6.10579">
        <ele>1105.1</ele>
        <time>2021-07-09T11:11:55Z</time>
      </trkpt>
      <trkpt lat="46.62015" lon="6.10574">
        <ele>1105.5</ele>
        <time>2021-07-09T11:12:03Z</time>
      </trkpt>
      <trkpt lat="46.6202" lon="6.10579">
        <ele>1106.2</ele>
        <time>2021-07-09T11:12:13Z</time>
      </trkpt>
      <trkpt lat="46.62026" lon="6.10581">
        <ele>1106.6</ele>
        <time>2021-07-09T11:12:17Z</time>
      </trkpt>
      <trkpt lat="46.62031" lon="6.10581">
        <ele>1107.2</ele>
        <time>2021-07-09T11:12:22Z</time>
      </trkpt>
      <trkpt lat="46.62036" lon="6.10579">
        <ele>1108.1</ele>
        <time>2021-07-09T11:12:28Z</time>
      </trkpt>
      <trkpt lat="46.62039" lon="6.10573">
        <ele>1109.3</ele>
        <time>2021-07-09T11:12:34Z</time>
      </trkpt>
      <trkpt lat="46.62044" lon="6.10569">
        <ele>1110.1</ele>
        <time>2021-07-09T11:12:40Z</time>
      </trkpt>
      <trkpt lat="46.62049" lon="6.10566">
        <ele>1110.5</ele>
        <time>2021-07-09T11:12:44Z</time>
      </trkpt>
      <trkpt lat="46.62052" lon="6.1056">
        <ele>1111.7</ele>
        <time>2021-07-09T11:12:52Z</time>
      </trkpt>
      <trkpt lat="46.62056" lon="6.10556">
        <ele>1112.6</ele>
        <time>2021-07-09T11:12:59Z</time>
      </trkpt>
      <trkpt lat="46.6206" lon="6.10553">
        <ele>1113.3</ele>
        <time>2021-07-09T11:13:04Z</time>
      </trkpt>
      <trkpt lat="46.62064" lon="6.10549">
        <ele>1114.2</ele>
        <time>2021-07-09T11:13:10Z</time>
      </trkpt>
      <trkpt lat="46.62069" lon="6.10549">
        <ele>1114.5</ele>
        <time>2021-07-09T11:13:15Z</time>
      </trkpt>
      <trkpt lat="46.62074" lon="6.10548">
        <ele>1114.3</ele>
        <time>2021-07-09T11:13:20Z</time>
      </trkpt>
      <trkpt lat="46.62078" lon="6.1055">
        <ele>1114.3</ele>
        <time>2021-07-09T11:13:28Z</time>
      </trkpt>
      <trkpt lat="46.62083" lon="6.10548">
        <ele>1113.8</ele>
        <time>2021-07-09T11:13:34Z</time>
      </trkpt>
      <trkpt lat="46.62088" lon="6.10546">
        <ele>1113.4</ele>
        <time>2021-07-09T11:13:39Z</time>
      </trkpt>
      <trkpt lat="46.62093" lon="6.10541">
        <ele>1113.6</ele>
        <time>2021-07-09T11:13:43Z</time>
      </trkpt>
      <trkpt lat="46.62096" lon="6.10536">
        <ele>1114</ele>
        <time>2021-07-09T11:13:49Z</time>
      </trkpt>
      <trkpt lat="46.621" lon="6.10531">
        <ele>1115</ele>
        <time>2021-07-09T11:13:57Z</time>
      </trkpt>
      <trkpt lat="46.621" lon="6.10524">
        <ele>1116.3</ele>
        <time>2021-07-09T11:14:03Z</time>
      </trkpt>
      <trkpt lat="46.62103" lon="6.10518">
        <ele>1118.9</ele>
        <time>2021-07-09T11:14:13Z</time>
      </trkpt>
      <trkpt lat="46.62107" lon="6.10513">
        <ele>1120.4</ele>
        <time>2021-07-09T11:14:19Z</time>
      </trkpt>
      <trkpt lat="46.62111" lon="6.1051">
        <ele>1121.9</ele>
        <time>2021-07-09T11:14:26Z</time>
      </trkpt>
      <trkpt lat="46.62115" lon="6.10506">
        <ele>1121.5</ele>
        <time>2021-07-09T11:14:31Z</time>
      </trkpt>
      <trkpt lat="46.6212" lon="6.10501">
        <ele>1120.2</ele>
        <time>2021-07-09T11:14:37Z</time>
      </trkpt>
      <trkpt lat="46.62124" lon="6.10498">
        <ele>1119.5</ele>
        <time>2021-07-09T11:14:43Z</time>
      </trkpt>
      <trkpt lat="46.62127" lon="6.10492">
        <ele>1118.8</ele>
        <time>2021-07-09T11:14:48Z</time>
      </trkpt>
      <trkpt lat="46.62131" lon="6.10486">
        <ele>1118</ele>
        <time>2021-07-09T11:14:52Z</time>
      </trkpt>
      <trkpt lat="46.62135" lon="6.1048">
        <ele>1117.2</ele>
        <time>2021-07-09T11:14:56Z</time>
      </trkpt>
      <trkpt lat="46.62138" lon="6.10475">
        <ele>1117</ele>
        <time>2021-07-09T11:15:02Z</time>
      </trkpt>
      <trkpt lat="46.62142" lon="6.10478">
        <ele>1121.6</ele>
        <time>2021-07-09T11:15:19Z</time>
      </trkpt>
      <trkpt lat="46.62146" lon="6.10473">
        <ele>1123.5</ele>
        <time>2021-07-09T11:15:26Z</time>
      </trkpt>
      <trkpt lat="46.6215" lon="6.10469">
        <ele>1124.7</ele>
        <time>2021-07-09T11:15:30Z</time>
      </trkpt>
      <trkpt lat="46.62153" lon="6.10464">
        <ele>1126.7</ele>
        <time>2021-07-09T11:15:35Z</time>
      </trkpt>
      <trkpt lat="46.62157" lon="6.10461">
        <ele>1129.7</ele>
        <time>2021-07-09T11:15:40Z</time>
      </trkpt>
      <trkpt lat="46.62161" lon="6.10458">
        <ele>1132.4</ele>
        <time>2021-07-09T11:15:45Z</time>
      </trkpt>
      <trkpt lat="46.62165" lon="6.10453">
        <ele>1135.2</ele>
        <time>2021-07-09T11:15:51Z</time>
      </trkpt>
      <trkpt lat="46.62171" lon="6.10452">
        <ele>1137</ele>
        <time>2021-07-09T11:15:56Z</time>
      </trkpt>
      <trkpt lat="46.62175" lon="6.10449">
        <ele>1138</ele>
        <time>2021-07-09T11:16:01Z</time>
      </trkpt>
      <trkpt lat="46.62178" lon="6.10443">
        <ele>1137.6</ele>
        <time>2021-07-09T11:16:07Z</time>
      </trkpt>
      <trkpt lat="46.6218" lon="6.10438">
        <ele>1135.4</ele>
        <time>2021-07-09T11:16:18Z</time>
      </trkpt>
      <trkpt lat="46.62185" lon="6.10434">
        <ele>1134.7</ele>
        <time>2021-07-09T11:16:25Z</time>
      </trkpt>
      <trkpt lat="46.62188" lon="6.10431">
        <ele>1134.3</ele>
        <time>2021-07-09T11:16:32Z</time>
      </trkpt>
      <trkpt lat="46.62193" lon="6.10427">
        <ele>1134.3</ele>
        <time>2021-07-09T11:16:36Z</time>
      </trkpt>
      <trkpt lat="46.62196" lon="6.10421">
        <ele>1134.8</ele>
        <time>2021-07-09T11:16:41Z</time>
      </trkpt>
      <trkpt lat="46.622" lon="6.10418">
        <ele>1135.3</ele>
        <time>2021-07-09T11:16:49Z</time>
      </trkpt>
      <trkpt lat="46.62206" lon="6.10419">
        <ele>1135.5</ele>
        <time>2021-07-09T11:16:53Z</time>
      </trkpt>
      <trkpt lat="46.62212" lon="6.10421">
        <ele>1135.4</ele>
        <time>2021-07-09T11:16:57Z</time>
      </trkpt>
      <trkpt lat="46.62217" lon="6.10423">
        <ele>1135.1</ele>
        <time>2021-07-09T11:17:01Z</time>
      </trkpt>
      <trkpt lat="46.62222" lon="6.10426">
        <ele>1134.9</ele>
        <time>2021-07-09T11:17:05Z</time>
      </trkpt>
      <trkpt lat="46.62226" lon="6.10431">
        <ele>1134.7</ele>
        <time>2021-07-09T11:17:09Z</time>
      </trkpt>
      <trkpt lat="46.62231" lon="6.10434">
        <ele>1134.6</ele>
        <time>2021-07-09T11:17:14Z</time>
      </trkpt>
      <trkpt lat="46.62235" lon="6.10438">
        <ele>1134.4</ele>
        <time>2021-07-09T11:17:18Z</time>
      </trkpt>
      <trkpt lat="46.62239" lon="6.10444">
        <ele>1133.9</ele>
        <time>2021-07-09T11:17:23Z</time>
      </trkpt>
      <trkpt lat="46.62243" lon="6.10448">
        <ele>1133.4</ele>
        <time>2021-07-09T11:17:27Z</time>
      </trkpt>
      <trkpt lat="46.62245" lon="6.10455">
        <ele>1131.3</ele>
        <time>2021-07-09T11:17:40Z</time>
      </trkpt>
      <trkpt lat="46.62248" lon="6.1046">
        <ele>1130.6</ele>
        <time>2021-07-09T11:17:45Z</time>
      </trkpt>
      <trkpt lat="46.62253" lon="6.10464">
        <ele>1130.1</ele>
        <time>2021-07-09T11:17:49Z</time>
      </trkpt>
      <trkpt lat="46.62257" lon="6.10467">
        <ele>1130.2</ele>
        <time>2021-07-09T11:17:53Z</time>
      </trkpt>
      <trkpt lat="46.62262" lon="6.10471">
        <ele>1131.2</ele>
        <time>2021-07-09T11:17:58Z</time>
      </trkpt>
      <trkpt lat="46.62265" lon="6.10476">
        <ele>1132</ele>
        <time>2021-07-09T11:18:02Z</time>
      </trkpt>
      <trkpt lat="46.62268" lon="6.10482">
        <ele>1131.9</ele>
        <time>2021-07-09T11:18:08Z</time>
      </trkpt>
      <trkpt lat="46.6227" lon="6.10488">
        <ele>1131.6</ele>
        <time>2021-07-09T11:18:12Z</time>
      </trkpt>
      <trkpt lat="46.62271" lon="6.10495">
        <ele>1131.2</ele>
        <time>2021-07-09T11:18:17Z</time>
      </trkpt>
      <trkpt lat="46.62273" lon="6.10502">
        <ele>1131.4</ele>
        <time>2021-07-09T11:18:23Z</time>
      </trkpt>
      <trkpt lat="46.62274" lon="6.10508">
        <ele>1132</ele>
        <time>2021-07-09T11:18:27Z</time>
      </trkpt>
      <trkpt lat="46.62274" lon="6.10515">
        <ele>1132.5</ele>
        <time>2021-07-09T11:18:32Z</time>
      </trkpt>
      <trkpt lat="46.62273" lon="6.10522">
        <ele>1130.7</ele>
        <time>2021-07-09T11:18:41Z</time>
      </trkpt>
      <trkpt lat="46.62276" lon="6.10528">
        <ele>1130</ele>
        <time>2021-07-09T11:18:46Z</time>
      </trkpt>
      <trkpt lat="46.6228" lon="6.10533">
        <ele>1129.3</ele>
        <time>2021-07-09T11:18:52Z</time>
      </trkpt>
      <trkpt lat="46.6228" lon="6.10526">
        <ele>1127.1</ele>
        <time>2021-07-09T11:19:08Z</time>
      </trkpt>
      <trkpt lat="46.62276" lon="6.10522">
        <ele>1127.1</ele>
        <time>2021-07-09T11:19:18Z</time>
      </trkpt>
      <trkpt lat="46.6228" lon="6.10524">
        <ele>1127.5</ele>
        <time>2021-07-09T11:19:24Z</time>
      </trkpt>
      <trkpt lat="46.62284" lon="6.10528">
        <ele>1127.2</ele>
        <time>2021-07-09T11:19:41Z</time>
      </trkpt>
      <trkpt lat="46.6228" lon="6.10522">
        <ele>1125.4</ele>
        <time>2021-07-09T11:20:00Z</time>
      </trkpt>
      <trkpt lat="46.62281" lon="6.10514">
        <ele>1125.4</ele>
        <time>2021-07-09T11:20:04Z</time>
      </trkpt>
      <trkpt lat="46.62284" lon="6.10509">
        <ele>1125.4</ele>
        <time>2021-07-09T11:20:09Z</time>
      </trkpt>
      <trkpt lat="46.62287" lon="6.10504">
        <ele>1125.6</ele>
        <time>2021-07-09T11:20:15Z</time>
      </trkpt>
      <trkpt lat="46.62291" lon="6.10498">
        <ele>1126.1</ele>
        <time>2021-07-09T11:20:20Z</time>
      </trkpt>
      <trkpt lat="46.62294" lon="6.10492">
        <ele>1127</ele>
        <time>2021-07-09T11:20:25Z</time>
      </trkpt>
      <trkpt lat="46.62293" lon="6.10485">
        <ele>1127.8</ele>
        <time>2021-07-09T11:20:29Z</time>
      </trkpt>
      <trkpt lat="46.62295" lon="6.10478">
        <ele>1128.7</ele>
        <time>2021-07-09T11:20:33Z</time>
      </trkpt>
      <trkpt lat="46.62297" lon="6.10472">
        <ele>1129</ele>
        <time>2021-07-09T11:20:38Z</time>
      </trkpt>
      <trkpt lat="46.623" lon="6.10466">
        <ele>1130</ele>
        <time>2021-07-09T11:20:47Z</time>
      </trkpt>
      <trkpt lat="46.62304" lon="6.10461">
        <ele>1130.7</ele>
        <time>2021-07-09T11:20:52Z</time>
      </trkpt>
      <trkpt lat="46.62308" lon="6.10456">
        <ele>1131</ele>
        <time>2021-07-09T11:20:57Z</time>
      </trkpt>
      <trkpt lat="46.62311" lon="6.10451">
        <ele>1131.5</ele>
        <time>2021-07-09T11:21:02Z</time>
      </trkpt>
      <trkpt lat="46.62314" lon="6.10446">
        <ele>1131.6</ele>
        <time>2021-07-09T11:21:06Z</time>
      </trkpt>
      <trkpt lat="46.62317" lon="6.1044">
        <ele>1131.9</ele>
        <time>2021-07-09T11:21:11Z</time>
      </trkpt>
      <trkpt lat="46.62321" lon="6.10435">
        <ele>1132.4</ele>
        <time>2021-07-09T11:21:16Z</time>
      </trkpt>
      <trkpt lat="46.62325" lon="6.1043">
        <ele>1132.8</ele>
        <time>2021-07-09T11:21:20Z</time>
      </trkpt>
      <trkpt lat="46.62328" lon="6.10424">
        <ele>1133.6</ele>
        <time>2021-07-09T11:21:24Z</time>
      </trkpt>
      <trkpt lat="46.62332" lon="6.10419">
        <ele>1134.3</ele>
        <time>2021-07-09T11:21:29Z</time>
      </trkpt>
      <trkpt lat="46.62333" lon="6.10413">
        <ele>1134.2</ele>
        <time>2021-07-09T11:21:34Z</time>
      </trkpt>
      <trkpt lat="46.62333" lon="6.10405">
        <ele>1133.8</ele>
        <time>2021-07-09T11:21:39Z</time>
      </trkpt>
      <trkpt lat="46.62336" lon="6.104">
        <ele>1133.6</ele>
        <time>2021-07-09T11:21:43Z</time>
      </trkpt>
      <trkpt lat="46.62339" lon="6.10395">
        <ele>1133.3</ele>
        <time>2021-07-09T11:21:47Z</time>
      </trkpt>
      <trkpt lat="46.62344" lon="6.1039">
        <ele>1132.8</ele>
        <time>2021-07-09T11:21:52Z</time>
      </trkpt>
      <trkpt lat="46.62346" lon="6.10384">
        <ele>1132.8</ele>
        <time>2021-07-09T11:21:56Z</time>
      </trkpt>
      <trkpt lat="46.62348" lon="6.10378">
        <ele>1133</ele>
        <time>2021-07-09T11:22:00Z</time>
      </trkpt>
      <trkpt lat="46.62351" lon="6.10372">
        <ele>1132.7</ele>
        <time>2021-07-09T11:22:07Z</time>
      </trkpt>
      <trkpt lat="46.62355" lon="6.10367">
        <ele>1132.2</ele>
        <time>2021-07-09T11:22:11Z</time>
      </trkpt>
      <trkpt lat="46.62358" lon="6.10361">
        <ele>1131.5</ele>
        <time>2021-07-09T11:22:15Z</time>
      </trkpt>
      <trkpt lat="46.62362" lon="6.10358">
        <ele>1130.9</ele>
        <time>2021-07-09T11:22:19Z</time>
      </trkpt>
      <trkpt lat="46.62366" lon="6.10355">
        <ele>1130.6</ele>
        <time>2021-07-09T11:22:23Z</time>
      </trkpt>
      <trkpt lat="46.6237" lon="6.10352">
        <ele>1130.5</ele>
        <time>2021-07-09T11:22:29Z</time>
      </trkpt>
      <trkpt lat="46.62374" lon="6.10349">
        <ele>1130.7</ele>
        <time>2021-07-09T11:22:34Z</time>
      </trkpt>
      <trkpt lat="46.62379" lon="6.10347">
        <ele>1130.5</ele>
        <time>2021-07-09T11:22:38Z</time>
      </trkpt>
      <trkpt lat="46.62383" lon="6.10343">
        <ele>1130.2</ele>
        <time>2021-07-09T11:22:42Z</time>
      </trkpt>
      <trkpt lat="46.62386" lon="6.10338">
        <ele>1130.2</ele>
        <time>2021-07-09T11:22:46Z</time>
      </trkpt>
      <trkpt lat="46.6239" lon="6.10333">
        <ele>1130.2</ele>
        <time>2021-07-09T11:22:50Z</time>
      </trkpt>
      <trkpt lat="46.62395" lon="6.10331">
        <ele>1130.1</ele>
        <time>2021-07-09T11:22:54Z</time>
      </trkpt>
      <trkpt lat="46.62399" lon="6.10328">
        <ele>1128.5</ele>
        <time>2021-07-09T11:23:02Z</time>
      </trkpt>
      <trkpt lat="46.62403" lon="6.10324">
        <ele>1128.1</ele>
        <time>2021-07-09T11:23:07Z</time>
      </trkpt>
      <trkpt lat="46.62407" lon="6.10319">
        <ele>1128.2</ele>
        <time>2021-07-09T11:23:11Z</time>
      </trkpt>
      <trkpt lat="46.62411" lon="6.10314">
        <ele>1128.1</ele>
        <time>2021-07-09T11:23:15Z</time>
      </trkpt>
      <trkpt lat="46.62415" lon="6.1031">
        <ele>1128.4</ele>
        <time>2021-07-09T11:23:20Z</time>
      </trkpt>
      <trkpt lat="46.6242" lon="6.10308">
        <ele>1128.5</ele>
        <time>2021-07-09T11:23:25Z</time>
      </trkpt>
      <trkpt lat="46.62424" lon="6.10305">
        <ele>1128.2</ele>
        <time>2021-07-09T11:23:30Z</time>
      </trkpt>
      <trkpt lat="46.62429" lon="6.10303">
        <ele>1128.2</ele>
        <time>2021-07-09T11:23:34Z</time>
      </trkpt>
      <trkpt lat="46.62433" lon="6.10299">
        <ele>1128</ele>
        <time>2021-07-09T11:23:39Z</time>
      </trkpt>
      <trkpt lat="46.62438" lon="6.10296">
        <ele>1127.7</ele>
        <time>2021-07-09T11:23:45Z</time>
      </trkpt>
      <trkpt lat="46.62442" lon="6.10291">
        <ele>1127.8</ele>
        <time>2021-07-09T11:23:52Z</time>
      </trkpt>
      <trkpt lat="46.62446" lon="6.10288">
        <ele>1128.3</ele>
        <time>2021-07-09T11:23:56Z</time>
      </trkpt>
      <trkpt lat="46.62452" lon="6.10285">
        <ele>1128.6</ele>
        <time>2021-07-09T11:24:00Z</time>
      </trkpt>
      <trkpt lat="46.62458" lon="6.1028">
        <ele>1128.9</ele>
        <time>2021-07-09T11:24:04Z</time>
      </trkpt>
      <trkpt lat="46.62462" lon="6.10274">
        <ele>1129.4</ele>
        <time>2021-07-09T11:24:08Z</time>
      </trkpt>
      <trkpt lat="46.62465" lon="6.10269">
        <ele>1129.8</ele>
        <time>2021-07-09T11:24:12Z</time>
      </trkpt>
      <trkpt lat="46.6247" lon="6.10265">
        <ele>1130.3</ele>
        <time>2021-07-09T11:24:16Z</time>
      </trkpt>
      <trkpt lat="46.62475" lon="6.10263">
        <ele>1131.1</ele>
        <time>2021-07-09T11:24:22Z</time>
      </trkpt>
      <trkpt lat="46.6248" lon="6.1026">
        <ele>1132</ele>
        <time>2021-07-09T11:24:31Z</time>
      </trkpt>
      <trkpt lat="46.62484" lon="6.10256">
        <ele>1132</ele>
        <time>2021-07-09T11:24:35Z</time>
      </trkpt>
      <trkpt lat="46.62489" lon="6.10255">
        <ele>1132.4</ele>
        <time>2021-07-09T11:24:39Z</time>
      </trkpt>
      <trkpt lat="46.62495" lon="6.10255">
        <ele>1133</ele>
        <time>2021-07-09T11:24:43Z</time>
      </trkpt>
      <trkpt lat="46.625" lon="6.10252">
        <ele>1133.5</ele>
        <time>2021-07-09T11:24:49Z</time>
      </trkpt>
      <trkpt lat="46.62504" lon="6.10248">
        <ele>1133.6</ele>
        <time>2021-07-09T11:24:54Z</time>
      </trkpt>
      <trkpt lat="46.6251" lon="6.10248">
        <ele>1133.7</ele>
        <time>2021-07-09T11:24:58Z</time>
      </trkpt>
      <trkpt lat="46.62515" lon="6.10246">
        <ele>1133.5</ele>
        <time>2021-07-09T11:25:02Z</time>
      </trkpt>
      <trkpt lat="46.6252" lon="6.10242">
        <ele>1133.6</ele>
        <time>2021-07-09T11:25:07Z</time>
      </trkpt>
      <trkpt lat="46.62524" lon="6.10238">
        <ele>1133.8</ele>
        <time>2021-07-09T11:25:11Z</time>
      </trkpt>
      <trkpt lat="46.62528" lon="6.10235">
        <ele>1134</ele>
        <time>2021-07-09T11:25:17Z</time>
      </trkpt>
      <trkpt lat="46.62531" lon="6.10229">
        <ele>1134.4</ele>
        <time>2021-07-09T11:25:25Z</time>
      </trkpt>
      <trkpt lat="46.62535" lon="6.10225">
        <ele>1134.5</ele>
        <time>2021-07-09T11:25:29Z</time>
      </trkpt>
      <trkpt lat="46.62539" lon="6.10221">
        <ele>1134.8</ele>
        <time>2021-07-09T11:25:34Z</time>
      </trkpt>
      <trkpt lat="46.62545" lon="6.1022">
        <ele>1135.3</ele>
        <time>2021-07-09T11:25:38Z</time>
      </trkpt>
      <trkpt lat="46.62549" lon="6.10216">
        <ele>1136.4</ele>
        <time>2021-07-09T11:25:42Z</time>
      </trkpt>
      <trkpt lat="46.62553" lon="6.10213">
        <ele>1137.6</ele>
        <time>2021-07-09T11:25:46Z</time>
      </trkpt>
      <trkpt lat="46.62558" lon="6.1021">
        <ele>1139.2</ele>
        <time>2021-07-09T11:25:52Z</time>
      </trkpt>
      <trkpt lat="46.62559" lon="6.10203">
        <ele>1140.8</ele>
        <time>2021-07-09T11:26:00Z</time>
      </trkpt>
      <trkpt lat="46.6256" lon="6.10196">
        <ele>1141.6</ele>
        <time>2021-07-09T11:26:06Z</time>
      </trkpt>
      <trkpt lat="46.62562" lon="6.1019">
        <ele>1142.1</ele>
        <time>2021-07-09T11:26:10Z</time>
      </trkpt>
      <trkpt lat="46.62566" lon="6.10184">
        <ele>1142.6</ele>
        <time>2021-07-09T11:26:14Z</time>
      </trkpt>
      <trkpt lat="46.62571" lon="6.10181">
        <ele>1143.3</ele>
        <time>2021-07-09T11:26:18Z</time>
      </trkpt>
      <trkpt lat="46.62575" lon="6.10176">
        <ele>1144</ele>
        <time>2021-07-09T11:26:23Z</time>
      </trkpt>
      <trkpt lat="46.62578" lon="6.10172">
        <ele>1144.1</ele>
        <time>2021-07-09T11:26:31Z</time>
      </trkpt>
      <trkpt lat="46.62583" lon="6.10168">
        <ele>1144.8</ele>
        <time>2021-07-09T11:26:36Z</time>
      </trkpt>
      <trkpt lat="46.62586" lon="6.10163">
        <ele>1145.2</ele>
        <time>2021-07-09T11:26:42Z</time>
      </trkpt>
      <trkpt lat="46.62589" lon="6.10156">
        <ele>1144.6</ele>
        <time>2021-07-09T11:26:48Z</time>
      </trkpt>
      <trkpt lat="46.62593" lon="6.10152">
        <ele>1144.2</ele>
        <time>2021-07-09T11:26:52Z</time>
      </trkpt>
      <trkpt lat="46.62597" lon="6.10148">
        <ele>1144.1</ele>
        <time>2021-07-09T11:26:57Z</time>
      </trkpt>
      <trkpt lat="46.62602" lon="6.10143">
        <ele>1144.1</ele>
        <time>2021-07-09T11:27:02Z</time>
      </trkpt>
      <trkpt lat="46.62606" lon="6.1014">
        <ele>1144.4</ele>
        <time>2021-07-09T11:27:06Z</time>
      </trkpt>
      <trkpt lat="46.62611" lon="6.10138">
        <ele>1144.4</ele>
        <time>2021-07-09T11:27:11Z</time>
      </trkpt>
      <trkpt lat="46.62615" lon="6.10132">
        <ele>1143.9</ele>
        <time>2021-07-09T11:27:16Z</time>
      </trkpt>
      <trkpt lat="46.62619" lon="6.1013">
        <ele>1143.8</ele>
        <time>2021-07-09T11:27:20Z</time>
      </trkpt>
      <trkpt lat="46.62625" lon="6.10128">
        <ele>1143.8</ele>
        <time>2021-07-09T11:27:24Z</time>
      </trkpt>
      <trkpt lat="46.62631" lon="6.10127">
        <ele>1144.1</ele>
        <time>2021-07-09T11:27:28Z</time>
      </trkpt>
      <trkpt lat="46.62637" lon="6.10126">
        <ele>1144.4</ele>
        <time>2021-07-09T11:27:32Z</time>
      </trkpt>
      <trkpt lat="46.62643" lon="6.10123">
        <ele>1144.8</ele>
        <time>2021-07-09T11:27:36Z</time>
      </trkpt>
      <trkpt lat="46.62648" lon="6.10121">
        <ele>1145.2</ele>
        <time>2021-07-09T11:27:40Z</time>
      </trkpt>
      <trkpt lat="46.62652" lon="6.1012">
        <ele>1145.4</ele>
        <time>2021-07-09T11:27:44Z</time>
      </trkpt>
      <trkpt lat="46.62657" lon="6.10119">
        <ele>1145.6</ele>
        <time>2021-07-09T11:27:49Z</time>
      </trkpt>
      <trkpt lat="46.62663" lon="6.10118">
        <ele>1146</ele>
        <time>2021-07-09T11:27:54Z</time>
      </trkpt>
      <trkpt lat="46.62667" lon="6.10116">
        <ele>1146.7</ele>
        <time>2021-07-09T11:27:58Z</time>
      </trkpt>
      <trkpt lat="46.62673" lon="6.10116">
        <ele>1147.5</ele>
        <time>2021-07-09T11:28:03Z</time>
      </trkpt>
      <trkpt lat="46.62677" lon="6.10116">
        <ele>1148.7</ele>
        <time>2021-07-09T11:28:08Z</time>
      </trkpt>
      <trkpt lat="46.62682" lon="6.10116">
        <ele>1149.7</ele>
        <time>2021-07-09T11:28:12Z</time>
      </trkpt>
      <trkpt lat="46.62687" lon="6.10114">
        <ele>1151.2</ele>
        <time>2021-07-09T11:28:18Z</time>
      </trkpt>
      <trkpt lat="46.62691" lon="6.10112">
        <ele>1151.9</ele>
        <time>2021-07-09T11:28:22Z</time>
      </trkpt>
      <trkpt lat="46.62696" lon="6.10108">
        <ele>1152.6</ele>
        <time>2021-07-09T11:28:28Z</time>
      </trkpt>
      <trkpt lat="46.62698" lon="6.10102">
        <ele>1152.9</ele>
        <time>2021-07-09T11:28:33Z</time>
      </trkpt>
      <trkpt lat="46.62699" lon="6.10095">
        <ele>1153.5</ele>
        <time>2021-07-09T11:28:38Z</time>
      </trkpt>
      <trkpt lat="46.62702" lon="6.10089">
        <ele>1154.3</ele>
        <time>2021-07-09T11:28:42Z</time>
      </trkpt>
      <trkpt lat="46.62704" lon="6.10084">
        <ele>1154.8</ele>
        <time>2021-07-09T11:28:47Z</time>
      </trkpt>
      <trkpt lat="46.62707" lon="6.10077">
        <ele>1154.9</ele>
        <time>2021-07-09T11:28:52Z</time>
      </trkpt>
      <trkpt lat="46.62709" lon="6.10071">
        <ele>1154.9</ele>
        <time>2021-07-09T11:28:56Z</time>
      </trkpt>
      <trkpt lat="46.62711" lon="6.10065">
        <ele>1154.8</ele>
        <time>2021-07-09T11:29:01Z</time>
      </trkpt>
      <trkpt lat="46.62713" lon="6.10059">
        <ele>1155</ele>
        <time>2021-07-09T11:29:06Z</time>
      </trkpt>
      <trkpt lat="46.62717" lon="6.10053">
        <ele>1155.4</ele>
        <time>2021-07-09T11:29:10Z</time>
      </trkpt>
      <trkpt lat="46.6272" lon="6.10048">
        <ele>1155.6</ele>
        <time>2021-07-09T11:29:14Z</time>
      </trkpt>
      <trkpt lat="46.62724" lon="6.10043">
        <ele>1155.5</ele>
        <time>2021-07-09T11:29:18Z</time>
      </trkpt>
      <trkpt lat="46.62726" lon="6.10037">
        <ele>1154.9</ele>
        <time>2021-07-09T11:29:23Z</time>
      </trkpt>
      <trkpt lat="46.62728" lon="6.10031">
        <ele>1153.9</ele>
        <time>2021-07-09T11:29:29Z</time>
      </trkpt>
      <trkpt lat="46.62731" lon="6.10024">
        <ele>1152.7</ele>
        <time>2021-07-09T11:29:35Z</time>
      </trkpt>
      <trkpt lat="46.62734" lon="6.10018">
        <ele>1150.9</ele>
        <time>2021-07-09T11:29:40Z</time>
      </trkpt>
      <trkpt lat="46.62735" lon="6.10012">
        <ele>1148.9</ele>
        <time>2021-07-09T11:29:46Z</time>
      </trkpt>
      <trkpt lat="46.6274" lon="6.10008">
        <ele>1148.2</ele>
        <time>2021-07-09T11:29:50Z</time>
      </trkpt>
      <trkpt lat="46.62745" lon="6.10006">
        <ele>1148.2</ele>
        <time>2021-07-09T11:29:54Z</time>
      </trkpt>
      <trkpt lat="46.62743" lon="6.09999">
        <ele>1148.7</ele>
        <time>2021-07-09T11:29:59Z</time>
      </trkpt>
      <trkpt lat="46.62744" lon="6.09993">
        <ele>1149.3</ele>
        <time>2021-07-09T11:30:03Z</time>
      </trkpt>
      <trkpt lat="46.62743" lon="6.09985">
        <ele>1150.2</ele>
        <time>2021-07-09T11:30:07Z</time>
      </trkpt>
      <trkpt lat="46.62741" lon="6.09977">
        <ele>1151.5</ele>
        <time>2021-07-09T11:30:11Z</time>
      </trkpt>
      <trkpt lat="46.62742" lon="6.0997">
        <ele>1153.3</ele>
        <time>2021-07-09T11:30:17Z</time>
      </trkpt>
      <trkpt lat="46.62746" lon="6.09965">
        <ele>1155.3</ele>
        <time>2021-07-09T11:30:22Z</time>
      </trkpt>
      <trkpt lat="46.62749" lon="6.09958">
        <ele>1157.9</ele>
        <time>2021-07-09T11:30:28Z</time>
      </trkpt>
      <trkpt lat="46.62752" lon="6.09951">
        <ele>1159.6</ele>
        <time>2021-07-09T11:30:33Z</time>
      </trkpt>
      <trkpt lat="46.62756" lon="6.09946">
        <ele>1161.3</ele>
        <time>2021-07-09T11:30:38Z</time>
      </trkpt>
      <trkpt lat="46.6276" lon="6.09941">
        <ele>1161.2</ele>
        <time>2021-07-09T11:30:42Z</time>
      </trkpt>
      <trkpt lat="46.62767" lon="6.09939">
        <ele>1160.6</ele>
        <time>2021-07-09T11:30:46Z</time>
      </trkpt>
      <trkpt lat="46.62771" lon="6.09934">
        <ele>1160.3</ele>
        <time>2021-07-09T11:30:50Z</time>
      </trkpt>
      <trkpt lat="46.62776" lon="6.09931">
        <ele>1159.9</ele>
        <time>2021-07-09T11:30:55Z</time>
      </trkpt>
      <trkpt lat="46.62774" lon="6.09925">
        <ele>1158.8</ele>
        <time>2021-07-09T11:31:02Z</time>
      </trkpt>
      <trkpt lat="46.62775" lon="6.09918">
        <ele>1158.4</ele>
        <time>2021-07-09T11:31:09Z</time>
      </trkpt>
      <trkpt lat="46.6278" lon="6.09912">
        <ele>1158.9</ele>
        <time>2021-07-09T11:31:13Z</time>
      </trkpt>
      <trkpt lat="46.62782" lon="6.09904">
        <ele>1160</ele>
        <time>2021-07-09T11:31:18Z</time>
      </trkpt>
      <trkpt lat="46.62781" lon="6.09898">
        <ele>1161.3</ele>
        <time>2021-07-09T11:31:27Z</time>
      </trkpt>
      <trkpt lat="46.62786" lon="6.09898">
        <ele>1161.8</ele>
        <time>2021-07-09T11:31:31Z</time>
      </trkpt>
      <trkpt lat="46.62792" lon="6.09897">
        <ele>1161.9</ele>
        <time>2021-07-09T11:31:35Z</time>
      </trkpt>
      <trkpt lat="46.62796" lon="6.09895">
        <ele>1162</ele>
        <time>2021-07-09T11:31:39Z</time>
      </trkpt>
      <trkpt lat="46.62798" lon="6.09888">
        <ele>1160.6</ele>
        <time>2021-07-09T11:31:45Z</time>
      </trkpt>
      <trkpt lat="46.62801" lon="6.09881">
        <ele>1159.1</ele>
        <time>2021-07-09T11:31:49Z</time>
      </trkpt>
      <trkpt lat="46.62805" lon="6.09875">
        <ele>1157.9</ele>
        <time>2021-07-09T11:31:53Z</time>
      </trkpt>
      <trkpt lat="46.62808" lon="6.09868">
        <ele>1155</ele>
        <time>2021-07-09T11:32:00Z</time>
      </trkpt>
      <trkpt lat="46.62813" lon="6.09864">
        <ele>1153.6</ele>
        <time>2021-07-09T11:32:05Z</time>
      </trkpt>
      <trkpt lat="46.62817" lon="6.09858">
        <ele>1150.9</ele>
        <time>2021-07-09T11:32:15Z</time>
      </trkpt>
      <trkpt lat="46.62819" lon="6.09851">
        <ele>1150.5</ele>
        <time>2021-07-09T11:32:19Z</time>
      </trkpt>
      <trkpt lat="46.62824" lon="6.09847">
        <ele>1151</ele>
        <time>2021-07-09T11:32:24Z</time>
      </trkpt>
      <trkpt lat="46.62829" lon="6.09844">
        <ele>1152.2</ele>
        <time>2021-07-09T11:32:28Z</time>
      </trkpt>
      <trkpt lat="46.62831" lon="6.09838">
        <ele>1155.1</ele>
        <time>2021-07-09T11:32:41Z</time>
      </trkpt>
      <trkpt lat="46.62836" lon="6.09835">
        <ele>1162.5</ele>
        <time>2021-07-09T11:33:17Z</time>
      </trkpt>
      <trkpt lat="46.62836" lon="6.09828">
        <ele>1163</ele>
        <time>2021-07-09T11:33:21Z</time>
      </trkpt>
      <trkpt lat="46.62837" lon="6.09821">
        <ele>1163</ele>
        <time>2021-07-09T11:33:26Z</time>
      </trkpt>
      <trkpt lat="46.6284" lon="6.09813">
        <ele>1162.7</ele>
        <time>2021-07-09T11:33:30Z</time>
      </trkpt>
      <trkpt lat="46.62845" lon="6.09811">
        <ele>1161.8</ele>
        <time>2021-07-09T11:33:34Z</time>
      </trkpt>
      <trkpt lat="46.62846" lon="6.09804">
        <ele>1157.7</ele>
        <time>2021-07-09T11:33:42Z</time>
      </trkpt>
      <trkpt lat="46.6285" lon="6.09798">
        <ele>1155.1</ele>
        <time>2021-07-09T11:33:48Z</time>
      </trkpt>
      <trkpt lat="46.62854" lon="6.09793">
        <ele>1155</ele>
        <time>2021-07-09T11:33:53Z</time>
      </trkpt>
      <trkpt lat="46.62858" lon="6.09791">
        <ele>1159.9</ele>
        <time>2021-07-09T11:34:21Z</time>
      </trkpt>
      <trkpt lat="46.62863" lon="6.0979">
        <ele>1157.7</ele>
        <time>2021-07-09T11:34:42Z</time>
      </trkpt>
      <trkpt lat="46.62857" lon="6.0979">
        <ele>1161</ele>
        <time>2021-07-09T11:34:52Z</time>
      </trkpt>
      <trkpt lat="46.62852" lon="6.0979">
        <ele>1161.6</ele>
        <time>2021-07-09T11:34:56Z</time>
      </trkpt>
      <trkpt lat="46.62857" lon="6.09791">
        <ele>1162</ele>
        <time>2021-07-09T11:35:24Z</time>
      </trkpt>
      <trkpt lat="46.6286" lon="6.09784">
        <ele>1161.3</ele>
        <time>2021-07-09T11:35:33Z</time>
      </trkpt>
      <trkpt lat="46.62864" lon="6.09779">
        <ele>1161</ele>
        <time>2021-07-09T11:35:37Z</time>
      </trkpt>
      <trkpt lat="46.62869" lon="6.09775">
        <ele>1160.8</ele>
        <time>2021-07-09T11:35:41Z</time>
      </trkpt>
      <trkpt lat="46.62871" lon="6.09768">
        <ele>1160.8</ele>
        <time>2021-07-09T11:35:46Z</time>
      </trkpt>
      <trkpt lat="46.62872" lon="6.09761">
        <ele>1161.1</ele>
        <time>2021-07-09T11:35:51Z</time>
      </trkpt>
      <trkpt lat="46.62875" lon="6.09755">
        <ele>1161.1</ele>
        <time>2021-07-09T11:35:55Z</time>
      </trkpt>
      <trkpt lat="46.62876" lon="6.09748">
        <ele>1160.7</ele>
        <time>2021-07-09T11:36:01Z</time>
      </trkpt>
      <trkpt lat="46.62876" lon="6.0974">
        <ele>1160.2</ele>
        <time>2021-07-09T11:36:05Z</time>
      </trkpt>
      <trkpt lat="46.62879" lon="6.09736">
        <ele>1159.5</ele>
        <time>2021-07-09T11:36:09Z</time>
      </trkpt>
      <trkpt lat="46.62882" lon="6.09728">
        <ele>1159.4</ele>
        <time>2021-07-09T11:36:14Z</time>
      </trkpt>
      <trkpt lat="46.62885" lon="6.0972">
        <ele>1160.3</ele>
        <time>2021-07-09T11:36:18Z</time>
      </trkpt>
      <trkpt lat="46.62889" lon="6.09716">
        <ele>1160.6</ele>
        <time>2021-07-09T11:36:22Z</time>
      </trkpt>
      <trkpt lat="46.62893" lon="6.09712">
        <ele>1160.8</ele>
        <time>2021-07-09T11:36:26Z</time>
      </trkpt>
      <trkpt lat="46.62899" lon="6.09707">
        <ele>1161</ele>
        <time>2021-07-09T11:36:30Z</time>
      </trkpt>
      <trkpt lat="46.62903" lon="6.09701">
        <ele>1160.5</ele>
        <time>2021-07-09T11:36:34Z</time>
      </trkpt>
      <trkpt lat="46.62908" lon="6.09697">
        <ele>1159</ele>
        <time>2021-07-09T11:36:38Z</time>
      </trkpt>
      <trkpt lat="46.62914" lon="6.09692">
        <ele>1158</ele>
        <time>2021-07-09T11:36:42Z</time>
      </trkpt>
      <trkpt lat="46.62917" lon="6.09688">
        <ele>1157.8</ele>
        <time>2021-07-09T11:36:46Z</time>
      </trkpt>
      <trkpt lat="46.6292" lon="6.09683">
        <ele>1158.2</ele>
        <time>2021-07-09T11:36:51Z</time>
      </trkpt>
      <trkpt lat="46.62922" lon="6.09674">
        <ele>1158.7</ele>
        <time>2021-07-09T11:36:55Z</time>
      </trkpt>
      <trkpt lat="46.62925" lon="6.09668">
        <ele>1159.4</ele>
        <time>2021-07-09T11:36:59Z</time>
      </trkpt>
      <trkpt lat="46.6293" lon="6.09662">
        <ele>1160.5</ele>
        <time>2021-07-09T11:37:03Z</time>
      </trkpt>
      <trkpt lat="46.62931" lon="6.09655">
        <ele>1161.6</ele>
        <time>2021-07-09T11:37:08Z</time>
      </trkpt>
      <trkpt lat="46.62934" lon="6.09649">
        <ele>1162</ele>
        <time>2021-07-09T11:37:12Z</time>
      </trkpt>
      <trkpt lat="46.62937" lon="6.09642">
        <ele>1161.8</ele>
        <time>2021-07-09T11:37:17Z</time>
      </trkpt>
      <trkpt lat="46.62941" lon="6.09637">
        <ele>1161.4</ele>
        <time>2021-07-09T11:37:22Z</time>
      </trkpt>
      <trkpt lat="46.62945" lon="6.0963">
        <ele>1161.2</ele>
        <time>2021-07-09T11:37:26Z</time>
      </trkpt>
      <trkpt lat="46.62949" lon="6.09624">
        <ele>1161.1</ele>
        <time>2021-07-09T11:37:30Z</time>
      </trkpt>
      <trkpt lat="46.6295" lon="6.09617">
        <ele>1160.7</ele>
        <time>2021-07-09T11:37:34Z</time>
      </trkpt>
      <trkpt lat="46.62955" lon="6.0961">
        <ele>1160.9</ele>
        <time>2021-07-09T11:37:38Z</time>
      </trkpt>
      <trkpt lat="46.62955" lon="6.09603">
        <ele>1160.7</ele>
        <time>2021-07-09T11:37:42Z</time>
      </trkpt>
      <trkpt lat="46.62956" lon="6.09596">
        <ele>1160.5</ele>
        <time>2021-07-09T11:37:46Z</time>
      </trkpt>
      <trkpt lat="46.62961" lon="6.0959">
        <ele>1160.8</ele>
        <time>2021-07-09T11:37:50Z</time>
      </trkpt>
      <trkpt lat="46.62963" lon="6.09584">
        <ele>1161.7</ele>
        <time>2021-07-09T11:37:54Z</time>
      </trkpt>
      <trkpt lat="46.62962" lon="6.09577">
        <ele>1161.8</ele>
        <time>2021-07-09T11:37:58Z</time>
      </trkpt>
      <trkpt lat="46.62962" lon="6.09569">
        <ele>1161.5</ele>
        <time>2021-07-09T11:38:02Z</time>
      </trkpt>
      <trkpt lat="46.62962" lon="6.09561">
        <ele>1161.3</ele>
        <time>2021-07-09T11:38:06Z</time>
      </trkpt>
      <trkpt lat="46.62962" lon="6.09553">
        <ele>1161.1</ele>
        <time>2021-07-09T11:38:10Z</time>
      </trkpt>
      <trkpt lat="46.62961" lon="6.09545">
        <ele>1160.8</ele>
        <time>2021-07-09T11:38:14Z</time>
      </trkpt>
      <trkpt lat="46.6296" lon="6.09538">
        <ele>1160.3</ele>
        <time>2021-07-09T11:38:19Z</time>
      </trkpt>
      <trkpt lat="46.62958" lon="6.09531">
        <ele>1159.4</ele>
        <time>2021-07-09T11:38:24Z</time>
      </trkpt>
      <trkpt lat="46.62957" lon="6.09523">
        <ele>1158.5</ele>
        <time>2021-07-09T11:38:29Z</time>
      </trkpt>
      <trkpt lat="46.62955" lon="6.09516">
        <ele>1157.6</ele>
        <time>2021-07-09T11:38:34Z</time>
      </trkpt>
      <trkpt lat="46.62954" lon="6.0951">
        <ele>1156.7</ele>
        <time>2021-07-09T11:38:38Z</time>
      </trkpt>
      <trkpt lat="46.62952" lon="6.09502">
        <ele>1154.9</ele>
        <time>2021-07-09T11:38:43Z</time>
      </trkpt>
      <trkpt lat="46.62951" lon="6.09495">
        <ele>1152.9</ele>
        <time>2021-07-09T11:38:49Z</time>
      </trkpt>
      <trkpt lat="46.62954" lon="6.09488">
        <ele>1152</ele>
        <time>2021-07-09T11:38:53Z</time>
      </trkpt>
      <trkpt lat="46.62955" lon="6.09481">
        <ele>1151.2</ele>
        <time>2021-07-09T11:38:57Z</time>
      </trkpt>
      <trkpt lat="46.62955" lon="6.09474">
        <ele>1150.1</ele>
        <time>2021-07-09T11:39:01Z</time>
      </trkpt>
      <trkpt lat="46.62957" lon="6.09467">
        <ele>1148.7</ele>
        <time>2021-07-09T11:39:06Z</time>
      </trkpt>
      <trkpt lat="46.62958" lon="6.09459">
        <ele>1147.7</ele>
        <time>2021-07-09T11:39:10Z</time>
      </trkpt>
      <trkpt lat="46.62956" lon="6.09451">
        <ele>1147</ele>
        <time>2021-07-09T11:39:14Z</time>
      </trkpt>
      <trkpt lat="46.62954" lon="6.09442">
        <ele>1146.9</ele>
        <time>2021-07-09T11:39:18Z</time>
      </trkpt>
      <trkpt lat="46.62952" lon="6.09434">
        <ele>1147.2</ele>
        <time>2021-07-09T11:39:22Z</time>
      </trkpt>
      <trkpt lat="46.62951" lon="6.09425">
        <ele>1148.1</ele>
        <time>2021-07-09T11:39:26Z</time>
      </trkpt>
      <trkpt lat="46.62951" lon="6.09418">
        <ele>1149.3</ele>
        <time>2021-07-09T11:39:30Z</time>
      </trkpt>
      <trkpt lat="46.62952" lon="6.09411">
        <ele>1151</ele>
        <time>2021-07-09T11:39:35Z</time>
      </trkpt>
      <trkpt lat="46.62952" lon="6.09403">
        <ele>1153.1</ele>
        <time>2021-07-09T11:39:40Z</time>
      </trkpt>
      <trkpt lat="46.6295" lon="6.09395">
        <ele>1154.9</ele>
        <time>2021-07-09T11:39:45Z</time>
      </trkpt>
      <trkpt lat="46.62949" lon="6.09386">
        <ele>1156.2</ele>
        <time>2021-07-09T11:39:49Z</time>
      </trkpt>
      <trkpt lat="46.62948" lon="6.09378">
        <ele>1157.1</ele>
        <time>2021-07-09T11:39:53Z</time>
      </trkpt>
      <trkpt lat="46.62946" lon="6.09373">
        <ele>1157.6</ele>
        <time>2021-07-09T11:39:57Z</time>
      </trkpt>
      <trkpt lat="46.62944" lon="6.09366">
        <ele>1157.7</ele>
        <time>2021-07-09T11:40:03Z</time>
      </trkpt>
      <trkpt lat="46.62941" lon="6.0936">
        <ele>1157.9</ele>
        <time>2021-07-09T11:40:07Z</time>
      </trkpt>
      <trkpt lat="46.62938" lon="6.09355">
        <ele>1158.1</ele>
        <time>2021-07-09T11:40:11Z</time>
      </trkpt>
      <trkpt lat="46.62935" lon="6.0935">
        <ele>1157.6</ele>
        <time>2021-07-09T11:40:18Z</time>
      </trkpt>
      <trkpt lat="46.62931" lon="6.09345">
        <ele>1157.2</ele>
        <time>2021-07-09T11:40:23Z</time>
      </trkpt>
      <trkpt lat="46.6293" lon="6.09338">
        <ele>1156.9</ele>
        <time>2021-07-09T11:40:27Z</time>
      </trkpt>
      <trkpt lat="46.62927" lon="6.09332">
        <ele>1156.4</ele>
        <time>2021-07-09T11:40:31Z</time>
      </trkpt>
      <trkpt lat="46.62922" lon="6.09327">
        <ele>1155.6</ele>
        <time>2021-07-09T11:40:35Z</time>
      </trkpt>
      <trkpt lat="46.62917" lon="6.09323">
        <ele>1153.2</ele>
        <time>2021-07-09T11:40:41Z</time>
      </trkpt>
      <trkpt lat="46.62913" lon="6.0932">
        <ele>1150.9</ele>
        <time>2021-07-09T11:40:46Z</time>
      </trkpt>
      <trkpt lat="46.62908" lon="6.09315">
        <ele>1148.9</ele>
        <time>2021-07-09T11:40:51Z</time>
      </trkpt>
      <trkpt lat="46.62904" lon="6.09312">
        <ele>1146.4</ele>
        <time>2021-07-09T11:40:57Z</time>
      </trkpt>
      <trkpt lat="46.62899" lon="6.09309">
        <ele>1143</ele>
        <time>2021-07-09T11:41:06Z</time>
      </trkpt>
      <trkpt lat="46.62893" lon="6.09303">
        <ele>1142.1</ele>
        <time>2021-07-09T11:41:10Z</time>
      </trkpt>
      <trkpt lat="46.62887" lon="6.093">
        <ele>1141.9</ele>
        <time>2021-07-09T11:41:14Z</time>
      </trkpt>
      <trkpt lat="46.62883" lon="6.09297">
        <ele>1141.5</ele>
        <time>2021-07-09T11:41:18Z</time>
      </trkpt>
      <trkpt lat="46.62877" lon="6.09295">
        <ele>1141.8</ele>
        <time>2021-07-09T11:41:22Z</time>
      </trkpt>
      <trkpt lat="46.62873" lon="6.09293">
        <ele>1142.3</ele>
        <time>2021-07-09T11:41:26Z</time>
      </trkpt>
      <trkpt lat="46.62868" lon="6.09291">
        <ele>1143</ele>
        <time>2021-07-09T11:41:30Z</time>
      </trkpt>
      <trkpt lat="46.62863" lon="6.09289">
        <ele>1143.9</ele>
        <time>2021-07-09T11:41:34Z</time>
      </trkpt>
      <trkpt lat="46.62857" lon="6.09287">
        <ele>1145.4</ele>
        <time>2021-07-09T11:41:38Z</time>
      </trkpt>
      <trkpt lat="46.62851" lon="6.09283">
        <ele>1147</ele>
        <time>2021-07-09T11:41:42Z</time>
      </trkpt>
      <trkpt lat="46.62845" lon="6.09281">
        <ele>1148.2</ele>
        <time>2021-07-09T11:41:46Z</time>
      </trkpt>
      <trkpt lat="46.62841" lon="6.0928">
        <ele>1149.2</ele>
        <time>2021-07-09T11:41:51Z</time>
      </trkpt>
      <trkpt lat="46.62836" lon="6.09278">
        <ele>1149.8</ele>
        <time>2021-07-09T11:41:56Z</time>
      </trkpt>
      <trkpt lat="46.62832" lon="6.09274">
        <ele>1150.1</ele>
        <time>2021-07-09T11:42:00Z</time>
      </trkpt>
      <trkpt lat="46.62827" lon="6.09271">
        <ele>1150.4</ele>
        <time>2021-07-09T11:42:05Z</time>
      </trkpt>
      <trkpt lat="46.62822" lon="6.0927">
        <ele>1150.5</ele>
        <time>2021-07-09T11:42:10Z</time>
      </trkpt>
      <trkpt lat="46.62817" lon="6.09267">
        <ele>1150.3</ele>
        <time>2021-07-09T11:42:14Z</time>
      </trkpt>
      <trkpt lat="46.62813" lon="6.09264">
        <ele>1149.9</ele>
        <time>2021-07-09T11:42:18Z</time>
      </trkpt>
      <trkpt lat="46.62808" lon="6.09262">
        <ele>1149.6</ele>
        <time>2021-07-09T11:42:23Z</time>
      </trkpt>
      <trkpt lat="46.62804" lon="6.09258">
        <ele>1149.1</ele>
        <time>2021-07-09T11:42:27Z</time>
      </trkpt>
      <trkpt lat="46.62801" lon="6.09253">
        <ele>1147.8</ele>
        <time>2021-07-09T11:42:33Z</time>
      </trkpt>
      <trkpt lat="46.62798" lon="6.09247">
        <ele>1146.3</ele>
        <time>2021-07-09T11:42:38Z</time>
      </trkpt>
      <trkpt lat="46.62792" lon="6.09243">
        <ele>1144.5</ele>
        <time>2021-07-09T11:42:43Z</time>
      </trkpt>
      <trkpt lat="46.62788" lon="6.09237">
        <ele>1144.4</ele>
        <time>2021-07-09T11:42:47Z</time>
      </trkpt>
      <trkpt lat="46.62784" lon="6.09232">
        <ele>1145.2</ele>
        <time>2021-07-09T11:42:51Z</time>
      </trkpt>
      <trkpt lat="46.62781" lon="6.09226">
        <ele>1145.7</ele>
        <time>2021-07-09T11:42:55Z</time>
      </trkpt>
      <trkpt lat="46.6278" lon="6.09219">
        <ele>1146.3</ele>
        <time>2021-07-09T11:43:00Z</time>
      </trkpt>
      <trkpt lat="46.62778" lon="6.09211">
        <ele>1146.8</ele>
        <time>2021-07-09T11:43:06Z</time>
      </trkpt>
      <trkpt lat="46.62775" lon="6.09204">
        <ele>1146.8</ele>
        <time>2021-07-09T11:43:10Z</time>
      </trkpt>
      <trkpt lat="46.62773" lon="6.09196">
        <ele>1146.7</ele>
        <time>2021-07-09T11:43:14Z</time>
      </trkpt>
      <trkpt lat="46.62773" lon="6.09189">
        <ele>1146.9</ele>
        <time>2021-07-09T11:43:18Z</time>
      </trkpt>
      <trkpt lat="46.6277" lon="6.09183">
        <ele>1147.5</ele>
        <time>2021-07-09T11:43:22Z</time>
      </trkpt>
      <trkpt lat="46.62764" lon="6.09177">
        <ele>1147.6</ele>
        <time>2021-07-09T11:43:26Z</time>
      </trkpt>
      <trkpt lat="46.62761" lon="6.09171">
        <ele>1147.4</ele>
        <time>2021-07-09T11:43:31Z</time>
      </trkpt>
      <trkpt lat="46.62759" lon="6.09164">
        <ele>1147.2</ele>
        <time>2021-07-09T11:43:35Z</time>
      </trkpt>
      <trkpt lat="46.62757" lon="6.09158">
        <ele>1146.9</ele>
        <time>2021-07-09T11:43:39Z</time>
      </trkpt>
      <trkpt lat="46.62756" lon="6.09151">
        <ele>1146.5</ele>
        <time>2021-07-09T11:43:44Z</time>
      </trkpt>
      <trkpt lat="46.62754" lon="6.09145">
        <ele>1146</ele>
        <time>2021-07-09T11:43:48Z</time>
      </trkpt>
      <trkpt lat="46.62755" lon="6.09138">
        <ele>1145.5</ele>
        <time>2021-07-09T11:43:52Z</time>
      </trkpt>
      <trkpt lat="46.62755" lon="6.09129">
        <ele>1145.1</ele>
        <time>2021-07-09T11:43:57Z</time>
      </trkpt>
      <trkpt lat="46.62755" lon="6.09121">
        <ele>1144.9</ele>
        <time>2021-07-09T11:44:01Z</time>
      </trkpt>
      <trkpt lat="46.62755" lon="6.09115">
        <ele>1144.9</ele>
        <time>2021-07-09T11:44:05Z</time>
      </trkpt>
      <trkpt lat="46.62755" lon="6.09107">
        <ele>1145.2</ele>
        <time>2021-07-09T11:44:10Z</time>
      </trkpt>
      <trkpt lat="46.62755" lon="6.091">
        <ele>1145.6</ele>
        <time>2021-07-09T11:44:14Z</time>
      </trkpt>
      <trkpt lat="46.62754" lon="6.09093">
        <ele>1145.7</ele>
        <time>2021-07-09T11:44:19Z</time>
      </trkpt>
      <trkpt lat="46.62754" lon="6.09086">
        <ele>1145.2</ele>
        <time>2021-07-09T11:44:25Z</time>
      </trkpt>
      <trkpt lat="46.62751" lon="6.09079">
        <ele>1144</ele>
        <time>2021-07-09T11:44:30Z</time>
      </trkpt>
      <trkpt lat="46.62747" lon="6.09073">
        <ele>1143</ele>
        <time>2021-07-09T11:44:34Z</time>
      </trkpt>
      <trkpt lat="46.62743" lon="6.09068">
        <ele>1142.2</ele>
        <time>2021-07-09T11:44:38Z</time>
      </trkpt>
      <trkpt lat="46.62739" lon="6.09064">
        <ele>1141.7</ele>
        <time>2021-07-09T11:44:42Z</time>
      </trkpt>
      <trkpt lat="46.62734" lon="6.09061">
        <ele>1140.2</ele>
        <time>2021-07-09T11:44:47Z</time>
      </trkpt>
      <trkpt lat="46.6273" lon="6.09057">
        <ele>1137.6</ele>
        <time>2021-07-09T11:44:53Z</time>
      </trkpt>
      <trkpt lat="46.62726" lon="6.09055">
        <ele>1133.7</ele>
        <time>2021-07-09T11:45:02Z</time>
      </trkpt>
      <trkpt lat="46.62722" lon="6.09057">
        <ele>1131.6</ele>
        <time>2021-07-09T11:45:07Z</time>
      </trkpt>
      <trkpt lat="46.62718" lon="6.09062">
        <ele>1129.6</ele>
        <time>2021-07-09T11:45:11Z</time>
      </trkpt>
      <trkpt lat="46.62714" lon="6.09069">
        <ele>1128.2</ele>
        <time>2021-07-09T11:45:15Z</time>
      </trkpt>
      <trkpt lat="46.6271" lon="6.09074">
        <ele>1127.2</ele>
        <time>2021-07-09T11:45:19Z</time>
      </trkpt>
      <trkpt lat="46.62705" lon="6.09076">
        <ele>1127.3</ele>
        <time>2021-07-09T11:45:23Z</time>
      </trkpt>
      <trkpt lat="46.62701" lon="6.09073">
        <ele>1129.8</ele>
        <time>2021-07-09T11:45:31Z</time>
      </trkpt>
      <trkpt lat="46.62696" lon="6.09071">
        <ele>1132.8</ele>
        <time>2021-07-09T11:45:40Z</time>
      </trkpt>
      <trkpt lat="46.62691" lon="6.09071">
        <ele>1133.9</ele>
        <time>2021-07-09T11:45:49Z</time>
      </trkpt>
      <trkpt lat="46.62696" lon="6.09072">
        <ele>1137.9</ele>
        <time>2021-07-09T11:46:25Z</time>
      </trkpt>
      <trkpt lat="46.62692" lon="6.09075">
        <ele>1141.1</ele>
        <time>2021-07-09T11:46:55Z</time>
      </trkpt>
      <trkpt lat="46.62688" lon="6.09078">
        <ele>1140.7</ele>
        <time>2021-07-09T11:47:03Z</time>
      </trkpt>
      <trkpt lat="46.62684" lon="6.09082">
        <ele>1141.3</ele>
        <time>2021-07-09T11:47:10Z</time>
      </trkpt>
      <trkpt lat="46.6268" lon="6.09085">
        <ele>1141.3</ele>
        <time>2021-07-09T11:47:16Z</time>
      </trkpt>
      <trkpt lat="46.62675" lon="6.09086">
        <ele>1140.7</ele>
        <time>2021-07-09T11:47:23Z</time>
      </trkpt>
      <trkpt lat="46.6268" lon="6.09086">
        <ele>1138.8</ele>
        <time>2021-07-09T11:47:33Z</time>
      </trkpt>
      <trkpt lat="46.62686" lon="6.09085">
        <ele>1138.8</ele>
        <time>2021-07-09T11:47:38Z</time>
      </trkpt>
      <trkpt lat="46.6269" lon="6.09081">
        <ele>1139.9</ele>
        <time>2021-07-09T11:47:42Z</time>
      </trkpt>
      <trkpt lat="46.62692" lon="6.09075">
        <ele>1141.2</ele>
        <time>2021-07-09T11:47:49Z</time>
      </trkpt>
      <trkpt lat="46.6269" lon="6.09068">
        <ele>1143.3</ele>
        <time>2021-07-09T11:48:03Z</time>
      </trkpt>
      <trkpt lat="46.62691" lon="6.09062">
        <ele>1143.3</ele>
        <time>2021-07-09T11:48:12Z</time>
      </trkpt>
      <trkpt lat="46.62693" lon="6.09056">
        <ele>1142.1</ele>
        <time>2021-07-09T11:48:23Z</time>
      </trkpt>
      <trkpt lat="46.62696" lon="6.0905">
        <ele>1139.8</ele>
        <time>2021-07-09T11:48:29Z</time>
      </trkpt>
      <trkpt lat="46.62698" lon="6.09043">
        <ele>1138.8</ele>
        <time>2021-07-09T11:48:35Z</time>
      </trkpt>
      <trkpt lat="46.62702" lon="6.09038">
        <ele>1138.4</ele>
        <time>2021-07-09T11:48:40Z</time>
      </trkpt>
      <trkpt lat="46.62705" lon="6.09032">
        <ele>1138.1</ele>
        <time>2021-07-09T11:48:44Z</time>
      </trkpt>
      <trkpt lat="46.62709" lon="6.09026">
        <ele>1138.1</ele>
        <time>2021-07-09T11:48:48Z</time>
      </trkpt>
      <trkpt lat="46.62714" lon="6.09023">
        <ele>1138.2</ele>
        <time>2021-07-09T11:48:52Z</time>
      </trkpt>
      <trkpt lat="46.62718" lon="6.09018">
        <ele>1138.4</ele>
        <time>2021-07-09T11:48:56Z</time>
      </trkpt>
      <trkpt lat="46.62721" lon="6.09013">
        <ele>1138.4</ele>
        <time>2021-07-09T11:49:00Z</time>
      </trkpt>
      <trkpt lat="46.62724" lon="6.09008">
        <ele>1138.3</ele>
        <time>2021-07-09T11:49:04Z</time>
      </trkpt>
      <trkpt lat="46.62728" lon="6.09004">
        <ele>1138</ele>
        <time>2021-07-09T11:49:10Z</time>
      </trkpt>
      <trkpt lat="46.62731" lon="6.08999">
        <ele>1137.6</ele>
        <time>2021-07-09T11:49:15Z</time>
      </trkpt>
      <trkpt lat="46.62734" lon="6.08994">
        <ele>1137.4</ele>
        <time>2021-07-09T11:49:20Z</time>
      </trkpt>
      <trkpt lat="46.62737" lon="6.08987">
        <ele>1138.1</ele>
        <time>2021-07-09T11:49:25Z</time>
      </trkpt>
      <trkpt lat="46.6274" lon="6.08982">
        <ele>1138.4</ele>
        <time>2021-07-09T11:49:29Z</time>
      </trkpt>
      <trkpt lat="46.62744" lon="6.08976">
        <ele>1138.9</ele>
        <time>2021-07-09T11:49:34Z</time>
      </trkpt>
      <trkpt lat="46.62747" lon="6.08971">
        <ele>1138.6</ele>
        <time>2021-07-09T11:49:39Z</time>
      </trkpt>
      <trkpt lat="46.62748" lon="6.08964">
        <ele>1137.7</ele>
        <time>2021-07-09T11:49:44Z</time>
      </trkpt>
      <trkpt lat="46.62751" lon="6.08958">
        <ele>1137.4</ele>
        <time>2021-07-09T11:49:50Z</time>
      </trkpt>
      <trkpt lat="46.62752" lon="6.08952">
        <ele>1137.4</ele>
        <time>2021-07-09T11:49:56Z</time>
      </trkpt>
      <trkpt lat="46.62754" lon="6.08945">
        <ele>1136.7</ele>
        <time>2021-07-09T11:50:02Z</time>
      </trkpt>
      <trkpt lat="46.62755" lon="6.08938">
        <ele>1136.2</ele>
        <time>2021-07-09T11:50:07Z</time>
      </trkpt>
      <trkpt lat="46.62758" lon="6.08932">
        <ele>1135.6</ele>
        <time>2021-07-09T11:50:11Z</time>
      </trkpt>
      <trkpt lat="46.62761" lon="6.08927">
        <ele>1134.8</ele>
        <time>2021-07-09T11:50:15Z</time>
      </trkpt>
      <trkpt lat="46.62766" lon="6.08922">
        <ele>1133.5</ele>
        <time>2021-07-09T11:50:20Z</time>
      </trkpt>
      <trkpt lat="46.62769" lon="6.08917">
        <ele>1131.9</ele>
        <time>2021-07-09T11:50:25Z</time>
      </trkpt>
      <trkpt lat="46.62772" lon="6.08912">
        <ele>1130.4</ele>
        <time>2021-07-09T11:50:30Z</time>
      </trkpt>
      <trkpt lat="46.62774" lon="6.08906">
        <ele>1129.3</ele>
        <time>2021-07-09T11:50:35Z</time>
      </trkpt>
      <trkpt lat="46.62776" lon="6.08899">
        <ele>1128.8</ele>
        <time>2021-07-09T11:50:41Z</time>
      </trkpt>
      <trkpt lat="46.62779" lon="6.08893">
        <ele>1129.2</ele>
        <time>2021-07-09T11:50:47Z</time>
      </trkpt>
      <trkpt lat="46.62781" lon="6.08887">
        <ele>1129.6</ele>
        <time>2021-07-09T11:50:54Z</time>
      </trkpt>
      <trkpt lat="46.62785" lon="6.08882">
        <ele>1129.5</ele>
        <time>2021-07-09T11:51:00Z</time>
      </trkpt>
      <trkpt lat="46.6279" lon="6.08878">
        <ele>1129</ele>
        <time>2021-07-09T11:51:04Z</time>
      </trkpt>
      <trkpt lat="46.62793" lon="6.08871">
        <ele>1128.5</ele>
        <time>2021-07-09T11:51:09Z</time>
      </trkpt>
      <trkpt lat="46.62798" lon="6.08867">
        <ele>1127.4</ele>
        <time>2021-07-09T11:51:15Z</time>
      </trkpt>
      <trkpt lat="46.62802" lon="6.08862">
        <ele>1125.4</ele>
        <time>2021-07-09T11:51:21Z</time>
      </trkpt>
      <trkpt lat="46.62807" lon="6.0886">
        <ele>1123.4</ele>
        <time>2021-07-09T11:51:28Z</time>
      </trkpt>
      <trkpt lat="46.62809" lon="6.08854">
        <ele>1121.6</ele>
        <time>2021-07-09T11:51:35Z</time>
      </trkpt>
      <trkpt lat="46.62812" lon="6.08848">
        <ele>1121.1</ele>
        <time>2021-07-09T11:51:40Z</time>
      </trkpt>
      <trkpt lat="46.62815" lon="6.08843">
        <ele>1120.9</ele>
        <time>2021-07-09T11:51:44Z</time>
      </trkpt>
      <trkpt lat="46.6282" lon="6.08838">
        <ele>1121.2</ele>
        <time>2021-07-09T11:51:48Z</time>
      </trkpt>
      <trkpt lat="46.62824" lon="6.08832">
        <ele>1121</ele>
        <time>2021-07-09T11:51:53Z</time>
      </trkpt>
      <trkpt lat="46.62829" lon="6.08827">
        <ele>1121</ele>
        <time>2021-07-09T11:51:57Z</time>
      </trkpt>
      <trkpt lat="46.62831" lon="6.0882">
        <ele>1121.4</ele>
        <time>2021-07-09T11:52:01Z</time>
      </trkpt>
      <trkpt lat="46.62831" lon="6.08812">
        <ele>1121.7</ele>
        <time>2021-07-09T11:52:06Z</time>
      </trkpt>
      <trkpt lat="46.6283" lon="6.08806">
        <ele>1121.1</ele>
        <time>2021-07-09T11:52:12Z</time>
      </trkpt>
      <trkpt lat="46.62829" lon="6.08799">
        <ele>1120.7</ele>
        <time>2021-07-09T11:52:16Z</time>
      </trkpt>
      <trkpt lat="46.62828" lon="6.08792">
        <ele>1120.3</ele>
        <time>2021-07-09T11:52:21Z</time>
      </trkpt>
      <trkpt lat="46.62826" lon="6.08785">
        <ele>1119.2</ele>
        <time>2021-07-09T11:52:27Z</time>
      </trkpt>
      <trkpt lat="46.62824" lon="6.08777">
        <ele>1118.8</ele>
        <time>2021-07-09T11:52:31Z</time>
      </trkpt>
      <trkpt lat="46.62825" lon="6.0877">
        <ele>1118.1</ele>
        <time>2021-07-09T11:52:35Z</time>
      </trkpt>
      <trkpt lat="46.62826" lon="6.08764">
        <ele>1117</ele>
        <time>2021-07-09T11:52:39Z</time>
      </trkpt>
      <trkpt lat="46.62828" lon="6.08757">
        <ele>1115.8</ele>
        <time>2021-07-09T11:52:44Z</time>
      </trkpt>
      <trkpt lat="46.62829" lon="6.0875">
        <ele>1113.9</ele>
        <time>2021-07-09T11:52:50Z</time>
      </trkpt>
      <trkpt lat="46.62831" lon="6.08743">
        <ele>1112.6</ele>
        <time>2021-07-09T11:52:54Z</time>
      </trkpt>
      <trkpt lat="46.62833" lon="6.08736">
        <ele>1111.5</ele>
        <time>2021-07-09T11:52:58Z</time>
      </trkpt>
      <trkpt lat="46.62834" lon="6.0873">
        <ele>1110.8</ele>
        <time>2021-07-09T11:53:04Z</time>
      </trkpt>
      <trkpt lat="46.62838" lon="6.08724">
        <ele>1110.2</ele>
        <time>2021-07-09T11:53:11Z</time>
      </trkpt>
      <trkpt lat="46.62842" lon="6.0872">
        <ele>1109.7</ele>
        <time>2021-07-09T11:53:16Z</time>
      </trkpt>
      <trkpt lat="46.62846" lon="6.08716">
        <ele>1109.3</ele>
        <time>2021-07-09T11:53:21Z</time>
      </trkpt>
      <trkpt lat="46.62851" lon="6.08711">
        <ele>1109</ele>
        <time>2021-07-09T11:53:26Z</time>
      </trkpt>
      <trkpt lat="46.62854" lon="6.08707">
        <ele>1108.5</ele>
        <time>2021-07-09T11:53:31Z</time>
      </trkpt>
      <trkpt lat="46.62857" lon="6.08703">
        <ele>1108</ele>
        <time>2021-07-09T11:53:37Z</time>
      </trkpt>
      <trkpt lat="46.6286" lon="6.08697">
        <ele>1107.9</ele>
        <time>2021-07-09T11:53:45Z</time>
      </trkpt>
      <trkpt lat="46.62863" lon="6.08691">
        <ele>1108.1</ele>
        <time>2021-07-09T11:53:50Z</time>
      </trkpt>
      <trkpt lat="46.62868" lon="6.08686">
        <ele>1108.2</ele>
        <time>2021-07-09T11:53:54Z</time>
      </trkpt>
      <trkpt lat="46.62872" lon="6.08681">
        <ele>1108.2</ele>
        <time>2021-07-09T11:53:58Z</time>
      </trkpt>
      <trkpt lat="46.62876" lon="6.08677">
        <ele>1107.8</ele>
        <time>2021-07-09T11:54:03Z</time>
      </trkpt>
      <trkpt lat="46.62881" lon="6.08674">
        <ele>1107.2</ele>
        <time>2021-07-09T11:54:09Z</time>
      </trkpt>
      <trkpt lat="46.62886" lon="6.08672">
        <ele>1107</ele>
        <time>2021-07-09T11:54:13Z</time>
      </trkpt>
      <trkpt lat="46.6289" lon="6.08668">
        <ele>1108.1</ele>
        <time>2021-07-09T11:54:18Z</time>
      </trkpt>
      <trkpt lat="46.62895" lon="6.0867">
        <ele>1109.5</ele>
        <time>2021-07-09T11:54:26Z</time>
      </trkpt>
      <trkpt lat="46.62899" lon="6.08665">
        <ele>1110.8</ele>
        <time>2021-07-09T11:54:34Z</time>
      </trkpt>
      <trkpt lat="46.62902" lon="6.08658">
        <ele>1112.6</ele>
        <time>2021-07-09T11:54:41Z</time>
      </trkpt>
      <trkpt lat="46.62907" lon="6.08653">
        <ele>1112.9</ele>
        <time>2021-07-09T11:54:45Z</time>
      </trkpt>
      <trkpt lat="46.62911" lon="6.08648">
        <ele>1113.1</ele>
        <time>2021-07-09T11:54:49Z</time>
      </trkpt>
      <trkpt lat="46.62915" lon="6.08644">
        <ele>1113.7</ele>
        <time>2021-07-09T11:54:53Z</time>
      </trkpt>
      <trkpt lat="46.6292" lon="6.08641">
        <ele>1113.8</ele>
        <time>2021-07-09T11:54:58Z</time>
      </trkpt>
      <trkpt lat="46.62923" lon="6.08637">
        <ele>1113.3</ele>
        <time>2021-07-09T11:55:03Z</time>
      </trkpt>
      <trkpt lat="46.62927" lon="6.08632">
        <ele>1113.1</ele>
        <time>2021-07-09T11:55:07Z</time>
      </trkpt>
      <trkpt lat="46.62931" lon="6.08626">
        <ele>1113.5</ele>
        <time>2021-07-09T11:55:11Z</time>
      </trkpt>
      <trkpt lat="46.62934" lon="6.0862">
        <ele>1114.5</ele>
        <time>2021-07-09T11:55:15Z</time>
      </trkpt>
      <trkpt lat="46.62936" lon="6.08614">
        <ele>1115.7</ele>
        <time>2021-07-09T11:55:20Z</time>
      </trkpt>
      <trkpt lat="46.6294" lon="6.08611">
        <ele>1116.7</ele>
        <time>2021-07-09T11:55:24Z</time>
      </trkpt>
      <trkpt lat="46.62945" lon="6.08608">
        <ele>1117.7</ele>
        <time>2021-07-09T11:55:28Z</time>
      </trkpt>
      <trkpt lat="46.62948" lon="6.08603">
        <ele>1119.2</ele>
        <time>2021-07-09T11:55:33Z</time>
      </trkpt>
      <trkpt lat="46.62952" lon="6.08599">
        <ele>1120.2</ele>
        <time>2021-07-09T11:55:38Z</time>
      </trkpt>
      <trkpt lat="46.62957" lon="6.08597">
        <ele>1121.5</ele>
        <time>2021-07-09T11:55:43Z</time>
      </trkpt>
      <trkpt lat="46.62962" lon="6.08597">
        <ele>1122.6</ele>
        <time>2021-07-09T11:55:47Z</time>
      </trkpt>
      <trkpt lat="46.62969" lon="6.08597">
        <ele>1123.5</ele>
        <time>2021-07-09T11:55:51Z</time>
      </trkpt>
      <trkpt lat="46.62973" lon="6.08595">
        <ele>1124.8</ele>
        <time>2021-07-09T11:55:56Z</time>
      </trkpt>
      <trkpt lat="46.62978" lon="6.08591">
        <ele>1124.6</ele>
        <time>2021-07-09T11:56:05Z</time>
      </trkpt>
      <trkpt lat="46.62987" lon="6.08583">
        <ele>1124</ele>
        <time>2021-07-09T11:56:14Z</time>
      </trkpt>
      <trkpt lat="46.62987" lon="6.08574">
        <ele>1120.8</ele>
        <time>2021-07-09T11:56:22Z</time>
      </trkpt>
      <trkpt lat="46.62992" lon="6.08574">
        <ele>1118.9</ele>
        <time>2021-07-09T11:56:28Z</time>
      </trkpt>
      <trkpt lat="46.62997" lon="6.08571">
        <ele>1117.2</ele>
        <time>2021-07-09T11:56:34Z</time>
      </trkpt>
      <trkpt lat="46.63002" lon="6.0857">
        <ele>1116.3</ele>
        <time>2021-07-09T11:56:37Z</time>
      </trkpt>
      <trkpt lat="46.63008" lon="6.0857">
        <ele>1115.3</ele>
        <time>2021-07-09T11:56:40Z</time>
      </trkpt>
      <trkpt lat="46.63012" lon="6.08568">
        <ele>1114.6</ele>
        <time>2021-07-09T11:56:43Z</time>
      </trkpt>
      <trkpt lat="46.63017" lon="6.08565">
        <ele>1113.6</ele>
        <time>2021-07-09T11:56:46Z</time>
      </trkpt>
      <trkpt lat="46.63022" lon="6.08562">
        <ele>1113.4</ele>
        <time>2021-07-09T11:56:49Z</time>
      </trkpt>
      <trkpt lat="46.6303" lon="6.08562">
        <ele>1112.5</ele>
        <time>2021-07-09T11:56:54Z</time>
      </trkpt>
      <trkpt lat="46.63042" lon="6.08566">
        <ele>1110.7</ele>
        <time>2021-07-09T11:56:57Z</time>
      </trkpt>
      <trkpt lat="46.63104" lon="6.08585">
        <ele>1104</ele>
        <time>2021-07-09T11:57:10Z</time>
      </trkpt>
      <trkpt lat="46.63106" lon="6.08559">
        <ele>1097.5</ele>
        <time>2021-07-09T11:57:23Z</time>
      </trkpt>
      <trkpt lat="46.63092" lon="6.08551">
        <ele>1097.5</ele>
        <time>2021-07-09T11:57:26Z</time>
      </trkpt>
      <trkpt lat="46.63084" lon="6.08545">
        <ele>1097.5</ele>
        <time>2021-07-09T11:57:29Z</time>
      </trkpt>
      <trkpt lat="46.6308" lon="6.08536">
        <ele>1097.3</ele>
        <time>2021-07-09T11:57:37Z</time>
      </trkpt>
      <trkpt lat="46.6308" lon="6.08529">
        <ele>1097.1</ele>
        <time>2021-07-09T11:57:40Z</time>
      </trkpt>
      <trkpt lat="46.63084" lon="6.08521">
        <ele>1096.6</ele>
        <time>2021-07-09T11:57:55Z</time>
      </trkpt>
      <trkpt lat="46.63087" lon="6.08516">
        <ele>1096.7</ele>
        <time>2021-07-09T11:57:58Z</time>
      </trkpt>
      <trkpt lat="46.63093" lon="6.0851">
        <ele>1096.6</ele>
        <time>2021-07-09T11:58:08Z</time>
      </trkpt>
      <trkpt lat="46.63098" lon="6.08506">
        <ele>1096.6</ele>
        <time>2021-07-09T11:58:11Z</time>
      </trkpt>
      <trkpt lat="46.63104" lon="6.08503">
        <ele>1095.9</ele>
        <time>2021-07-09T11:58:19Z</time>
      </trkpt>
      <trkpt lat="46.63109" lon="6.08501">
        <ele>1095.2</ele>
        <time>2021-07-09T11:58:22Z</time>
      </trkpt>
      <trkpt lat="46.63113" lon="6.08495">
        <ele>1092.8</ele>
        <time>2021-07-09T11:58:37Z</time>
      </trkpt>
      <trkpt lat="46.63116" lon="6.08489">
        <ele>1091.8</ele>
        <time>2021-07-09T11:58:40Z</time>
      </trkpt>
      <trkpt lat="46.63119" lon="6.08481">
        <ele>1089.7</ele>
        <time>2021-07-09T11:58:48Z</time>
      </trkpt>
      <trkpt lat="46.63122" lon="6.08471">
        <ele>1088.9</ele>
        <time>2021-07-09T11:58:51Z</time>
      </trkpt>
      <trkpt lat="46.63127" lon="6.08466">
        <ele>1088.4</ele>
        <time>2021-07-09T11:58:54Z</time>
      </trkpt>
      <trkpt lat="46.63131" lon="6.08462">
        <ele>1087.8</ele>
        <time>2021-07-09T11:58:59Z</time>
      </trkpt>
      <trkpt lat="46.63136" lon="6.08458">
        <ele>1087.1</ele>
        <time>2021-07-09T11:59:05Z</time>
      </trkpt>
      <trkpt lat="46.6314" lon="6.08454">
        <ele>1086.4</ele>
        <time>2021-07-09T11:59:08Z</time>
      </trkpt>
      <trkpt lat="46.63145" lon="6.0845">
        <ele>1085.2</ele>
        <time>2021-07-09T11:59:13Z</time>
      </trkpt>
      <trkpt lat="46.63149" lon="6.08445">
        <ele>1084.5</ele>
        <time>2021-07-09T11:59:17Z</time>
      </trkpt>
      <trkpt lat="46.63152" lon="6.08437">
        <ele>1083.3</ele>
        <time>2021-07-09T11:59:25Z</time>
      </trkpt>
      <trkpt lat="46.63155" lon="6.08431">
        <ele>1082.6</ele>
        <time>2021-07-09T11:59:28Z</time>
      </trkpt>
      <trkpt lat="46.6316" lon="6.08424">
        <ele>1080.9</ele>
        <time>2021-07-09T11:59:37Z</time>
      </trkpt>
      <trkpt lat="46.63164" lon="6.08418">
        <ele>1079.9</ele>
        <time>2021-07-09T11:59:40Z</time>
      </trkpt>
      <trkpt lat="46.63167" lon="6.08412">
        <ele>1079.2</ele>
        <time>2021-07-09T11:59:43Z</time>
      </trkpt>
      <trkpt lat="46.63172" lon="6.08404">
        <ele>1076.9</ele>
        <time>2021-07-09T12:00:05Z</time>
      </trkpt>
      <trkpt lat="46.63177" lon="6.08399">
        <ele>1076.9</ele>
        <time>2021-07-09T12:00:08Z</time>
      </trkpt>
      <trkpt lat="46.63184" lon="6.08395">
        <ele>1077.2</ele>
        <time>2021-07-09T12:00:17Z</time>
      </trkpt>
      <trkpt lat="46.63189" lon="6.08391">
        <ele>1077.8</ele>
        <time>2021-07-09T12:00:20Z</time>
      </trkpt>
      <trkpt lat="46.63195" lon="6.08387">
        <ele>1079.5</ele>
        <time>2021-07-09T12:00:29Z</time>
      </trkpt>
      <trkpt lat="46.632" lon="6.08385">
        <ele>1080.1</ele>
        <time>2021-07-09T12:00:32Z</time>
      </trkpt>
      <trkpt lat="46.63205" lon="6.0838">
        <ele>1081.8</ele>
        <time>2021-07-09T12:00:45Z</time>
      </trkpt>
      <trkpt lat="46.63208" lon="6.08374">
        <ele>1082.4</ele>
        <time>2021-07-09T12:00:48Z</time>
      </trkpt>
      <trkpt lat="46.63213" lon="6.08373">
        <ele>1083.6</ele>
        <time>2021-07-09T12:00:54Z</time>
      </trkpt>
      <trkpt lat="46.63219" lon="6.08372">
        <ele>1084.4</ele>
        <time>2021-07-09T12:00:57Z</time>
      </trkpt>
      <trkpt lat="46.63223" lon="6.08372">
        <ele>1085.4</ele>
        <time>2021-07-09T12:01:00Z</time>
      </trkpt>
      <trkpt lat="46.63229" lon="6.08368">
        <ele>1087</ele>
        <time>2021-07-09T12:01:03Z</time>
      </trkpt>
      <trkpt lat="46.6323" lon="6.08362">
        <ele>1089.3</ele>
        <time>2021-07-09T12:01:08Z</time>
      </trkpt>
      <trkpt lat="46.63233" lon="6.08355">
        <ele>1090.8</ele>
        <time>2021-07-09T12:01:11Z</time>
      </trkpt>
      <trkpt lat="46.63235" lon="6.08349">
        <ele>1091.8</ele>
        <time>2021-07-09T12:01:14Z</time>
      </trkpt>
      <trkpt lat="46.63239" lon="6.08343">
        <ele>1092.2</ele>
        <time>2021-07-09T12:01:21Z</time>
      </trkpt>
      <trkpt lat="46.6324" lon="6.08336">
        <ele>1091.6</ele>
        <time>2021-07-09T12:01:25Z</time>
      </trkpt>
      <trkpt lat="46.6324" lon="6.08328">
        <ele>1090.2</ele>
        <time>2021-07-09T12:01:31Z</time>
      </trkpt>
      <trkpt lat="46.63241" lon="6.0832">
        <ele>1088.7</ele>
        <time>2021-07-09T12:01:35Z</time>
      </trkpt>
      <trkpt lat="46.63242" lon="6.08312">
        <ele>1085.6</ele>
        <time>2021-07-09T12:01:47Z</time>
      </trkpt>
      <trkpt lat="46.63245" lon="6.08306">
        <ele>1083.9</ele>
        <time>2021-07-09T12:01:51Z</time>
      </trkpt>
      <trkpt lat="46.63248" lon="6.08296">
        <ele>1079.6</ele>
        <time>2021-07-09T12:02:08Z</time>
      </trkpt>
      <trkpt lat="46.63249" lon="6.08289">
        <ele>1078.6</ele>
        <time>2021-07-09T12:02:11Z</time>
      </trkpt>
      <trkpt lat="46.6325" lon="6.08279">
        <ele>1077.1</ele>
        <time>2021-07-09T12:02:24Z</time>
      </trkpt>
      <trkpt lat="46.63252" lon="6.08272">
        <ele>1077.2</ele>
        <time>2021-07-09T12:02:27Z</time>
      </trkpt>
      <trkpt lat="46.63256" lon="6.08264">
        <ele>1077.3</ele>
        <time>2021-07-09T12:02:35Z</time>
      </trkpt>
      <trkpt lat="46.63259" lon="6.08259">
        <ele>1077.3</ele>
        <time>2021-07-09T12:02:38Z</time>
      </trkpt>
      <trkpt lat="46.63263" lon="6.08251">
        <ele>1077.4</ele>
        <time>2021-07-09T12:02:47Z</time>
      </trkpt>
      <trkpt lat="46.63266" lon="6.08246">
        <ele>1077.5</ele>
        <time>2021-07-09T12:02:50Z</time>
      </trkpt>
      <trkpt lat="46.6327" lon="6.08236">
        <ele>1077.6</ele>
        <time>2021-07-09T12:02:57Z</time>
      </trkpt>
      <trkpt lat="46.63274" lon="6.08227">
        <ele>1077.5</ele>
        <time>2021-07-09T12:03:00Z</time>
      </trkpt>
      <trkpt lat="46.63278" lon="6.0822">
        <ele>1077.2</ele>
        <time>2021-07-09T12:03:05Z</time>
      </trkpt>
      <trkpt lat="46.63282" lon="6.08214">
        <ele>1077.2</ele>
        <time>2021-07-09T12:03:08Z</time>
      </trkpt>
      <trkpt lat="46.63287" lon="6.08209">
        <ele>1077.2</ele>
        <time>2021-07-09T12:03:11Z</time>
      </trkpt>
      <trkpt lat="46.63291" lon="6.08204">
        <ele>1077.4</ele>
        <time>2021-07-09T12:03:15Z</time>
      </trkpt>
      <trkpt lat="46.63292" lon="6.08197">
        <ele>1077.6</ele>
        <time>2021-07-09T12:03:18Z</time>
      </trkpt>
      <trkpt lat="46.63293" lon="6.0819">
        <ele>1077.6</ele>
        <time>2021-07-09T12:03:21Z</time>
      </trkpt>
      <trkpt lat="46.63297" lon="6.08179">
        <ele>1077.9</ele>
        <time>2021-07-09T12:03:32Z</time>
      </trkpt>
      <trkpt lat="46.633" lon="6.08174">
        <ele>1078.1</ele>
        <time>2021-07-09T12:03:35Z</time>
      </trkpt>
      <trkpt lat="46.63297" lon="6.08169">
        <ele>1079.4</ele>
        <time>2021-07-09T12:03:47Z</time>
      </trkpt>
      <trkpt lat="46.63293" lon="6.08169">
        <ele>1080.9</ele>
        <time>2021-07-09T12:03:53Z</time>
      </trkpt>
      <trkpt lat="46.63288" lon="6.08171">
        <ele>1082.2</ele>
        <time>2021-07-09T12:04:02Z</time>
      </trkpt>
      <trkpt lat="46.63282" lon="6.08174">
        <ele>1083.1</ele>
        <time>2021-07-09T12:04:05Z</time>
      </trkpt>
      <trkpt lat="46.63275" lon="6.08177">
        <ele>1084.9</ele>
        <time>2021-07-09T12:04:13Z</time>
      </trkpt>
      <trkpt lat="46.6327" lon="6.0818">
        <ele>1085.4</ele>
        <time>2021-07-09T12:04:16Z</time>
      </trkpt>
      <trkpt lat="46.63264" lon="6.08185">
        <ele>1086.5</ele>
        <time>2021-07-09T12:04:30Z</time>
      </trkpt>
      <trkpt lat="46.6326" lon="6.08189">
        <ele>1086.2</ele>
        <time>2021-07-09T12:04:34Z</time>
      </trkpt>
      <trkpt lat="46.63255" lon="6.08191">
        <ele>1085.9</ele>
        <time>2021-07-09T12:04:42Z</time>
      </trkpt>
      <trkpt lat="46.6325" lon="6.08195">
        <ele>1086</ele>
        <time>2021-07-09T12:04:45Z</time>
      </trkpt>
      <trkpt lat="46.63247" lon="6.08203">
        <ele>1087.1</ele>
        <time>2021-07-09T12:04:57Z</time>
      </trkpt>
      <trkpt lat="46.63244" lon="6.08212">
        <ele>1088</ele>
        <time>2021-07-09T12:05:00Z</time>
      </trkpt>
      <trkpt lat="46.63242" lon="6.08218">
        <ele>1088.7</ele>
        <time>2021-07-09T12:05:03Z</time>
      </trkpt>
      <trkpt lat="46.63239" lon="6.08224">
        <ele>1089.3</ele>
        <time>2021-07-09T12:05:06Z</time>
      </trkpt>
      <trkpt lat="46.63236" lon="6.08231">
        <ele>1091.1</ele>
        <time>2021-07-09T12:05:39Z</time>
      </trkpt>
      <trkpt lat="46.63232" lon="6.08234">
        <ele>1090.9</ele>
        <time>2021-07-09T12:05:42Z</time>
      </trkpt>
      <trkpt lat="46.63225" lon="6.08236">
        <ele>1090.8</ele>
        <time>2021-07-09T12:05:57Z</time>
      </trkpt>
      <trkpt lat="46.63221" lon="6.08233">
        <ele>1091.1</ele>
        <time>2021-07-09T12:06:02Z</time>
      </trkpt>
      <trkpt lat="46.63216" lon="6.08231">
        <ele>1092.3</ele>
        <time>2021-07-09T12:06:12Z</time>
      </trkpt>
      <trkpt lat="46.63211" lon="6.08229">
        <ele>1093.4</ele>
        <time>2021-07-09T12:06:15Z</time>
      </trkpt>
      <trkpt lat="46.63206" lon="6.0823">
        <ele>1094.8</ele>
        <time>2021-07-09T12:06:19Z</time>
      </trkpt>
      <trkpt lat="46.63202" lon="6.08232">
        <ele>1096.8</ele>
        <time>2021-07-09T12:06:28Z</time>
      </trkpt>
      <trkpt lat="46.63197" lon="6.08229">
        <ele>1100.1</ele>
        <time>2021-07-09T12:07:04Z</time>
      </trkpt>
      <trkpt lat="46.63193" lon="6.08226">
        <ele>1103.5</ele>
        <time>2021-07-09T12:07:11Z</time>
      </trkpt>
      <trkpt lat="46.63198" lon="6.08225">
        <ele>1105.4</ele>
        <time>2021-07-09T12:07:41Z</time>
      </trkpt>
      <trkpt lat="46.63203" lon="6.08226">
        <ele>1105.4</ele>
        <time>2021-07-09T12:07:44Z</time>
      </trkpt>
      <trkpt lat="46.63204" lon="6.08219">
        <ele>1106.4</ele>
        <time>2021-07-09T12:09:02Z</time>
      </trkpt>
      <trkpt lat="46.632" lon="6.08211">
        <ele>1106.9</ele>
        <time>2021-07-09T12:09:05Z</time>
      </trkpt>
      <trkpt lat="46.63196" lon="6.08206">
        <ele>1107</ele>
        <time>2021-07-09T12:09:08Z</time>
      </trkpt>
      <trkpt lat="46.63192" lon="6.08202">
        <ele>1106.9</ele>
        <time>2021-07-09T12:09:15Z</time>
      </trkpt>
      <trkpt lat="46.63188" lon="6.08196">
        <ele>1105.3</ele>
        <time>2021-07-09T12:09:29Z</time>
      </trkpt>
      <trkpt lat="46.63182" lon="6.08196">
        <ele>1104.3</ele>
        <time>2021-07-09T12:09:33Z</time>
      </trkpt>
      <trkpt lat="46.63176" lon="6.08197">
        <ele>1104</ele>
        <time>2021-07-09T12:09:36Z</time>
      </trkpt>
      <trkpt lat="46.6317" lon="6.08197">
        <ele>1104.6</ele>
        <time>2021-07-09T12:09:48Z</time>
      </trkpt>
      <trkpt lat="46.63164" lon="6.08196">
        <ele>1105.6</ele>
        <time>2021-07-09T12:09:51Z</time>
      </trkpt>
      <trkpt lat="46.63159" lon="6.08191">
        <ele>1107.8</ele>
        <time>2021-07-09T12:10:16Z</time>
      </trkpt>
      <trkpt lat="46.63157" lon="6.08184">
        <ele>1107.9</ele>
        <time>2021-07-09T12:10:20Z</time>
      </trkpt>
      <trkpt lat="46.63152" lon="6.08176">
        <ele>1108.7</ele>
        <time>2021-07-09T12:10:39Z</time>
      </trkpt>
      <trkpt lat="46.63148" lon="6.08173">
        <ele>1109.4</ele>
        <time>2021-07-09T12:10:43Z</time>
      </trkpt>
      <trkpt lat="46.63152" lon="6.08167">
        <ele>1111</ele>
        <time>2021-07-09T12:11:10Z</time>
      </trkpt>
      <trkpt lat="46.63151" lon="6.08158">
        <ele>1111.9</ele>
        <time>2021-07-09T12:11:23Z</time>
      </trkpt>
      <trkpt lat="46.63147" lon="6.08153">
        <ele>1111.7</ele>
        <time>2021-07-09T12:11:26Z</time>
      </trkpt>
      <trkpt lat="46.63144" lon="6.08147">
        <ele>1111.2</ele>
        <time>2021-07-09T12:11:35Z</time>
      </trkpt>
      <trkpt lat="46.63139" lon="6.08139">
        <ele>1110.5</ele>
        <time>2021-07-09T12:11:50Z</time>
      </trkpt>
      <trkpt lat="46.63137" lon="6.08127">
        <ele>1109.6</ele>
        <time>2021-07-09T12:12:16Z</time>
      </trkpt>
      <trkpt lat="46.63137" lon="6.0812">
        <ele>1109.4</ele>
        <time>2021-07-09T12:12:22Z</time>
      </trkpt>
      <trkpt lat="46.6314" lon="6.08115">
        <ele>1109</ele>
        <time>2021-07-09T12:12:31Z</time>
      </trkpt>
      <trkpt lat="46.63143" lon="6.0811">
        <ele>1108.6</ele>
        <time>2021-07-09T12:12:36Z</time>
      </trkpt>
      <trkpt lat="46.6314" lon="6.08104">
        <ele>1107.4</ele>
        <time>2021-07-09T12:12:51Z</time>
      </trkpt>
      <trkpt lat="46.63137" lon="6.08099">
        <ele>1106.7</ele>
        <time>2021-07-09T12:12:55Z</time>
      </trkpt>
      <trkpt lat="46.63137" lon="6.08091">
        <ele>1106.4</ele>
        <time>2021-07-09T12:13:16Z</time>
      </trkpt>
      <trkpt lat="46.63138" lon="6.08084">
        <ele>1107.1</ele>
        <time>2021-07-09T12:13:19Z</time>
      </trkpt>
      <trkpt lat="46.63135" lon="6.08075">
        <ele>1110.6</ele>
        <time>2021-07-09T12:13:33Z</time>
      </trkpt>
      <trkpt lat="46.63131" lon="6.0807">
        <ele>1112.5</ele>
        <time>2021-07-09T12:13:36Z</time>
      </trkpt>
      <trkpt lat="46.63126" lon="6.08061">
        <ele>1116.9</ele>
        <time>2021-07-09T12:13:46Z</time>
      </trkpt>
      <trkpt lat="46.63123" lon="6.08055">
        <ele>1118.8</ele>
        <time>2021-07-09T12:13:49Z</time>
      </trkpt>
      <trkpt lat="46.63121" lon="6.08046">
        <ele>1123.1</ele>
        <time>2021-07-09T12:13:58Z</time>
      </trkpt>
      <trkpt lat="46.63122" lon="6.08039">
        <ele>1125.2</ele>
        <time>2021-07-09T12:14:01Z</time>
      </trkpt>
      <trkpt lat="46.63122" lon="6.08028">
        <ele>1132.9</ele>
        <time>2021-07-09T12:14:26Z</time>
      </trkpt>
      <trkpt lat="46.63123" lon="6.08021">
        <ele>1134.6</ele>
        <time>2021-07-09T12:14:29Z</time>
      </trkpt>
      <trkpt lat="46.63122" lon="6.08012">
        <ele>1138.7</ele>
        <time>2021-07-09T12:14:45Z</time>
      </trkpt>
      <trkpt lat="46.63121" lon="6.08005">
        <ele>1139.4</ele>
        <time>2021-07-09T12:14:48Z</time>
      </trkpt>
      <trkpt lat="46.63124" lon="6.07999">
        <ele>1140.5</ele>
        <time>2021-07-09T12:14:57Z</time>
      </trkpt>
      <trkpt lat="46.6312" lon="6.07998">
        <ele>1140.1</ele>
        <time>2021-07-09T12:15:03Z</time>
      </trkpt>
      <trkpt lat="46.63114" lon="6.07991">
        <ele>1140.5</ele>
        <time>2021-07-09T12:16:32Z</time>
      </trkpt>
      <trkpt lat="46.63107" lon="6.07989">
        <ele>1141.8</ele>
        <time>2021-07-09T12:16:35Z</time>
      </trkpt>
      <trkpt lat="46.63102" lon="6.07982">
        <ele>1145.2</ele>
        <time>2021-07-09T12:17:24Z</time>
      </trkpt>
      <trkpt lat="46.63101" lon="6.07976">
        <ele>1146</ele>
        <time>2021-07-09T12:17:30Z</time>
      </trkpt>
      <trkpt lat="46.63103" lon="6.0797">
        <ele>1145.8</ele>
        <time>2021-07-09T12:17:50Z</time>
      </trkpt>
      <trkpt lat="46.63109" lon="6.07963">
        <ele>1144.8</ele>
        <time>2021-07-09T12:17:53Z</time>
      </trkpt>
      <trkpt lat="46.63101" lon="6.07951">
        <ele>1140.6</ele>
        <time>2021-07-09T12:18:32Z</time>
      </trkpt>
      <trkpt lat="46.63095" lon="6.07947">
        <ele>1139.4</ele>
        <time>2021-07-09T12:18:48Z</time>
      </trkpt>
      <trkpt lat="46.63091" lon="6.07943">
        <ele>1138.7</ele>
        <time>2021-07-09T12:18:52Z</time>
      </trkpt>
      <trkpt lat="46.63087" lon="6.07936">
        <ele>1137.3</ele>
        <time>2021-07-09T12:19:07Z</time>
      </trkpt>
      <trkpt lat="46.63084" lon="6.0793">
        <ele>1136.8</ele>
        <time>2021-07-09T12:19:11Z</time>
      </trkpt>
      <trkpt lat="46.63081" lon="6.07923">
        <ele>1136.2</ele>
        <time>2021-07-09T12:19:18Z</time>
      </trkpt>
      <trkpt lat="46.63076" lon="6.0792">
        <ele>1135.7</ele>
        <time>2021-07-09T12:19:22Z</time>
      </trkpt>
      <trkpt lat="46.63071" lon="6.07914">
        <ele>1135</ele>
        <time>2021-07-09T12:19:34Z</time>
      </trkpt>
      <trkpt lat="46.63068" lon="6.07907">
        <ele>1134.9</ele>
        <time>2021-07-09T12:19:37Z</time>
      </trkpt>
      <trkpt lat="46.63064" lon="6.07899">
        <ele>1134.6</ele>
        <time>2021-07-09T12:19:51Z</time>
      </trkpt>
      <trkpt lat="46.6306" lon="6.07893">
        <ele>1134.4</ele>
        <time>2021-07-09T12:19:54Z</time>
      </trkpt>
      <trkpt lat="46.63053" lon="6.07891">
        <ele>1132.6</ele>
        <time>2021-07-09T12:20:12Z</time>
      </trkpt>
      <trkpt lat="46.63048" lon="6.0789">
        <ele>1129.9</ele>
        <time>2021-07-09T12:20:20Z</time>
      </trkpt>
      <trkpt lat="46.63045" lon="6.07885">
        <ele>1128.7</ele>
        <time>2021-07-09T12:20:27Z</time>
      </trkpt>
      <trkpt lat="46.63042" lon="6.07879">
        <ele>1128</ele>
        <time>2021-07-09T12:20:30Z</time>
      </trkpt>
      <trkpt lat="46.63042" lon="6.07871">
        <ele>1126.1</ele>
        <time>2021-07-09T12:20:44Z</time>
      </trkpt>
      <trkpt lat="46.63042" lon="6.07864">
        <ele>1125.6</ele>
        <time>2021-07-09T12:20:48Z</time>
      </trkpt>
      <trkpt lat="46.63046" lon="6.07858">
        <ele>1125.3</ele>
        <time>2021-07-09T12:20:57Z</time>
      </trkpt>
      <trkpt lat="46.63043" lon="6.07852">
        <ele>1125.2</ele>
        <time>2021-07-09T12:21:08Z</time>
      </trkpt>
      <trkpt lat="46.63045" lon="6.07843">
        <ele>1125</ele>
        <time>2021-07-09T12:21:21Z</time>
      </trkpt>
      <trkpt lat="46.63049" lon="6.07838">
        <ele>1124.6</ele>
        <time>2021-07-09T12:21:24Z</time>
      </trkpt>
      <trkpt lat="46.63053" lon="6.0783">
        <ele>1124.1</ele>
        <time>2021-07-09T12:21:32Z</time>
      </trkpt>
      <trkpt lat="46.63055" lon="6.07823">
        <ele>1124.7</ele>
        <time>2021-07-09T12:21:35Z</time>
      </trkpt>
      <trkpt lat="46.63055" lon="6.07816">
        <ele>1126.4</ele>
        <time>2021-07-09T12:21:43Z</time>
      </trkpt>
      <trkpt lat="46.63055" lon="6.07809">
        <ele>1127.9</ele>
        <time>2021-07-09T12:21:48Z</time>
      </trkpt>
      <trkpt lat="46.63053" lon="6.07803">
        <ele>1130.6</ele>
        <time>2021-07-09T12:21:58Z</time>
      </trkpt>
      <trkpt lat="46.63048" lon="6.07802">
        <ele>1131.1</ele>
        <time>2021-07-09T12:22:01Z</time>
      </trkpt>
      <trkpt lat="46.63043" lon="6.078">
        <ele>1131.1</ele>
        <time>2021-07-09T12:22:04Z</time>
      </trkpt>
      <trkpt lat="46.63038" lon="6.078">
        <ele>1130.8</ele>
        <time>2021-07-09T12:22:09Z</time>
      </trkpt>
      <trkpt lat="46.63032" lon="6.07799">
        <ele>1131.3</ele>
        <time>2021-07-09T12:22:16Z</time>
      </trkpt>
      <trkpt lat="46.63027" lon="6.07798">
        <ele>1131.7</ele>
        <time>2021-07-09T12:22:19Z</time>
      </trkpt>
      <trkpt lat="46.63021" lon="6.07801">
        <ele>1131.8</ele>
        <time>2021-07-09T12:22:35Z</time>
      </trkpt>
      <trkpt lat="46.63016" lon="6.07804">
        <ele>1131.2</ele>
        <time>2021-07-09T12:22:38Z</time>
      </trkpt>
      <trkpt lat="46.63011" lon="6.07806">
        <ele>1130.4</ele>
        <time>2021-07-09T12:22:42Z</time>
      </trkpt>
      <trkpt lat="46.63004" lon="6.07808">
        <ele>1129.8</ele>
        <time>2021-07-09T12:22:56Z</time>
      </trkpt>
      <trkpt lat="46.62999" lon="6.0781">
        <ele>1129.9</ele>
        <time>2021-07-09T12:22:59Z</time>
      </trkpt>
      <trkpt lat="46.62993" lon="6.07808">
        <ele>1130.5</ele>
        <time>2021-07-09T12:23:10Z</time>
      </trkpt>
      <trkpt lat="46.62987" lon="6.07806">
        <ele>1131</ele>
        <time>2021-07-09T12:23:13Z</time>
      </trkpt>
      <trkpt lat="46.62982" lon="6.07804">
        <ele>1131.4</ele>
        <time>2021-07-09T12:23:16Z</time>
      </trkpt>
      <trkpt lat="46.62976" lon="6.07798">
        <ele>1129.2</ele>
        <time>2021-07-09T12:24:01Z</time>
      </trkpt>
      <trkpt lat="46.62971" lon="6.07792">
        <ele>1126.9</ele>
        <time>2021-07-09T12:24:04Z</time>
      </trkpt>
      <trkpt lat="46.62966" lon="6.07788">
        <ele>1124.9</ele>
        <time>2021-07-09T12:24:07Z</time>
      </trkpt>
      <trkpt lat="46.62963" lon="6.07783">
        <ele>1122.8</ele>
        <time>2021-07-09T12:24:12Z</time>
      </trkpt>
      <trkpt lat="46.62959" lon="6.07778">
        <ele>1121.4</ele>
        <time>2021-07-09T12:24:28Z</time>
      </trkpt>
      <trkpt lat="46.62955" lon="6.07774">
        <ele>1121.6</ele>
        <time>2021-07-09T12:24:31Z</time>
      </trkpt>
      <trkpt lat="46.6295" lon="6.07768">
        <ele>1122.3</ele>
        <time>2021-07-09T12:24:42Z</time>
      </trkpt>
      <trkpt lat="46.62946" lon="6.07763">
        <ele>1123</ele>
        <time>2021-07-09T12:24:45Z</time>
      </trkpt>
      <trkpt lat="46.6294" lon="6.07756">
        <ele>1124.7</ele>
        <time>2021-07-09T12:24:50Z</time>
      </trkpt>
      <trkpt lat="46.62935" lon="6.0775">
        <ele>1126.9</ele>
        <time>2021-07-09T12:24:53Z</time>
      </trkpt>
      <trkpt lat="46.62931" lon="6.07746">
        <ele>1129.8</ele>
        <time>2021-07-09T12:24:58Z</time>
      </trkpt>
      <trkpt lat="46.62926" lon="6.07744">
        <ele>1132.5</ele>
        <time>2021-07-09T12:25:05Z</time>
      </trkpt>
      <trkpt lat="46.62921" lon="6.07743">
        <ele>1134.1</ele>
        <time>2021-07-09T12:25:08Z</time>
      </trkpt>
      <trkpt lat="46.62913" lon="6.07745">
        <ele>1137.2</ele>
        <time>2021-07-09T12:25:18Z</time>
      </trkpt>
      <trkpt lat="46.62907" lon="6.07747">
        <ele>1138.1</ele>
        <time>2021-07-09T12:25:21Z</time>
      </trkpt>
      <trkpt lat="46.62903" lon="6.07751">
        <ele>1139.9</ele>
        <time>2021-07-09T12:25:26Z</time>
      </trkpt>
      <trkpt lat="46.62902" lon="6.07758">
        <ele>1142.4</ele>
        <time>2021-07-09T12:25:39Z</time>
      </trkpt>
      <trkpt lat="46.62901" lon="6.07765">
        <ele>1143.8</ele>
        <time>2021-07-09T12:25:43Z</time>
      </trkpt>
      <trkpt lat="46.62902" lon="6.07771">
        <ele>1145.3</ele>
        <time>2021-07-09T12:25:51Z</time>
      </trkpt>
      <trkpt lat="46.62902" lon="6.07779">
        <ele>1146.2</ele>
        <time>2021-07-09T12:26:07Z</time>
      </trkpt>
      <trkpt lat="46.62898" lon="6.07788">
        <ele>1146.6</ele>
        <time>2021-07-09T12:26:10Z</time>
      </trkpt>
      <trkpt lat="46.62892" lon="6.07794">
        <ele>1148.7</ele>
        <time>2021-07-09T12:26:19Z</time>
      </trkpt>
      <trkpt lat="46.62888" lon="6.07797">
        <ele>1150.5</ele>
        <time>2021-07-09T12:26:23Z</time>
      </trkpt>
      <trkpt lat="46.62883" lon="6.07802">
        <ele>1152.7</ele>
        <time>2021-07-09T12:26:31Z</time>
      </trkpt>
      <trkpt lat="46.62882" lon="6.07808">
        <ele>1153.9</ele>
        <time>2021-07-09T12:26:36Z</time>
      </trkpt>
      <trkpt lat="46.62879" lon="6.07814">
        <ele>1155.1</ele>
        <time>2021-07-09T12:26:45Z</time>
      </trkpt>
      <trkpt lat="46.6287" lon="6.07812">
        <ele>1157.7</ele>
        <time>2021-07-09T12:27:02Z</time>
      </trkpt>
      <trkpt lat="46.62864" lon="6.07811">
        <ele>1158.1</ele>
        <time>2021-07-09T12:27:05Z</time>
      </trkpt>
      <trkpt lat="46.62859" lon="6.0781">
        <ele>1158.2</ele>
        <time>2021-07-09T12:27:10Z</time>
      </trkpt>
      <trkpt lat="46.62854" lon="6.07804">
        <ele>1158</ele>
        <time>2021-07-09T12:27:28Z</time>
      </trkpt>
      <trkpt lat="46.6285" lon="6.07799">
        <ele>1157.7</ele>
        <time>2021-07-09T12:27:31Z</time>
      </trkpt>
      <trkpt lat="46.62844" lon="6.07794">
        <ele>1157.5</ele>
        <time>2021-07-09T12:27:36Z</time>
      </trkpt>
      <trkpt lat="46.62838" lon="6.07787">
        <ele>1157</ele>
        <time>2021-07-09T12:27:39Z</time>
      </trkpt>
      <trkpt lat="46.62838" lon="6.07778">
        <ele>1157.3</ele>
        <time>2021-07-09T12:27:52Z</time>
      </trkpt>
      <trkpt lat="46.62841" lon="6.07771">
        <ele>1157.9</ele>
        <time>2021-07-09T12:27:55Z</time>
      </trkpt>
      <trkpt lat="46.62845" lon="6.07766">
        <ele>1159.2</ele>
        <time>2021-07-09T12:28:09Z</time>
      </trkpt>
      <trkpt lat="46.62852" lon="6.07766">
        <ele>1160.4</ele>
        <time>2021-07-09T12:28:33Z</time>
      </trkpt>
      <trkpt lat="46.62857" lon="6.07763">
        <ele>1160.6</ele>
        <time>2021-07-09T12:28:36Z</time>
      </trkpt>
      <trkpt lat="46.62861" lon="6.07756">
        <ele>1162.3</ele>
        <time>2021-07-09T12:29:03Z</time>
      </trkpt>
      <trkpt lat="46.62864" lon="6.0775">
        <ele>1163.5</ele>
        <time>2021-07-09T12:29:07Z</time>
      </trkpt>
      <trkpt lat="46.62867" lon="6.07744">
        <ele>1165.5</ele>
        <time>2021-07-09T12:29:16Z</time>
      </trkpt>
      <trkpt lat="46.6287" lon="6.07739">
        <ele>1166.4</ele>
        <time>2021-07-09T12:29:31Z</time>
      </trkpt>
      <trkpt lat="46.62875" lon="6.07737">
        <ele>1166.4</ele>
        <time>2021-07-09T12:29:34Z</time>
      </trkpt>
      <trkpt lat="46.6288" lon="6.0773">
        <ele>1166.5</ele>
        <time>2021-07-09T12:29:43Z</time>
      </trkpt>
      <trkpt lat="46.62886" lon="6.07724">
        <ele>1166.6</ele>
        <time>2021-07-09T12:29:46Z</time>
      </trkpt>
      <trkpt lat="46.62891" lon="6.07721">
        <ele>1166.9</ele>
        <time>2021-07-09T12:29:49Z</time>
      </trkpt>
      <trkpt lat="46.62897" lon="6.07718">
        <ele>1166.6</ele>
        <time>2021-07-09T12:30:10Z</time>
      </trkpt>
      <trkpt lat="46.62903" lon="6.07717">
        <ele>1165.7</ele>
        <time>2021-07-09T12:30:13Z</time>
      </trkpt>
      <trkpt lat="46.62907" lon="6.07712">
        <ele>1163.3</ele>
        <time>2021-07-09T12:30:23Z</time>
      </trkpt>
      <trkpt lat="46.62911" lon="6.07709">
        <ele>1161.8</ele>
        <time>2021-07-09T12:30:41Z</time>
      </trkpt>
      <trkpt lat="46.62916" lon="6.07707">
        <ele>1160.6</ele>
        <time>2021-07-09T12:30:45Z</time>
      </trkpt>
      <trkpt lat="46.6292" lon="6.07701">
        <ele>1157.1</ele>
        <time>2021-07-09T12:31:31Z</time>
      </trkpt>
      <trkpt lat="46.62923" lon="6.07694">
        <ele>1156.1</ele>
        <time>2021-07-09T12:31:34Z</time>
      </trkpt>
      <trkpt lat="46.62932" lon="6.07687">
        <ele>1155.3</ele>
        <time>2021-07-09T12:31:37Z</time>
      </trkpt>
      <trkpt lat="46.62937" lon="6.07682">
        <ele>1154.7</ele>
        <time>2021-07-09T12:31:40Z</time>
      </trkpt>
      <trkpt lat="46.62939" lon="6.07669">
        <ele>1153.6</ele>
        <time>2021-07-09T12:31:55Z</time>
      </trkpt>
      <trkpt lat="46.62934" lon="6.07661">
        <ele>1153.5</ele>
        <time>2021-07-09T12:31:58Z</time>
      </trkpt>
      <trkpt lat="46.62934" lon="6.07651">
        <ele>1151.8</ele>
        <time>2021-07-09T12:42:22Z</time>
      </trkpt>
      <trkpt lat="46.62939" lon="6.07651">
        <ele>1150.4</ele>
        <time>2021-07-09T12:42:56Z</time>
      </trkpt>
      <trkpt lat="46.62936" lon="6.07645">
        <ele>1149.5</ele>
        <time>2021-07-09T12:43:11Z</time>
      </trkpt>
      <trkpt lat="46.62932" lon="6.07643">
        <ele>1149.5</ele>
        <time>2021-07-09T12:43:14Z</time>
      </trkpt>
      <trkpt lat="46.62926" lon="6.07642">
        <ele>1149.5</ele>
        <time>2021-07-09T12:43:18Z</time>
      </trkpt>
      <trkpt lat="46.62921" lon="6.07643">
        <ele>1149.5</ele>
        <time>2021-07-09T12:43:21Z</time>
      </trkpt>
      <trkpt lat="46.62919" lon="6.0765">
        <ele>1148.4</ele>
        <time>2021-07-09T12:43:34Z</time>
      </trkpt>
      <trkpt lat="46.62919" lon="6.07658">
        <ele>1147.5</ele>
        <time>2021-07-09T12:43:37Z</time>
      </trkpt>
      <trkpt lat="46.62925" lon="6.07656">
        <ele>1145.5</ele>
        <time>2021-07-09T12:44:04Z</time>
      </trkpt>
      <trkpt lat="46.62928" lon="6.07653">
        <ele>1145.3</ele>
        <time>2021-07-09T12:44:10Z</time>
      </trkpt>
      <trkpt lat="46.62933" lon="6.07647">
        <ele>1145.3</ele>
        <time>2021-07-09T12:44:16Z</time>
      </trkpt>
      <trkpt lat="46.62939" lon="6.07644">
        <ele>1145</ele>
        <time>2021-07-09T12:44:19Z</time>
      </trkpt>
      <trkpt lat="46.62945" lon="6.07641">
        <ele>1143.7</ele>
        <time>2021-07-09T12:44:29Z</time>
      </trkpt>
      <trkpt lat="46.62951" lon="6.07638">
        <ele>1142.6</ele>
        <time>2021-07-09T12:44:32Z</time>
      </trkpt>
      <trkpt lat="46.62951" lon="6.0763">
        <ele>1140.5</ele>
        <time>2021-07-09T12:44:42Z</time>
      </trkpt>
      <trkpt lat="46.62951" lon="6.07623">
        <ele>1139.7</ele>
        <time>2021-07-09T12:44:46Z</time>
      </trkpt>
      <trkpt lat="46.62954" lon="6.07617">
        <ele>1138.2</ele>
        <time>2021-07-09T12:45:16Z</time>
      </trkpt>
      <trkpt lat="46.62958" lon="6.07611">
        <ele>1137.5</ele>
        <time>2021-07-09T12:45:19Z</time>
      </trkpt>
      <trkpt lat="46.62961" lon="6.07601">
        <ele>1135.8</ele>
        <time>2021-07-09T12:45:28Z</time>
      </trkpt>
      <trkpt lat="46.62963" lon="6.07594">
        <ele>1135.1</ele>
        <time>2021-07-09T12:45:31Z</time>
      </trkpt>
      <trkpt lat="46.62964" lon="6.07584">
        <ele>1133.4</ele>
        <time>2021-07-09T12:45:44Z</time>
      </trkpt>
      <trkpt lat="46.62966" lon="6.07576">
        <ele>1132.9</ele>
        <time>2021-07-09T12:45:47Z</time>
      </trkpt>
      <trkpt lat="46.6297" lon="6.07571">
        <ele>1132.2</ele>
        <time>2021-07-09T12:45:51Z</time>
      </trkpt>
      <trkpt lat="46.62972" lon="6.07565">
        <ele>1131.6</ele>
        <time>2021-07-09T12:45:55Z</time>
      </trkpt>
      <trkpt lat="46.62975" lon="6.07557">
        <ele>1130.8</ele>
        <time>2021-07-09T12:46:07Z</time>
      </trkpt>
      <trkpt lat="46.62977" lon="6.07551">
        <ele>1130.7</ele>
        <time>2021-07-09T12:46:10Z</time>
      </trkpt>
      <trkpt lat="46.62977" lon="6.07545">
        <ele>1130.4</ele>
        <time>2021-07-09T12:46:19Z</time>
      </trkpt>
      <trkpt lat="46.6298" lon="6.07534">
        <ele>1130.9</ele>
        <time>2021-07-09T12:46:38Z</time>
      </trkpt>
      <trkpt lat="46.62981" lon="6.07527">
        <ele>1131.1</ele>
        <time>2021-07-09T12:46:41Z</time>
      </trkpt>
      <trkpt lat="46.62984" lon="6.07519">
        <ele>1131</ele>
        <time>2021-07-09T12:46:58Z</time>
      </trkpt>
      <trkpt lat="46.62988" lon="6.07513">
        <ele>1130.5</ele>
        <time>2021-07-09T12:47:01Z</time>
      </trkpt>
      <trkpt lat="46.62991" lon="6.07507">
        <ele>1129.8</ele>
        <time>2021-07-09T12:47:08Z</time>
      </trkpt>
      <trkpt lat="46.62994" lon="6.075">
        <ele>1129.3</ele>
        <time>2021-07-09T12:47:11Z</time>
      </trkpt>
      <trkpt lat="46.62999" lon="6.07492">
        <ele>1128.3</ele>
        <time>2021-07-09T12:47:20Z</time>
      </trkpt>
      <trkpt lat="46.63002" lon="6.07486">
        <ele>1127.8</ele>
        <time>2021-07-09T12:47:23Z</time>
      </trkpt>
      <trkpt lat="46.63005" lon="6.07479">
        <ele>1127.5</ele>
        <time>2021-07-09T12:47:27Z</time>
      </trkpt>
      <trkpt lat="46.63041" lon="6.07431">
        <ele>1138.9</ele>
        <time>2021-07-09T12:47:47Z</time>
      </trkpt>
      <trkpt lat="46.63036" lon="6.07429">
        <ele>1142.4</ele>
        <time>2021-07-09T12:47:51Z</time>
      </trkpt>
      <trkpt lat="46.63034" lon="6.07422">
        <ele>1144.8</ele>
        <time>2021-07-09T12:48:01Z</time>
      </trkpt>
      <trkpt lat="46.63034" lon="6.07415">
        <ele>1144.3</ele>
        <time>2021-07-09T12:48:05Z</time>
      </trkpt>
      <trkpt lat="46.63034" lon="6.07405">
        <ele>1137.5</ele>
        <time>2021-07-09T12:48:41Z</time>
      </trkpt>
      <trkpt lat="46.63034" lon="6.07398">
        <ele>1134</ele>
        <time>2021-07-09T12:48:45Z</time>
      </trkpt>
      <trkpt lat="46.63039" lon="6.07396">
        <ele>1128.9</ele>
        <time>2021-07-09T12:48:56Z</time>
      </trkpt>
      <trkpt lat="46.63044" lon="6.07396">
        <ele>1127.6</ele>
        <time>2021-07-09T12:49:01Z</time>
      </trkpt>
      <trkpt lat="46.63048" lon="6.07393">
        <ele>1125.2</ele>
        <time>2021-07-09T12:49:16Z</time>
      </trkpt>
      <trkpt lat="46.63052" lon="6.07388">
        <ele>1123.8</ele>
        <time>2021-07-09T12:49:20Z</time>
      </trkpt>
      <trkpt lat="46.63056" lon="6.07383">
        <ele>1121.8</ele>
        <time>2021-07-09T12:49:40Z</time>
      </trkpt>
      <trkpt lat="46.6306" lon="6.07379">
        <ele>1121.4</ele>
        <time>2021-07-09T12:49:44Z</time>
      </trkpt>
      <trkpt lat="46.63065" lon="6.07378">
        <ele>1120.7</ele>
        <time>2021-07-09T12:49:52Z</time>
      </trkpt>
      <trkpt lat="46.6307" lon="6.07378">
        <ele>1120.4</ele>
        <time>2021-07-09T12:49:55Z</time>
      </trkpt>
      <trkpt lat="46.63077" lon="6.07377">
        <ele>1119.7</ele>
        <time>2021-07-09T12:50:04Z</time>
      </trkpt>
      <trkpt lat="46.63082" lon="6.07379">
        <ele>1119.3</ele>
        <time>2021-07-09T12:50:07Z</time>
      </trkpt>
      <trkpt lat="46.6309" lon="6.07376">
        <ele>1118.3</ele>
        <time>2021-07-09T12:50:22Z</time>
      </trkpt>
      <trkpt lat="46.63095" lon="6.07373">
        <ele>1117.8</ele>
        <time>2021-07-09T12:50:25Z</time>
      </trkpt>
      <trkpt lat="46.63102" lon="6.07371">
        <ele>1116.7</ele>
        <time>2021-07-09T12:50:44Z</time>
      </trkpt>
      <trkpt lat="46.63107" lon="6.0737">
        <ele>1116.5</ele>
        <time>2021-07-09T12:50:47Z</time>
      </trkpt>
      <trkpt lat="46.63112" lon="6.07369">
        <ele>1116.1</ele>
        <time>2021-07-09T12:50:58Z</time>
      </trkpt>
      <trkpt lat="46.63118" lon="6.07368">
        <ele>1115.7</ele>
        <time>2021-07-09T12:51:05Z</time>
      </trkpt>
      <trkpt lat="46.63123" lon="6.07362">
        <ele>1115.2</ele>
        <time>2021-07-09T12:51:21Z</time>
      </trkpt>
      <trkpt lat="46.63127" lon="6.07357">
        <ele>1114.9</ele>
        <time>2021-07-09T12:51:26Z</time>
      </trkpt>
      <trkpt lat="46.6313" lon="6.0735">
        <ele>1114.4</ele>
        <time>2021-07-09T12:51:43Z</time>
      </trkpt>
      <trkpt lat="46.63134" lon="6.07347">
        <ele>1114</ele>
        <time>2021-07-09T12:51:47Z</time>
      </trkpt>
      <trkpt lat="46.63138" lon="6.07341">
        <ele>1113.2</ele>
        <time>2021-07-09T12:51:59Z</time>
      </trkpt>
      <trkpt lat="46.63141" lon="6.07336">
        <ele>1112.8</ele>
        <time>2021-07-09T12:52:02Z</time>
      </trkpt>
      <trkpt lat="46.63147" lon="6.07329">
        <ele>1111.6</ele>
        <time>2021-07-09T12:52:12Z</time>
      </trkpt>
      <trkpt lat="46.63153" lon="6.07321">
        <ele>1111</ele>
        <time>2021-07-09T12:52:15Z</time>
      </trkpt>
      <trkpt lat="46.63156" lon="6.07316">
        <ele>1110.6</ele>
        <time>2021-07-09T12:52:18Z</time>
      </trkpt>
      <trkpt lat="46.63161" lon="6.07311">
        <ele>1110</ele>
        <time>2021-07-09T12:52:25Z</time>
      </trkpt>
      <trkpt lat="46.63167" lon="6.07308">
        <ele>1109.7</ele>
        <time>2021-07-09T12:52:28Z</time>
      </trkpt>
      <trkpt lat="46.63176" lon="6.07306">
        <ele>1109.2</ele>
        <time>2021-07-09T12:52:37Z</time>
      </trkpt>
      <trkpt lat="46.63182" lon="6.07306">
        <ele>1109.1</ele>
        <time>2021-07-09T12:52:40Z</time>
      </trkpt>
      <trkpt lat="46.63189" lon="6.07307">
        <ele>1108.6</ele>
        <time>2021-07-09T12:52:56Z</time>
      </trkpt>
      <trkpt lat="46.63194" lon="6.07309">
        <ele>1108.3</ele>
        <time>2021-07-09T12:52:59Z</time>
      </trkpt>
      <trkpt lat="46.63199" lon="6.07313">
        <ele>1107.6</ele>
        <time>2021-07-09T12:53:18Z</time>
      </trkpt>
      <trkpt lat="46.63204" lon="6.07315">
        <ele>1107.4</ele>
        <time>2021-07-09T12:53:21Z</time>
      </trkpt>
      <trkpt lat="46.63211" lon="6.07323">
        <ele>1106.9</ele>
        <time>2021-07-09T12:53:36Z</time>
      </trkpt>
      <trkpt lat="46.63217" lon="6.0733">
        <ele>1106.8</ele>
        <time>2021-07-09T12:53:39Z</time>
      </trkpt>
      <trkpt lat="46.63222" lon="6.07334">
        <ele>1106.8</ele>
        <time>2021-07-09T12:53:42Z</time>
      </trkpt>
      <trkpt lat="46.63229" lon="6.07337">
        <ele>1106.7</ele>
        <time>2021-07-09T12:53:53Z</time>
      </trkpt>
      <trkpt lat="46.63236" lon="6.07339">
        <ele>1106.7</ele>
        <time>2021-07-09T12:53:56Z</time>
      </trkpt>
      <trkpt lat="46.63245" lon="6.07341">
        <ele>1106.6</ele>
        <time>2021-07-09T12:54:03Z</time>
      </trkpt>
      <trkpt lat="46.63251" lon="6.07343">
        <ele>1106.5</ele>
        <time>2021-07-09T12:54:06Z</time>
      </trkpt>
      <trkpt lat="46.63257" lon="6.07347">
        <ele>1106.1</ele>
        <time>2021-07-09T12:54:13Z</time>
      </trkpt>
      <trkpt lat="46.63261" lon="6.0735">
        <ele>1105.8</ele>
        <time>2021-07-09T12:54:16Z</time>
      </trkpt>
      <trkpt lat="46.63266" lon="6.07353">
        <ele>1105.5</ele>
        <time>2021-07-09T12:54:20Z</time>
      </trkpt>
      <trkpt lat="46.63274" lon="6.07355">
        <ele>1105.3</ele>
        <time>2021-07-09T12:54:23Z</time>
      </trkpt>
      <trkpt lat="46.63282" lon="6.07358">
        <ele>1105.1</ele>
        <time>2021-07-09T12:54:33Z</time>
      </trkpt>
      <trkpt lat="46.63288" lon="6.0736">
        <ele>1105</ele>
        <time>2021-07-09T12:54:36Z</time>
      </trkpt>
      <trkpt lat="46.63294" lon="6.07361">
        <ele>1104.7</ele>
        <time>2021-07-09T12:54:43Z</time>
      </trkpt>
      <trkpt lat="46.633" lon="6.07363">
        <ele>1104.4</ele>
        <time>2021-07-09T12:54:46Z</time>
      </trkpt>
      <trkpt lat="46.63307" lon="6.07363">
        <ele>1103.9</ele>
        <time>2021-07-09T12:54:55Z</time>
      </trkpt>
      <trkpt lat="46.63313" lon="6.07363">
        <ele>1103.6</ele>
        <time>2021-07-09T12:54:58Z</time>
      </trkpt>
      <trkpt lat="46.63318" lon="6.07367">
        <ele>1103</ele>
        <time>2021-07-09T12:55:10Z</time>
      </trkpt>
      <trkpt lat="46.63323" lon="6.07369">
        <ele>1102.7</ele>
        <time>2021-07-09T12:55:14Z</time>
      </trkpt>
      <trkpt lat="46.63327" lon="6.07364">
        <ele>1102.1</ele>
        <time>2021-07-09T12:55:52Z</time>
      </trkpt>
      <trkpt lat="46.6333" lon="6.07359">
        <ele>1101.9</ele>
        <time>2021-07-09T12:55:56Z</time>
      </trkpt>
      <trkpt lat="46.63335" lon="6.07355">
        <ele>1101.5</ele>
        <time>2021-07-09T12:56:07Z</time>
      </trkpt>
      <trkpt lat="46.63338" lon="6.07345">
        <ele>1100.4</ele>
        <time>2021-07-09T12:56:24Z</time>
      </trkpt>
      <trkpt lat="46.63336" lon="6.07339">
        <ele>1099.9</ele>
        <time>2021-07-09T12:56:27Z</time>
      </trkpt>
      <trkpt lat="46.63336" lon="6.0733">
        <ele>1098.2</ele>
        <time>2021-07-09T12:56:53Z</time>
      </trkpt>
      <trkpt lat="46.63338" lon="6.07323">
        <ele>1097.5</ele>
        <time>2021-07-09T12:56:57Z</time>
      </trkpt>
      <trkpt lat="46.63342" lon="6.07319">
        <ele>1096.6</ele>
        <time>2021-07-09T12:57:07Z</time>
      </trkpt>
      <trkpt lat="46.63346" lon="6.07314">
        <ele>1096.2</ele>
        <time>2021-07-09T12:57:10Z</time>
      </trkpt>
      <trkpt lat="46.63352" lon="6.07308">
        <ele>1095.4</ele>
        <time>2021-07-09T12:57:20Z</time>
      </trkpt>
      <trkpt lat="46.63359" lon="6.07303">
        <ele>1095.1</ele>
        <time>2021-07-09T12:57:23Z</time>
      </trkpt>
      <trkpt lat="46.63367" lon="6.07296">
        <ele>1094.3</ele>
        <time>2021-07-09T12:57:30Z</time>
      </trkpt>
      <trkpt lat="46.63374" lon="6.07291">
        <ele>1094</ele>
        <time>2021-07-09T12:57:33Z</time>
      </trkpt>
      <trkpt lat="46.63381" lon="6.07285">
        <ele>1092.8</ele>
        <time>2021-07-09T12:57:42Z</time>
      </trkpt>
      <trkpt lat="46.63385" lon="6.07281">
        <ele>1092</ele>
        <time>2021-07-09T12:57:45Z</time>
      </trkpt>
      <trkpt lat="46.63388" lon="6.07273">
        <ele>1089.9</ele>
        <time>2021-07-09T12:57:58Z</time>
      </trkpt>
      <trkpt lat="46.6339" lon="6.07266">
        <ele>1089.4</ele>
        <time>2021-07-09T12:58:01Z</time>
      </trkpt>
      <trkpt lat="46.63395" lon="6.07261">
        <ele>1088.1</ele>
        <time>2021-07-09T12:58:11Z</time>
      </trkpt>
      <trkpt lat="46.634" lon="6.07256">
        <ele>1087.6</ele>
        <time>2021-07-09T12:58:14Z</time>
      </trkpt>
      <trkpt lat="46.63404" lon="6.07247">
        <ele>1086.3</ele>
        <time>2021-07-09T12:58:25Z</time>
      </trkpt>
      <trkpt lat="46.63407" lon="6.07239">
        <ele>1085.3</ele>
        <time>2021-07-09T12:58:28Z</time>
      </trkpt>
      <trkpt lat="46.63411" lon="6.07231">
        <ele>1083.7</ele>
        <time>2021-07-09T12:58:34Z</time>
      </trkpt>
      <trkpt lat="46.63414" lon="6.07224">
        <ele>1082.8</ele>
        <time>2021-07-09T12:58:37Z</time>
      </trkpt>
      <trkpt lat="46.63414" lon="6.07215">
        <ele>1080.2</ele>
        <time>2021-07-09T12:58:50Z</time>
      </trkpt>
      <trkpt lat="46.63411" lon="6.07208">
        <ele>1078.7</ele>
        <time>2021-07-09T12:58:53Z</time>
      </trkpt>
      <trkpt lat="46.6341" lon="6.07198">
        <ele>1074.5</ele>
        <time>2021-07-09T12:59:09Z</time>
      </trkpt>
      <trkpt lat="46.63409" lon="6.07192">
        <ele>1073</ele>
        <time>2021-07-09T12:59:12Z</time>
      </trkpt>
      <trkpt lat="46.63412" lon="6.07184">
        <ele>1069.4</ele>
        <time>2021-07-09T12:59:28Z</time>
      </trkpt>
      <trkpt lat="46.63416" lon="6.07179">
        <ele>1068.6</ele>
        <time>2021-07-09T12:59:31Z</time>
      </trkpt>
      <trkpt lat="46.63422" lon="6.07173">
        <ele>1067.7</ele>
        <time>2021-07-09T12:59:41Z</time>
      </trkpt>
      <trkpt lat="46.63425" lon="6.07169">
        <ele>1067.7</ele>
        <time>2021-07-09T12:59:46Z</time>
      </trkpt>
      <trkpt lat="46.63423" lon="6.07163">
        <ele>1069.1</ele>
        <time>2021-07-09T13:00:20Z</time>
      </trkpt>
      <trkpt lat="46.63421" lon="6.07158">
        <ele>1072.2</ele>
        <time>2021-07-09T13:00:31Z</time>
      </trkpt>
      <trkpt lat="46.63425" lon="6.07155">
        <ele>1072.7</ele>
        <time>2021-07-09T13:02:33Z</time>
      </trkpt>
      <trkpt lat="46.6343" lon="6.07151">
        <ele>1072.5</ele>
        <time>2021-07-09T13:02:36Z</time>
      </trkpt>
      <trkpt lat="46.63426" lon="6.07154">
        <ele>1071.3</ele>
        <time>2021-07-09T13:03:21Z</time>
      </trkpt>
      <trkpt lat="46.6342" lon="6.07157">
        <ele>1069.4</ele>
        <time>2021-07-09T13:04:01Z</time>
      </trkpt>
      <trkpt lat="46.63425" lon="6.07158">
        <ele>1070</ele>
        <time>2021-07-09T13:05:10Z</time>
      </trkpt>
      <trkpt lat="46.63431" lon="6.07159">
        <ele>1072.3</ele>
        <time>2021-07-09T13:05:55Z</time>
      </trkpt>
      <trkpt lat="46.63437" lon="6.0716">
        <ele>1072.6</ele>
        <time>2021-07-09T13:05:58Z</time>
      </trkpt>
      <trkpt lat="46.63443" lon="6.07159">
        <ele>1073</ele>
        <time>2021-07-09T13:06:03Z</time>
      </trkpt>
      <trkpt lat="46.63448" lon="6.07158">
        <ele>1073.2</ele>
        <time>2021-07-09T13:06:07Z</time>
      </trkpt>
      <trkpt lat="46.63453" lon="6.07157">
        <ele>1073.4</ele>
        <time>2021-07-09T13:06:11Z</time>
      </trkpt>
      <trkpt lat="46.63459" lon="6.07155">
        <ele>1073.7</ele>
        <time>2021-07-09T13:06:17Z</time>
      </trkpt>
      <trkpt lat="46.63464" lon="6.07155">
        <ele>1073.9</ele>
        <time>2021-07-09T13:06:20Z</time>
      </trkpt>
      <trkpt lat="46.6347" lon="6.07153">
        <ele>1074.1</ele>
        <time>2021-07-09T13:06:25Z</time>
      </trkpt>
      <trkpt lat="46.63474" lon="6.07151">
        <ele>1073.8</ele>
        <time>2021-07-09T13:06:40Z</time>
      </trkpt>
      <trkpt lat="46.63479" lon="6.07151">
        <ele>1073.6</ele>
        <time>2021-07-09T13:06:43Z</time>
      </trkpt>
      <trkpt lat="46.63487" lon="6.0715">
        <ele>1073.6</ele>
        <time>2021-07-09T13:06:46Z</time>
      </trkpt>
      <trkpt lat="46.63492" lon="6.07149">
        <ele>1073.5</ele>
        <time>2021-07-09T13:06:50Z</time>
      </trkpt>
      <trkpt lat="46.63497" lon="6.07148">
        <ele>1073.7</ele>
        <time>2021-07-09T13:06:53Z</time>
      </trkpt>
      <trkpt lat="46.63502" lon="6.07149">
        <ele>1073.7</ele>
        <time>2021-07-09T13:06:57Z</time>
      </trkpt>
      <trkpt lat="46.63507" lon="6.07149">
        <ele>1073.8</ele>
        <time>2021-07-09T13:07:03Z</time>
      </trkpt>
      <trkpt lat="46.63512" lon="6.07149">
        <ele>1073.2</ele>
        <time>2021-07-09T13:07:09Z</time>
      </trkpt>
      <trkpt lat="46.63516" lon="6.07148">
        <ele>1072.5</ele>
        <time>2021-07-09T13:07:14Z</time>
      </trkpt>
      <trkpt lat="46.63521" lon="6.07149">
        <ele>1071.9</ele>
        <time>2021-07-09T13:07:21Z</time>
      </trkpt>
      <trkpt lat="46.63527" lon="6.07149">
        <ele>1071.4</ele>
        <time>2021-07-09T13:07:26Z</time>
      </trkpt>
      <trkpt lat="46.63533" lon="6.07154">
        <ele>1070.2</ele>
        <time>2021-07-09T13:07:37Z</time>
      </trkpt>
      <trkpt lat="46.63537" lon="6.07157">
        <ele>1069.9</ele>
        <time>2021-07-09T13:07:40Z</time>
      </trkpt>
      <trkpt lat="46.63542" lon="6.07161">
        <ele>1068.5</ele>
        <time>2021-07-09T13:07:50Z</time>
      </trkpt>
      <trkpt lat="46.63546" lon="6.07166">
        <ele>1067.5</ele>
        <time>2021-07-09T13:07:53Z</time>
      </trkpt>
      <trkpt lat="46.63549" lon="6.07172">
        <ele>1065.9</ele>
        <time>2021-07-09T13:07:58Z</time>
      </trkpt>
      <trkpt lat="46.63552" lon="6.07179">
        <ele>1064.2</ele>
        <time>2021-07-09T13:08:05Z</time>
      </trkpt>
      <trkpt lat="46.63556" lon="6.07186">
        <ele>1063.1</ele>
        <time>2021-07-09T13:08:08Z</time>
      </trkpt>
      <trkpt lat="46.63559" lon="6.07192">
        <ele>1061.9</ele>
        <time>2021-07-09T13:08:12Z</time>
      </trkpt>
      <trkpt lat="46.63563" lon="6.07197">
        <ele>1060.9</ele>
        <time>2021-07-09T13:08:16Z</time>
      </trkpt>
      <trkpt lat="46.63568" lon="6.07201">
        <ele>1060.2</ele>
        <time>2021-07-09T13:08:21Z</time>
      </trkpt>
      <trkpt lat="46.63572" lon="6.07203">
        <ele>1059.8</ele>
        <time>2021-07-09T13:08:28Z</time>
      </trkpt>
      <trkpt lat="46.63577" lon="6.07204">
        <ele>1059.7</ele>
        <time>2021-07-09T13:08:34Z</time>
      </trkpt>
      <trkpt lat="46.63583" lon="6.07204">
        <ele>1059.9</ele>
        <time>2021-07-09T13:08:37Z</time>
      </trkpt>
      <trkpt lat="46.63591" lon="6.072">
        <ele>1060.3</ele>
        <time>2021-07-09T13:08:47Z</time>
      </trkpt>
      <trkpt lat="46.63596" lon="6.07196">
        <ele>1060.3</ele>
        <time>2021-07-09T13:08:50Z</time>
      </trkpt>
      <trkpt lat="46.63603" lon="6.07189">
        <ele>1061</ele>
        <time>2021-07-09T13:09:04Z</time>
      </trkpt>
      <trkpt lat="46.63608" lon="6.07184">
        <ele>1061.8</ele>
        <time>2021-07-09T13:09:07Z</time>
      </trkpt>
      <trkpt lat="46.63615" lon="6.07178">
        <ele>1062.9</ele>
        <time>2021-07-09T13:09:15Z</time>
      </trkpt>
      <trkpt lat="46.63619" lon="6.07174">
        <ele>1063.3</ele>
        <time>2021-07-09T13:09:18Z</time>
      </trkpt>
      <trkpt lat="46.63625" lon="6.07167">
        <ele>1063.8</ele>
        <time>2021-07-09T13:09:28Z</time>
      </trkpt>
      <trkpt lat="46.6363" lon="6.07163">
        <ele>1063.7</ele>
        <time>2021-07-09T13:09:31Z</time>
      </trkpt>
      <trkpt lat="46.63637" lon="6.07159">
        <ele>1063.3</ele>
        <time>2021-07-09T13:09:39Z</time>
      </trkpt>
      <trkpt lat="46.63642" lon="6.07155">
        <ele>1063</ele>
        <time>2021-07-09T13:09:42Z</time>
      </trkpt>
      <trkpt lat="46.63645" lon="6.07145">
        <ele>1062</ele>
        <time>2021-07-09T13:09:55Z</time>
      </trkpt>
      <trkpt lat="46.63646" lon="6.07138">
        <ele>1061.6</ele>
        <time>2021-07-09T13:09:59Z</time>
      </trkpt>
      <trkpt lat="46.63651" lon="6.07135">
        <ele>1060.4</ele>
        <time>2021-07-09T13:10:19Z</time>
      </trkpt>
      <trkpt lat="46.63656" lon="6.07133">
        <ele>1059.6</ele>
        <time>2021-07-09T13:10:22Z</time>
      </trkpt>
      <trkpt lat="46.63662" lon="6.07128">
        <ele>1058.5</ele>
        <time>2021-07-09T13:10:49Z</time>
      </trkpt>
      <trkpt lat="46.63666" lon="6.07123">
        <ele>1059.1</ele>
        <time>2021-07-09T13:10:52Z</time>
      </trkpt>
      <trkpt lat="46.63671" lon="6.07117">
        <ele>1060.4</ele>
        <time>2021-07-09T13:11:06Z</time>
      </trkpt>
      <trkpt lat="46.63675" lon="6.07112">
        <ele>1060.5</ele>
        <time>2021-07-09T13:11:09Z</time>
      </trkpt>
      <trkpt lat="46.63679" lon="6.07105">
        <ele>1059.4</ele>
        <time>2021-07-09T13:11:28Z</time>
      </trkpt>
      <trkpt lat="46.63683" lon="6.07099">
        <ele>1058.2</ele>
        <time>2021-07-09T13:11:31Z</time>
      </trkpt>
      <trkpt lat="46.63689" lon="6.07095">
        <ele>1056.1</ele>
        <time>2021-07-09T13:11:52Z</time>
      </trkpt>
      <trkpt lat="46.63694" lon="6.07093">
        <ele>1056.2</ele>
        <time>2021-07-09T13:11:55Z</time>
      </trkpt>
      <trkpt lat="46.63701" lon="6.07091">
        <ele>1056.5</ele>
        <time>2021-07-09T13:12:06Z</time>
      </trkpt>
      <trkpt lat="46.63705" lon="6.07088">
        <ele>1056.5</ele>
        <time>2021-07-09T13:12:09Z</time>
      </trkpt>
      <trkpt lat="46.63712" lon="6.07085">
        <ele>1056.4</ele>
        <time>2021-07-09T13:12:17Z</time>
      </trkpt>
      <trkpt lat="46.63719" lon="6.07085">
        <ele>1056.1</ele>
        <time>2021-07-09T13:12:20Z</time>
      </trkpt>
      <trkpt lat="46.63726" lon="6.07088">
        <ele>1055.6</ele>
        <time>2021-07-09T13:12:26Z</time>
      </trkpt>
      <trkpt lat="46.6373" lon="6.07091">
        <ele>1055.3</ele>
        <time>2021-07-09T13:12:29Z</time>
      </trkpt>
      <trkpt lat="46.63736" lon="6.07096">
        <ele>1054.6</ele>
        <time>2021-07-09T13:12:42Z</time>
      </trkpt>
      <trkpt lat="46.6374" lon="6.071">
        <ele>1054.4</ele>
        <time>2021-07-09T13:12:45Z</time>
      </trkpt>
      <trkpt lat="46.63746" lon="6.07105">
        <ele>1054.3</ele>
        <time>2021-07-09T13:12:54Z</time>
      </trkpt>
      <trkpt lat="46.6375" lon="6.07109">
        <ele>1054.5</ele>
        <time>2021-07-09T13:12:57Z</time>
      </trkpt>
      <trkpt lat="46.63755" lon="6.07112">
        <ele>1055</ele>
        <time>2021-07-09T13:13:12Z</time>
      </trkpt>
      <trkpt lat="46.63761" lon="6.07119">
        <ele>1053.4</ele>
        <time>2021-07-09T13:13:28Z</time>
      </trkpt>
      <trkpt lat="46.63766" lon="6.07125">
        <ele>1052.6</ele>
        <time>2021-07-09T13:13:31Z</time>
      </trkpt>
      <trkpt lat="46.63772" lon="6.0713">
        <ele>1051</ele>
        <time>2021-07-09T13:13:39Z</time>
      </trkpt>
      <trkpt lat="46.63777" lon="6.07134">
        <ele>1050.6</ele>
        <time>2021-07-09T13:13:42Z</time>
      </trkpt>
      <trkpt lat="46.63781" lon="6.07141">
        <ele>1049.5</ele>
        <time>2021-07-09T13:13:52Z</time>
      </trkpt>
      <trkpt lat="46.63782" lon="6.07148">
        <ele>1048.9</ele>
        <time>2021-07-09T13:13:55Z</time>
      </trkpt>
      <trkpt lat="46.63785" lon="6.07157">
        <ele>1047.4</ele>
        <time>2021-07-09T13:14:06Z</time>
      </trkpt>
      <trkpt lat="46.63788" lon="6.07164">
        <ele>1046.6</ele>
        <time>2021-07-09T13:14:09Z</time>
      </trkpt>
      <trkpt lat="46.63792" lon="6.07172">
        <ele>1044.4</ele>
        <time>2021-07-09T13:14:21Z</time>
      </trkpt>
      <trkpt lat="46.63794" lon="6.07178">
        <ele>1043.4</ele>
        <time>2021-07-09T13:14:24Z</time>
      </trkpt>
      <trkpt lat="46.63797" lon="6.07183">
        <ele>1042</ele>
        <time>2021-07-09T13:14:29Z</time>
      </trkpt>
      <trkpt lat="46.63799" lon="6.07189">
        <ele>1040.7</ele>
        <time>2021-07-09T13:14:36Z</time>
      </trkpt>
      <trkpt lat="46.63803" lon="6.07194">
        <ele>1039.8</ele>
        <time>2021-07-09T13:14:41Z</time>
      </trkpt>
      <trkpt lat="46.63808" lon="6.07199">
        <ele>1039.1</ele>
        <time>2021-07-09T13:14:44Z</time>
      </trkpt>
      <trkpt lat="46.63812" lon="6.07207">
        <ele>1037.6</ele>
        <time>2021-07-09T13:14:52Z</time>
      </trkpt>
      <trkpt lat="46.63814" lon="6.07217">
        <ele>1037</ele>
        <time>2021-07-09T13:14:55Z</time>
      </trkpt>
      <trkpt lat="46.63819" lon="6.07226">
        <ele>1035.7</ele>
        <time>2021-07-09T13:15:04Z</time>
      </trkpt>
      <trkpt lat="46.63822" lon="6.07231">
        <ele>1035.2</ele>
        <time>2021-07-09T13:15:08Z</time>
      </trkpt>
      <trkpt lat="46.63822" lon="6.07239">
        <ele>1034.5</ele>
        <time>2021-07-09T13:15:17Z</time>
      </trkpt>
      <trkpt lat="46.63823" lon="6.07249">
        <ele>1033.6</ele>
        <time>2021-07-09T13:15:29Z</time>
      </trkpt>
      <trkpt lat="46.63823" lon="6.07257">
        <ele>1033.2</ele>
        <time>2021-07-09T13:15:32Z</time>
      </trkpt>
      <trkpt lat="46.63824" lon="6.07266">
        <ele>1032</ele>
        <time>2021-07-09T13:15:41Z</time>
      </trkpt>
      <trkpt lat="46.63823" lon="6.07274">
        <ele>1031.4</ele>
        <time>2021-07-09T13:15:44Z</time>
      </trkpt>
      <trkpt lat="46.63823" lon="6.07284">
        <ele>1029.5</ele>
        <time>2021-07-09T13:16:05Z</time>
      </trkpt>
      <trkpt lat="46.63822" lon="6.0729">
        <ele>1028.7</ele>
        <time>2021-07-09T13:16:09Z</time>
      </trkpt>
      <trkpt lat="46.63822" lon="6.07299">
        <ele>1026.9</ele>
        <time>2021-07-09T13:16:28Z</time>
      </trkpt>
      <trkpt lat="46.63823" lon="6.07309">
        <ele>1026.1</ele>
        <time>2021-07-09T13:16:31Z</time>
      </trkpt>
      <trkpt lat="46.63826" lon="6.07319">
        <ele>1024.4</ele>
        <time>2021-07-09T13:16:40Z</time>
      </trkpt>
      <trkpt lat="46.63828" lon="6.07326">
        <ele>1023.7</ele>
        <time>2021-07-09T13:16:43Z</time>
      </trkpt>
      <trkpt lat="46.63829" lon="6.07338">
        <ele>1022.4</ele>
        <time>2021-07-09T13:16:57Z</time>
      </trkpt>
      <trkpt lat="46.63829" lon="6.07345">
        <ele>1022.3</ele>
        <time>2021-07-09T13:17:00Z</time>
      </trkpt>
      <trkpt lat="46.6383" lon="6.07354">
        <ele>1022</ele>
        <time>2021-07-09T13:17:11Z</time>
      </trkpt>
      <trkpt lat="46.63832" lon="6.07362">
        <ele>1022</ele>
        <time>2021-07-09T13:17:14Z</time>
      </trkpt>
      <trkpt lat="46.63835" lon="6.07371">
        <ele>1021.9</ele>
        <time>2021-07-09T13:17:23Z</time>
      </trkpt>
      <trkpt lat="46.63839" lon="6.07381">
        <ele>1021.8</ele>
        <time>2021-07-09T13:17:26Z</time>
      </trkpt>
      <trkpt lat="46.63841" lon="6.07396">
        <ele>1021.7</ele>
        <time>2021-07-09T13:17:29Z</time>
      </trkpt>
      <trkpt lat="46.63842" lon="6.07406">
        <ele>1021.5</ele>
        <time>2021-07-09T13:17:32Z</time>
      </trkpt>
      <trkpt lat="46.63843" lon="6.07414">
        <ele>1021.5</ele>
        <time>2021-07-09T13:17:35Z</time>
      </trkpt>
      <trkpt lat="46.63847" lon="6.07424">
        <ele>1021.3</ele>
        <time>2021-07-09T13:17:43Z</time>
      </trkpt>
      <trkpt lat="46.63851" lon="6.07431">
        <ele>1021.2</ele>
        <time>2021-07-09T13:17:46Z</time>
      </trkpt>
      <trkpt lat="46.63857" lon="6.07441">
        <ele>1020.5</ele>
        <time>2021-07-09T13:17:53Z</time>
      </trkpt>
      <trkpt lat="46.63861" lon="6.07447">
        <ele>1019.9</ele>
        <time>2021-07-09T13:17:56Z</time>
      </trkpt>
      <trkpt lat="46.63863" lon="6.07453">
        <ele>1018.7</ele>
        <time>2021-07-09T13:18:01Z</time>
      </trkpt>
      <trkpt lat="46.63866" lon="6.07465">
        <ele>1016.5</ele>
        <time>2021-07-09T13:18:14Z</time>
      </trkpt>
      <trkpt lat="46.63866" lon="6.07473">
        <ele>1016</ele>
        <time>2021-07-09T13:18:17Z</time>
      </trkpt>
      <trkpt lat="46.6387" lon="6.0748">
        <ele>1015</ele>
        <time>2021-07-09T13:18:24Z</time>
      </trkpt>
      <trkpt lat="46.63874" lon="6.07485">
        <ele>1014.4</ele>
        <time>2021-07-09T13:18:27Z</time>
      </trkpt>
      <trkpt lat="46.63878" lon="6.07495">
        <ele>1012.9</ele>
        <time>2021-07-09T13:18:40Z</time>
      </trkpt>
      <trkpt lat="46.6388" lon="6.07502">
        <ele>1012.2</ele>
        <time>2021-07-09T13:18:44Z</time>
      </trkpt>
      <trkpt lat="46.63884" lon="6.07505">
        <ele>1011.9</ele>
        <time>2021-07-09T13:18:47Z</time>
      </trkpt>
      <trkpt lat="46.63894" lon="6.07508">
        <ele>1012.2</ele>
        <time>2021-07-09T13:18:55Z</time>
      </trkpt>
      <trkpt lat="46.639" lon="6.0751">
        <ele>1012.9</ele>
        <time>2021-07-09T13:18:58Z</time>
      </trkpt>
      <trkpt lat="46.63906" lon="6.07511">
        <ele>1014.3</ele>
        <time>2021-07-09T13:19:03Z</time>
      </trkpt>
      <trkpt lat="46.63912" lon="6.07509">
        <ele>1015.2</ele>
        <time>2021-07-09T13:19:06Z</time>
      </trkpt>
      <trkpt lat="46.63916" lon="6.07506">
        <ele>1016.9</ele>
        <time>2021-07-09T13:19:11Z</time>
      </trkpt>
      <trkpt lat="46.63921" lon="6.07505">
        <ele>1018.1</ele>
        <time>2021-07-09T13:19:16Z</time>
      </trkpt>
      <trkpt lat="46.63926" lon="6.07505">
        <ele>1018.2</ele>
        <time>2021-07-09T13:19:21Z</time>
      </trkpt>
      <trkpt lat="46.63931" lon="6.07504">
        <ele>1018</ele>
        <time>2021-07-09T13:19:24Z</time>
      </trkpt>
      <trkpt lat="46.63935" lon="6.07497">
        <ele>1019.1</ele>
        <time>2021-07-09T13:19:36Z</time>
      </trkpt>
      <trkpt lat="46.63937" lon="6.07488">
        <ele>1020.5</ele>
        <time>2021-07-09T13:19:39Z</time>
      </trkpt>
      <trkpt lat="46.63941" lon="6.07483">
        <ele>1021.8</ele>
        <time>2021-07-09T13:19:43Z</time>
      </trkpt>
      <trkpt lat="46.63946" lon="6.0748">
        <ele>1022.6</ele>
        <time>2021-07-09T13:19:47Z</time>
      </trkpt>
      <trkpt lat="46.63951" lon="6.07478">
        <ele>1023.1</ele>
        <time>2021-07-09T13:19:50Z</time>
      </trkpt>
      <trkpt lat="46.63958" lon="6.0747">
        <ele>1024.2</ele>
        <time>2021-07-09T13:20:00Z</time>
      </trkpt>
      <trkpt lat="46.6396" lon="6.07464">
        <ele>1024.2</ele>
        <time>2021-07-09T13:20:03Z</time>
      </trkpt>
      <trkpt lat="46.63966" lon="6.07462">
        <ele>1024</ele>
        <time>2021-07-09T13:20:11Z</time>
      </trkpt>
      <trkpt lat="46.63971" lon="6.07464">
        <ele>1023.9</ele>
        <time>2021-07-09T13:20:14Z</time>
      </trkpt>
      <trkpt lat="46.63976" lon="6.07465">
        <ele>1023.7</ele>
        <time>2021-07-09T13:20:21Z</time>
      </trkpt>
      <trkpt lat="46.63983" lon="6.07464">
        <ele>1022.6</ele>
        <time>2021-07-09T13:20:33Z</time>
      </trkpt>
      <trkpt lat="46.63988" lon="6.07467">
        <ele>1022.4</ele>
        <time>2021-07-09T13:20:36Z</time>
      </trkpt>
      <trkpt lat="46.63993" lon="6.07473">
        <ele>1022.3</ele>
        <time>2021-07-09T13:20:41Z</time>
      </trkpt>
      <trkpt lat="46.63998" lon="6.07478">
        <ele>1022.6</ele>
        <time>2021-07-09T13:20:44Z</time>
      </trkpt>
      <trkpt lat="46.64003" lon="6.07483">
        <ele>1022.8</ele>
        <time>2021-07-09T13:20:47Z</time>
      </trkpt>
      <trkpt lat="46.64008" lon="6.07488">
        <ele>1022.9</ele>
        <time>2021-07-09T13:20:50Z</time>
      </trkpt>
      <trkpt lat="46.64013" lon="6.07492">
        <ele>1023.1</ele>
        <time>2021-07-09T13:20:53Z</time>
      </trkpt>
      <trkpt lat="46.64018" lon="6.07499">
        <ele>1023.4</ele>
        <time>2021-07-09T13:21:01Z</time>
      </trkpt>
      <trkpt lat="46.64023" lon="6.07502">
        <ele>1023.6</ele>
        <time>2021-07-09T13:21:04Z</time>
      </trkpt>
      <trkpt lat="46.64029" lon="6.07507">
        <ele>1024.1</ele>
        <time>2021-07-09T13:21:13Z</time>
      </trkpt>
      <trkpt lat="46.64034" lon="6.0751">
        <ele>1024.2</ele>
        <time>2021-07-09T13:21:16Z</time>
      </trkpt>
      <trkpt lat="46.6404" lon="6.07514">
        <ele>1024.3</ele>
        <time>2021-07-09T13:21:23Z</time>
      </trkpt>
      <trkpt lat="46.64045" lon="6.07517">
        <ele>1024.2</ele>
        <time>2021-07-09T13:21:26Z</time>
      </trkpt>
      <trkpt lat="46.64052" lon="6.07519">
        <ele>1023.5</ele>
        <time>2021-07-09T13:21:44Z</time>
      </trkpt>
      <trkpt lat="46.64056" lon="6.07519">
        <ele>1023.2</ele>
        <time>2021-07-09T13:21:48Z</time>
      </trkpt>
      <trkpt lat="46.64061" lon="6.07516">
        <ele>1023.1</ele>
        <time>2021-07-09T13:21:53Z</time>
      </trkpt>
      <trkpt lat="46.64055" lon="6.07545">
        <ele>1026.4</ele>
        <time>2021-07-09T13:22:38Z</time>
      </trkpt>
      <trkpt lat="46.64056" lon="6.07537">
        <ele>1024.4</ele>
        <time>2021-07-09T13:23:07Z</time>
      </trkpt>
      <trkpt lat="46.64054" lon="6.07532">
        <ele>1026.4</ele>
        <time>2021-07-09T13:23:20Z</time>
      </trkpt>
      <trkpt lat="46.64058" lon="6.07534">
        <ele>1025.9</ele>
        <time>2021-07-09T13:23:31Z</time>
      </trkpt>
      <trkpt lat="46.64062" lon="6.07538">
        <ele>1025.3</ele>
        <time>2021-07-09T13:23:34Z</time>
      </trkpt>
      <trkpt lat="46.64066" lon="6.0754">
        <ele>1024.8</ele>
        <time>2021-07-09T13:23:39Z</time>
      </trkpt>
      <trkpt lat="46.64071" lon="6.07543">
        <ele>1024.8</ele>
        <time>2021-07-09T13:23:43Z</time>
      </trkpt>
      <trkpt lat="46.64076" lon="6.07547">
        <ele>1024.6</ele>
        <time>2021-07-09T13:23:49Z</time>
      </trkpt>
      <trkpt lat="46.6408" lon="6.0755">
        <ele>1024.5</ele>
        <time>2021-07-09T13:23:52Z</time>
      </trkpt>
      <trkpt lat="46.64086" lon="6.07557">
        <ele>1024</ele>
        <time>2021-07-09T13:24:00Z</time>
      </trkpt>
      <trkpt lat="46.6409" lon="6.07561">
        <ele>1023.9</ele>
        <time>2021-07-09T13:24:03Z</time>
      </trkpt>
      <trkpt lat="46.64096" lon="6.07567">
        <ele>1023.7</ele>
        <time>2021-07-09T13:24:11Z</time>
      </trkpt>
      <trkpt lat="46.64101" lon="6.07573">
        <ele>1023.5</ele>
        <time>2021-07-09T13:24:14Z</time>
      </trkpt>
      <trkpt lat="46.64106" lon="6.07581">
        <ele>1022.4</ele>
        <time>2021-07-09T13:24:26Z</time>
      </trkpt>
      <trkpt lat="46.64108" lon="6.07588">
        <ele>1021.4</ele>
        <time>2021-07-09T13:24:29Z</time>
      </trkpt>
      <trkpt lat="46.64113" lon="6.07594">
        <ele>1019.4</ele>
        <time>2021-07-09T13:24:38Z</time>
      </trkpt>
      <trkpt lat="46.64117" lon="6.07599">
        <ele>1018.7</ele>
        <time>2021-07-09T13:24:42Z</time>
      </trkpt>
      <trkpt lat="46.64122" lon="6.07604">
        <ele>1017.7</ele>
        <time>2021-07-09T13:24:52Z</time>
      </trkpt>
      <trkpt lat="46.64128" lon="6.07609">
        <ele>1017.1</ele>
        <time>2021-07-09T13:24:55Z</time>
      </trkpt>
      <trkpt lat="46.64132" lon="6.07613">
        <ele>1016.5</ele>
        <time>2021-07-09T13:24:58Z</time>
      </trkpt>
      <trkpt lat="46.64139" lon="6.0762">
        <ele>1015.2</ele>
        <time>2021-07-09T13:25:07Z</time>
      </trkpt>
      <trkpt lat="46.64143" lon="6.07624">
        <ele>1014.7</ele>
        <time>2021-07-09T13:25:10Z</time>
      </trkpt>
      <trkpt lat="46.64147" lon="6.0763">
        <ele>1014.1</ele>
        <time>2021-07-09T13:25:15Z</time>
      </trkpt>
      <trkpt lat="46.6415" lon="6.07636">
        <ele>1013.7</ele>
        <time>2021-07-09T13:25:19Z</time>
      </trkpt>
      <trkpt lat="46.64155" lon="6.07642">
        <ele>1013.2</ele>
        <time>2021-07-09T13:25:26Z</time>
      </trkpt>
      <trkpt lat="46.64161" lon="6.07648">
        <ele>1012.8</ele>
        <time>2021-07-09T13:25:29Z</time>
      </trkpt>
      <trkpt lat="46.64166" lon="6.07656">
        <ele>1011.4</ele>
        <time>2021-07-09T13:25:38Z</time>
      </trkpt>
      <trkpt lat="46.64169" lon="6.07662">
        <ele>1010.7</ele>
        <time>2021-07-09T13:25:41Z</time>
      </trkpt>
      <trkpt lat="46.64175" lon="6.07669">
        <ele>1009.2</ele>
        <time>2021-07-09T13:25:50Z</time>
      </trkpt>
      <trkpt lat="46.6418" lon="6.07675">
        <ele>1008.6</ele>
        <time>2021-07-09T13:25:53Z</time>
      </trkpt>
      <trkpt lat="46.64183" lon="6.0768">
        <ele>1008.2</ele>
        <time>2021-07-09T13:25:56Z</time>
      </trkpt>
      <trkpt lat="46.64187" lon="6.07688">
        <ele>1007.1</ele>
        <time>2021-07-09T13:26:06Z</time>
      </trkpt>
      <trkpt lat="46.6419" lon="6.07694">
        <ele>1006.7</ele>
        <time>2021-07-09T13:26:09Z</time>
      </trkpt>
      <trkpt lat="46.64195" lon="6.07703">
        <ele>1006.1</ele>
        <time>2021-07-09T13:26:18Z</time>
      </trkpt>
      <trkpt lat="46.64199" lon="6.0771">
        <ele>1005.9</ele>
        <time>2021-07-09T13:26:21Z</time>
      </trkpt>
      <trkpt lat="46.64203" lon="6.0772">
        <ele>1005.2</ele>
        <time>2021-07-09T13:26:33Z</time>
      </trkpt>
      <trkpt lat="46.64204" lon="6.07727">
        <ele>1004.9</ele>
        <time>2021-07-09T13:26:36Z</time>
      </trkpt>
      <trkpt lat="46.64207" lon="6.07736">
        <ele>1004.2</ele>
        <time>2021-07-09T13:26:46Z</time>
      </trkpt>
      <trkpt lat="46.64209" lon="6.07743">
        <ele>1003.9</ele>
        <time>2021-07-09T13:26:49Z</time>
      </trkpt>
      <trkpt lat="46.64213" lon="6.07748">
        <ele>1003.7</ele>
        <time>2021-07-09T13:26:53Z</time>
      </trkpt>
      <trkpt lat="46.64217" lon="6.07752">
        <ele>1003.6</ele>
        <time>2021-07-09T13:26:56Z</time>
      </trkpt>
      <trkpt lat="46.64219" lon="6.07758">
        <ele>1003.7</ele>
        <time>2021-07-09T13:27:00Z</time>
      </trkpt>
      <trkpt lat="46.64222" lon="6.07766">
        <ele>1004</ele>
        <time>2021-07-09T13:27:05Z</time>
      </trkpt>
      <trkpt lat="46.64224" lon="6.07771">
        <ele>1004.1</ele>
        <time>2021-07-09T13:27:08Z</time>
      </trkpt>
      <trkpt lat="46.64228" lon="6.07777">
        <ele>1004.1</ele>
        <time>2021-07-09T13:27:11Z</time>
      </trkpt>
      <trkpt lat="46.64229" lon="6.07783">
        <ele>1004</ele>
        <time>2021-07-09T13:27:15Z</time>
      </trkpt>
      <trkpt lat="46.64232" lon="6.07789">
        <ele>1004</ele>
        <time>2021-07-09T13:27:19Z</time>
      </trkpt>
      <trkpt lat="46.64234" lon="6.07795">
        <ele>1004.3</ele>
        <time>2021-07-09T13:27:23Z</time>
      </trkpt>
      <trkpt lat="46.64239" lon="6.07799">
        <ele>1004.7</ele>
        <time>2021-07-09T13:27:27Z</time>
      </trkpt>
      <trkpt lat="46.64242" lon="6.0781">
        <ele>1005.9</ele>
        <time>2021-07-09T13:27:42Z</time>
      </trkpt>
      <trkpt lat="46.64246" lon="6.07817">
        <ele>1006.3</ele>
        <time>2021-07-09T13:27:45Z</time>
      </trkpt>
      <trkpt lat="46.6425" lon="6.07826">
        <ele>1006.9</ele>
        <time>2021-07-09T13:27:55Z</time>
      </trkpt>
      <trkpt lat="46.64254" lon="6.07833">
        <ele>1007</ele>
        <time>2021-07-09T13:27:58Z</time>
      </trkpt>
      <trkpt lat="46.64256" lon="6.0784">
        <ele>1007.1</ele>
        <time>2021-07-09T13:28:02Z</time>
      </trkpt>
      <trkpt lat="46.64259" lon="6.07847">
        <ele>1007.4</ele>
        <time>2021-07-09T13:28:07Z</time>
      </trkpt>
      <trkpt lat="46.64262" lon="6.07853">
        <ele>1007.4</ele>
        <time>2021-07-09T13:28:11Z</time>
      </trkpt>
      <trkpt lat="46.64267" lon="6.07864">
        <ele>1007.4</ele>
        <time>2021-07-09T13:28:23Z</time>
      </trkpt>
      <trkpt lat="46.6427" lon="6.07871">
        <ele>1007.6</ele>
        <time>2021-07-09T13:28:26Z</time>
      </trkpt>
      <trkpt lat="46.64277" lon="6.07881">
        <ele>1008.5</ele>
        <time>2021-07-09T13:28:40Z</time>
      </trkpt>
      <trkpt lat="46.64281" lon="6.07887">
        <ele>1009</ele>
        <time>2021-07-09T13:28:43Z</time>
      </trkpt>
      <trkpt lat="46.64285" lon="6.07895">
        <ele>1009.6</ele>
        <time>2021-07-09T13:28:50Z</time>
      </trkpt>
      <trkpt lat="46.64289" lon="6.079">
        <ele>1009.5</ele>
        <time>2021-07-09T13:28:54Z</time>
      </trkpt>
      <trkpt lat="46.64293" lon="6.07906">
        <ele>1009.4</ele>
        <time>2021-07-09T13:29:02Z</time>
      </trkpt>
      <trkpt lat="46.64298" lon="6.07912">
        <ele>1009.2</ele>
        <time>2021-07-09T13:29:05Z</time>
      </trkpt>
      <trkpt lat="46.64303" lon="6.0792">
        <ele>1008.7</ele>
        <time>2021-07-09T13:29:15Z</time>
      </trkpt>
      <trkpt lat="46.64306" lon="6.07926">
        <ele>1008.4</ele>
        <time>2021-07-09T13:29:18Z</time>
      </trkpt>
      <trkpt lat="46.64311" lon="6.07933">
        <ele>1007.8</ele>
        <time>2021-07-09T13:29:25Z</time>
      </trkpt>
      <trkpt lat="46.64316" lon="6.07939">
        <ele>1007.5</ele>
        <time>2021-07-09T13:29:28Z</time>
      </trkpt>
      <trkpt lat="46.6432" lon="6.07947">
        <ele>1007.2</ele>
        <time>2021-07-09T13:29:38Z</time>
      </trkpt>
      <trkpt lat="46.64324" lon="6.07953">
        <ele>1007.2</ele>
        <time>2021-07-09T13:29:41Z</time>
      </trkpt>
      <trkpt lat="46.64328" lon="6.07959">
        <ele>1007.1</ele>
        <time>2021-07-09T13:29:46Z</time>
      </trkpt>
      <trkpt lat="46.64333" lon="6.07967">
        <ele>1006.9</ele>
        <time>2021-07-09T13:29:53Z</time>
      </trkpt>
      <trkpt lat="46.64336" lon="6.07972">
        <ele>1006.8</ele>
        <time>2021-07-09T13:29:56Z</time>
      </trkpt>
      <trkpt lat="46.64339" lon="6.07978">
        <ele>1006.6</ele>
        <time>2021-07-09T13:30:02Z</time>
      </trkpt>
      <trkpt lat="46.64342" lon="6.07984">
        <ele>1006.3</ele>
        <time>2021-07-09T13:30:06Z</time>
      </trkpt>
      <trkpt lat="46.64346" lon="6.07991">
        <ele>1006.2</ele>
        <time>2021-07-09T13:30:11Z</time>
      </trkpt>
      <trkpt lat="46.64351" lon="6.07997">
        <ele>1006.5</ele>
        <time>2021-07-09T13:30:16Z</time>
      </trkpt>
      <trkpt lat="46.64355" lon="6.08001">
        <ele>1006.7</ele>
        <time>2021-07-09T13:30:19Z</time>
      </trkpt>
      <trkpt lat="46.64359" lon="6.08005">
        <ele>1006.6</ele>
        <time>2021-07-09T13:30:23Z</time>
      </trkpt>
      <trkpt lat="46.64365" lon="6.08015">
        <ele>1007.1</ele>
        <time>2021-07-09T13:30:37Z</time>
      </trkpt>
      <trkpt lat="46.64368" lon="6.08022">
        <ele>1007.4</ele>
        <time>2021-07-09T13:30:40Z</time>
      </trkpt>
      <trkpt lat="46.64372" lon="6.08028">
        <ele>1007.6</ele>
        <time>2021-07-09T13:30:44Z</time>
      </trkpt>
      <trkpt lat="46.64375" lon="6.08034">
        <ele>1007.9</ele>
        <time>2021-07-09T13:30:48Z</time>
      </trkpt>
      <trkpt lat="46.64379" lon="6.08041">
        <ele>1008.4</ele>
        <time>2021-07-09T13:30:52Z</time>
      </trkpt>
      <trkpt lat="46.64382" lon="6.08047">
        <ele>1008.9</ele>
        <time>2021-07-09T13:30:56Z</time>
      </trkpt>
      <trkpt lat="46.64384" lon="6.08052">
        <ele>1009.5</ele>
        <time>2021-07-09T13:31:00Z</time>
      </trkpt>
      <trkpt lat="46.64388" lon="6.08062">
        <ele>1010.4</ele>
        <time>2021-07-09T13:31:11Z</time>
      </trkpt>
      <trkpt lat="46.6439" lon="6.08068">
        <ele>1010.6</ele>
        <time>2021-07-09T13:31:14Z</time>
      </trkpt>
      <trkpt lat="46.64393" lon="6.08075">
        <ele>1010.7</ele>
        <time>2021-07-09T13:31:20Z</time>
      </trkpt>
      <trkpt lat="46.64397" lon="6.0808">
        <ele>1011</ele>
        <time>2021-07-09T13:31:24Z</time>
      </trkpt>
      <trkpt lat="46.644" lon="6.08085">
        <ele>1011.5</ele>
        <time>2021-07-09T13:31:28Z</time>
      </trkpt>
      <trkpt lat="46.64404" lon="6.0809">
        <ele>1012</ele>
        <time>2021-07-09T13:31:32Z</time>
      </trkpt>
      <trkpt lat="46.64408" lon="6.08094">
        <ele>1012.5</ele>
        <time>2021-07-09T13:31:36Z</time>
      </trkpt>
      <trkpt lat="46.64413" lon="6.08096">
        <ele>1012.8</ele>
        <time>2021-07-09T13:31:40Z</time>
      </trkpt>
      <trkpt lat="46.64418" lon="6.081">
        <ele>1013</ele>
        <time>2021-07-09T13:31:44Z</time>
      </trkpt>
      <trkpt lat="46.64422" lon="6.08104">
        <ele>1013.4</ele>
        <time>2021-07-09T13:31:49Z</time>
      </trkpt>
      <trkpt lat="46.64428" lon="6.08107">
        <ele>1013.5</ele>
        <time>2021-07-09T13:31:59Z</time>
      </trkpt>
      <trkpt lat="46.64432" lon="6.08111">
        <ele>1013.5</ele>
        <time>2021-07-09T13:32:02Z</time>
      </trkpt>
      <trkpt lat="46.64438" lon="6.08114">
        <ele>1013.6</ele>
        <time>2021-07-09T13:32:06Z</time>
      </trkpt>
      <trkpt lat="46.64442" lon="6.08116">
        <ele>1013.6</ele>
        <time>2021-07-09T13:32:09Z</time>
      </trkpt>
      <trkpt lat="46.64446" lon="6.0812">
        <ele>1013.6</ele>
        <time>2021-07-09T13:32:13Z</time>
      </trkpt>
      <trkpt lat="46.6445" lon="6.08125">
        <ele>1013.4</ele>
        <time>2021-07-09T13:32:17Z</time>
      </trkpt>
      <trkpt lat="46.64454" lon="6.08128">
        <ele>1013.4</ele>
        <time>2021-07-09T13:32:21Z</time>
      </trkpt>
      <trkpt lat="46.64458" lon="6.08131">
        <ele>1013.6</ele>
        <time>2021-07-09T13:32:26Z</time>
      </trkpt>
      <trkpt lat="46.64463" lon="6.08135">
        <ele>1013.7</ele>
        <time>2021-07-09T13:32:31Z</time>
      </trkpt>
      <trkpt lat="46.64468" lon="6.08138">
        <ele>1013.7</ele>
        <time>2021-07-09T13:32:36Z</time>
      </trkpt>
      <trkpt lat="46.64472" lon="6.08142">
        <ele>1013.5</ele>
        <time>2021-07-09T13:32:41Z</time>
      </trkpt>
      <trkpt lat="46.64476" lon="6.08146">
        <ele>1013.2</ele>
        <time>2021-07-09T13:32:45Z</time>
      </trkpt>
      <trkpt lat="46.64481" lon="6.08149">
        <ele>1012.7</ele>
        <time>2021-07-09T13:32:50Z</time>
      </trkpt>
      <trkpt lat="46.64485" lon="6.08152">
        <ele>1012.2</ele>
        <time>2021-07-09T13:32:54Z</time>
      </trkpt>
      <trkpt lat="46.64491" lon="6.08154">
        <ele>1012.2</ele>
        <time>2021-07-09T13:32:59Z</time>
      </trkpt>
      <trkpt lat="46.64495" lon="6.08156">
        <ele>1012.6</ele>
        <time>2021-07-09T13:33:04Z</time>
      </trkpt>
      <trkpt lat="46.64499" lon="6.0816">
        <ele>1013.1</ele>
        <time>2021-07-09T13:33:09Z</time>
      </trkpt>
      <trkpt lat="46.64504" lon="6.08163">
        <ele>1013.5</ele>
        <time>2021-07-09T13:33:13Z</time>
      </trkpt>
      <trkpt lat="46.64508" lon="6.08166">
        <ele>1014.3</ele>
        <time>2021-07-09T13:33:18Z</time>
      </trkpt>
      <trkpt lat="46.64513" lon="6.08169">
        <ele>1015.1</ele>
        <time>2021-07-09T13:33:23Z</time>
      </trkpt>
      <trkpt lat="46.64518" lon="6.08171">
        <ele>1015.8</ele>
        <time>2021-07-09T13:33:27Z</time>
      </trkpt>
      <trkpt lat="46.64523" lon="6.08172">
        <ele>1016.1</ele>
        <time>2021-07-09T13:33:32Z</time>
      </trkpt>
      <trkpt lat="46.64528" lon="6.08173">
        <ele>1016.7</ele>
        <time>2021-07-09T13:33:36Z</time>
      </trkpt>
      <trkpt lat="46.64533" lon="6.08175">
        <ele>1017.3</ele>
        <time>2021-07-09T13:33:40Z</time>
      </trkpt>
      <trkpt lat="46.64538" lon="6.08176">
        <ele>1017.9</ele>
        <time>2021-07-09T13:33:45Z</time>
      </trkpt>
      <trkpt lat="46.64543" lon="6.08175">
        <ele>1018.5</ele>
        <time>2021-07-09T13:33:49Z</time>
      </trkpt>
      <trkpt lat="46.64548" lon="6.08173">
        <ele>1019.3</ele>
        <time>2021-07-09T13:33:54Z</time>
      </trkpt>
      <trkpt lat="46.64553" lon="6.08169">
        <ele>1019.3</ele>
        <time>2021-07-09T13:34:00Z</time>
      </trkpt>
      <trkpt lat="46.64557" lon="6.08166">
        <ele>1019.1</ele>
        <time>2021-07-09T13:34:05Z</time>
      </trkpt>
      <trkpt lat="46.6456" lon="6.0816">
        <ele>1018.6</ele>
        <time>2021-07-09T13:34:10Z</time>
      </trkpt>
      <trkpt lat="46.64563" lon="6.08154">
        <ele>1018</ele>
        <time>2021-07-09T13:34:15Z</time>
      </trkpt>
      <trkpt lat="46.64566" lon="6.08149">
        <ele>1017.6</ele>
        <time>2021-07-09T13:34:21Z</time>
      </trkpt>
      <trkpt lat="46.64569" lon="6.08143">
        <ele>1017.2</ele>
        <time>2021-07-09T13:34:24Z</time>
      </trkpt>
      <trkpt lat="46.64572" lon="6.08138">
        <ele>1016.8</ele>
        <time>2021-07-09T13:34:28Z</time>
      </trkpt>
      <trkpt lat="46.64574" lon="6.08131">
        <ele>1016.3</ele>
        <time>2021-07-09T13:34:33Z</time>
      </trkpt>
      <trkpt lat="46.64577" lon="6.08126">
        <ele>1015.9</ele>
        <time>2021-07-09T13:34:39Z</time>
      </trkpt>
      <trkpt lat="46.6458" lon="6.08121">
        <ele>1015.7</ele>
        <time>2021-07-09T13:34:44Z</time>
      </trkpt>
      <trkpt lat="46.64584" lon="6.08116">
        <ele>1015.6</ele>
        <time>2021-07-09T13:34:50Z</time>
      </trkpt>
      <trkpt lat="46.64588" lon="6.08113">
        <ele>1015.4</ele>
        <time>2021-07-09T13:34:57Z</time>
      </trkpt>
      <trkpt lat="46.64591" lon="6.08105">
        <ele>1015</ele>
        <time>2021-07-09T13:35:11Z</time>
      </trkpt>
      <trkpt lat="46.64593" lon="6.08099">
        <ele>1014.8</ele>
        <time>2021-07-09T13:35:15Z</time>
      </trkpt>
    </trkseg>
  </trk>
</gpx>